
Distance (Route):
Temperature : -6.7°C
Humidity : 0%
Pressure : 647.1hPa| Receiver | Frames | First received | Last received |
|---|---|---|---|
| SQ6EMJ | 239 | 2026-09-05 18:21:13 | 2026-09-05 18:53:50 |
| EDDB2-11 | 155 | 2026-09-05 16:45:38 | 2026-09-05 18:33:14 |
| EDDB2-12 | 151 | 2026-09-05 16:45:31 | 2026-09-05 18:34:09 |
| SP3WXH-11 | 127 | 2026-09-05 17:11:15 | 2026-09-05 18:44:52 |
| SONDE2-11 | 126 | 2026-09-05 16:45:38 | 2026-09-05 18:33:47 |
| DB0DAN | 125 | 2026-09-05 16:51:55 | 2026-09-05 18:13:10 |
| SP3BTT-10 | 121 | 2026-09-05 16:50:40 | 2026-09-05 18:53:07 |
| DM0DOS-11 | 86 | 2026-09-05 17:28:07 | 2026-09-05 17:44:39 |
| AA1-15 | 74 | 2026-09-05 17:14:23 | 2026-09-05 17:48:06 |
| DAC517 | 72 | 2026-09-05 16:53:01 | 2026-09-05 17:49:45 |
| DL2RXE-15 | 71 | 2026-09-05 16:52:59 | 2026-09-05 18:11:05 |
| BIOWL1-15 | 71 | 2026-09-05 17:23:35 | 2026-09-05 17:46:06 |
| 13BRC | 65 | 2026-09-05 17:21:34 | 2026-09-05 18:14:20 |
| S3001 | 63 | 2026-09-05 16:54:35 | 2026-09-05 18:04:58 |
| DB0NH | 55 | 2026-09-05 17:09:46 | 2026-09-05 18:02:35 |
| OE3JTB-15 | 45 | 2026-09-05 17:17:23 | 2026-09-05 18:43:43 |
| OE3OSB-13 | 28 | 2026-09-05 17:38:37 | 2026-09-05 18:05:01 |
| DO3MHA-11 | 24 | 2026-09-05 17:30:32 | 2026-09-05 17:43:38 |
| SONCRA | 23 | 2026-09-05 17:06:44 | 2026-09-05 17:57:27 |
| DF8AY | 18 | 2026-09-05 17:28:55 | 2026-09-05 17:37:28 |
| BIOWL9-15 | 8 | 2026-09-05 17:30:30 | 2026-09-05 17:45:00 |
| OK1SLM-15 | 7 | 2026-09-05 17:32:26 | 2026-09-05 18:02:49 |
| NBG1-10 | 2 | 2026-09-05 17:43:26 | 2026-09-05 17:48:32 |
| BIOWL7-15 | 1 | 2026-09-05 17:34:12 | 2026-09-05 17:34:12 |
| OE5MMP-10 | 1 | 2026-09-05 17:44:59 | 2026-09-05 17:44:59 |
| Receiver | Date | Latitude | Longitude | Direction | Speed | Altitude | Climb | Temperature | Humidity | Pressure | Voltage | Killtimer | Uptime | BKT | XDATA |
|---|---|---|---|---|---|---|---|---|---|---|---|---|---|---|---|
| SQ6EMJ | 2026-09-05 18:53:50 | 50.91323 | 17.83267 | 97° | 66km/h | 3729m | -1.4m/s | -6.7°C | 0% | 647.1hPa | 2.7V | 00:00:00 | 00:00:00 | 00:00:00 | |
| SQ6EMJ | 2026-09-05 18:53:45 | 50.91332 | 17.83122 | 100° | 78km/h | 3736m | -1.3m/s | -6.7°C | 0% | 646.6hPa | 2.7V | 00:00:00 | 00:00:00 | 00:00:00 | |
| SQ6EMJ | 2026-09-05 18:53:37 | 50.91360 | 17.82924 | 101° | 66km/h | 3746m | -1.3m/s | -6.8°C | 0% | 645.8hPa | 2.7V | 00:00:00 | 00:00:00 | 00:00:00 | |
| SQ6EMJ | 2026-09-05 18:53:32 | 50.91370 | 17.82758 | 95° | 75km/h | 3754m | -1.1m/s | -6.8°C | 0% | 645.1hPa | 2.7V | 00:00:00 | 00:00:00 | 00:00:00 | |
| SQ6EMJ | 2026-09-05 18:53:26 | 50.91388 | 17.82574 | 105° | 75km/h | 3760m | -0.8m/s | -6.8°C | 0% | 644.6hPa | 2.7V | 00:00:00 | 00:00:00 | 00:00:00 | |
| SP3BTT-10 | 2026-09-05 18:53:07 | 50.91440 | 17.82039 | 102° | 77km/h | 3779m | -1.6m/s | -6.8°C | 0% | 643.0hPa | 2.7V | 00:00:00 | 00:00:00 | 00:00:00 | |
| SQ6EMJ | 2026-09-05 18:52:36 | 50.91508 | 17.81156 | 95° | 78km/h | 3824m | -2.4m/s | -7.1°C | 0% | 639.3hPa | 2.7V | 00:00:00 | 00:00:00 | 00:00:00 | |
| SP3BTT-10 | 2026-09-05 18:52:07 | 50.91571 | 17.80308 | 101° | 82km/h | 3891m | -2.1m/s | -7.4°C | 0% | 633.8hPa | 2.7V | 00:00:00 | 00:00:00 | 08:30:00 | |
| SQ6EMJ | 2026-09-05 18:49:25 | 50.92322 | 17.75586 | 102° | 73km/h | 4256m | -2.6m/s | -10.5°C | 83.7% | 604.7hPa | 2.6V | 00:00:00 | 00:00:00 | 00:00:00 | |
| SQ6EMJ | 2026-09-05 18:49:18 | 50.92343 | 17.75408 | 101° | 80km/h | 4272m | -2.3m/s | -10.7°C | 84.9% | 603.3hPa | 2.6V | 00:00:00 | 00:00:00 | 00:00:00 | |
| SQ6EMJ | 2026-09-05 18:49:08 | 50.92402 | 17.75108 | 107° | 69km/h | 4295m | -1.9m/s | -10.9°C | 88.2% | 601.5hPa | 2.6V | 00:00:00 | 00:00:00 | 00:00:00 | |
| SQ6EMJ | 2026-09-05 18:48:59 | 50.92448 | 17.74821 | 108° | 75km/h | 4313m | -1.5m/s | -10.6°C | 57.8% | 600.0hPa | 2.6V | 00:00:00 | 00:00:00 | 00:00:00 | |
| SQ6EMJ | 2026-09-05 18:48:52 | 50.92475 | 17.74648 | 105° | 77km/h | 4322m | -1.1m/s | -10.8°C | 65.5% | 599.4hPa | 2.6V | 00:00:00 | 00:00:00 | 00:00:00 | |
| SQ6EMJ | 2026-09-05 18:48:47 | 50.92497 | 17.74504 | 104° | 73km/h | 4326m | -0.9m/s | -10.9°C | 63.7% | 599.0hPa | 2.6V | 00:00:00 | 00:00:00 | 00:00:00 | |
| SQ6EMJ | 2026-09-05 18:48:41 | 50.92530 | 17.74328 | 110° | 71km/h | 4332m | -0.9m/s | -10.9°C | 65.2% | 598.5hPa | 2.6V | 00:00:00 | 00:00:00 | 00:00:00 | |
| SQ6EMJ | 2026-09-05 18:48:35 | 50.92556 | 17.74162 | 105° | 75km/h | 4338m | -1.1m/s | -11.1°C | 69.0% | 598.1hPa | 2.6V | 00:00:00 | 00:00:00 | 00:00:00 | |
| SQ6EMJ | 2026-09-05 18:48:30 | 50.92592 | 17.73995 | 110° | 71km/h | 4342m | -1.3m/s | -10.9°C | 57.0% | 597.7hPa | 2.6V | 00:00:00 | 00:00:00 | 00:00:00 | |
| SQ6EMJ | 2026-09-05 18:48:25 | 50.92619 | 17.73860 | 104° | 69km/h | 4348m | -0.8m/s | -10.5°C | 34.9% | 597.3hPa | 2.6V | 00:00:00 | 00:00:00 | 00:00:00 | |
| SQ6EMJ | 2026-09-05 18:48:18 | 50.92641 | 17.73690 | 100° | 75km/h | 4363m | -3.1m/s | -10.6°C | 34.0% | 596.3hPa | 2.6V | 00:00:00 | 00:00:00 | 00:00:00 | |
| SQ6EMJ | 2026-09-05 18:48:13 | 50.92657 | 17.73538 | 101° | 82km/h | 4376m | -2.6m/s | -11.0°C | 41.1% | 595.2hPa | 2.6V | 00:00:00 | 00:00:00 | 00:00:00 | |
| SQ6EMJ | 2026-09-05 18:48:08 | 50.92678 | 17.73375 | 104° | 84km/h | 4390m | -2.7m/s | -11.5°C | 55.5% | 594.2hPa | 2.6V | 00:00:00 | 00:00:00 | 00:00:00 | |
| SQ6EMJ | 2026-09-05 18:47:57 | 50.92743 | 17.73034 | 112° | 80km/h | 4427m | -4.3m/s | -12.4°C | 61.4% | 591.3hPa | 2.6V | 00:00:00 | 00:00:00 | 00:00:00 | |
| SQ6EMJ | 2026-09-05 18:47:52 | 50.92782 | 17.72872 | 108° | 89km/h | 4448m | -3.0m/s | -12.3°C | 0% | 589.6hPa | 2.6V | 00:00:00 | 00:00:00 | 00:00:00 | |
| SQ6EMJ | 2026-09-05 18:47:45 | 50.92824 | 17.72625 | 108° | 91km/h | 4474m | -3.3m/s | -12.4°C | 0% | 587.7hPa | 2.6V | 00:00:00 | 00:00:00 | 00:00:00 | |
| SQ6EMJ | 2026-09-05 18:47:40 | 50.92857 | 17.72457 | 106° | 89km/h | 4490m | -3.7m/s | -12.5°C | 99.8% | 586.5hPa | 2.6V | 00:00:00 | 00:00:00 | 00:00:00 | |
| SQ6EMJ | 2026-09-05 18:47:35 | 50.92890 | 17.72283 | 109° | 89km/h | 4506m | -1.7m/s | -12.6°C | 0% | 585.1hPa | 2.6V | 00:00:00 | 00:00:00 | 00:00:00 | |
| SQ6EMJ | 2026-09-05 18:47:30 | 50.92930 | 17.72076 | 108° | 89km/h | 4524m | -3.1m/s | -12.7°C | 0% | 583.9hPa | 2.6V | 00:00:00 | 00:00:00 | 00:00:00 | |
| SQ6EMJ | 2026-09-05 18:47:23 | 50.92973 | 17.71867 | 110° | 93km/h | 4542m | -2.9m/s | -13.2°C | 0% | 582.5hPa | 2.6V | 00:00:00 | 00:00:00 | 00:00:00 | |
| SQ6EMJ | 2026-09-05 18:47:18 | 50.93011 | 17.71690 | 109° | 95km/h | 4556m | -2.5m/s | -13.1°C | 0% | 581.6hPa | 2.6V | 00:00:00 | 00:00:00 | 00:00:00 | |
| SQ6EMJ | 2026-09-05 18:47:12 | 50.93055 | 17.71474 | 109° | 95km/h | 4570m | -2.5m/s | -13.2°C | 0% | 580.5hPa | 2.6V | 00:00:00 | 00:00:00 | 00:00:00 | |
| SQ6EMJ | 2026-09-05 18:47:07 | 50.93092 | 17.71297 | 108° | 93km/h | 4582m | -2.5m/s | -13.4°C | 86.4% | 579.5hPa | 2.6V | 00:00:00 | 00:00:00 | 00:00:00 | |
| SQ6EMJ | 2026-09-05 18:47:02 | 50.93135 | 17.71083 | 108° | 91km/h | 4597m | -2.4m/s | -12.8°C | 38.3% | 578.3hPa | 2.6V | 00:00:00 | 00:00:00 | 00:00:00 | |
| SQ6EMJ | 2026-09-05 18:46:55 | 50.93184 | 17.70833 | 107° | 93km/h | 4613m | -2.5m/s | -12.9°C | 39.1% | 577.1hPa | 2.6V | 00:00:00 | 00:00:00 | 00:00:00 | |
| SQ6EMJ | 2026-09-05 18:46:49 | 50.93224 | 17.70614 | 107° | 95km/h | 4628m | -2.5m/s | -13.0°C | 42.7% | 576.0hPa | 2.6V | 00:00:00 | 00:00:00 | 00:00:00 | |
| SQ6EMJ | 2026-09-05 18:46:43 | 50.93259 | 17.70430 | 108° | 95km/h | 4640m | -2.4m/s | -13.1°C | 44.3% | 575.1hPa | 2.6V | 00:00:00 | 00:00:00 | 00:00:00 | |
| SQ6EMJ | 2026-09-05 18:46:38 | 50.93292 | 17.70246 | 108° | 97km/h | 4652m | -2.4m/s | -13.1°C | 39.2% | 574.3hPa | 2.6V | 00:00:00 | 00:00:00 | 00:00:00 | |
| SQ6EMJ | 2026-09-05 18:46:33 | 50.93325 | 17.70063 | 107° | 97km/h | 4664m | -2.6m/s | -13.2°C | 35.1% | 573.2hPa | 2.6V | 00:00:00 | 00:00:00 | 00:00:00 | |
| SQ6EMJ | 2026-09-05 18:46:27 | 50.93366 | 17.69842 | 106° | 97km/h | 4679m | -2.4m/s | -13.2°C | 33.3% | 572.2hPa | 2.6V | 00:00:00 | 00:00:00 | 00:00:00 | |
| SQ6EMJ | 2026-09-05 18:46:21 | 50.93407 | 17.69620 | 106° | 97km/h | 4693m | -2.5m/s | -13.2°C | 31.1% | 571.1hPa | 2.6V | 00:00:00 | 00:00:00 | 00:00:00 | |
| SQ6EMJ | 2026-09-05 18:46:16 | 50.93447 | 17.69398 | 106° | 97km/h | 4708m | -2.5m/s | -13.3°C | 31.0% | 570.0hPa | 2.6V | 00:00:00 | 00:00:00 | 00:00:00 | |
| SQ6EMJ | 2026-09-05 18:46:09 | 50.93488 | 17.69175 | 107° | 95km/h | 4722m | -2.4m/s | -13.4°C | 31.4% | 568.9hPa | 2.6V | 00:00:00 | 00:00:00 | 00:00:00 | |
| SQ6EMJ | 2026-09-05 18:46:04 | 50.93521 | 17.68990 | 108° | 95km/h | 4734m | -2.3m/s | -13.5°C | 31.7% | 568.0hPa | 2.6V | 00:00:00 | 00:00:00 | 00:00:00 | |
| SQ6EMJ | 2026-09-05 18:46:00 | 50.93553 | 17.68806 | 108° | 97km/h | 4745m | -2.3m/s | -13.6°C | 32.4% | 567.2hPa | 2.6V | 00:00:00 | 00:00:00 | 00:00:00 | |
| SQ6EMJ | 2026-09-05 18:45:53 | 50.93593 | 17.68584 | 107° | 99km/h | 4759m | -2.2m/s | -13.7°C | 33.2% | 566.2hPa | 2.6V | 00:00:00 | 00:00:00 | 00:00:00 | |
| SQ6EMJ | 2026-09-05 18:45:49 | 50.93627 | 17.68400 | 106° | 95km/h | 4771m | -2.3m/s | -13.8°C | 33.4% | 565.3hPa | 2.6V | 00:00:00 | 00:00:00 | 00:00:00 | |
| SQ6EMJ | 2026-09-05 18:45:42 | 50.93668 | 17.68179 | 107° | 95km/h | 4784m | -2.2m/s | -14.0°C | 33.9% | 564.3hPa | 2.6V | 00:00:00 | 00:00:00 | 00:00:00 | |
| SQ6EMJ | 2026-09-05 18:45:37 | 50.93709 | 17.67958 | 107° | 95km/h | 4798m | -2.4m/s | -14.1°C | 33.9% | 563.4hPa | 2.6V | 00:00:00 | 00:00:00 | 00:00:00 | |
| SQ6EMJ | 2026-09-05 18:45:23 | 50.93803 | 17.67446 | 107° | 95km/h | 4830m | -2.3m/s | -14.4°C | 34.3% | 561.0hPa | 2.6V | 00:00:00 | 00:00:00 | 00:00:00 | |
| SQ6EMJ | 2026-09-05 18:45:16 | 50.93844 | 17.67227 | 106° | 97km/h | 4844m | -2.3m/s | -14.5°C | 34.7% | 560.0hPa | 2.6V | 00:00:00 | 00:00:00 | 00:00:00 | |
| SQ6EMJ | 2026-09-05 18:45:12 | 50.93877 | 17.67043 | 107° | 93km/h | 4854m | -2.2m/s | -14.6°C | 34.7% | 559.2hPa | 2.6V | 00:00:00 | 00:00:00 | 00:00:00 | |
| SQ6EMJ | 2026-09-05 18:45:07 | 50.93910 | 17.66862 | 109° | 93km/h | 4865m | -2.4m/s | -14.7°C | 35.0% | 558.3hPa | 2.6V | 00:00:00 | 00:00:00 | 00:00:00 | |
| SP3WXH-11 | 2026-09-05 18:44:52 | 50.94028 | 17.66310 | 107° | 86km/h | 4900m | -2.3m/s | -15.1°C | 35.8% | 555.8hPa | 2.6V | 00:00:00 | 00:00:00 | 00:00:00 | |
| SQ6EMJ | 2026-09-05 18:44:49 | 50.94035 | 17.66276 | 109° | 89km/h | 4902m | -2.2m/s | -15.1°C | 35.9% | 555.6hPa | 2.6V | 00:00:00 | 00:00:00 | 00:00:00 | |
| SQ6EMJ | 2026-09-05 18:44:44 | 50.94071 | 17.66110 | 109° | 86km/h | 4913m | -1.8m/s | -15.2°C | 35.8% | 554.7hPa | 2.6V | 00:00:00 | 00:00:00 | 00:00:00 | |
| SQ6EMJ | 2026-09-05 18:44:39 | 50.94115 | 17.65915 | 111° | 84km/h | 4926m | -2.2m/s | -15.1°C | 48.3% | 553.9hPa | 2.6V | 00:00:00 | 00:00:00 | 00:00:00 | |
| SQ6EMJ | 2026-09-05 18:44:32 | 50.94161 | 17.65723 | 112° | 84km/h | 4938m | -2.0m/s | -15.1°C | 54.2% | 553.0hPa | 2.6V | 00:00:00 | 00:00:00 | 00:00:00 | |
| SQ6EMJ | 2026-09-05 18:44:27 | 50.94198 | 17.65564 | 113° | 86km/h | 4948m | -2.1m/s | -15.1°C | 56.8% | 552.3hPa | 2.6V | 00:00:00 | 00:00:00 | 00:00:00 | |
| SQ6EMJ | 2026-09-05 18:44:23 | 50.94237 | 17.65406 | 113° | 86km/h | 4958m | -2.0m/s | -15.0°C | 64.3% | 551.6hPa | 2.6V | 00:00:00 | 00:00:00 | 00:00:00 | |
| SP3WXH-11 | 2026-09-05 18:44:21 | 50.94262 | 17.65312 | 113° | 82km/h | 4964m | -2.2m/s | -15.0°C | 65.3% | 551.1hPa | 2.6V | 00:00:00 | 00:00:00 | 00:00:00 | |
| SQ6EMJ | 2026-09-05 18:44:18 | 50.94278 | 17.65251 | 112° | 82km/h | 4968m | -2.1m/s | -15.1°C | 65.8% | 550.8hPa | 2.6V | 00:00:00 | 00:00:00 | 00:00:00 | |
| SQ6EMJ | 2026-09-05 18:44:12 | 50.94317 | 17.65094 | 113° | 84km/h | 4979m | -2.3m/s | -15.0°C | 70.6% | 550.0hPa | 2.6V | 00:00:00 | 00:00:00 | 00:00:00 | |
| SQ6EMJ | 2026-09-05 18:44:07 | 50.94365 | 17.64907 | 115° | 82km/h | 4993m | -2.4m/s | -15.1°C | 73.5% | 549.0hPa | 2.6V | 00:00:00 | 00:00:00 | 00:00:00 | |
| SP3WXH-11 | 2026-09-05 18:43:50 | 50.94514 | 17.64336 | 111° | 86km/h | 5037m | -2.2m/s | -15.3°C | 76.6% | 545.8hPa | 2.6V | 00:00:00 | 00:00:00 | 00:00:00 | |
| SQ6EMJ | 2026-09-05 18:43:47 | 50.94522 | 17.64303 | 113° | 88km/h | 5040m | -2.4m/s | -15.3°C | 76.8% | 545.6hPa | 2.6V | 00:00:00 | 00:00:00 | 00:00:00 | |
| OE3JTB-15 | 2026-09-05 18:43:43 | 50.94567 | 17.64146 | 114° | 86km/h | 5051m | -2.1m/s | -15.3°C | 81.2% | 544.8hPa | 2.6V | 00:00:00 | 00:00:00 | 00:00:00 | |
| SQ6EMJ | 2026-09-05 18:43:42 | 50.94566 | 17.64146 | 114° | 84km/h | 5051m | -2.1m/s | -15.4°C | 77.9% | 544.8hPa | 2.6V | 00:00:00 | 00:00:00 | 00:00:00 | |
| SQ6EMJ | 2026-09-05 18:43:36 | 50.94619 | 17.63953 | 114° | 86km/h | 5062m | -1.9m/s | -15.4°C | 78.3% | 544.0hPa | 2.6V | 00:00:00 | 00:00:00 | 00:00:00 | |
| SQ6EMJ | 2026-09-05 18:43:31 | 50.94670 | 17.63762 | 116° | 84km/h | 5073m | -2.1m/s | -15.5°C | 78.2% | 543.2hPa | 2.6V | 00:00:00 | 00:00:00 | 00:00:00 | |
| SP3WXH-11 | 2026-09-05 18:43:19 | 50.94792 | 17.63347 | 117° | 88km/h | 5099m | -1.8m/s | -15.8°C | 80.6% | 541.3hPa | 2.6V | 00:00:00 | 00:00:00 | 00:00:00 | |
| SQ6EMJ | 2026-09-05 18:43:04 | 50.94918 | 17.62936 | 118° | 88km/h | 5124m | -2.0m/s | -15.9°C | 79.8% | 539.5hPa | 2.6V | 00:00:00 | 00:00:00 | 00:00:00 | |
| SP3WXH-11 | 2026-09-05 18:42:48 | 50.95094 | 17.62367 | 115° | 89km/h | 5160m | -2.2m/s | -16.2°C | 81.1% | 537.0hPa | 2.6V | 00:00:00 | 00:00:00 | 00:00:00 | |
| OE3JTB-15 | 2026-09-05 18:42:46 | 50.95104 | 17.62335 | 117° | 102km/h | 5162m | -2.0m/s | -16.2°C | 84.6% | 536.8hPa | 2.6V | 00:00:00 | 02:27:10 | 00:00:00 | |
| SQ6EMJ | 2026-09-05 18:42:41 | 50.95153 | 17.62176 | 118° | 89km/h | 5172m | -1.9m/s | -16.3°C | 81.0% | 536.1hPa | 2.6V | 00:00:00 | 00:00:00 | 00:00:00 | |
| SP3WXH-11 | 2026-09-05 18:42:17 | 50.95418 | 17.61379 | 118° | 89km/h | 5218m | -1.9m/s | -16.7°C | 81.9% | 532.8hPa | 2.6V | 00:00:00 | 00:00:00 | 00:00:00 | |
| SQ6EMJ | 2026-09-05 18:42:16 | 50.95419 | 17.61379 | 119° | 89km/h | 5218m | -1.9m/s | -16.7°C | 81.9% | 532.8hPa | 2.6V | 00:00:00 | 00:00:00 | 00:00:00 | |
| SQ6EMJ | 2026-09-05 18:42:10 | 50.95473 | 17.61222 | 119° | 89km/h | 5227m | -1.8m/s | -16.7°C | 79.8% | 532.2hPa | 2.6V | 00:00:00 | 00:00:00 | 00:00:00 | |
| SP3BTT-10 | 2026-09-05 18:42:06 | 50.95529 | 17.61060 | 120° | 89km/h | 5236m | -1.7m/s | -16.7°C | 82.0% | 531.6hPa | 2.6V | 00:00:00 | 00:00:00 | 00:00:00 | |
| SQ6EMJ | 2026-09-05 18:42:03 | 50.95562 | 17.60965 | 119° | 91km/h | 5241m | -1.8m/s | -16.8°C | 78.9% | 531.3hPa | 2.6V | 00:00:00 | 00:00:00 | 00:00:00 | |
| SP3WXH-11 | 2026-09-05 18:41:46 | 50.95764 | 17.60403 | 119° | 88km/h | 5279m | -2.6m/s | -17.2°C | 82.6% | 528.6hPa | 2.6V | 00:00:00 | 00:00:00 | 00:00:00 | |
| SQ6EMJ | 2026-09-05 18:41:42 | 50.95786 | 17.60340 | 120° | 89km/h | 5284m | -2.6m/s | -17.2°C | 82.2% | 528.2hPa | 2.6V | 00:00:00 | 00:00:00 | 00:00:00 | |
| SQ6EMJ | 2026-09-05 18:41:37 | 50.95853 | 17.60154 | 120° | 89km/h | 5299m | -2.5m/s | -17.3°C | 81.8% | 527.1hPa | 2.6V | 00:00:00 | 00:00:00 | 00:00:00 | |
| SP3BTT-10 | 2026-09-05 18:41:35 | 50.95876 | 17.60091 | 121° | 88km/h | 5304m | -2.4m/s | -17.2°C | 84.0% | 526.7hPa | 2.6V | 00:00:00 | 00:00:00 | 00:00:00 | |
| SQ6EMJ | 2026-09-05 18:41:32 | 50.95910 | 17.59999 | 121° | 88km/h | 5312m | -2.6m/s | -17.4°C | 82.6% | 526.3hPa | 2.6V | 00:00:00 | 00:00:00 | 00:00:00 | |
| SQ6EMJ | 2026-09-05 18:41:26 | 50.95967 | 17.59847 | 123° | 88km/h | 5325m | -2.7m/s | -17.5°C | 81.9% | 525.3hPa | 2.6V | 00:00:00 | 00:00:00 | 00:00:00 | |
| SQ6EMJ | 2026-09-05 18:41:20 | 50.96033 | 17.59667 | 121° | 86km/h | 5341m | -2.9m/s | -17.6°C | 83.0% | 524.2hPa | 2.6V | 00:00:00 | 00:00:00 | 00:00:00 | |
| SP3WXH-11 | 2026-09-05 18:41:15 | 50.96112 | 17.59455 | 122° | 86km/h | 5361m | -3.0m/s | -17.7°C | 81.1% | 522.7hPa | 2.6V | 00:00:00 | 00:00:00 | 00:00:00 | |
| SQ6EMJ | 2026-09-05 18:41:09 | 50.96157 | 17.59335 | 120° | 89km/h | 5372m | -2.9m/s | -17.8°C | 81.9% | 521.9hPa | 2.6V | 00:00:00 | 00:00:00 | 00:00:00 | |
| SP3BTT-10 | 2026-09-05 18:41:05 | 50.96211 | 17.59179 | 117° | 93km/h | 5387m | -3.0m/s | -17.9°C | 86.7% | 521.0hPa | 2.6V | 00:00:00 | 00:00:00 | 00:00:00 | |
| SQ6EMJ | 2026-09-05 18:41:03 | 50.96221 | 17.59147 | 117° | 91km/h | 5390m | -2.9m/s | -18.0°C | 83.2% | 520.7hPa | 2.6V | 00:00:00 | 00:00:00 | 00:00:00 | |
| SQ6EMJ | 2026-09-05 18:40:52 | 50.96355 | 17.58807 | 124° | 93km/h | 5420m | -3.0m/s | -18.2°C | 81.9% | 518.6hPa | 2.6V | 00:00:00 | 00:00:00 | 00:00:00 | |
| SQ6EMJ | 2026-09-05 18:40:46 | 50.96431 | 17.58612 | 121° | 95km/h | 5438m | -2.9m/s | -18.4°C | 83.2% | 517.4hPa | 2.6V | 00:00:00 | 00:00:00 | 00:00:00 | |
| SP3WXH-11 | 2026-09-05 18:40:43 | 50.96477 | 17.58480 | 118° | 91km/h | 5450m | -2.9m/s | -18.5°C | 83.9% | 516.6hPa | 2.6V | 00:00:00 | 00:00:00 | 00:00:00 | |
| SQ6EMJ | 2026-09-05 18:40:41 | 50.96498 | 17.58414 | 119° | 93km/h | 5455m | -3.0m/s | -18.5°C | 84.8% | 516.2hPa | 2.6V | 00:00:00 | 00:00:00 | 00:00:00 | |
| SQ6EMJ | 2026-09-05 18:40:35 | 50.96564 | 17.58216 | 119° | 95km/h | 5473m | -2.9m/s | -18.6°C | 83.8% | 514.9hPa | 2.6V | 00:00:00 | 00:00:00 | 00:00:00 | |
| SP3BTT-10 | 2026-09-05 18:40:30 | 50.96624 | 17.58049 | 122° | 95km/h | 5487m | -2.5m/s | -18.8°C | 89.2% | 513.9hPa | 2.6V | 00:00:00 | 00:00:00 | 00:00:00 | |
| SQ6EMJ | 2026-09-05 18:40:27 | 50.96650 | 17.57983 | 123° | 97km/h | 5492m | -2.9m/s | -18.8°C | 86.0% | 513.7hPa | 2.6V | 00:00:00 | 00:00:00 | 00:00:00 | |
| SQ6EMJ | 2026-09-05 18:40:21 | 50.96728 | 17.57786 | 122° | 99km/h | 5509m | -2.8m/s | -19.0°C | 85.9% | 512.5hPa | 2.6V | 00:00:00 | 00:00:00 | 00:00:00 | |
| SQ6EMJ | 2026-09-05 18:40:16 | 50.96792 | 17.57616 | 123° | 99km/h | 5522m | -2.6m/s | -19.1°C | 87.1% | 511.6hPa | 2.6V | 00:00:00 | 00:00:00 | 00:00:00 | |
| SP3WXH-11 | 2026-09-05 18:40:12 | 50.96858 | 17.57451 | 122° | 95km/h | 5535m | -2.5m/s | -19.3°C | 87.4% | 510.7hPa | 2.6V | 00:00:00 | 00:00:00 | 00:00:00 | |
| SQ6EMJ | 2026-09-05 18:40:10 | 50.96870 | 17.57419 | 125° | 95km/h | 5538m | -2.6m/s | -19.3°C | 87.4% | 510.5hPa | 2.6V | 00:00:00 | 00:00:00 | 00:00:00 | |
| SQ6EMJ | 2026-09-05 18:40:06 | 50.96935 | 17.57266 | 125° | 89km/h | 5551m | -2.8m/s | -19.4°C | 87.6% | 509.6hPa | 2.6V | 00:00:00 | 00:00:00 | 00:00:00 | |
| SP3BTT-10 | 2026-09-05 18:40:00 | 50.97006 | 17.57087 | 120° | 93km/h | 5567m | -2.6m/s | -19.5°C | 90.5% | 508.4hPa | 2.6V | 00:00:00 | 00:00:00 | 00:00:00 | |
| SQ6EMJ | 2026-09-05 18:39:59 | 50.97006 | 17.57087 | 120° | 86km/h | 5567m | -2.6m/s | -19.5°C | 86.4% | 508.5hPa | 2.6V | 00:00:00 | 00:00:00 | 00:00:00 | |
| SQ6EMJ | 2026-09-05 18:39:53 | 50.97069 | 17.56900 | 118° | 89km/h | 5582m | -2.8m/s | -19.7°C | 86.6% | 507.5hPa | 2.6V | 00:00:00 | 00:00:00 | 00:00:00 | |
| SQ6EMJ | 2026-09-05 18:39:47 | 50.97134 | 17.56704 | 118° | 93km/h | 5598m | -2.8m/s | -19.8°C | 87.7% | 506.3hPa | 2.6V | 00:00:00 | 00:00:00 | 00:00:00 | |
| SP3WXH-11 | 2026-09-05 18:39:41 | 50.97206 | 17.56471 | 116° | 93km/h | 5617m | -2.8m/s | -20.0°C | 87.4% | 505.0hPa | 2.6V | 00:00:00 | 00:00:00 | 00:00:00 | |
| SQ6EMJ | 2026-09-05 18:39:36 | 50.97252 | 17.56334 | 119° | 99km/h | 5628m | -2.8m/s | -20.1°C | 87.5% | 504.3hPa | 2.6V | 00:00:00 | 00:00:00 | 00:00:00 | |
| SP3BTT-10 | 2026-09-05 18:39:30 | 50.97339 | 17.56090 | 122° | 93km/h | 5647m | -2.3m/s | -20.2°C | 94.1% | 502.9hPa | 2.6V | 00:00:00 | 00:00:00 | 00:00:00 | |
| SQ6EMJ | 2026-09-05 18:39:28 | 50.97366 | 17.56023 | 124° | 97km/h | 5652m | -2.7m/s | -20.3°C | 89.8% | 502.6hPa | 2.6V | 00:00:00 | 00:00:00 | 00:00:00 | |
| SQ6EMJ | 2026-09-05 18:39:16 | 50.97508 | 17.55664 | 121° | 86km/h | 5682m | -2.9m/s | -20.6°C | 89.3% | 500.6hPa | 2.6V | 00:00:00 | 00:00:00 | 00:00:00 | |
| SQ6EMJ | 2026-09-05 18:39:10 | 50.97562 | 17.55504 | 119° | 93km/h | 5696m | -2.9m/s | -20.7°C | 84.7% | 499.7hPa | 2.6V | 00:00:00 | 00:00:00 | 00:00:00 | |
| SQ6EMJ | 2026-09-05 18:39:05 | 50.97619 | 17.55334 | 120° | 99km/h | 5710m | -2.9m/s | -20.7°C | 79.4% | 498.8hPa | 2.6V | 00:00:00 | 00:00:00 | 00:00:00 | |
| SQ6EMJ | 2026-09-05 18:39:01 | 50.97680 | 17.55161 | 121° | 99km/h | 5723m | -2.7m/s | -20.8°C | 81.4% | 497.9hPa | 2.6V | 00:00:00 | 00:00:00 | 00:00:00 | |
| SP3BTT-10 | 2026-09-05 18:39:00 | 50.97692 | 17.55127 | 121° | 100km/h | 5726m | -2.8m/s | -20.8°C | 85.0% | 497.6hPa | 2.6V | 00:00:00 | 00:00:00 | 00:00:00 | |
| SQ6EMJ | 2026-09-05 18:38:56 | 50.97743 | 17.54988 | 120° | 99km/h | 5738m | -3.0m/s | -20.9°C | 79.6% | 496.9hPa | 2.6V | 00:00:00 | 00:00:00 | 00:00:00 | |
| SQ6EMJ | 2026-09-05 18:38:49 | 50.97816 | 17.54774 | 119° | 102km/h | 5756m | -2.9m/s | -20.9°C | 74.1% | 495.8hPa | 2.6V | 00:00:00 | 00:00:00 | 00:00:00 | |
| SQ6EMJ | 2026-09-05 18:38:43 | 50.97895 | 17.54559 | 125° | 102km/h | 5773m | -2.7m/s | -21.0°C | 72.3% | 494.6hPa | 2.6V | 00:00:00 | 00:00:00 | 00:00:00 | |
| SP3WXH-11 | 2026-09-05 18:38:39 | 50.97964 | 17.54397 | 122° | 93km/h | 5785m | -2.5m/s | -21.0°C | 68.2% | 493.8hPa | 2.6V | 00:00:00 | 00:00:00 | 00:00:00 | |
| SQ6EMJ | 2026-09-05 18:38:38 | 50.97976 | 17.54364 | 121° | 93km/h | 5788m | -2.4m/s | -21.0°C | 67.3% | 493.6hPa | 2.6V | 00:00:00 | 00:00:00 | 00:00:00 | |
| SQ6EMJ | 2026-09-05 18:38:32 | 50.98032 | 17.54194 | 117° | 99km/h | 5800m | -2.7m/s | -21.0°C | 66.2% | 492.7hPa | 2.6V | 00:00:00 | 00:00:00 | 00:00:00 | |
| SP3BTT-10 | 2026-09-05 18:38:30 | 50.98066 | 17.54086 | 117° | 106km/h | 5809m | -2.9m/s | -21.1°C | 70.2% | 492.1hPa | 2.6V | 00:00:00 | 00:00:00 | 00:00:00 | |
| SQ6EMJ | 2026-09-05 18:38:28 | 50.98089 | 17.54012 | 117° | 104km/h | 5814m | -2.4m/s | -21.1°C | 65.5% | 491.8hPa | 2.6V | 00:00:00 | 00:00:00 | 00:00:00 | |
| SQ6EMJ | 2026-09-05 18:38:21 | 50.98166 | 17.53785 | 122° | 108km/h | 5831m | -2.6m/s | -21.2°C | 62.6% | 490.8hPa | 2.6V | 00:00:00 | 00:00:00 | 00:00:00 | |
| SQ6EMJ | 2026-09-05 18:38:15 | 50.98253 | 17.53576 | 126° | 99km/h | 5846m | -2.6m/s | -21.3°C | 60.8% | 489.7hPa | 2.6V | 00:00:00 | 00:00:00 | 00:00:00 | |
| SQ6EMJ | 2026-09-05 18:38:09 | 50.98327 | 17.53378 | 117° | 99km/h | 5861m | -2.5m/s | -21.3°C | 57.2% | 488.7hPa | 2.6V | 00:00:00 | 00:00:00 | 00:00:00 | |
| SP3WXH-11 | 2026-09-05 18:38:08 | 50.98349 | 17.53305 | 115° | 102km/h | 5866m | -2.3m/s | -21.3°C | 55.6% | 488.5hPa | 2.6V | 00:00:00 | 00:00:00 | 00:00:00 | |
| SQ6EMJ | 2026-09-05 18:38:03 | 50.98400 | 17.53154 | 122° | 108km/h | 5876m | -2.5m/s | -21.4°C | 57.5% | 487.8hPa | 2.6V | 00:00:00 | 00:00:00 | 00:00:00 | |
| SP3BTT-10 | 2026-09-05 18:38:00 | 50.98456 | 17.53013 | 121° | 108km/h | 5885m | -2.3m/s | -21.4°C | 61.5% | 487.1hPa | 2.6V | 00:00:00 | 00:00:00 | 08:30:00 | |
| SQ6EMJ | 2026-09-05 18:37:58 | 50.98468 | 17.52979 | 120° | 99km/h | 5887m | -2.1m/s | -21.5°C | 58.0% | 487.1hPa | 2.7V | 00:00:00 | 00:00:00 | 00:00:00 | |
| SQ6EMJ | 2026-09-05 18:37:53 | 50.98524 | 17.52793 | 116° | 108km/h | 5899m | -2.8m/s | -21.6°C | 58.3% | 486.2hPa | 2.7V | 00:00:00 | 00:00:00 | 00:00:00 | |
| SQ6EMJ | 2026-09-05 18:37:48 | 50.98585 | 17.52593 | 117° | 113km/h | 5913m | -2.5m/s | -21.7°C | 59.3% | 485.3hPa | 2.7V | 00:00:00 | 00:00:00 | 00:00:00 | |
| SQ6EMJ | 2026-09-05 18:37:43 | 50.98655 | 17.52356 | 116° | 106km/h | 5928m | -2.6m/s | -21.8°C | 60.7% | 484.3hPa | 2.7V | 00:00:00 | 00:00:00 | 00:00:00 | |
| SQ6EMJ | 2026-09-05 18:37:37 | 50.98726 | 17.52125 | 117° | 110km/h | 5945m | -2.8m/s | -21.7°C | 60.3% | 483.3hPa | 2.7V | 00:00:00 | 00:00:00 | 00:00:00 | |
| SQ6EMJ | 2026-09-05 18:37:32 | 50.98784 | 17.51925 | 115° | 110km/h | 5958m | -2.7m/s | -21.6°C | 59.7% | 482.3hPa | 2.7V | 00:00:00 | 00:00:00 | 00:00:00 | |
| SQ6EMJ | 2026-09-05 18:37:27 | 50.98840 | 17.51722 | 114° | 111km/h | 5970m | -2.5m/s | -21.7°C | 59.5% | 481.6hPa | 2.7V | 00:00:00 | 00:00:00 | 00:00:00 | |
| SQ6EMJ | 2026-09-05 18:37:20 | 50.98907 | 17.51469 | 115° | 117km/h | 5984m | -2.5m/s | -21.5°C | 57.2% | 480.7hPa | 2.7V | 00:00:00 | 00:00:00 | 00:00:00 | |
| SQ6EMJ | 2026-09-05 18:37:14 | 50.98980 | 17.51218 | 115° | 113km/h | 5999m | -2.3m/s | -21.4°C | 55.3% | 479.7hPa | 2.7V | 00:00:00 | 00:00:00 | 00:00:00 | |
| SQ6EMJ | 2026-09-05 18:37:08 | 50.99048 | 17.50969 | 114° | 113km/h | 6012m | -2.1m/s | -21.3°C | 49.9% | 478.8hPa | 2.7V | 00:00:00 | 00:00:00 | 00:00:00 | |
| SP3WXH-11 | 2026-09-05 18:37:06 | 50.99082 | 17.50843 | 113° | 113km/h | 6018m | -2.0m/s | -21.3°C | 47.4% | 478.4hPa | 2.7V | 00:00:00 | 00:00:00 | 00:00:00 | |
| SQ6EMJ | 2026-09-05 18:36:57 | 50.99175 | 17.50506 | 114° | 113km/h | 6036m | -2.1m/s | -21.3°C | 41.8% | 477.4hPa | 2.7V | 00:00:00 | 00:00:00 | 00:00:00 | |
| SQ6EMJ | 2026-09-05 18:36:51 | 50.99244 | 17.50252 | 115° | 117km/h | 6048m | -2.2m/s | -21.4°C | 40.7% | 476.6hPa | 2.7V | 00:00:00 | 00:00:00 | 00:00:00 | |
| SQ6EMJ | 2026-09-05 18:36:45 | 50.99318 | 17.49995 | 116° | 117km/h | 6062m | -2.3m/s | -21.5°C | 38.1% | 475.6hPa | 2.7V | 00:00:00 | 00:00:00 | 00:00:00 | |
| SQ6EMJ | 2026-09-05 18:36:40 | 50.99393 | 17.49740 | 116° | 119km/h | 6075m | -2.0m/s | -21.7°C | 39.7% | 474.8hPa | 2.7V | 00:00:00 | 00:00:00 | 00:00:00 | |
| SP3WXH-11 | 2026-09-05 18:36:35 | 50.99457 | 17.49522 | 115° | 119km/h | 6085m | -2.3m/s | -21.7°C | 35.6% | 474.1hPa | 2.7V | 00:00:00 | 00:00:00 | 00:00:00 | |
| SQ6EMJ | 2026-09-05 18:36:34 | 50.99457 | 17.49521 | 116° | 120km/h | 6085m | -2.3m/s | -21.7°C | 35.6% | 474.1hPa | 2.7V | 00:00:00 | 00:00:00 | 00:00:00 | |
| SQ6EMJ | 2026-09-05 18:36:28 | 50.99535 | 17.49265 | 116° | 117km/h | 6098m | -2.1m/s | -21.8°C | 35.9% | 473.3hPa | 2.7V | 00:00:00 | 00:00:00 | 00:00:00 | |
| SQ6EMJ | 2026-09-05 18:36:22 | 50.99610 | 17.49006 | 116° | 120km/h | 6110m | -2.3m/s | -21.9°C | 34.2% | 472.6hPa | 2.7V | 00:00:00 | 00:00:00 | 00:00:00 | |
| SQ6EMJ | 2026-09-05 18:36:16 | 50.99691 | 17.48746 | 119° | 119km/h | 6124m | -2.2m/s | -21.9°C | 21.6% | 471.6hPa | 2.7V | 00:00:00 | 00:00:00 | 00:00:00 | |
| SQ6EMJ | 2026-09-05 18:36:10 | 50.99771 | 17.48495 | 115° | 120km/h | 6137m | -2.2m/s | -22.0°C | 19.8% | 470.8hPa | 2.7V | 00:00:00 | 00:00:00 | 00:00:00 | |
| SQ6EMJ | 2026-09-05 18:36:05 | 50.99836 | 17.48266 | 116° | 128km/h | 6149m | -2.9m/s | -22.1°C | 19.3% | 470.0hPa | 2.7V | 00:00:00 | 00:00:00 | 00:00:00 | |
| SP3WXH-11 | 2026-09-05 18:36:04 | 50.99863 | 17.48173 | 115° | 126km/h | 6155m | -2.6m/s | -22.2°C | 18.6% | 469.6hPa | 2.7V | 00:00:00 | 00:00:00 | 00:00:00 | |
| SQ6EMJ | 2026-09-05 18:35:59 | 50.99920 | 17.47990 | 118° | 126km/h | 6165m | -2.3m/s | -22.3°C | 19.0% | 469.0hPa | 2.7V | 00:00:00 | 00:00:00 | 00:00:00 | |
| SQ6EMJ | 2026-09-05 18:35:54 | 51.00004 | 17.47723 | 116° | 124km/h | 6178m | -2.1m/s | -22.4°C | 20.5% | 468.2hPa | 2.7V | 00:00:00 | 00:00:00 | 00:00:00 | |
| SP3BTT-10 | 2026-09-05 18:35:51 | 51.00043 | 17.47586 | 115° | 130km/h | 6184m | -2.2m/s | -22.4°C | 19.8% | 467.6hPa | 2.7V | 00:00:00 | 00:00:00 | 00:00:00 | |
| SQ6EMJ | 2026-09-05 18:35:49 | 51.00071 | 17.47492 | 116° | 130km/h | 6189m | -2.3m/s | -22.4°C | 14.1% | 467.5hPa | 2.7V | 00:00:00 | 00:00:00 | 00:00:00 | |
| SQ6EMJ | 2026-09-05 18:35:43 | 51.00156 | 17.47213 | 118° | 128km/h | 6203m | -2.0m/s | -22.3°C | 6.2% | 466.6hPa | 2.7V | 00:00:00 | 00:00:00 | 00:00:00 | |
| SQ6EMJ | 2026-09-05 18:35:37 | 51.00229 | 17.46994 | 119° | 122km/h | 6213m | -2.4m/s | -22.3°C | 6.3% | 466.0hPa | 2.7V | 00:00:00 | 00:00:00 | 00:00:00 | |
| SP3WXH-11 | 2026-09-05 18:35:33 | 51.00300 | 17.46770 | 115° | 126km/h | 6225m | -2.2m/s | -22.4°C | 6.0% | 465.2hPa | 2.7V | 00:00:00 | 00:00:00 | 00:00:00 | |
| SQ6EMJ | 2026-09-05 18:35:32 | 51.00314 | 17.46724 | 116° | 128km/h | 6227m | -2.2m/s | -22.4°C | 6.0% | 465.1hPa | 2.7V | 00:00:00 | 00:00:00 | 00:00:00 | |
| SQ6EMJ | 2026-09-05 18:35:25 | 51.00396 | 17.46442 | 117° | 131km/h | 6240m | -2.6m/s | -22.4°C | 5.7% | 464.3hPa | 2.7V | 00:00:00 | 00:00:00 | 00:00:00 | |
| SQ6EMJ | 2026-09-05 18:35:20 | 51.00485 | 17.46161 | 117° | 130km/h | 6254m | -2.0m/s | -22.5°C | 5.6% | 463.3hPa | 2.7V | 00:00:00 | 00:00:00 | 00:00:00 | |
| SQ6EMJ | 2026-09-05 18:35:14 | 51.00559 | 17.45927 | 118° | 131km/h | 6264m | -2.0m/s | -22.5°C | 5.6% | 462.8hPa | 2.7V | 00:00:00 | 00:00:00 | 00:00:00 | |
| SP3BTT-10 | 2026-09-05 18:35:12 | 51.00603 | 17.45786 | 116° | 131km/h | 6270m | -2.0m/s | -22.5°C | 6.4% | 462.3hPa | 2.7V | 00:00:00 | 00:00:00 | 00:00:00 | |
| SQ6EMJ | 2026-09-05 18:35:09 | 51.00631 | 17.45692 | 117° | 130km/h | 6274m | -2.0m/s | -22.6°C | 5.7% | 462.1hPa | 2.7V | 00:00:00 | 00:00:00 | 00:00:00 | |
| SQ6EMJ | 2026-09-05 18:35:04 | 51.00718 | 17.45408 | 117° | 131km/h | 6286m | -2.0m/s | -22.7°C | 5.6% | 461.4hPa | 2.7V | 00:00:00 | 00:00:00 | 00:00:00 | |
| SP3WXH-11 | 2026-09-05 18:35:02 | 51.00747 | 17.45312 | 116° | 131km/h | 6290m | -2.0m/s | -22.7°C | 5.6% | 461.1hPa | 2.7V | 00:00:00 | 00:00:00 | 00:00:00 | |
| SQ6EMJ | 2026-09-05 18:34:58 | 51.00805 | 17.45123 | 117° | 131km/h | 6298m | -1.9m/s | -22.8°C | 5.7% | 460.6hPa | 2.7V | 00:00:00 | 00:00:00 | 00:00:00 | |
| SQ6EMJ | 2026-09-05 18:34:53 | 51.00877 | 17.44885 | 117° | 131km/h | 6307m | -2.0m/s | -22.8°C | 5.7% | 460.0hPa | 2.7V | 00:00:00 | 00:00:00 | 00:00:00 | |
| SQ6EMJ | 2026-09-05 18:34:46 | 51.00964 | 17.44597 | 116° | 133km/h | 6319m | -2.0m/s | -22.9°C | 5.7% | 459.3hPa | 2.7V | 00:00:00 | 00:00:00 | 00:00:00 | |
| SQ6EMJ | 2026-09-05 18:34:41 | 51.01037 | 17.44359 | 117° | 131km/h | 6329m | -1.9m/s | -23.0°C | 5.7% | 458.8hPa | 2.7V | 00:00:00 | 00:00:00 | 00:00:00 | |
| SP3BTT-10 | 2026-09-05 18:34:38 | 51.01095 | 17.44171 | 117° | 133km/h | 6336m | -1.9m/s | -23.0°C | 6.8% | 458.2hPa | 2.7V | 00:00:00 | 00:00:00 | 00:00:00 | |
| SQ6EMJ | 2026-09-05 18:34:36 | 51.01125 | 17.44075 | 117° | 131km/h | 6340m | -1.8m/s | -23.1°C | 6.1% | 458.0hPa | 2.6V | 00:00:00 | 00:00:00 | 00:00:00 | |
| SP3WXH-11 | 2026-09-05 18:34:31 | 51.01198 | 17.43836 | 115° | 131km/h | 6350m | -1.9m/s | -23.2°C | 5.9% | 457.4hPa | 2.6V | 00:00:00 | 00:00:00 | 00:00:00 | |
| SQ6EMJ | 2026-09-05 18:34:24 | 51.01302 | 17.43503 | 117° | 131km/h | 6364m | -2.1m/s | -23.3°C | 5.7% | 456.5hPa | 2.6V | 00:00:00 | 00:00:00 | 00:00:00 | |
| SQ6EMJ | 2026-09-05 18:34:18 | 51.01392 | 17.43216 | 118° | 133km/h | 6376m | -2.1m/s | -23.4°C | 5.7% | 455.7hPa | 2.6V | 00:00:00 | 00:00:00 | 00:00:00 | |
| SQ6EMJ | 2026-09-05 18:34:12 | 51.01466 | 17.42976 | 117° | 133km/h | 6386m | -2.2m/s | -23.5°C | 5.7% | 455.1hPa | 2.6V | 00:00:00 | 00:00:00 | 00:00:00 | |
| EDDB2-12 | 2026-09-05 18:34:09 | 51.01527 | 17.42784 | 116° | 133km/h | 6394m | -2.1m/s | -23.6°C | 5.8% | 454.6hPa | 2.6V | 00:00:00 | 00:00:00 | 00:00:00 | |
| SQ6EMJ | 2026-09-05 18:34:07 | 51.01542 | 17.42736 | 117° | 135km/h | 6397m | -2.2m/s | -23.6°C | 5.8% | 454.4hPa | 2.6V | 00:00:00 | 00:00:00 | 00:00:00 | |
| SP3BTT-10 | 2026-09-05 18:34:05 | 51.01588 | 17.42591 | 117° | 135km/h | 6403m | -2.1m/s | -23.6°C | 6.6% | 454.0hPa | 2.6V | 00:00:00 | 00:00:00 | 00:00:00 | |
| SP3WXH-11 | 2026-09-05 18:34:00 | 51.01664 | 17.42347 | 116° | 135km/h | 6413m | -2.1m/s | -23.7°C | 6.0% | 453.4hPa | 2.6V | 00:00:00 | 00:00:00 | 00:00:00 | |
| SONDE2-11 | 2026-09-05 18:33:47 | 51.01878 | 17.41668 | 116° | 133km/h | 6444m | -2.2m/s | -24.0°C | 6.0% | 451.5hPa | 2.6V | 00:00:00 | 00:00:00 | 00:00:00 | |
| SQ6EMJ | 2026-09-05 18:33:38 | 51.02001 | 17.41284 | 117° | 133km/h | 6462m | -2.3m/s | -24.1°C | 6.1% | 450.4hPa | 2.6V | 00:00:00 | 00:00:00 | 00:00:00 | |
| SQ6EMJ | 2026-09-05 18:33:32 | 51.02077 | 17.41041 | 117° | 135km/h | 6474m | -2.2m/s | -24.1°C | 6.7% | 449.7hPa | 2.6V | 00:00:00 | 00:00:00 | 00:00:00 | |
| SP3WXH-11 | 2026-09-05 18:33:29 | 51.02138 | 17.40846 | 116° | 135km/h | 6483m | -2.3m/s | -24.2°C | 7.2% | 449.1hPa | 2.6V | 00:00:00 | 00:00:00 | 00:00:00 | |
| SQ6EMJ | 2026-09-05 18:33:26 | 51.02169 | 17.40749 | 117° | 135km/h | 6488m | -2.3m/s | -24.2°C | 7.2% | 448.9hPa | 2.6V | 00:00:00 | 00:00:00 | 00:00:00 | |
| SP3BTT-10 | 2026-09-05 18:33:20 | 51.02273 | 17.40410 | 117° | 135km/h | 6504m | -2.4m/s | -24.3°C | 8.3% | 447.8hPa | 2.6V | 00:00:00 | 00:00:00 | 00:00:00 | |
| SONDE2-11 | 2026-09-05 18:33:16 | 51.02348 | 17.40168 | 115° | 133km/h | 6515m | -2.5m/s | -24.5°C | 7.8% | 447.1hPa | 2.6V | 00:00:00 | 00:00:00 | 00:00:00 | |
| EDDB2-11 | 2026-09-05 18:33:14 | 51.02422 | 17.39926 | 116° | 133km/h | 6528m | -2.7m/s | -24.5°C | 8.2% | 446.4hPa | 2.6V | 00:00:00 | 00:00:00 | 00:00:00 | |
| SQ6EMJ | 2026-09-05 18:33:08 | 51.02437 | 17.39878 | 118° | 133km/h | 6530m | -2.6m/s | -24.5°C | 8.3% | 446.2hPa | 2.6V | 00:00:00 | 00:00:00 | 00:00:00 | |
| EDDB2-12 | 2026-09-05 18:33:07 | 51.02467 | 17.39782 | 115° | 133km/h | 6535m | -2.4m/s | -24.6°C | 8.4% | 445.9hPa | 2.6V | 00:00:00 | 00:00:00 | 00:00:00 | |
| SQ6EMJ | 2026-09-05 18:33:04 | 51.02512 | 17.39637 | 117° | 133km/h | 6543m | -2.4m/s | -24.6°C | 8.5% | 445.5hPa | 2.6V | 00:00:00 | 00:00:00 | 00:00:00 | |
| SP3WXH-11 | 2026-09-05 18:32:58 | 51.02598 | 17.39347 | 115° | 131km/h | 6557m | -2.6m/s | -24.7°C | 9.3% | 444.5hPa | 2.6V | 00:00:00 | 00:00:00 | 00:00:00 | |
| SQ6EMJ | 2026-09-05 18:32:57 | 51.02598 | 17.39347 | 116° | 133km/h | 6558m | -2.6m/s | -24.7°C | 9.3% | 444.5hPa | 2.6V | 00:00:00 | 00:00:00 | 00:00:00 | |
| SQ6EMJ | 2026-09-05 18:32:51 | 51.02684 | 17.39054 | 116° | 135km/h | 6573m | -2.5m/s | -24.9°C | 9.6% | 443.6hPa | 2.6V | 00:00:00 | 00:00:00 | 00:00:00 | |
| SONDE2-11 | 2026-09-05 18:32:45 | 51.02800 | 17.38663 | 115° | 133km/h | 6593m | -2.5m/s | -25.1°C | 10.0% | 442.4hPa | 2.6V | 00:00:00 | 00:00:00 | 00:00:00 | |
| SQ6EMJ | 2026-09-05 18:32:40 | 51.02843 | 17.38516 | 116° | 137km/h | 6601m | -2.7m/s | -25.1°C | 10.3% | 442.0hPa | 2.6V | 00:00:00 | 00:00:00 | 00:00:00 | |
| EDDB2-12 | 2026-09-05 18:32:36 | 51.02915 | 17.38269 | 114° | 135km/h | 6614m | -2.7m/s | -25.2°C | 10.6% | 441.1hPa | 2.6V | 00:00:00 | 00:00:00 | 00:00:00 | |
| SP3BTT-10 | 2026-09-05 18:32:35 | 51.02929 | 17.38220 | 115° | 133km/h | 6617m | -2.7m/s | -25.1°C | 11.8% | 440.9hPa | 2.6V | 00:00:00 | 00:00:00 | 00:00:00 | |
| SQ6EMJ | 2026-09-05 18:32:30 | 51.02999 | 17.37975 | 115° | 135km/h | 6631m | -2.7m/s | -25.3°C | 10.8% | 440.0hPa | 2.5V | 00:00:00 | 00:00:00 | 00:00:00 | |
| SP3WXH-11 | 2026-09-05 18:32:27 | 51.03041 | 17.37827 | 114° | 135km/h | 6639m | -2.7m/s | -25.4°C | 10.9% | 439.6hPa | 2.5V | 00:00:00 | 00:00:00 | 00:00:00 | |
| SQ6EMJ | 2026-09-05 18:32:24 | 51.03084 | 17.37678 | 116° | 135km/h | 6647m | -2.7m/s | -25.5°C | 11.0% | 439.1hPa | 2.5V | 00:00:00 | 00:00:00 | 00:00:00 | |
| SQ6EMJ | 2026-09-05 18:32:18 | 51.03156 | 17.37432 | 116° | 135km/h | 6661m | -2.8m/s | -25.6°C | 11.6% | 438.3hPa | 2.5V | 00:00:00 | 00:00:00 | 00:00:00 | |
| SONDE2-11 | 2026-09-05 18:32:13 | 51.03239 | 17.37140 | 113° | 131km/h | 6677m | -2.9m/s | -25.7°C | 13.4% | 437.3hPa | 2.5V | 00:00:00 | 00:00:00 | 00:00:00 | |
| EDDB2-11 | 2026-09-05 18:32:12 | 51.03253 | 17.37091 | 113° | 133km/h | 6680m | -2.9m/s | -25.8°C | 14.0% | 437.1hPa | 2.5V | 00:00:00 | 00:00:00 | 00:00:00 | |
| SQ6EMJ | 2026-09-05 18:32:06 | 51.03321 | 17.36844 | 115° | 133km/h | 6694m | -2.7m/s | -25.9°C | 14.7% | 436.3hPa | 2.5V | 00:00:00 | 00:00:00 | 00:00:00 | |
| EDDB2-12 | 2026-09-05 18:32:05 | 51.03362 | 17.36697 | 113° | 133km/h | 6703m | -2.8m/s | -25.9°C | 16.2% | 435.8hPa | 2.5V | 00:00:00 | 00:00:00 | 00:00:00 | |
| SP3WXH-11 | 2026-09-05 18:31:56 | 51.03469 | 17.36306 | 113° | 133km/h | 6724m | -2.6m/s | -26.1°C | 15.7% | 434.5hPa | 2.5V | 00:00:00 | 00:00:00 | 00:00:00 | |
| SQ6EMJ | 2026-09-05 18:31:51 | 51.03535 | 17.36056 | 114° | 135km/h | 6739m | -2.9m/s | -26.2°C | 16.0% | 433.6hPa | 2.5V | 00:00:00 | 00:00:00 | 00:00:00 | |
| SP3BTT-10 | 2026-09-05 18:31:50 | 51.03549 | 17.36006 | 114° | 139km/h | 6742m | -2.9m/s | -26.2°C | 17.4% | 433.4hPa | 2.5V | 00:00:00 | 00:00:00 | 00:00:00 | |
| SQ6EMJ | 2026-09-05 18:31:45 | 51.03603 | 17.35807 | 115° | 135km/h | 6753m | -2.8m/s | -26.3°C | 13.3% | 432.7hPa | 2.5V | 00:00:00 | 00:00:00 | 00:00:00 | |
| SONDE2-11 | 2026-09-05 18:31:42 | 51.03658 | 17.35606 | 113° | 135km/h | 6765m | -3.0m/s | -26.4°C | 12.8% | 432.1hPa | 2.5V | 00:00:00 | 00:00:00 | 00:00:00 | |
| EDDB2-11 | 2026-09-05 18:31:41 | 51.03671 | 17.35556 | 112° | 135km/h | 6767m | -2.8m/s | -26.4°C | 12.7% | 431.9hPa | 2.5V | 00:00:00 | 00:00:00 | 00:00:00 | |
| SQ6EMJ | 2026-09-05 18:31:39 | 51.03684 | 17.35505 | 114° | 137km/h | 6771m | -2.9m/s | -26.5°C | 12.7% | 431.7hPa | 2.5V | 00:00:00 | 00:00:00 | 00:00:00 | |
| SQ6EMJ | 2026-09-05 18:31:33 | 51.03766 | 17.35201 | 114° | 137km/h | 6788m | -2.7m/s | -26.5°C | 12.9% | 430.7hPa | 2.5V | 00:00:00 | 00:00:00 | 00:00:00 | |
| SQ6EMJ | 2026-09-05 18:31:29 | 51.03834 | 17.34948 | 114° | 139km/h | 6802m | -2.8m/s | -26.6°C | 13.3% | 429.8hPa | 2.5V | 00:00:00 | 00:00:00 | 00:00:00 | |
| SP3WXH-11 | 2026-09-05 18:31:25 | 51.03889 | 17.34744 | 112° | 137km/h | 6813m | -2.9m/s | -26.7°C | 13.6% | 429.1hPa | 2.5V | 00:00:00 | 00:00:00 | 00:00:00 | |
| SQ6EMJ | 2026-09-05 18:31:23 | 51.03916 | 17.34642 | 113° | 137km/h | 6819m | -2.8m/s | -26.7°C | 13.9% | 428.8hPa | 2.5V | 00:00:00 | 00:00:00 | 00:00:00 | |
| SQ6EMJ | 2026-09-05 18:31:18 | 51.03983 | 17.34384 | 114° | 141km/h | 6834m | -2.9m/s | -26.8°C | 14.0% | 428.0hPa | 2.5V | 00:00:00 | 00:00:00 | 00:00:00 | |
| SONDE2-11 | 2026-09-05 18:31:11 | 51.04081 | 17.34023 | 113° | 141km/h | 6854m | -2.9m/s | -27.0°C | 13.8% | 426.8hPa | 2.5V | 00:00:00 | 00:00:00 | 00:00:00 | |
| EDDB2-11 | 2026-09-05 18:31:10 | 51.04095 | 17.33972 | 113° | 139km/h | 6857m | -2.9m/s | -27.0°C | 13.4% | 426.6hPa | 2.5V | 00:00:00 | 00:00:00 | 00:00:00 | |
| SQ6EMJ | 2026-09-05 18:31:06 | 51.04138 | 17.33816 | 115° | 141km/h | 6866m | -2.9m/s | -27.1°C | 10.6% | 426.1hPa | 2.5V | 00:00:00 | 00:00:00 | 00:00:00 | |
| SP3BTT-10 | 2026-09-05 18:31:05 | 51.04166 | 17.33712 | 113° | 144km/h | 6871m | -2.6m/s | -27.1°C | 12.1% | 425.7hPa | 2.5V | 00:00:00 | 00:00:00 | 00:00:00 | |
| EDDB2-12 | 2026-09-05 18:31:03 | 51.04209 | 17.33555 | 113° | 141km/h | 6879m | -2.7m/s | -27.2°C | 9.1% | 425.2hPa | 2.5V | 00:00:00 | 00:00:00 | 00:00:00 | |
| SP3WXH-11 | 2026-09-05 18:30:54 | 51.04326 | 17.33132 | 113° | 144km/h | 6902m | -2.8m/s | -27.4°C | 8.1% | 423.9hPa | 2.5V | 00:00:00 | 00:00:00 | 00:00:00 | |
| SQ6EMJ | 2026-09-05 18:30:49 | 51.04385 | 17.32922 | 115° | 144km/h | 6914m | -2.9m/s | -27.3°C | 7.3% | 423.2hPa | 2.5V | 00:00:00 | 00:00:00 | 00:00:00 | |
| SQ6EMJ | 2026-09-05 18:30:44 | 51.04460 | 17.32658 | 115° | 144km/h | 6928m | -2.8m/s | -27.4°C | 6.6% | 422.3hPa | 2.5V | 00:00:00 | 00:00:00 | 00:00:00 | |
| SQ6EMJ | 2026-09-05 18:30:40 | 51.04537 | 17.32393 | 116° | 146km/h | 6942m | -2.9m/s | -27.4°C | 5.9% | 421.5hPa | 2.5V | 00:00:00 | 00:00:00 | 00:00:00 | |
| SP3BTT-10 | 2026-09-05 18:30:35 | 51.04615 | 17.32130 | 115° | 148km/h | 6956m | -2.7m/s | -27.4°C | 6.6% | 420.6hPa | 2.5V | 00:00:00 | 00:00:00 | 08:30:00 | |
| SQ6EMJ | 2026-09-05 18:30:34 | 51.04630 | 17.32077 | 116° | 144km/h | 6959m | -2.8m/s | -27.5°C | 5.6% | 420.6hPa | 2.5V | 00:00:00 | 00:00:00 | 00:00:00 | |
| EDDB2-12 | 2026-09-05 18:30:32 | 51.04677 | 17.31918 | 114° | 146km/h | 6967m | -2.9m/s | -27.5°C | 5.6% | 420.1hPa | 2.5V | 00:00:00 | 00:00:00 | 00:00:00 | |
| SQ6EMJ | 2026-09-05 18:30:27 | 51.04724 | 17.31758 | 116° | 146km/h | 6976m | -2.9m/s | -27.6°C | 5.6% | 419.5hPa | 2.5V | 00:00:00 | 00:00:00 | 00:00:00 | |
| SP3WXH-11 | 2026-09-05 18:30:23 | 51.04802 | 17.31492 | 114° | 146km/h | 6990m | -2.8m/s | -27.7°C | 5.5% | 418.7hPa | 2.5V | 00:00:00 | 00:00:00 | 00:00:00 | |
| SQ6EMJ | 2026-09-05 18:30:22 | 51.04817 | 17.31438 | 116° | 148km/h | 6993m | -2.8m/s | -27.7°C | 5.5% | 418.6hPa | 2.5V | 00:00:00 | 00:00:00 | 00:00:00 | |
| SQ6EMJ | 2026-09-05 18:30:16 | 51.04913 | 17.31114 | 116° | 150km/h | 7010m | -2.8m/s | -27.8°C | 5.1% | 417.6hPa | 2.5V | 00:00:00 | 00:00:00 | 00:00:00 | |
| SQ6EMJ | 2026-09-05 18:30:10 | 51.04993 | 17.30845 | 116° | 148km/h | 7024m | -2.6m/s | -27.9°C | 5.1% | 416.8hPa | 2.5V | 00:00:00 | 00:00:00 | 00:00:00 | |
| SONDE2-11 | 2026-09-05 18:30:09 | 51.05025 | 17.30737 | 115° | 150km/h | 7029m | -2.8m/s | -28.0°C | 5.1% | 416.5hPa | 2.5V | 00:00:00 | 00:00:00 | 00:00:00 | |
| EDDB2-11 | 2026-09-05 18:30:08 | 51.05058 | 17.30628 | 115° | 148km/h | 7034m | -2.7m/s | -28.0°C | 5.1% | 416.2hPa | 2.5V | 00:00:00 | 00:00:00 | 00:00:00 | |
| SQ6EMJ | 2026-09-05 18:30:05 | 51.05090 | 17.30520 | 116° | 150km/h | 7040m | -2.7m/s | -28.0°C | 5.1% | 415.9hPa | 2.5V | 00:00:00 | 00:00:00 | 00:00:00 | |
| EDDB2-12 | 2026-09-05 18:30:01 | 51.05170 | 17.30248 | 115° | 148km/h | 7053m | -2.7m/s | -28.1°C | 5.0% | 415.1hPa | 2.5V | 00:00:00 | 00:00:00 | 00:00:00 | |
| SP3WXH-11 | 2026-09-05 18:29:52 | 51.05301 | 17.29811 | 115° | 150km/h | 7073m | -2.6m/s | -28.2°C | 5.0% | 413.9hPa | 2.5V | 00:00:00 | 00:00:00 | 00:00:00 | |
| SQ6EMJ | 2026-09-05 18:29:47 | 51.05367 | 17.29592 | 116° | 151km/h | 7084m | -2.8m/s | -28.3°C | 5.1% | 413.2hPa | 2.5V | 00:00:00 | 00:00:00 | 00:00:00 | |
| SQ6EMJ | 2026-09-05 18:29:41 | 51.05466 | 17.29260 | 117° | 153km/h | 7100m | -2.7m/s | -28.4°C | 5.1% | 412.3hPa | 2.5V | 00:00:00 | 00:00:00 | 00:00:00 | |
| EDDB2-11 | 2026-09-05 18:29:37 | 51.05568 | 17.28926 | 115° | 153km/h | 7116m | -2.6m/s | -28.5°C | 5.2% | 411.4hPa | 2.5V | 00:00:00 | 00:00:00 | 00:00:00 | |
| SQ6EMJ | 2026-09-05 18:29:36 | 51.05568 | 17.28926 | 117° | 155km/h | 7116m | -2.6m/s | -28.5°C | 5.2% | 411.4hPa | 2.5V | 00:00:00 | 00:00:00 | 00:00:00 | |
| SP3BTT-10 | 2026-09-05 18:29:35 | 51.05584 | 17.28870 | 116° | 157km/h | 7118m | -2.5m/s | -28.5°C | 6.2% | 411.2hPa | 2.5V | 00:00:00 | 00:00:00 | 00:00:00 | |
| OE3JTB-15 | 2026-09-05 18:29:33 | 51.05618 | 17.28758 | 115° | 157km/h | 7123m | -2.7m/s | -28.6°C | 6.2% | 411.0hPa | 2.5V | 00:00:00 | 00:00:00 | 08:30:00 | |
| EDDB2-12 | 2026-09-05 18:29:30 | 51.05683 | 17.28534 | 114° | 153km/h | 7134m | -2.5m/s | -28.7°C | 5.3% | 410.4hPa | 2.5V | 00:00:00 | 00:00:00 | 00:00:00 | |
| SQ6EMJ | 2026-09-05 18:29:24 | 51.05750 | 17.28309 | 117° | 155km/h | 7145m | -2.5m/s | -28.7°C | 5.6% | 409.8hPa | 2.5V | 00:00:00 | 00:00:00 | 00:00:00 | |
| SP3WXH-11 | 2026-09-05 18:29:21 | 51.05821 | 17.28084 | 116° | 155km/h | 7155m | -2.5m/s | -28.8°C | 0% | 409.1hPa | 2.5V | 00:00:00 | 00:00:00 | 00:00:00 | |
| SQ6EMJ | 2026-09-05 18:29:18 | 51.05857 | 17.27971 | 118° | 157km/h | 7161m | -2.6m/s | -28.7°C | 5.8% | 408.8hPa | 2.5V | 00:00:00 | 00:00:00 | 00:00:00 | |
| SQ6EMJ | 2026-09-05 18:29:14 | 51.05944 | 17.27688 | 116° | 157km/h | 7174m | -2.8m/s | -28.8°C | 5.5% | 408.1hPa | 2.5V | 00:00:00 | 00:00:00 | 00:00:00 | |
| SQ6EMJ | 2026-09-05 18:29:09 | 51.06031 | 17.27406 | 117° | 157km/h | 7188m | -2.7m/s | -28.9°C | 5.4% | 407.3hPa | 2.5V | 00:00:00 | 00:00:00 | 00:00:00 | |
| SONDE2-11 | 2026-09-05 18:29:07 | 51.06067 | 17.27292 | 116° | 157km/h | 7193m | -2.8m/s | -28.9°C | 5.4% | 406.9hPa | 2.5V | 00:00:00 | 00:00:00 | 00:00:00 | |
| SP3BTT-10 | 2026-09-05 18:29:05 | 51.06102 | 17.27178 | 117° | 161km/h | 7199m | -2.5m/s | -28.9°C | 6.3% | 406.6hPa | 2.5V | 00:00:00 | 00:00:00 | 00:00:00 | |
| SQ6EMJ | 2026-09-05 18:29:03 | 51.06138 | 17.27064 | 117° | 159km/h | 7204m | -3.0m/s | -28.9°C | 5.2% | 406.3hPa | 2.5V | 00:00:00 | 00:00:00 | 00:00:00 | |
| EDDB2-12 | 2026-09-05 18:28:59 | 51.06226 | 17.26782 | 116° | 155km/h | 7218m | -2.9m/s | -29.0°C | 5.1% | 405.5hPa | 2.5V | 00:00:00 | 00:00:00 | 00:00:00 | |
| SP3WXH-11 | 2026-09-05 18:28:50 | 51.06388 | 17.26278 | 116° | 159km/h | 7243m | -2.4m/s | -29.2°C | 5.2% | 404.1hPa | 2.5V | 00:00:00 | 00:00:00 | 00:00:00 | |
| SQ6EMJ | 2026-09-05 18:28:40 | 51.06534 | 17.25815 | 118° | 161km/h | 7265m | -2.7m/s | -29.3°C | 5.3% | 402.9hPa | 2.5V | 00:00:00 | 00:00:00 | 00:00:00 | |
| SONDE2-11 | 2026-09-05 18:28:36 | 51.06627 | 17.25524 | 116° | 162km/h | 7278m | -2.9m/s | -29.4°C | 5.3% | 402.2hPa | 2.5V | 00:00:00 | 00:00:00 | 00:00:00 | |
| SP3BTT-10 | 2026-09-05 18:28:35 | 51.06645 | 17.25466 | 117° | 164km/h | 7281m | -2.5m/s | -29.4°C | 6.3% | 402.0hPa | 2.5V | 00:00:00 | 00:00:00 | 00:00:00 | |
| SQ6EMJ | 2026-09-05 18:28:34 | 51.06645 | 17.25466 | 118° | 162km/h | 7281m | -2.6m/s | -29.5°C | 5.3% | 402.0hPa | 2.5V | 00:00:00 | 00:00:00 | 00:00:00 | |
| OE3JTB-15 | 2026-09-05 18:28:32 | 51.06701 | 17.25290 | 117° | 164km/h | 7289m | -2.6m/s | -29.5°C | 6.3% | 401.5hPa | 2.5V | 00:00:00 | 02:12:56 | 00:00:00 | |
| SQ6EMJ | 2026-09-05 18:28:29 | 51.06756 | 17.25116 | 117° | 162km/h | 7297m | -2.6m/s | -29.6°C | 5.3% | 401.2hPa | 2.5V | 00:00:00 | 00:00:00 | 00:00:00 | |
| EDDB2-12 | 2026-09-05 18:28:28 | 51.06792 | 17.24999 | 116° | 161km/h | 7302m | -2.6m/s | -29.5°C | 5.3% | 400.8hPa | 2.5V | 00:00:00 | 00:00:00 | 00:00:00 | |
| SQ6EMJ | 2026-09-05 18:28:23 | 51.06847 | 17.24823 | 117° | 162km/h | 7309m | -2.5m/s | -29.6°C | 5.3% | 400.4hPa | 2.5V | 00:00:00 | 00:00:00 | 00:00:00 | |
| SP3WXH-11 | 2026-09-05 18:28:19 | 51.06956 | 17.24469 | 116° | 162km/h | 7324m | -2.5m/s | -29.6°C | 5.3% | 399.6hPa | 2.5V | 00:00:00 | 00:00:00 | 00:00:00 | |
| SQ6EMJ | 2026-09-05 18:28:17 | 51.06956 | 17.24469 | 117° | 162km/h | 7325m | -2.5m/s | -29.6°C | 5.3% | 399.6hPa | 2.5V | 00:00:00 | 00:00:00 | 00:00:00 | |
| SQ6EMJ | 2026-09-05 18:28:12 | 51.07064 | 17.24117 | 117° | 164km/h | 7340m | -2.4m/s | -29.6°C | 5.4% | 398.7hPa | 2.5V | 00:00:00 | 00:00:00 | 00:00:00 | |
| SQ6EMJ | 2026-09-05 18:28:06 | 51.07157 | 17.23819 | 118° | 166km/h | 7352m | -2.4m/s | -29.6°C | 5.3% | 398.0hPa | 2.5V | 00:00:00 | 00:00:00 | 00:00:00 | |
| SP3BTT-10 | 2026-09-05 18:28:05 | 51.07195 | 17.23699 | 118° | 166km/h | 7357m | -2.4m/s | -29.6°C | 6.3% | 397.7hPa | 2.5V | 00:00:00 | 00:00:00 | 00:00:00 | |
| OE3JTB-15 | 2026-09-05 18:28:03 | 51.07233 | 17.23582 | 117° | 173km/h | 7362m | -2.4m/s | -29.6°C | 6.3% | 397.5hPa | 2.5V | 00:00:00 | 00:00:00 | 00:00:00 | |
| EDDB2-12 | 2026-09-05 18:27:56 | 51.07363 | 17.23172 | 116° | 164km/h | 7380m | -2.5m/s | -29.7°C | 5.2% | 396.5hPa | 2.5V | 00:00:00 | 00:00:00 | 00:00:00 | |
| SP3WXH-11 | 2026-09-05 18:27:48 | 51.07534 | 17.22637 | 117° | 166km/h | 7403m | -2.5m/s | -29.9°C | 5.3% | 395.2hPa | 2.5V | 00:00:00 | 00:00:00 | 00:00:00 | |
| SQ6EMJ | 2026-09-05 18:27:42 | 51.07612 | 17.22399 | 118° | 166km/h | 7413m | -2.5m/s | -30.0°C | 5.3% | 394.6hPa | 2.5V | 00:00:00 | 00:00:00 | 00:00:00 | |
| SQ6EMJ | 2026-09-05 18:27:36 | 51.07728 | 17.22041 | 118° | 168km/h | 7428m | -2.4m/s | -30.0°C | 5.3% | 393.8hPa | 2.5V | 00:00:00 | 00:00:00 | 00:00:00 | |
| SP3BTT-10 | 2026-09-05 18:27:35 | 51.07767 | 17.21922 | 118° | 170km/h | 7433m | -2.5m/s | -30.0°C | 6.4% | 393.5hPa | 2.5V | 00:00:00 | 00:00:00 | 00:00:00 | |
| SONDE2-11 | 2026-09-05 18:27:34 | 51.07787 | 17.21862 | 117° | 168km/h | 7436m | -2.5m/s | -30.1°C | 5.4% | 393.4hPa | 2.6V | 00:00:00 | 00:00:00 | 00:00:00 | |
| EDDB2-11 | 2026-09-05 18:27:33 | 51.07827 | 17.21743 | 118° | 166km/h | 7440m | -2.5m/s | -30.1°C | 5.4% | 393.1hPa | 2.6V | 00:00:00 | 00:00:00 | 00:00:00 | |
| SQ6EMJ | 2026-09-05 18:27:31 | 51.07846 | 17.21683 | 119° | 168km/h | 7443m | -2.5m/s | -30.1°C | 5.4% | 392.9hPa | 2.6V | 00:00:00 | 00:00:00 | 00:00:00 | |
| EDDB2-12 | 2026-09-05 18:27:26 | 51.07965 | 17.21323 | 117° | 168km/h | 7458m | -2.5m/s | -30.2°C | 5.4% | 392.1hPa | 2.6V | 00:00:00 | 00:00:00 | 00:00:00 | |
| SQ6EMJ | 2026-09-05 18:27:24 | 51.07965 | 17.21323 | 118° | 168km/h | 7458m | -2.5m/s | -30.2°C | 5.4% | 392.1hPa | 2.6V | 00:00:00 | 00:00:00 | 00:00:00 | |
| SQ6EMJ | 2026-09-05 18:27:19 | 51.08083 | 17.20962 | 119° | 170km/h | 7475m | -2.8m/s | -30.3°C | 5.5% | 391.2hPa | 2.6V | 00:00:00 | 00:00:00 | 00:00:00 | |
| SP3WXH-11 | 2026-09-05 18:27:17 | 51.08144 | 17.20783 | 118° | 168km/h | 7482m | -2.5m/s | -30.3°C | 5.5% | 390.8hPa | 2.6V | 00:00:00 | 00:00:00 | 00:00:00 | |
| SQ6EMJ | 2026-09-05 18:27:13 | 51.08184 | 17.20663 | 119° | 170km/h | 7488m | -2.7m/s | -30.3°C | 5.5% | 390.5hPa | 2.6V | 00:00:00 | 00:00:00 | 00:00:00 | |
| SQ6EMJ | 2026-09-05 18:27:07 | 51.08307 | 17.20298 | 119° | 173km/h | 7504m | -2.5m/s | -30.4°C | 5.6% | 389.6hPa | 2.6V | 00:00:00 | 00:00:00 | 00:00:00 | |
| SP3BTT-10 | 2026-09-05 18:27:05 | 51.08371 | 17.20115 | 120° | 181km/h | 7511m | -2.4m/s | -30.4°C | 6.7% | 389.2hPa | 2.6V | 00:00:00 | 00:00:00 | 00:00:00 | |
| SONDE2-11 | 2026-09-05 18:27:03 | 51.08413 | 17.19995 | 119° | 170km/h | 7516m | -2.7m/s | -30.5°C | 5.6% | 388.9hPa | 2.6V | 00:00:00 | 00:00:00 | 00:00:00 | |
| EDDB2-11 | 2026-09-05 18:27:01 | 51.08456 | 17.19875 | 119° | 170km/h | 7521m | -2.5m/s | -30.6°C | 5.5% | 388.6hPa | 2.6V | 00:00:00 | 00:00:00 | 00:00:00 | |
| EDDB2-12 | 2026-09-05 18:26:54 | 51.08606 | 17.19449 | 118° | 175km/h | 7540m | -2.5m/s | -30.5°C | 5.6% | 387.7hPa | 2.6V | 00:00:00 | 00:00:00 | 00:00:00 | |
| SP3WXH-11 | 2026-09-05 18:26:46 | 51.08806 | 17.18894 | 120° | 173km/h | 7561m | -2.2m/s | -30.6°C | 5.8% | 386.5hPa | 2.6V | 00:00:00 | 00:00:00 | 00:00:00 | |
| SQ6EMJ | 2026-09-05 18:26:45 | 51.08784 | 17.18954 | 122° | 175km/h | 7559m | -2.3m/s | -30.6°C | 5.8% | 386.6hPa | 2.6V | 00:00:00 | 00:00:00 | 00:00:00 | |
| SQ6EMJ | 2026-09-05 18:26:40 | 51.08898 | 17.18652 | 122° | 177km/h | 7572m | -3.0m/s | -30.6°C | 5.7% | 385.9hPa | 2.6V | 00:00:00 | 00:00:00 | 00:00:00 | |
| SQ6EMJ | 2026-09-05 18:26:35 | 51.09012 | 17.18343 | 122° | 179km/h | 7586m | -2.5m/s | -30.7°C | 5.8% | 385.2hPa | 2.6V | 00:00:00 | 00:00:00 | 00:00:00 | |
| SONDE2-11 | 2026-09-05 18:26:32 | 51.09105 | 17.18092 | 120° | 183km/h | 7596m | -2.4m/s | -30.6°C | 5.9% | 384.6hPa | 2.6V | 00:00:00 | 00:00:00 | 00:00:00 | |
| SQ6EMJ | 2026-09-05 18:26:30 | 51.09153 | 17.17966 | 122° | 184km/h | 7601m | -2.3m/s | -30.6°C | 5.8% | 384.4hPa | 2.6V | 00:00:00 | 00:00:00 | 00:00:00 | |
| SQ6EMJ | 2026-09-05 18:26:25 | 51.09272 | 17.17650 | 122° | 183km/h | 7614m | -2.6m/s | -30.7°C | 5.9% | 383.7hPa | 2.6V | 00:00:00 | 00:00:00 | 00:00:00 | |
| EDDB2-12 | 2026-09-05 18:26:23 | 51.09319 | 17.17522 | 120° | 184km/h | 7618m | -2.2m/s | -30.8°C | 6.0% | 383.4hPa | 2.6V | 00:00:00 | 00:00:00 | 00:00:00 | |
| SP3BTT-10 | 2026-09-05 18:26:20 | 51.09389 | 17.17330 | 120° | 190km/h | 7625m | -2.1m/s | -30.7°C | 7.2% | 383.0hPa | 2.6V | 00:00:00 | 00:00:00 | 00:00:00 | |
| SQ6EMJ | 2026-09-05 18:26:18 | 51.09413 | 17.17266 | 121° | 186km/h | 7628m | -2.3m/s | -30.8°C | 6.0% | 382.9hPa | 2.6V | 00:00:00 | 00:00:00 | 00:00:00 | |
| SP3WXH-11 | 2026-09-05 18:26:15 | 51.09532 | 17.16941 | 120° | 186km/h | 7639m | -2.1m/s | -30.8°C | 6.1% | 382.3hPa | 2.6V | 00:00:00 | 00:00:00 | 00:00:00 | |
| SQ6EMJ | 2026-09-05 18:26:13 | 51.09532 | 17.16941 | 122° | 188km/h | 7639m | -2.1m/s | -30.8°C | 6.1% | 382.3hPa | 2.6V | 00:00:00 | 00:00:00 | 00:00:00 | |
| SQ6EMJ | 2026-09-05 18:26:08 | 51.09653 | 17.16619 | 122° | 186km/h | 7648m | -2.0m/s | -30.8°C | 6.2% | 381.8hPa | 2.6V | 00:00:00 | 00:00:00 | 00:00:00 | |
| SQ6EMJ | 2026-09-05 18:26:02 | 51.09799 | 17.16229 | 121° | 190km/h | 7661m | -2.2m/s | -30.8°C | 6.6% | 381.1hPa | 2.6V | 00:00:00 | 00:00:00 | 00:00:00 | |
| SONDE2-11 | 2026-09-05 18:26:01 | 51.09848 | 17.16097 | 120° | 190km/h | 7665m | -2.1m/s | -30.7°C | 6.8% | 380.9hPa | 2.6V | 00:00:00 | 00:00:00 | 00:00:00 | |
| EDDB2-11 | 2026-09-05 18:25:59 | 51.09920 | 17.15897 | 120° | 192km/h | 7672m | -2.1m/s | -30.8°C | 6.9% | 380.6hPa | 2.6V | 00:00:00 | 00:00:00 | 00:00:00 | |
| EDDB2-12 | 2026-09-05 18:25:52 | 51.10068 | 17.15498 | 120° | 190km/h | 7684m | -2.0m/s | -30.7°C | 7.1% | 379.9hPa | 2.6V | 00:00:00 | 00:00:00 | 00:00:00 | |
| SP3BTT-10 | 2026-09-05 18:25:50 | 51.10118 | 17.15365 | 122° | 195km/h | 7688m | -2.0m/s | -30.7°C | 8.5% | 379.6hPa | 2.6V | 00:00:00 | 00:00:00 | 08:30:00 | |
| SQ6EMJ | 2026-09-05 18:25:46 | 51.10193 | 17.15167 | 122° | 192km/h | 7694m | -2.2m/s | -30.8°C | 7.2% | 379.3hPa | 2.5V | 00:00:00 | 00:00:00 | 00:00:00 | |
| SP3WXH-11 | 2026-09-05 18:25:44 | 51.10292 | 17.14901 | 120° | 192km/h | 7703m | -2.2m/s | -30.8°C | 7.5% | 378.9hPa | 2.5V | 00:00:00 | 00:00:00 | 00:00:00 | |
| SQ6EMJ | 2026-09-05 18:25:40 | 51.10342 | 17.14767 | 122° | 193km/h | 7707m | -2.1m/s | -30.8°C | 7.7% | 378.6hPa | 2.5V | 00:00:00 | 00:00:00 | 00:00:00 | |
| SQ6EMJ | 2026-09-05 18:25:35 | 51.10469 | 17.14435 | 122° | 192km/h | 7718m | -2.1m/s | -30.8°C | 8.2% | 378.1hPa | 2.5V | 00:00:00 | 00:00:00 | 00:00:00 | |
| SONDE2-11 | 2026-09-05 18:25:30 | 51.10645 | 17.13971 | 121° | 193km/h | 7733m | -2.3m/s | -30.8°C | 8.2% | 377.3hPa | 2.5V | 00:00:00 | 00:00:00 | 00:00:00 | |
| EDDB2-11 | 2026-09-05 18:25:28 | 51.10670 | 17.13905 | 121° | 193km/h | 7735m | -2.1m/s | -30.9°C | 8.2% | 377.2hPa | 2.5V | 00:00:00 | 00:00:00 | 00:00:00 | |
| SQ6EMJ | 2026-09-05 18:25:25 | 51.10746 | 17.13705 | 122° | 193km/h | 7742m | -2.2m/s | -30.9°C | 8.2% | 376.8hPa | 2.5V | 00:00:00 | 00:00:00 | 00:00:00 | |
| SQ6EMJ | 2026-09-05 18:25:17 | 51.10951 | 17.13167 | 122° | 197km/h | 7759m | -2.2m/s | -31.0°C | 8.0% | 375.9hPa | 2.5V | 00:00:00 | 00:00:00 | 00:00:00 | |
| SP3WXH-11 | 2026-09-05 18:25:13 | 51.11082 | 17.12830 | 121° | 195km/h | 7769m | -2.1m/s | -31.1°C | 8.0% | 375.3hPa | 2.5V | 00:00:00 | 00:00:00 | 00:00:00 | |
| SQ6EMJ | 2026-09-05 18:25:11 | 51.11082 | 17.12830 | 123° | 195km/h | 7770m | -2.1m/s | -31.1°C | 8.0% | 375.3hPa | 2.5V | 00:00:00 | 00:00:00 | 00:00:00 | |
| SQ6EMJ | 2026-09-05 18:25:07 | 51.11211 | 17.12494 | 122° | 195km/h | 7780m | -2.2m/s | -31.2°C | 7.7% | 374.8hPa | 2.5V | 00:00:00 | 00:00:00 | 00:00:00 | |
| SP3BTT-10 | 2026-09-05 18:25:04 | 51.11288 | 17.12292 | 122° | 195km/h | 7787m | -2.2m/s | -31.1°C | 8.7% | 374.4hPa | 2.5V | 00:00:00 | 00:00:00 | 00:00:00 | |
| SONDE2-11 | 2026-09-05 18:24:59 | 51.11444 | 17.11887 | 121° | 195km/h | 7800m | -2.2m/s | -31.2°C | 7.5% | 373.7hPa | 2.5V | 00:00:00 | 00:00:00 | 00:00:00 | |
| EDDB2-11 | 2026-09-05 18:24:57 | 51.11470 | 17.11819 | 121° | 195km/h | 7803m | -2.3m/s | -31.2°C | 7.5% | 373.6hPa | 2.5V | 00:00:00 | 00:00:00 | 00:00:00 | |
| SQ6EMJ | 2026-09-05 18:24:56 | 51.11496 | 17.11752 | 122° | 195km/h | 7805m | -2.2m/s | -31.2°C | 7.5% | 373.4hPa | 2.5V | 00:00:00 | 00:00:00 | 00:00:00 | |
| SQ6EMJ | 2026-09-05 18:24:50 | 51.11649 | 17.11349 | 122° | 195km/h | 7819m | -2.2m/s | -31.3°C | 7.7% | 372.8hPa | 2.5V | 00:00:00 | 00:00:00 | 00:00:00 | |
| SQ6EMJ | 2026-09-05 18:24:43 | 51.11829 | 17.10876 | 122° | 197km/h | 7835m | -2.4m/s | -31.4°C | 7.8% | 371.9hPa | 2.5V | 00:00:00 | 00:00:00 | 00:00:00 | |
| SP3WXH-11 | 2026-09-05 18:24:42 | 51.11881 | 17.10741 | 121° | 195km/h | 7839m | -2.4m/s | -31.4°C | 7.9% | 371.7hPa | 2.5V | 00:00:00 | 00:00:00 | 00:00:00 | |
| SQ6EMJ | 2026-09-05 18:24:37 | 51.11985 | 17.10474 | 122° | 195km/h | 7849m | -2.4m/s | -31.5°C | 8.0% | 371.2hPa | 2.5V | 00:00:00 | 00:00:00 | 00:00:00 | |
| SP3BTT-10 | 2026-09-05 18:24:34 | 51.12062 | 17.10272 | 122° | 195km/h | 7856m | -2.4m/s | -31.5°C | 9.4% | 370.8hPa | 2.5V | 00:00:00 | 00:00:00 | 00:00:00 | |
| SQ6EMJ | 2026-09-05 18:24:30 | 51.12139 | 17.10069 | 122° | 195km/h | 7863m | -2.3m/s | -31.6°C | 8.1% | 370.4hPa | 2.5V | 00:00:00 | 00:00:00 | 00:00:00 | |
| SONDE2-11 | 2026-09-05 18:24:28 | 51.12241 | 17.09800 | 120° | 193km/h | 7873m | -2.3m/s | -31.7°C | 8.1% | 369.9hPa | 2.5V | 00:00:00 | 00:00:00 | 00:00:00 | |
| EDDB2-11 | 2026-09-05 18:24:26 | 51.12267 | 17.09732 | 120° | 195km/h | 7875m | -2.4m/s | -31.7°C | 8.1% | 369.9hPa | 2.5V | 00:00:00 | 00:00:00 | 00:00:00 | |
| SQ6EMJ | 2026-09-05 18:24:24 | 51.12292 | 17.09664 | 122° | 195km/h | 7878m | -2.5m/s | -31.7°C | 8.1% | 369.7hPa | 2.5V | 00:00:00 | 00:00:00 | 00:00:00 | |
| SQ6EMJ | 2026-09-05 18:24:20 | 51.12419 | 17.09328 | 122° | 195km/h | 7889m | -2.3m/s | -31.8°C | 8.2% | 369.1hPa | 2.5V | 00:00:00 | 00:00:00 | 00:00:00 | |
| EDDB2-12 | 2026-09-05 18:24:19 | 51.12445 | 17.09260 | 121° | 195km/h | 7892m | -2.4m/s | -31.8°C | 8.2% | 368.9hPa | 2.5V | 00:00:00 | 00:00:00 | 00:00:00 | |
| SQ6EMJ | 2026-09-05 18:24:15 | 51.12547 | 17.08990 | 122° | 195km/h | 7902m | -2.4m/s | -31.8°C | 7.9% | 368.4hPa | 2.5V | 00:00:00 | 00:00:00 | 00:00:00 | |
| SP3WXH-11 | 2026-09-05 18:24:11 | 51.12673 | 17.08652 | 120° | 193km/h | 7914m | -2.3m/s | -31.9°C | 7.8% | 367.8hPa | 2.5V | 00:00:00 | 00:00:00 | 00:00:00 | |
| SQ6EMJ | 2026-09-05 18:24:04 | 51.12823 | 17.08247 | 122° | 195km/h | 7928m | -2.4m/s | -32.1°C | 7.7% | 367.1hPa | 2.5V | 00:00:00 | 00:00:00 | 00:00:00 | |
| SONDE2-11 | 2026-09-05 18:23:57 | 51.13024 | 17.07707 | 120° | 195km/h | 7947m | -2.5m/s | -32.2°C | 7.7% | 366.1hPa | 2.5V | 00:00:00 | 00:00:00 | 00:00:00 | |
| EDDB2-11 | 2026-09-05 18:23:55 | 51.13049 | 17.07639 | 120° | 195km/h | 7949m | -2.3m/s | -32.3°C | 7.7% | 365.9hPa | 2.5V | 00:00:00 | 00:00:00 | 00:00:00 | |
| EDDB2-12 | 2026-09-05 18:23:48 | 51.13225 | 17.07158 | 120° | 197km/h | 7967m | -2.5m/s | -32.4°C | 7.8% | 365.1hPa | 2.5V | 00:00:00 | 00:00:00 | 00:00:00 | |
| SQ6EMJ | 2026-09-05 18:23:47 | 51.13225 | 17.07158 | 121° | 199km/h | 7967m | -2.5m/s | -32.4°C | 7.8% | 365.1hPa | 2.5V | 00:00:00 | 00:00:00 | 00:00:00 | |
| SQ6EMJ | 2026-09-05 18:23:41 | 51.13377 | 17.06745 | 121° | 199km/h | 7982m | -2.4m/s | -32.5°C | 7.7% | 364.3hPa | 2.5V | 00:00:00 | 00:00:00 | 00:00:00 | |
| SQ6EMJ | 2026-09-05 18:23:31 | 51.13626 | 17.06049 | 121° | 199km/h | 8006m | -2.5m/s | -32.7°C | 9.5% | 363.0hPa | 2.5V | 00:00:00 | 00:00:00 | 00:00:00 | |
| SONDE2-11 | 2026-09-05 18:23:26 | 51.13801 | 17.05559 | 119° | 201km/h | 8024m | -2.6m/s | -32.8°C | 11.1% | 362.1hPa | 2.5V | 00:00:00 | 00:00:00 | 00:00:00 | |
| SQ6EMJ | 2026-09-05 18:23:24 | 51.13826 | 17.05489 | 121° | 201km/h | 8027m | -2.6m/s | -32.8°C | 11.2% | 362.0hPa | 2.5V | 00:00:00 | 00:00:00 | 00:00:00 | |
| EDDB2-12 | 2026-09-05 18:23:17 | 51.14002 | 17.04999 | 120° | 199km/h | 8045m | -2.5m/s | -33.0°C | 12.1% | 361.1hPa | 2.5V | 00:00:00 | 00:00:00 | 00:00:00 | |
| SQ6EMJ | 2026-09-05 18:23:12 | 51.14103 | 17.04719 | 121° | 201km/h | 8056m | -2.6m/s | -33.0°C | 12.7% | 360.5hPa | 2.5V | 00:00:00 | 00:00:00 | 00:00:00 | |
| SP3WXH-11 | 2026-09-05 18:23:08 | 51.14229 | 17.04367 | 119° | 201km/h | 8069m | -2.8m/s | -33.1°C | 13.6% | 359.8hPa | 2.5V | 00:00:00 | 00:00:00 | 00:00:00 | |
| SQ6EMJ | 2026-09-05 18:23:06 | 51.14255 | 17.04296 | 121° | 203km/h | 8072m | -2.7m/s | -33.1°C | 13.8% | 359.7hPa | 2.5V | 00:00:00 | 00:00:00 | 00:00:00 | |
| SP3BTT-10 | 2026-09-05 18:23:04 | 51.14331 | 17.04086 | 120° | 201km/h | 8080m | -2.6m/s | -33.1°C | 16.6% | 359.3hPa | 2.5V | 00:00:00 | 00:00:00 | 00:00:00 | |
| SONDE2-11 | 2026-09-05 18:22:55 | 51.14580 | 17.03383 | 119° | 201km/h | 8107m | -2.7m/s | -33.3°C | 14.3% | 357.9hPa | 2.5V | 00:00:00 | 00:00:00 | 00:00:00 | |
| EDDB2-11 | 2026-09-05 18:22:53 | 51.14606 | 17.03313 | 119° | 203km/h | 8110m | -2.7m/s | -33.4°C | 14.3% | 357.7hPa | 2.5V | 00:00:00 | 00:00:00 | 00:00:00 | |
| EDDB2-12 | 2026-09-05 18:22:46 | 51.14785 | 17.02822 | 119° | 201km/h | 8129m | -2.8m/s | -33.5°C | 12.9% | 356.8hPa | 2.5V | 00:00:00 | 00:00:00 | 00:00:00 | |
| SQ6EMJ | 2026-09-05 18:22:44 | 51.14810 | 17.02752 | 121° | 201km/h | 8132m | -2.8m/s | -33.5°C | 13.1% | 356.7hPa | 2.5V | 00:00:00 | 00:00:00 | 00:00:00 | |
| SQ6EMJ | 2026-09-05 18:22:39 | 51.14963 | 17.02330 | 121° | 203km/h | 8149m | -3.0m/s | -33.6°C | 13.6% | 355.7hPa | 2.5V | 00:00:00 | 00:00:00 | 00:00:00 | |
| SP3WXH-11 | 2026-09-05 18:22:38 | 51.15015 | 17.02189 | 120° | 203km/h | 8155m | -2.8m/s | -33.7°C | 13.8% | 355.4hPa | 2.5V | 00:00:00 | 00:00:00 | 00:00:00 | |
| SP3BTT-10 | 2026-09-05 18:22:34 | 51.15093 | 17.01978 | 121° | 203km/h | 8164m | -2.9m/s | -33.7°C | 15.9% | 355.0hPa | 2.5V | 00:00:00 | 00:00:00 | 00:00:00 | |
| SQ6EMJ | 2026-09-05 18:22:32 | 51.15119 | 17.01908 | 122° | 201km/h | 8167m | -2.8m/s | -33.8°C | 13.9% | 354.9hPa | 2.5V | 00:00:00 | 00:00:00 | 00:00:00 | |
| SQ6EMJ | 2026-09-05 18:22:26 | 51.15273 | 17.01487 | 121° | 203km/h | 8184m | -2.9m/s | -33.9°C | 13.8% | 354.1hPa | 2.5V | 00:00:00 | 00:00:00 | 00:00:00 | |
| SONDE2-11 | 2026-09-05 18:22:24 | 51.15377 | 17.01204 | 120° | 203km/h | 8195m | -2.9m/s | -34.0°C | 14.2% | 353.4hPa | 2.5V | 00:00:00 | 00:00:00 | 00:00:00 | |
| EDDB2-11 | 2026-09-05 18:22:22 | 51.15404 | 17.01133 | 120° | 203km/h | 8198m | -3.0m/s | -34.0°C | 14.2% | 353.3hPa | 2.5V | 00:00:00 | 00:00:00 | 00:00:00 | |
| SQ6EMJ | 2026-09-05 18:22:21 | 51.15404 | 17.01133 | 122° | 204km/h | 8198m | -3.0m/s | -34.0°C | 14.2% | 353.3hPa | 2.5V | 00:00:00 | 00:00:00 | 00:00:00 | |
| SQ6EMJ | 2026-09-05 18:22:16 | 51.15535 | 17.00783 | 122° | 201km/h | 8213m | -2.8m/s | -34.1°C | 14.1% | 352.5hPa | 2.5V | 00:00:00 | 00:00:00 | 00:00:00 | |
| EDDB2-12 | 2026-09-05 18:22:15 | 51.15587 | 17.00644 | 120° | 199km/h | 8219m | -2.9m/s | -34.2°C | 14.2% | 352.1hPa | 2.5V | 00:00:00 | 00:00:00 | 00:00:00 | |
| SQ6EMJ | 2026-09-05 18:22:10 | 51.15689 | 17.00362 | 121° | 204km/h | 8231m | -2.8m/s | -34.3°C | 14.3% | 351.7hPa | 2.5V | 00:00:00 | 00:00:00 | 00:00:00 | |
| SP3WXH-11 | 2026-09-05 18:22:06 | 51.15821 | 17.00007 | 121° | 203km/h | 8245m | -2.8m/s | -34.4°C | 14.4% | 350.9hPa | 2.5V | 00:00:00 | 00:00:00 | 00:00:00 | |
| SQ6EMJ | 2026-09-05 18:22:05 | 51.15821 | 17.00007 | 122° | 204km/h | 8245m | -2.8m/s | -34.4°C | 14.4% | 350.9hPa | 2.5V | 00:00:00 | 00:00:00 | 00:00:00 | |
| SONDE2-11 | 2026-09-05 18:21:53 | 51.16186 | 16.99022 | 121° | 204km/h | 8286m | -2.9m/s | -34.7°C | 14.6% | 348.9hPa | 2.5V | 00:00:00 | 00:00:00 | 00:00:00 | |
| EDDB2-11 | 2026-09-05 18:21:51 | 51.16213 | 16.98951 | 121° | 203km/h | 8289m | -3.1m/s | -34.8°C | 14.7% | 348.7hPa | 2.5V | 00:00:00 | 00:00:00 | 00:00:00 | |
| SP3BTT-10 | 2026-09-05 18:21:49 | 51.16266 | 16.98812 | 122° | 204km/h | 8295m | -3.0m/s | -34.8°C | 16.9% | 348.3hPa | 2.5V | 00:00:00 | 00:00:00 | 00:00:00 | |
| SQ6EMJ | 2026-09-05 18:21:48 | 51.16266 | 16.98812 | 122° | 203km/h | 8295m | -3.0m/s | -34.8°C | 0% | 0hPa | 2.5V | 00:00:00 | 00:00:00 | 00:00:00 | |
| EDDB2-12 | 2026-09-05 18:21:44 | 51.16396 | 16.98462 | 119° | 203km/h | 8310m | -3.0m/s | -35.0°C | 14.9% | 347.7hPa | 2.5V | 00:00:00 | 00:00:00 | 00:00:00 | |
| SQ6EMJ | 2026-09-05 18:21:43 | 51.16421 | 16.98391 | 121° | 204km/h | 8313m | -2.9m/s | -35.0°C | 0% | 0hPa | 2.5V | 00:00:00 | 00:00:00 | 00:00:00 | |
| SQ6EMJ | 2026-09-05 18:21:37 | 51.16579 | 16.97964 | 122° | 206km/h | 8331m | -3.0m/s | -35.2°C | 0% | 0hPa | 2.5V | 00:00:00 | 00:00:00 | 00:00:00 | |
| SP3WXH-11 | 2026-09-05 18:21:36 | 51.16634 | 16.97822 | 121° | 204km/h | 8337m | -2.9m/s | -35.2°C | 15.0% | 346.3hPa | 2.5V | 00:00:00 | 00:00:00 | 00:00:00 | |
| SQ6EMJ | 2026-09-05 18:21:30 | 51.16742 | 16.97541 | 122° | 204km/h | 8349m | -2.8m/s | 0°C | 0% | 0hPa | 2.5V | 00:00:00 | 00:00:00 | 00:00:00 | |
| SQ6EMJ | 2026-09-05 18:21:24 | 51.16900 | 16.97116 | 121° | 206km/h | 8367m | -3.1m/s | 0°C | 0% | 0hPa | 2.5V | 00:00:00 | 00:00:00 | 00:00:00 | |
| SONDE2-11 | 2026-09-05 18:21:21 | 51.17007 | 16.96830 | 121° | 206km/h | 8378m | -3.0m/s | -35.5°C | 15.1% | 344.3hPa | 2.5V | 00:00:00 | 00:00:00 | 00:00:00 | |
| EDDB2-11 | 2026-09-05 18:21:20 | 51.17034 | 16.96759 | 121° | 204km/h | 8381m | -3.0m/s | -35.6°C | 15.2% | 344.1hPa | 2.5V | 00:00:00 | 00:00:00 | 00:00:00 | |
| SQ6EMJ | 2026-09-05 18:21:19 | 51.17061 | 16.96688 | 122° | 204km/h | 8384m | -2.8m/s | 0°C | 0% | 0hPa | 2.5V | 00:00:00 | 00:00:00 | 00:00:00 | |
| SQ6EMJ | 2026-09-05 18:21:13 | 51.17220 | 16.96265 | 121° | 204km/h | 8402m | -3.0m/s | 0°C | 0% | 0hPa | 2.5V | 00:00:00 | 00:00:00 | 00:00:00 | |
| SP3WXH-11 | 2026-09-05 18:21:04 | 51.17456 | 16.95625 | 120° | 204km/h | 8427m | -2.8m/s | -35.9°C | 15.0% | 341.7hPa | 2.5V | 00:00:00 | 00:00:00 | 00:00:00 | |
| SONDE2-11 | 2026-09-05 18:20:50 | 51.17825 | 16.94637 | 120° | 204km/h | 8468m | -2.9m/s | -36.2°C | 14.3% | 339.9hPa | 2.5V | 00:00:00 | 00:00:00 | 00:00:00 | |
| EDDB2-11 | 2026-09-05 18:20:49 | 51.17851 | 16.94566 | 120° | 204km/h | 8471m | -2.9m/s | -36.2°C | 14.3% | 339.7hPa | 2.5V | 00:00:00 | 00:00:00 | 00:00:00 | |
| EDDB2-12 | 2026-09-05 18:20:42 | 51.18037 | 16.94072 | 120° | 203km/h | 8491m | -2.8m/s | -36.4°C | 14.2% | 338.7hPa | 2.5V | 00:00:00 | 00:00:00 | 00:00:00 | |
| SP3BTT-10 | 2026-09-05 18:20:34 | 51.18245 | 16.93506 | 121° | 204km/h | 8513m | -2.9m/s | -36.5°C | 16.5% | 337.6hPa | 2.5V | 00:00:00 | 00:00:00 | 00:00:00 | |
| SP3WXH-11 | 2026-09-05 18:20:33 | 51.18271 | 16.93435 | 119° | 203km/h | 8516m | -2.6m/s | -36.6°C | 14.2% | 337.6hPa | 2.5V | 00:00:00 | 00:00:00 | 00:00:00 | |
| SONDE2-11 | 2026-09-05 18:20:19 | 51.18631 | 16.92444 | 119° | 204km/h | 8553m | -2.7m/s | -36.9°C | 14.4% | 335.7hPa | 2.5V | 00:00:00 | 00:00:00 | 00:00:00 | |
| EDDB2-11 | 2026-09-05 18:20:18 | 51.18657 | 16.92372 | 120° | 204km/h | 8555m | -2.5m/s | -37.0°C | 14.5% | 335.6hPa | 2.5V | 00:00:00 | 00:00:00 | 00:00:00 | |
| EDDB2-12 | 2026-09-05 18:20:11 | 51.18841 | 16.91877 | 120° | 203km/h | 8573m | -2.8m/s | -37.1°C | 14.4% | 334.7hPa | 2.5V | 00:00:00 | 00:00:00 | 00:00:00 | |
| SP3BTT-10 | 2026-09-05 18:20:04 | 51.19023 | 16.91376 | 121° | 204km/h | 8592m | -2.7m/s | -37.2°C | 16.4% | 333.8hPa | 2.5V | 00:00:00 | 00:00:00 | 08:30:00 | |
| SP3WXH-11 | 2026-09-05 18:20:02 | 51.19076 | 16.91232 | 120° | 206km/h | 8597m | -2.5m/s | -37.2°C | 13.8% | 333.6hPa | 2.5V | 00:00:00 | 00:00:00 | 00:00:00 | |
| EDDB2-11 | 2026-09-05 18:19:47 | 51.19474 | 16.90167 | 120° | 206km/h | 8634m | -2.5m/s | -37.4°C | 13.8% | 331.9hPa | 2.5V | 00:00:00 | 00:00:00 | 00:00:00 | |
| EDDB2-12 | 2026-09-05 18:19:40 | 51.19661 | 16.89672 | 120° | 203km/h | 8651m | -2.4m/s | -37.6°C | 13.9% | 331.0hPa | 2.5V | 00:00:00 | 00:00:00 | 00:00:00 | |
| SP3BTT-10 | 2026-09-05 18:19:34 | 51.19818 | 16.89246 | 121° | 204km/h | 8666m | -2.5m/s | -37.6°C | 16.3% | 330.3hPa | 2.5V | 00:00:00 | 00:00:00 | 00:00:00 | |
| SP3WXH-11 | 2026-09-05 18:19:31 | 51.19897 | 16.89032 | 120° | 204km/h | 8673m | -2.4m/s | -37.7°C | 13.7% | 330.0hPa | 2.5V | 00:00:00 | 00:00:00 | 00:00:00 | |
| OE3JTB-15 | 2026-09-05 18:19:29 | 51.19950 | 16.88890 | 121° | 204km/h | 8678m | -2.3m/s | -37.7°C | 16.1% | 329.7hPa | 2.5V | 00:00:00 | 00:00:00 | 00:00:00 | |
| SONDE2-11 | 2026-09-05 18:19:17 | 51.20267 | 16.88040 | 121° | 204km/h | 8705m | -2.4m/s | -38.0°C | 13.9% | 328.4hPa | 2.5V | 00:00:00 | 00:00:00 | 00:00:00 | |
| EDDB2-11 | 2026-09-05 18:19:16 | 51.20321 | 16.87898 | 121° | 204km/h | 8710m | -2.4m/s | -38.0°C | 13.9% | 328.2hPa | 2.5V | 00:00:00 | 00:00:00 | 00:00:00 | |
| EDDB2-12 | 2026-09-05 18:19:09 | 51.20482 | 16.87477 | 121° | 203km/h | 8724m | -2.3m/s | -38.1°C | 14.0% | 327.6hPa | 2.5V | 00:00:00 | 00:00:00 | 00:00:00 | |
| SP3BTT-10 | 2026-09-05 18:19:04 | 51.20616 | 16.87127 | 122° | 204km/h | 8735m | -2.2m/s | -38.2°C | 16.4% | 327.0hPa | 2.5V | 00:00:00 | 00:00:00 | 00:00:00 | |
| SP3WXH-11 | 2026-09-05 18:19:00 | 51.20724 | 16.86845 | 121° | 204km/h | 8744m | -2.2m/s | -38.3°C | 13.9% | 326.6hPa | 2.5V | 00:00:00 | 00:00:00 | 00:00:00 | |
| SONDE2-11 | 2026-09-05 18:18:46 | 51.21095 | 16.85853 | 120° | 204km/h | 8776m | -2.5m/s | -38.4°C | 13.1% | 325.1hPa | 2.5V | 00:00:00 | 00:00:00 | 00:00:00 | |
| EDDB2-11 | 2026-09-05 18:18:45 | 51.21147 | 16.85711 | 120° | 204km/h | 8781m | -2.3m/s | -38.5°C | 13.0% | 324.8hPa | 2.5V | 00:00:00 | 00:00:00 | 00:00:00 | |
| EDDB2-12 | 2026-09-05 18:18:38 | 51.21309 | 16.85285 | 121° | 206km/h | 8796m | -2.4m/s | -38.5°C | 12.8% | 324.2hPa | 2.5V | 00:00:00 | 00:00:00 | 00:00:00 | |
| SP3WXH-11 | 2026-09-05 18:18:29 | 51.21554 | 16.84653 | 121° | 204km/h | 8817m | -2.3m/s | -38.7°C | 12.9% | 323.3hPa | 2.5V | 00:00:00 | 00:00:00 | 00:00:00 | |
| OE3JTB-15 | 2026-09-05 18:18:23 | 51.21718 | 16.84227 | 122° | 204km/h | 8831m | -2.4m/s | -38.7°C | 15.3% | 322.5hPa | 2.5V | 00:00:00 | 02:02:47 | 00:00:00 | |
| SP3BTT-10 | 2026-09-05 18:18:19 | 51.21828 | 16.83947 | 122° | 206km/h | 8841m | -2.5m/s | -38.8°C | 14.7% | 322.1hPa | 2.5V | 00:00:00 | 00:00:00 | 00:00:00 | |
| SONDE2-11 | 2026-09-05 18:18:15 | 51.21936 | 16.83668 | 121° | 203km/h | 8850m | -2.4m/s | -38.9°C | 12.2% | 321.7hPa | 2.5V | 00:00:00 | 00:00:00 | 00:00:00 | |
| EDDB2-11 | 2026-09-05 18:18:14 | 51.21990 | 16.83527 | 121° | 204km/h | 8855m | -2.4m/s | -38.9°C | 12.3% | 321.5hPa | 2.5V | 00:00:00 | 00:00:00 | 00:00:00 | |
| EDDB2-12 | 2026-09-05 18:18:07 | 51.22183 | 16.83037 | 122° | 204km/h | 8873m | -2.5m/s | -39.0°C | 12.5% | 320.7hPa | 2.5V | 00:00:00 | 00:00:00 | 00:00:00 | |
| SP3WXH-11 | 2026-09-05 18:17:58 | 51.22405 | 16.82478 | 122° | 206km/h | 8893m | -2.6m/s | -39.2°C | 12.7% | 319.7hPa | 2.5V | 00:00:00 | 00:00:00 | 00:00:00 | |
| SP3BTT-10 | 2026-09-05 18:17:49 | 51.22660 | 16.81851 | 123° | 208km/h | 8915m | -2.5m/s | -39.3°C | 15.8% | 318.6hPa | 2.5V | 00:00:00 | 00:00:00 | 00:00:00 | |
| SONDE2-11 | 2026-09-05 18:17:44 | 51.22800 | 16.81504 | 122° | 204km/h | 8928m | -2.7m/s | -39.4°C | 13.9% | 318.1hPa | 2.5V | 00:00:00 | 00:00:00 | 00:00:00 | |
| EDDB2-11 | 2026-09-05 18:17:43 | 51.22856 | 16.81364 | 122° | 206km/h | 8933m | -2.6m/s | -39.5°C | 14.0% | 317.8hPa | 2.5V | 00:00:00 | 00:00:00 | 00:00:00 | |
| OE3JTB-15 | 2026-09-05 18:17:38 | 51.22971 | 16.81084 | 124° | 210km/h | 8944m | -2.5m/s | -39.5°C | 16.8% | 317.3hPa | 2.5V | 00:00:00 | 00:00:00 | 00:00:00 | |
| EDDB2-12 | 2026-09-05 18:17:36 | 51.23058 | 16.80877 | 123° | 204km/h | 8951m | -2.6m/s | -39.6°C | 14.3% | 317.0hPa | 2.5V | 00:00:00 | 00:00:00 | 00:00:00 | |
| SP3WXH-11 | 2026-09-05 18:17:27 | 51.23292 | 16.80321 | 124° | 208km/h | 8973m | -2.7m/s | -39.7°C | 13.7% | 316.1hPa | 2.5V | 00:00:00 | 00:00:00 | 00:00:00 | |
| SP3BTT-10 | 2026-09-05 18:17:19 | 51.23532 | 16.79765 | 125° | 212km/h | 8995m | -2.8m/s | -39.6°C | 15.6% | 315.0hPa | 2.5V | 00:00:00 | 00:00:00 | 00:00:00 | |
| SONDE2-11 | 2026-09-05 18:17:13 | 51.23714 | 16.79344 | 124° | 212km/h | 9011m | -2.8m/s | -39.7°C | 12.8% | 314.2hPa | 2.5V | 00:00:00 | 00:00:00 | 00:00:00 | |
| EDDB2-11 | 2026-09-05 18:17:12 | 51.23774 | 16.79202 | 124° | 212km/h | 9017m | -2.8m/s | -39.7°C | 12.8% | 314.0hPa | 2.5V | 00:00:00 | 00:00:00 | 00:00:00 | |
| OE3JTB-15 | 2026-09-05 18:17:09 | 51.23835 | 16.79060 | 125° | 215km/h | 9022m | -2.8m/s | -39.6°C | 15.2% | 313.7hPa | 2.5V | 00:00:00 | 00:00:00 | 00:00:00 | |
| EDDB2-12 | 2026-09-05 18:17:05 | 51.23988 | 16.78708 | 124° | 212km/h | 9036m | -2.8m/s | -39.7°C | 12.2% | 313.1hPa | 2.5V | 00:00:00 | 00:00:00 | 00:00:00 | |
| SP3WXH-11 | 2026-09-05 18:16:56 | 51.24230 | 16.78143 | 124° | 212km/h | 9058m | -2.9m/s | -39.7°C | 12.0% | 312.1hPa | 2.5V | 00:00:00 | 00:00:00 | 00:00:00 | |
| SP3BTT-10 | 2026-09-05 18:16:49 | 51.24442 | 16.77648 | 125° | 215km/h | 9079m | -2.8m/s | -39.6°C | 16.2% | 311.1hPa | 2.5V | 00:00:00 | 00:00:00 | 00:00:00 | |
| SONDE2-11 | 2026-09-05 18:16:42 | 51.24656 | 16.77148 | 124° | 214km/h | 9099m | -2.9m/s | -39.8°C | 14.9% | 310.3hPa | 2.5V | 00:00:00 | 00:00:00 | 00:00:00 | |
| EDDB2-11 | 2026-09-05 18:16:41 | 51.24717 | 16.77004 | 123° | 215km/h | 9105m | -2.9m/s | -39.8°C | 14.9% | 310.0hPa | 2.5V | 00:00:00 | 00:00:00 | 00:00:00 | |
| EDDB2-12 | 2026-09-05 18:16:34 | 51.24928 | 16.76498 | 123° | 214km/h | 9125m | -2.9m/s | -39.9°C | 14.9% | 309.0hPa | 2.5V | 00:00:00 | 00:00:00 | 00:00:00 | |
| SP3WXH-11 | 2026-09-05 18:16:25 | 51.25170 | 16.75921 | 123° | 215km/h | 9149m | -3.0m/s | -40.0°C | 14.4% | 308.0hPa | 2.5V | 00:00:00 | 00:00:00 | 00:00:00 | |
| SP3BTT-10 | 2026-09-05 18:16:19 | 51.25353 | 16.75491 | 125° | 215km/h | 9167m | -2.9m/s | -40.0°C | 17.2% | 307.1hPa | 2.5V | 00:00:00 | 00:00:00 | 00:00:00 | |
| SONDE2-11 | 2026-09-05 18:16:11 | 51.25600 | 16.74918 | 124° | 215km/h | 9191m | -2.9m/s | -40.2°C | 14.6% | 306.1hPa | 2.5V | 00:00:00 | 00:00:00 | 00:00:00 | |
| EDDB2-11 | 2026-09-05 18:16:10 | 51.25662 | 16.74774 | 124° | 217km/h | 9197m | -2.9m/s | -40.2°C | 14.5% | 305.8hPa | 2.5V | 00:00:00 | 00:00:00 | 00:00:00 | |
| EDDB2-12 | 2026-09-05 18:16:03 | 51.25881 | 16.74276 | 125° | 212km/h | 9218m | -3.0m/s | -40.4°C | 14.6% | 304.9hPa | 2.5V | 00:00:00 | 00:00:00 | 00:00:00 | |
| SP3WXH-11 | 2026-09-05 18:15:54 | 51.26129 | 16.73709 | 124° | 215km/h | 9243m | -3.0m/s | -40.6°C | 15.0% | 303.8hPa | 2.5V | 00:00:00 | 00:00:00 | 00:00:00 | |
| SONDE2-11 | 2026-09-05 18:15:40 | 51.26569 | 16.72714 | 125° | 215km/h | 9286m | -3.1m/s | -40.9°C | 15.6% | 301.8hPa | 2.5V | 00:00:00 | 00:00:00 | 00:00:00 | |
| EDDB2-11 | 2026-09-05 18:15:39 | 51.26632 | 16.72572 | 125° | 214km/h | 9292m | -3.0m/s | -40.9°C | 15.6% | 301.5hPa | 2.5V | 00:00:00 | 00:00:00 | 00:00:00 | |
| SP3BTT-10 | 2026-09-05 18:15:34 | 51.26758 | 16.72288 | 126° | 215km/h | 9305m | -3.0m/s | -41.0°C | 19.2% | 300.9hPa | 2.5V | 00:00:00 | 00:00:00 | 00:00:00 | |
| EDDB2-12 | 2026-09-05 18:15:32 | 51.26854 | 16.72075 | 125° | 215km/h | 9314m | -3.2m/s | -41.1°C | 16.8% | 300.6hPa | 2.5V | 00:00:00 | 00:00:00 | 00:00:00 | |
| OE3JTB-15 | 2026-09-05 18:15:24 | 51.27073 | 16.71577 | 125° | 215km/h | 9336m | -3.1m/s | -41.3°C | 21.0% | 299.6hPa | 2.5V | 00:00:00 | 01:59:48 | 00:00:00 | |
| SP3WXH-11 | 2026-09-05 18:15:23 | 51.27105 | 16.71506 | 124° | 214km/h | 9338m | -3.1m/s | -41.3°C | 17.7% | 299.5hPa | 2.5V | 00:00:00 | 00:00:00 | 00:00:00 | |
| SONDE2-11 | 2026-09-05 18:15:09 | 51.27539 | 16.70505 | 124° | 214km/h | 9382m | -3.2m/s | -41.7°C | 18.9% | 297.6hPa | 2.5V | 00:00:00 | 00:00:00 | 00:00:00 | |
| EDDB2-11 | 2026-09-05 18:15:08 | 51.27601 | 16.70362 | 124° | 214km/h | 9388m | -3.0m/s | -41.8°C | 19.1% | 297.3hPa | 2.5V | 00:00:00 | 00:00:00 | 00:00:00 | |
| SP3BTT-10 | 2026-09-05 18:15:04 | 51.27693 | 16.70147 | 125° | 217km/h | 9398m | -3.0m/s | -41.8°C | 22.8% | 296.8hPa | 2.5V | 00:00:00 | 00:00:00 | 08:30:00 | |
| EDDB2-12 | 2026-09-05 18:15:01 | 51.27818 | 16.69859 | 124° | 217km/h | 9410m | -3.0m/s | -42.0°C | 19.6% | 296.3hPa | 2.5V | 00:00:00 | 00:00:00 | 00:00:00 | |
| SP3WXH-11 | 2026-09-05 18:14:52 | 51.28067 | 16.69285 | 124° | 214km/h | 9434m | -3.1m/s | -42.2°C | 19.7% | 295.3hPa | 2.5V | 00:00:00 | 00:00:00 | 00:00:00 | |
| SONDE2-11 | 2026-09-05 18:14:38 | 51.28505 | 16.68280 | 124° | 215km/h | 9477m | -2.9m/s | -42.5°C | 20.0% | 293.4hPa | 2.5V | 00:00:00 | 00:00:00 | 00:00:00 | |
| EDDB2-11 | 2026-09-05 18:14:36 | 51.28567 | 16.68136 | 124° | 215km/h | 9483m | -2.9m/s | -42.6°C | 20.2% | 293.2hPa | 2.5V | 00:00:00 | 00:00:00 | 00:00:00 | |
| EDDB2-12 | 2026-09-05 18:14:30 | 51.28788 | 16.67631 | 125° | 217km/h | 9504m | -2.9m/s | -42.7°C | 20.2% | 292.3hPa | 2.5V | 00:00:00 | 00:00:00 | 00:00:00 | |
| SP3WXH-11 | 2026-09-05 18:14:21 | 51.29041 | 16.67052 | 124° | 217km/h | 9527m | -3.0m/s | -42.9°C | 19.2% | 291.2hPa | 2.5V | 00:00:00 | 00:00:00 | 00:00:00 | |
| 13BRC | 2026-09-05 18:14:20 | 51.29041 | 16.67052 | 126° | 219km/h | 9527m | -3.0m/s | -42.9°C | 19.2% | 291.2hPa | 2.5V | 00:00:00 | 00:00:00 | 00:00:00 | |
| SP3BTT-10 | 2026-09-05 18:14:19 | 51.29103 | 16.66907 | 125° | 219km/h | 9534m | -3.0m/s | -42.8°C | 22.2% | 290.9hPa | 2.5V | 00:00:00 | 00:00:00 | 00:00:00 | |
| SONDE2-11 | 2026-09-05 18:14:07 | 51.29483 | 16.66043 | 124° | 217km/h | 9568m | -2.8m/s | -43.0°C | 18.7% | 289.4hPa | 2.5V | 00:00:00 | 00:00:00 | 00:00:00 | |
| EDDB2-11 | 2026-09-05 18:14:05 | 51.29545 | 16.65899 | 124° | 215km/h | 9574m | -2.9m/s | -43.1°C | 18.7% | 289.2hPa | 2.5V | 00:00:00 | 00:00:00 | 00:00:00 | |
| EDDB2-12 | 2026-09-05 18:13:58 | 51.29763 | 16.65391 | 124° | 219km/h | 9594m | -2.9m/s | -43.3°C | 18.9% | 288.3hPa | 2.5V | 00:00:00 | 00:00:00 | 00:00:00 | |
| OE3JTB-15 | 2026-09-05 18:13:50 | 51.30015 | 16.64810 | 125° | 217km/h | 9617m | -2.7m/s | -43.3°C | 22.4% | 287.3hPa | 2.5V | 00:00:00 | 00:00:00 | 08:30:00 | |
| SONDE2-11 | 2026-09-05 18:13:36 | 51.30452 | 16.63794 | 124° | 217km/h | 9656m | -2.7m/s | -43.7°C | 19.4% | 285.7hPa | 2.6V | 00:00:00 | 00:00:00 | 00:00:00 | |
| EDDB2-11 | 2026-09-05 18:13:34 | 51.30514 | 16.63650 | 124° | 215km/h | 9661m | -2.7m/s | -43.8°C | 19.5% | 285.5hPa | 2.6V | 00:00:00 | 00:00:00 | 00:00:00 | |
| EDDB2-12 | 2026-09-05 18:13:27 | 51.30732 | 16.63143 | 125° | 219km/h | 9680m | -2.5m/s | -43.9°C | 19.9% | 284.7hPa | 2.6V | 00:00:00 | 00:00:00 | 00:00:00 | |
| SP3BTT-10 | 2026-09-05 18:13:19 | 51.30984 | 16.62567 | 125° | 217km/h | 9701m | -2.7m/s | -44.1°C | 24.1% | 283.7hPa | 2.6V | 00:00:00 | 00:00:00 | 00:00:00 | |
| DB0DAN | 2026-09-05 18:13:10 | 51.31263 | 16.61917 | 124° | 206km/h | 9726m | -2.7m/s | -44.4°C | 20.5% | 282.73hPa | 2.5V | 00:00:00 | 00:00:00 | 00:00:00 | |
| OE3JTB-15 | 2026-09-05 18:13:07 | 51.31356 | 16.61701 | 125° | 217km/h | 9734m | -2.6m/s | -44.4°C | 24.5% | 282.3hPa | 2.5V | 00:00:00 | 00:00:00 | 00:00:00 | |
| SONDE2-11 | 2026-09-05 18:13:05 | 51.31418 | 16.61557 | 124° | 215km/h | 9739m | -2.8m/s | -44.5°C | 20.7% | 282.1hPa | 2.5V | 00:00:00 | 00:00:00 | 00:00:00 | |
| EDDB2-11 | 2026-09-05 18:13:03 | 51.31479 | 16.61412 | 124° | 217km/h | 9745m | -2.7m/s | -44.6°C | 20.7% | 281.9hPa | 2.5V | 00:00:00 | 00:00:00 | 00:00:00 | |
| EDDB2-12 | 2026-09-05 18:12:56 | 51.31697 | 16.60903 | 124° | 215km/h | 9764m | -2.7m/s | -44.6°C | 20.4% | 281.1hPa | 2.5V | 00:00:00 | 00:00:00 | 00:00:00 | |
| DB0DAN | 2026-09-05 18:12:55 | 51.31728 | 16.60830 | 124° | 206km/h | 9766m | -2.7m/s | -44.6°C | 20.4% | 281.02hPa | 2.5V | 00:00:00 | 00:00:00 | 00:00:00 | |
| SP3WXH-11 | 2026-09-05 18:12:48 | 51.31941 | 16.60320 | 123° | 217km/h | 9785m | -2.7m/s | -44.7°C | 20.4% | 280.2hPa | 2.6V | 00:00:00 | 00:00:00 | 00:00:00 | |
| DB0DAN | 2026-09-05 18:12:40 | 51.32187 | 16.59737 | 124° | 206km/h | 9807m | -2.6m/s | -44.9°C | 20.6% | 279.32hPa | 2.6V | 00:00:00 | 00:00:00 | 00:00:00 | |
| SP3BTT-10 | 2026-09-05 18:12:40 | 51.32187 | 16.59736 | 124° | 219km/h | 9807m | -2.5m/s | -44.8°C | 24.5% | 279.3hPa | 2.5V | 00:00:00 | 00:00:00 | 00:00:00 | |
| SONDE2-11 | 2026-09-05 18:12:34 | 51.32369 | 16.59297 | 122° | 217km/h | 9822m | -2.7m/s | -45.0°C | 20.1% | 278.6hPa | 2.5V | 00:00:00 | 00:00:00 | 00:00:00 | |
| EDDB2-11 | 2026-09-05 18:12:32 | 51.32430 | 16.59150 | 123° | 217km/h | 9828m | -2.8m/s | -45.0°C | 20.0% | 278.4hPa | 2.5V | 00:00:00 | 00:00:00 | 00:00:00 | |
| DB0DAN | 2026-09-05 18:12:25 | 51.32643 | 16.58634 | 124° | 208km/h | 9847m | -2.7m/s | -45.1°C | 20.1% | 277.64hPa | 2.5V | 00:00:00 | 00:00:00 | 00:00:00 | |
| SP3WXH-11 | 2026-09-05 18:12:17 | 51.32918 | 16.57972 | 123° | 219km/h | 9872m | -2.7m/s | -45.3°C | 20.1% | 276.6hPa | 2.6V | 00:00:00 | 00:00:00 | 00:00:00 | |
| DB0DAN | 2026-09-05 18:12:10 | 51.33104 | 16.57526 | 124° | 210km/h | 9888m | -2.8m/s | -45.4°C | 20.2% | 275.96hPa | 2.6V | 00:00:00 | 00:00:00 | 00:00:00 | |
| SP3BTT-10 | 2026-09-05 18:12:10 | 51.33104 | 16.57526 | 124° | 221km/h | 9888m | -2.8m/s | -45.4°C | 24.2% | 275.9hPa | 2.5V | 00:00:00 | 00:00:00 | 00:00:00 | |
| SONDE2-11 | 2026-09-05 18:12:03 | 51.33348 | 16.56939 | 122° | 217km/h | 9910m | -2.6m/s | -45.6°C | 20.8% | 275.0hPa | 2.5V | 00:00:00 | 00:00:00 | 00:00:00 | |
| EDDB2-11 | 2026-09-05 18:12:01 | 51.33378 | 16.56865 | 123° | 217km/h | 9913m | -2.8m/s | -45.6°C | 20.8% | 274.9hPa | 2.5V | 00:00:00 | 00:00:00 | 00:00:00 | |
| DB0DAN | 2026-09-05 18:11:55 | 51.33561 | 16.56421 | 124° | 210km/h | 9929m | -2.8m/s | -45.7°C | 21% | 274.24hPa | 2.5V | 00:00:00 | 00:00:00 | 00:00:00 | |
| EDDB2-12 | 2026-09-05 18:11:54 | 51.33592 | 16.56348 | 123° | 219km/h | 9932m | -2.8m/s | -45.7°C | 20.8% | 274.1hPa | 2.5V | 00:00:00 | 00:00:00 | 00:00:00 | |
| SP3WXH-11 | 2026-09-05 18:11:46 | 51.33839 | 16.55756 | 123° | 221km/h | 9955m | -3.0m/s | -45.9°C | 20.3% | 273.1hPa | 2.5V | 00:00:00 | 00:00:00 | 00:00:00 | |
| SP3BTT-10 | 2026-09-05 18:11:40 | 51.34026 | 16.55306 | 124° | 221km/h | 9972m | -2.7m/s | -46.0°C | 24.5% | 272.4hPa | 2.5V | 00:00:00 | 00:00:00 | 00:00:00 | |
| SONDE2-11 | 2026-09-05 18:11:32 | 51.34302 | 16.54637 | 123° | 221km/h | 9998m | -2.9m/s | -46.2°C | 20.7% | 271.4hPa | 2.5V | 00:00:00 | 00:00:00 | 00:00:00 | |
| EDDB2-11 | 2026-09-05 18:11:30 | 51.34333 | 16.54562 | 123° | 221km/h | 10000m | -2.8m/s | -46.2°C | 20.7% | 271.3hPa | 2.5V | 00:00:00 | 00:00:00 | 00:00:00 | |
| 13BRC | 2026-09-05 18:11:24 | 51.34489 | 16.54190 | 125° | 221km/h | 10015m | -2.8m/s | -46.3°C | 20.3% | 270.7hPa | 2.5V | 00:00:00 | 00:00:00 | 00:00:00 | |
| EDDB2-12 | 2026-09-05 18:11:23 | 51.34551 | 16.54042 | 123° | 221km/h | 10020m | -2.8m/s | -46.3°C | 20.1% | 270.4hPa | 2.5V | 00:00:00 | 00:00:00 | 00:00:00 | |
| OE3JTB-15 | 2026-09-05 18:11:22 | 51.34582 | 16.53968 | 124° | 221km/h | 10023m | -2.8m/s | -46.3°C | 24.1% | 270.3hPa | 2.5V | 00:00:00 | 00:00:00 | 00:00:00 | |
| SP3WXH-11 | 2026-09-05 18:11:15 | 51.34835 | 16.53374 | 124° | 221km/h | 10047m | -3.1m/s | -46.4°C | 19.3% | 269.3hPa | 2.5V | 00:00:00 | 00:00:00 | 00:00:00 | |
| SP3BTT-10 | 2026-09-05 18:11:10 | 51.34960 | 16.53079 | 125° | 221km/h | 10059m | -2.9m/s | -46.4°C | 23.1% | 268.9hPa | 2.5V | 00:00:00 | 00:00:00 | 00:00:00 | |
| DL2RXE-15 | 2026-09-05 18:11:05 | 51.35085 | 16.52784 | 125° | 223km/h | 10071m | -2.9m/s | -46.5°C | 19.0% | 268.4hPa | 2.5V | 00:00:00 | 00:00:00 | 00:00:00 | |
| 13BRC | 2026-09-05 18:11:03 | 51.35149 | 16.52636 | 125° | 223km/h | 10076m | -3.1m/s | -46.5°C | 18.9% | 268.2hPa | 2.5V | 00:00:00 | 00:00:00 | 00:00:00 | |
| SONDE2-11 | 2026-09-05 18:11:01 | 51.35277 | 16.52340 | 124° | 221km/h | 10089m | -3.1m/s | -46.6°C | 18.9% | 267.7hPa | 2.5V | 00:00:00 | 00:00:00 | 00:00:00 | |
| EDDB2-11 | 2026-09-05 18:10:59 | 51.35309 | 16.52266 | 124° | 221km/h | 10092m | -3.0m/s | -46.6°C | 19.0% | 267.6hPa | 2.5V | 00:00:00 | 00:00:00 | 00:00:00 | |
| EDDB2-12 | 2026-09-05 18:10:52 | 51.35529 | 16.51755 | 124° | 219km/h | 10113m | -3.0m/s | -46.8°C | 19.1% | 266.7hPa | 2.5V | 00:00:00 | 00:00:00 | 00:00:00 | |
| SP3WXH-11 | 2026-09-05 18:10:44 | 51.35815 | 16.51098 | 124° | 219km/h | 10140m | -3.0m/s | -46.9°C | 18.9% | 265.6hPa | 2.5V | 00:00:00 | 00:00:00 | 00:00:00 | |
| DL2RXE-15 | 2026-09-05 18:10:42 | 51.35815 | 16.51097 | 126° | 221km/h | 10140m | -3.0m/s | -46.9°C | 18.9% | 265.6hPa | 2.5V | 00:00:00 | 00:00:00 | 00:00:00 | |
| SP3BTT-10 | 2026-09-05 18:10:34 | 51.36103 | 16.50437 | 126° | 221km/h | 10168m | -2.9m/s | -47.0°C | 22.9% | 264.5hPa | 2.5V | 00:00:00 | 00:00:00 | 00:00:00 | |
| SONDE2-11 | 2026-09-05 18:10:30 | 51.36264 | 16.50073 | 124° | 219km/h | 10182m | -3.0m/s | -47.1°C | 18.6% | 263.9hPa | 2.5V | 00:00:00 | 00:00:00 | 00:00:00 | |
| OE3JTB-15 | 2026-09-05 18:10:28 | 51.36296 | 16.50000 | 125° | 221km/h | 10186m | -2.9m/s | -47.0°C | 22.6% | 263.8hPa | 2.5V | 00:00:00 | 00:00:00 | 00:00:00 | |
| EDDB2-12 | 2026-09-05 18:10:21 | 51.36518 | 16.49483 | 124° | 221km/h | 10206m | -2.9m/s | -47.2°C | 18.3% | 262.9hPa | 2.5V | 00:00:00 | 00:00:00 | 00:00:00 | |
| 13BRC | 2026-09-05 18:10:14 | 51.36710 | 16.49043 | 126° | 221km/h | 10225m | -3.0m/s | -47.4°C | 18.4% | 262.2hPa | 2.5V | 00:00:00 | 00:00:00 | 00:00:00 | |
| SP3WXH-11 | 2026-09-05 18:10:13 | 51.36806 | 16.48823 | 124° | 221km/h | 10233m | -2.9m/s | -47.4°C | 18.5% | 261.9hPa | 2.5V | 00:00:00 | 00:00:00 | 00:00:00 | |
| SP3BTT-10 | 2026-09-05 18:10:04 | 51.37059 | 16.48232 | 125° | 223km/h | 10257m | -2.9m/s | -47.5°C | 22.8% | 260.9hPa | 2.5V | 00:00:00 | 00:00:00 | 08:30:00 | |
| SONDE2-11 | 2026-09-05 18:09:59 | 51.37247 | 16.47787 | 123° | 219km/h | 10275m | -2.9m/s | -47.7°C | 18.3% | 260.3hPa | 2.5V | 00:00:00 | 00:00:00 | 00:00:00 | |
| EDDB2-11 | 2026-09-05 18:09:57 | 51.37278 | 16.47713 | 123° | 221km/h | 10278m | -2.7m/s | -47.7°C | 18.2% | 260.1hPa | 2.5V | 00:00:00 | 00:00:00 | 00:00:00 | |
| EDDB2-12 | 2026-09-05 18:09:50 | 51.37496 | 16.47189 | 123° | 221km/h | 10299m | -2.9m/s | -47.7°C | 18.2% | 259.4hPa | 2.5V | 00:00:00 | 00:00:00 | 00:00:00 | |
| 13BRC | 2026-09-05 18:09:49 | 51.37495 | 16.47189 | 125° | 223km/h | 10299m | -2.9m/s | -47.7°C | 18.2% | 259.3hPa | 2.5V | 00:00:00 | 00:00:00 | 00:00:00 | |
| SP3WXH-11 | 2026-09-05 18:09:42 | 51.37780 | 16.46516 | 124° | 223km/h | 10325m | -3.0m/s | -47.8°C | 18.5% | 258.3hPa | 2.5V | 00:00:00 | 00:00:00 | 00:00:00 | |
| SP3BTT-10 | 2026-09-05 18:09:33 | 51.38038 | 16.45921 | 125° | 223km/h | 10349m | -2.9m/s | -48.0°C | 22.9% | 257.3hPa | 2.5V | 00:00:00 | 00:00:00 | 00:00:00 | |
| 13BRC | 2026-09-05 18:09:30 | 51.38136 | 16.45699 | 126° | 224km/h | 10358m | -3.0m/s | -48.1°C | 18.6% | 257.0hPa | 2.5V | 00:00:00 | 00:00:00 | 00:00:00 | |
| SONDE2-11 | 2026-09-05 18:09:27 | 51.38234 | 16.45476 | 125° | 224km/h | 10367m | -3.1m/s | -48.1°C | 18.4% | 256.7hPa | 2.5V | 00:00:00 | 00:00:00 | 00:00:00 | |
| EDDB2-11 | 2026-09-05 18:09:26 | 51.38268 | 16.45402 | 125° | 224km/h | 10370m | -3.2m/s | -48.1°C | 18.3% | 256.5hPa | 2.5V | 00:00:00 | 00:00:00 | 00:00:00 | |
| EDDB2-12 | 2026-09-05 18:09:19 | 51.38500 | 16.44890 | 125° | 221km/h | 10391m | -3.0m/s | -48.3°C | 18.4% | 255.7hPa | 2.5V | 00:00:00 | 00:00:00 | 00:00:00 | |
| DL2RXE-15 | 2026-09-05 18:09:15 | 51.38597 | 16.44670 | 126° | 223km/h | 10401m | -3.0m/s | -48.3°C | 18.4% | 255.3hPa | 2.5V | 00:00:00 | 00:00:00 | 00:00:00 | |
| SP3WXH-11 | 2026-09-05 18:09:11 | 51.38794 | 16.44230 | 125° | 223km/h | 10419m | -3.1m/s | -48.4°C | 18.5% | 254.7hPa | 2.5V | 00:00:00 | 00:00:00 | 00:00:00 | |
| 13BRC | 2026-09-05 18:09:09 | 51.38794 | 16.44230 | 127° | 223km/h | 10419m | -3.1m/s | -48.4°C | 18.5% | 254.6hPa | 2.5V | 00:00:00 | 00:00:00 | 00:00:00 | |
| SP3BTT-10 | 2026-09-05 18:09:03 | 51.39024 | 16.43718 | 126° | 221km/h | 10440m | -3.0m/s | -48.5°C | 22.7% | 253.8hPa | 2.5V | 00:00:00 | 00:00:00 | 00:00:00 | |
| SONDE2-11 | 2026-09-05 18:08:56 | 51.39251 | 16.43205 | 125° | 221km/h | 10462m | -3.1m/s | -48.6°C | 18.4% | 253.0hPa | 2.5V | 00:00:00 | 00:00:00 | 00:00:00 | |
| DB0DAN | 2026-09-05 18:08:55 | 51.39284 | 16.43132 | 125° | 210km/h | 10465m | -3m/s | -48.7°C | 18.4% | 252.86hPa | 2.5V | 00:00:00 | 00:00:00 | 00:00:00 | |
| EDDB2-11 | 2026-09-05 18:08:55 | 51.39284 | 16.43132 | 125° | 221km/h | 10465m | -3.0m/s | -48.7°C | 18.4% | 252.9hPa | 2.5V | 00:00:00 | 00:00:00 | 00:00:00 | |
| EDDB2-12 | 2026-09-05 18:08:48 | 51.39511 | 16.42623 | 125° | 221km/h | 10486m | -3.1m/s | -48.8°C | 18.6% | 252.1hPa | 2.5V | 00:00:00 | 00:00:00 | 00:00:00 | |
| DB0DAN | 2026-09-05 18:08:40 | 51.39773 | 16.42041 | 126° | 210km/h | 10511m | -3.2m/s | -48.9°C | 18.7% | 251.08hPa | 2.5V | 00:00:00 | 00:00:00 | 00:00:00 | |
| SP3WXH-11 | 2026-09-05 18:08:40 | 51.39806 | 16.41968 | 125° | 221km/h | 10514m | -3.2m/s | -49.0°C | 18.6% | 251.0hPa | 2.5V | 00:00:00 | 00:00:00 | 00:00:00 | |
| OE3JTB-15 | 2026-09-05 18:08:37 | 51.39870 | 16.41822 | 126° | 219km/h | 10520m | -3.1m/s | -48.9°C | 23.1% | 250.6hPa | 2.5V | 00:00:00 | 00:00:00 | 00:00:00 | |
| 13BRC | 2026-09-05 18:08:28 | 51.40127 | 16.41240 | 127° | 219km/h | 10546m | -3.3m/s | -49.1°C | 19.0% | 249.8hPa | 2.5V | 00:00:00 | 00:00:00 | 00:00:00 | |
| DB0DAN | 2026-09-05 18:08:25 | 51.40256 | 16.40951 | 125° | 208km/h | 10559m | -3.1m/s | -49.2°C | 19% | 249.27hPa | 2.5V | 00:00:00 | 00:00:00 | 00:00:00 | |
| EDDB2-11 | 2026-09-05 18:08:24 | 51.40287 | 16.40878 | 124° | 217km/h | 10562m | -3.1m/s | -49.3°C | 19.0% | 249.1hPa | 2.6V | 00:00:00 | 00:00:00 | 00:00:00 | |
| SP3BTT-10 | 2026-09-05 18:08:18 | 51.40477 | 16.40446 | 126° | 214km/h | 10581m | -3.2m/s | -49.4°C | 23.6% | 248.4hPa | 2.6V | 00:00:00 | 00:00:00 | 00:00:00 | |
| EDDB2-12 | 2026-09-05 18:08:17 | 51.40509 | 16.40374 | 125° | 215km/h | 10584m | -3.2m/s | -49.4°C | 19.0% | 248.3hPa | 2.5V | 00:00:00 | 00:00:00 | 00:00:00 | |
| DB0DAN | 2026-09-05 18:08:10 | 51.40729 | 16.39874 | 125° | 204km/h | 10606m | -3.2m/s | -49.6°C | 18.8% | 247.47hPa | 2.5V | 00:00:00 | 00:00:00 | 00:00:00 | |
| SP3WXH-11 | 2026-09-05 18:08:09 | 51.40791 | 16.39732 | 124° | 214km/h | 10613m | -3.2m/s | -49.6°C | 18.6% | 247.2hPa | 2.5V | 00:00:00 | 00:00:00 | 00:00:00 | |
| OE3JTB-15 | 2026-09-05 18:08:08 | 51.40791 | 16.39732 | 125° | 210km/h | 10613m | -3.1m/s | -49.6°C | 23.1% | 247.2hPa | 2.5V | 00:00:00 | 01:52:32 | 00:00:00 | |
| SONDE2-11 | 2026-09-05 18:07:54 | 51.41215 | 16.38742 | 125° | 208km/h | 10658m | -3.3m/s | -49.7°C | 17.3% | 245.5hPa | 2.5V | 00:00:00 | 00:00:00 | 00:00:00 | |
| EDDB2-11 | 2026-09-05 18:07:53 | 51.41245 | 16.38672 | 125° | 208km/h | 10661m | -3.3m/s | -49.7°C | 17.3% | 245.4hPa | 2.5V | 00:00:00 | 00:00:00 | 00:00:00 | |
| EDDB2-12 | 2026-09-05 18:07:46 | 51.41460 | 16.38182 | 124° | 210km/h | 10684m | -3.2m/s | -49.8°C | 16.0% | 244.6hPa | 2.5V | 00:00:00 | 00:00:00 | 00:00:00 | |
| OE3JTB-15 | 2026-09-05 18:07:39 | 51.41668 | 16.37700 | 125° | 206km/h | 10707m | -3.4m/s | -49.7°C | 19.3% | 243.7hPa | 2.5V | 00:00:00 | 00:00:00 | 08:30:00 | |
| SP3WXH-11 | 2026-09-05 18:07:38 | 51.41726 | 16.37564 | 124° | 203km/h | 10714m | -3.4m/s | -49.8°C | 15.0% | 243.5hPa | 2.5V | 00:00:00 | 00:00:00 | 00:00:00 | |
| DL2RXE-15 | 2026-09-05 18:07:32 | 51.41842 | 16.37289 | 125° | 206km/h | 10727m | -3.1m/s | -49.9°C | 14.8% | 243.0hPa | 2.5V | 00:00:00 | 00:00:00 | 00:00:00 | |
| 13BRC | 2026-09-05 18:07:26 | 51.42018 | 16.36875 | 125° | 206km/h | 10746m | -3.3m/s | -49.8°C | 14.1% | 242.3hPa | 2.5V | 00:00:00 | 00:00:00 | 00:00:00 | |
| SONDE2-11 | 2026-09-05 18:07:23 | 51.42133 | 16.36599 | 123° | 204km/h | 10759m | -3.1m/s | -49.7°C | 13.8% | 241.8hPa | 2.5V | 00:00:00 | 00:00:00 | 00:00:00 | |
| EDDB2-11 | 2026-09-05 18:07:22 | 51.42162 | 16.36529 | 123° | 204km/h | 10762m | -3.3m/s | -49.7°C | 13.6% | 241.7hPa | 2.5V | 00:00:00 | 00:00:00 | 00:00:00 | |
| EDDB2-12 | 2026-09-05 18:07:15 | 51.42363 | 16.36042 | 123° | 206km/h | 10785m | -3.3m/s | -49.6°C | 13.4% | 240.8hPa | 2.5V | 00:00:00 | 00:00:00 | 00:00:00 | |
| OE3JTB-15 | 2026-09-05 18:07:10 | 51.42505 | 16.35696 | 123° | 203km/h | 10802m | -3.2m/s | -49.6°C | 17.0% | 240.2hPa | 2.5V | 00:00:00 | 00:00:00 | 00:00:00 | |
| SP3WXH-11 | 2026-09-05 18:07:07 | 51.42615 | 16.35418 | 122° | 203km/h | 10815m | -3.1m/s | -49.7°C | 13.1% | 239.7hPa | 2.5V | 00:00:00 | 00:00:00 | 00:00:00 | |
| 13BRC | 2026-09-05 18:07:04 | 51.42642 | 16.35349 | 123° | 204km/h | 10818m | -3.2m/s | -49.8°C | 13.0% | 239.6hPa | 2.5V | 00:00:00 | 00:00:00 | 00:00:00 | |
| EDDB2-11 | 2026-09-05 18:06:51 | 51.43018 | 16.34367 | 120° | 203km/h | 10865m | -3.3m/s | -49.9°C | 12.8% | 237.9hPa | 2.5V | 00:00:00 | 00:00:00 | 00:00:00 | |
| EDDB2-12 | 2026-09-05 18:06:44 | 51.43202 | 16.33868 | 120° | 203km/h | 10888m | -3.2m/s | -49.9°C | 12.8% | 237.1hPa | 2.5V | 00:00:00 | 00:00:00 | 00:00:00 | |
| OE3JTB-15 | 2026-09-05 18:06:41 | 51.43280 | 16.33656 | 121° | 206km/h | 10898m | -3.1m/s | -49.9°C | 16.5% | 236.7hPa | 2.5V | 00:00:00 | 01:51:05 | 00:00:00 | |
| DL2RXE-15 | 2026-09-05 18:06:37 | 51.43356 | 16.33441 | 121° | 204km/h | 10907m | -3.2m/s | -50.0°C | 12.5% | 236.3hPa | 2.5V | 00:00:00 | 00:00:00 | 00:00:00 | |
| SP3WXH-11 | 2026-09-05 18:06:36 | 51.43434 | 16.33226 | 120° | 204km/h | 10917m | -3.1m/s | -49.9°C | 12.3% | 236.0hPa | 2.5V | 00:00:00 | 00:00:00 | 00:00:00 | |
| 13BRC | 2026-09-05 18:06:30 | 51.43537 | 16.32938 | 121° | 204km/h | 10930m | -3.2m/s | -50.0°C | 12.2% | 235.5hPa | 2.5V | 00:00:00 | 00:00:00 | 00:00:00 | |
| DB0DAN | 2026-09-05 18:06:25 | 51.43689 | 16.32502 | 119° | 197km/h | 10949m | -3.1m/s | -50.1°C | 12.1% | 234.83hPa | 2.5V | 00:00:00 | 00:00:00 | 00:00:00 | |
| SONDE2-11 | 2026-09-05 18:06:21 | 51.43789 | 16.32208 | 118° | 206km/h | 10962m | -3.2m/s | -50.1°C | 11.9% | 234.4hPa | 2.5V | 00:00:00 | 00:00:00 | 00:00:00 | |
| EDDB2-11 | 2026-09-05 18:06:20 | 51.43839 | 16.32061 | 118° | 206km/h | 10969m | -3.3m/s | -50.1°C | 11.9% | 234.2hPa | 2.5V | 00:00:00 | 00:00:00 | 00:00:00 | |
| SP3BTT-10 | 2026-09-05 18:06:17 | 51.43890 | 16.31914 | 119° | 210km/h | 10975m | -3.2m/s | -50.0°C | 15.5% | 233.9hPa | 2.5V | 00:00:00 | 00:00:00 | 00:00:00 | |
| EDDB2-12 | 2026-09-05 18:06:13 | 51.43989 | 16.31620 | 118° | 206km/h | 10988m | -3.3m/s | -50.0°C | 11.7% | 233.4hPa | 2.5V | 00:00:00 | 00:00:00 | 00:00:00 | |
| DB0DAN | 2026-09-05 18:06:10 | 51.44064 | 16.31398 | 118° | 199km/h | 10997m | -3m/s | -50°C | 11.8% | 233.11hPa | 2.5V | 00:00:00 | 00:00:00 | 00:00:00 | |
| DL2RXE-15 | 2026-09-05 18:06:04 | 51.44191 | 16.31023 | 120° | 212km/h | 11013m | -3.0m/s | -49.9°C | 11.8% | 232.6hPa | 2.5V | 00:00:00 | 00:00:00 | 00:00:00 | |
| DB0DAN | 2026-09-05 18:05:55 | 51.44451 | 16.30278 | 119° | 201km/h | 11043m | -2.9m/s | -50.1°C | 12% | 231.5hPa | 2.5V | 00:00:00 | 00:00:00 | 00:00:00 | |
| SONDE2-11 | 2026-09-05 18:05:50 | 51.44581 | 16.29902 | 119° | 212km/h | 11058m | -3.2m/s | -50.0°C | 11.5% | 231.0hPa | 2.6V | 00:00:00 | 00:00:00 | 00:00:00 | |
| EDDB2-11 | 2026-09-05 18:05:49 | 51.44634 | 16.29752 | 119° | 210km/h | 11065m | -3.1m/s | -49.9°C | 11.3% | 230.7hPa | 2.6V | 00:00:00 | 00:00:00 | 00:00:00 | |
| SP3BTT-10 | 2026-09-05 18:05:47 | 51.44661 | 16.29678 | 120° | 214km/h | 11068m | -3.0m/s | -49.9°C | 14.9% | 230.5hPa | 2.6V | 00:00:00 | 00:00:00 | 00:00:00 | |
| OE3JTB-15 | 2026-09-05 18:05:43 | 51.44765 | 16.29382 | 120° | 214km/h | 11080m | -3.1m/s | -49.7°C | 14.5% | 230.1hPa | 2.6V | 00:00:00 | 00:00:00 | 00:00:00 | |
| DB0DAN | 2026-09-05 18:05:40 | 51.44843 | 16.29158 | 119° | 203km/h | 11090m | -3.1m/s | -49.7°C | 10.6% | 229.89hPa | 2.6V | 00:00:00 | 00:00:00 | 00:00:00 | |
| SP3WXH-11 | 2026-09-05 18:05:33 | 51.45030 | 16.28630 | 120° | 214km/h | 11111m | -3.2m/s | -49.8°C | 10.6% | 229.1hPa | 2.5V | 00:00:00 | 00:00:00 | 00:00:00 | |
| 13BRC | 2026-09-05 18:05:22 | 51.45295 | 16.27883 | 120° | 215km/h | 11141m | -3.1m/s | -50.0°C | 10.8% | 228.1hPa | 2.5V | 00:00:00 | 00:00:00 | 00:00:00 | |
| SONDE2-11 | 2026-09-05 18:05:19 | 51.45404 | 16.27580 | 120° | 214km/h | 11154m | -3.0m/s | -50.1°C | 10.9% | 227.6hPa | 2.5V | 00:00:00 | 00:00:00 | 00:00:00 | |
| EDDB2-11 | 2026-09-05 18:05:18 | 51.45459 | 16.27429 | 120° | 214km/h | 11160m | -3.2m/s | -50.1°C | 11.1% | 227.4hPa | 2.5V | 00:00:00 | 00:00:00 | 00:00:00 | |
| SP3BTT-10 | 2026-09-05 18:05:17 | 51.45459 | 16.27429 | 121° | 215km/h | 11160m | -3.1m/s | -50.1°C | 14.7% | 227.3hPa | 2.5V | 00:00:00 | 00:00:00 | 00:00:00 | |
| OE3JTB-15 | 2026-09-05 18:05:14 | 51.45541 | 16.27205 | 120° | 215km/h | 11169m | -2.9m/s | -50.2°C | 14.8% | 227.0hPa | 2.5V | 00:00:00 | 01:49:38 | 00:00:00 | |
| EDDB2-12 | 2026-09-05 18:05:11 | 51.45650 | 16.26903 | 119° | 215km/h | 11181m | -3.0m/s | -50.3°C | 11.2% | 226.6hPa | 2.5V | 00:00:00 | 00:00:00 | 00:00:00 | |
| 13BRC | 2026-09-05 18:05:02 | 51.45844 | 16.26375 | 122° | 215km/h | 11202m | -3.1m/s | -50.5°C | 11.4% | 225.9hPa | 2.5V | 00:00:00 | 00:00:00 | 00:00:00 | |
| OE3OSB-13 | 2026-09-05 18:05:01 | 51.45955 | 16.26076 | 120° | 214km/h | 11214m | -3.1m/s | -50.5°C | 11.3% | 225.5hPa | 2.5V | 00:00:00 | 00:00:00 | 00:00:00 | |
| S3001 | 2026-09-05 18:04:58 | 51.46182 | 16.25475 | 121° | 217km/h | 11239m | -3.1m/s | -50.7°C | 11.4% | 224.7hPa | 2.5V | 00:00:00 | 00:00:00 | 00:00:00 | |
| SONDE2-11 | 2026-09-05 18:04:48 | 51.46268 | 16.25250 | 121° | 217km/h | 11248m | -3.3m/s | -50.8°C | 11.4% | 224.3hPa | 2.5V | 00:00:00 | 00:00:00 | 00:00:00 | |
| EDDB2-11 | 2026-09-05 18:04:47 | 51.46325 | 16.25100 | 120° | 215km/h | 11254m | -3.2m/s | -50.8°C | 11.4% | 224.1hPa | 2.5V | 00:00:00 | 00:00:00 | 00:00:00 | |
| OE3JTB-15 | 2026-09-05 18:04:45 | 51.46352 | 16.25025 | 121° | 219km/h | 11257m | -3.2m/s | -50.8°C | 15.2% | 224.0hPa | 2.5V | 00:00:00 | 00:00:00 | 00:00:00 | |
| 13BRC | 2026-09-05 18:04:41 | 51.46436 | 16.24798 | 122° | 217km/h | 11267m | -3.0m/s | -50.9°C | 11.3% | 223.7hPa | 2.5V | 00:00:00 | 00:00:00 | 00:00:00 | |
| EDDB2-12 | 2026-09-05 18:04:40 | 51.46521 | 16.24570 | 121° | 217km/h | 11276m | -3.1m/s | -50.9°C | 11.3% | 223.3hPa | 2.5V | 00:00:00 | 00:00:00 | 00:00:00 | |
| SP3WXH-11 | 2026-09-05 18:04:31 | 51.46746 | 16.23964 | 120° | 217km/h | 11301m | -3.1m/s | -51.0°C | 11.1% | 222.5hPa | 2.5V | 00:00:00 | 00:00:00 | 00:00:00 | |
| 13BRC | 2026-09-05 18:04:21 | 51.46998 | 16.23270 | 122° | 221km/h | 11330m | -3.3m/s | -51.1°C | 10.9% | 221.5hPa | 2.5V | 00:00:00 | 00:00:00 | 00:00:00 | |
| SONDE2-11 | 2026-09-05 18:04:17 | 51.47142 | 16.22889 | 121° | 219km/h | 11347m | -3.3m/s | -51.1°C | 10.7% | 221.0hPa | 2.5V | 00:00:00 | 00:00:00 | 00:00:00 | |
| EDDB2-11 | 2026-09-05 18:04:16 | 51.47200 | 16.22737 | 121° | 219km/h | 11353m | -3.2m/s | -51.2°C | 10.7% | 220.7hPa | 2.5V | 00:00:00 | 00:00:00 | 00:00:00 | |
| EDDB2-12 | 2026-09-05 18:04:09 | 51.47376 | 16.22272 | 121° | 224km/h | 11373m | -3.4m/s | -51.3°C | 10.4% | 220.1hPa | 2.5V | 00:00:00 | 00:00:00 | 00:00:00 | |
| DL2RXE-15 | 2026-09-05 18:04:07 | 51.47406 | 16.22195 | 123° | 224km/h | 11376m | -3.3m/s | -51.3°C | 10.4% | 219.9hPa | 2.5V | 00:00:00 | 00:00:00 | 00:00:00 | |
| SP3WXH-11 | 2026-09-05 18:04:00 | 51.47644 | 16.21592 | 122° | 221km/h | 11402m | -3.3m/s | -51.2°C | 10.1% | 219.1hPa | 2.5V | 00:00:00 | 00:00:00 | 00:00:00 | |
| OE3OSB-13 | 2026-09-05 18:03:59 | 51.48043 | 16.20601 | 123° | 223km/h | 11444m | -3.2m/s | -51.2°C | 9.6% | 217.6hPa | 2.5V | 00:00:00 | 00:00:00 | 00:00:00 | |
| SONDE2-11 | 2026-09-05 18:03:46 | 51.48074 | 16.20525 | 123° | 223km/h | 11448m | -3.4m/s | -51.2°C | 9.6% | 217.5hPa | 2.5V | 00:00:00 | 00:00:00 | 00:00:00 | |
| EDDB2-11 | 2026-09-05 18:03:45 | 51.48135 | 16.20374 | 123° | 223km/h | 11454m | -3.2m/s | -51.2°C | 9.5% | 217.3hPa | 2.5V | 00:00:00 | 00:00:00 | 00:00:00 | |
| DB0DAN | 2026-09-05 18:03:40 | 51.48261 | 16.20072 | 124° | 212km/h | 11467m | -3.2m/s | -51.2°C | 9.5% | 216.89hPa | 2.5V | 00:00:00 | 00:00:00 | 00:00:00 | |
| 13BRC | 2026-09-05 18:03:39 | 51.48261 | 16.20072 | 125° | 223km/h | 11467m | -3.2m/s | -51.2°C | 9.5% | 216.9hPa | 2.6V | 00:00:00 | 00:00:00 | 00:00:00 | |
| EDDB2-12 | 2026-09-05 18:03:38 | 51.48357 | 16.19849 | 124° | 221km/h | 11477m | -3.2m/s | -51.2°C | 9.5% | 216.5hPa | 2.6V | 00:00:00 | 00:00:00 | 00:00:00 | |
| SP3BTT-10 | 2026-09-05 18:03:32 | 51.48514 | 16.19475 | 124° | 226km/h | 11493m | -3.2m/s | -51.1°C | 12.9% | 215.9hPa | 2.6V | 00:00:00 | 00:00:00 | 00:00:00 | |
| SP3WXH-11 | 2026-09-05 18:03:29 | 51.48611 | 16.19249 | 124° | 224km/h | 11503m | -3.3m/s | -51.2°C | 9.3% | 215.7hPa | 2.6V | 00:00:00 | 00:00:00 | 00:00:00 | |
| S3001 | 2026-09-05 18:03:25 | 51.48773 | 16.18879 | 125° | 221km/h | 11518m | -3.2m/s | -51.3°C | 9.2% | 215.1hPa | 2.6V | 00:00:00 | 00:00:00 | 00:00:00 | |
| 13BRC | 2026-09-05 18:03:18 | 51.48935 | 16.18509 | 126° | 224km/h | 11534m | -3.0m/s | -51.4°C | 9.2% | 214.6hPa | 2.6V | 00:00:00 | 00:00:00 | 00:00:00 | |
| SONDE2-11 | 2026-09-05 18:03:15 | 51.49067 | 16.18207 | 125° | 226km/h | 11546m | -3.1m/s | -51.4°C | 9.1% | 214.2hPa | 2.6V | 00:00:00 | 00:00:00 | 00:00:00 | |
| EDDB2-11 | 2026-09-05 18:03:14 | 51.49134 | 16.18057 | 125° | 226km/h | 11553m | -3.3m/s | -51.4°C | 9.1% | 214.0hPa | 2.6V | 00:00:00 | 00:00:00 | 00:00:00 | |
| EDDB2-12 | 2026-09-05 18:03:07 | 51.49367 | 16.17543 | 126° | 224km/h | 11575m | -3.2m/s | -51.5°C | 9.1% | 213.3hPa | 2.6V | 00:00:00 | 00:00:00 | 00:00:00 | |
| DL2RXE-15 | 2026-09-05 18:03:03 | 51.49468 | 16.17319 | 126° | 230km/h | 11585m | -3.2m/s | -51.5°C | 9.1% | 213.0hPa | 2.6V | 00:00:00 | 00:00:00 | 00:00:00 | |
| OE3OSB-13 | 2026-09-05 18:02:57 | 51.49709 | 16.16789 | 126° | 226km/h | 11608m | -3.7m/s | -51.4°C | 9.0% | 212.2hPa | 2.6V | 00:00:00 | 00:00:00 | 00:00:00 | |
| OK1SLM-15 | 2026-09-05 18:02:49 | 51.49912 | 16.16351 | 129° | 226km/h | 11630m | -3.6m/s | 0°C | 0% | 0hPa | 2.6V | 00:00:00 | 00:00:00 | 00:00:00 | |
| SONDE2-11 | 2026-09-05 18:02:44 | 51.50124 | 16.15902 | 126° | 226km/h | 11652m | -3.4m/s | -51.6°C | 8.6% | 210.8hPa | 2.6V | 00:00:00 | 00:00:00 | 00:00:00 | |
| DB0DAN | 2026-09-05 18:02:40 | 51.50264 | 16.15615 | 129° | 217km/h | 11666m | -3.3m/s | -51.6°C | 8.5% | 210.33hPa | 2.6V | 00:00:00 | 00:00:00 | 00:00:00 | |
| EDDB2-12 | 2026-09-05 18:02:36 | 51.50444 | 16.15250 | 128° | 230km/h | 11682m | -3.0m/s | -51.7°C | 8.5% | 209.7hPa | 2.5V | 00:00:00 | 00:00:00 | 00:00:00 | |
| DB0NH | 2026-09-05 18:02:35 | 51.50444 | 16.15250 | 129° | 224km/h | 11682m | -2.9m/s | -51.6°C | 12.0% | 209.7hPa | 2.5V | 00:00:00 | 01:46:59 | 00:00:00 | |
| SP3BTT-10 | 2026-09-05 18:02:32 | 51.50553 | 16.15030 | 129° | 219km/h | 11691m | -2.9m/s | -51.6°C | 11.9% | 209.4hPa | 2.5V | 00:00:00 | 00:00:00 | 00:00:00 | |
| OE3JTB-15 | 2026-09-05 18:02:31 | 51.50589 | 16.14956 | 129° | 221km/h | 11694m | -2.7m/s | -51.7°C | 11.9% | 209.3hPa | 2.5V | 00:00:00 | 01:46:55 | 00:00:00 | |
| DB0DAN | 2026-09-05 18:02:25 | 51.50810 | 16.14533 | 131° | 214km/h | 11710m | -3m/s | -51.6°C | 8.3% | 208.84hPa | 2.5V | 00:00:00 | 00:00:00 | 00:00:00 | |
| 13BRC | 2026-09-05 18:02:16 | 51.51101 | 16.13982 | 130° | 221km/h | 11735m | -3.5m/s | -51.8°C | 8.0% | 208.1hPa | 2.5V | 00:00:00 | 00:00:00 | 00:00:00 | |
| SONDE2-11 | 2026-09-05 18:02:13 | 51.51243 | 16.13704 | 129° | 221km/h | 11749m | -3.6m/s | -51.8°C | 7.6% | 207.6hPa | 2.5V | 00:00:00 | 00:00:00 | 00:00:00 | |
| EDDB2-11 | 2026-09-05 18:02:11 | 51.51314 | 16.13566 | 129° | 219km/h | 11756m | -3.1m/s | -51.8°C | 7.5% | 207.4hPa | 2.5V | 00:00:00 | 00:00:00 | 00:00:00 | |
| EDDB2-12 | 2026-09-05 18:02:05 | 51.51565 | 16.13097 | 130° | 214km/h | 11774m | -2.7m/s | -51.5°C | 7.1% | 206.8hPa | 2.5V | 00:00:00 | 00:00:00 | 00:00:00 | |
| SP3WXH-11 | 2026-09-05 18:01:56 | 51.51844 | 16.12570 | 130° | 214km/h | 11796m | -2.5m/s | -51.4°C | 6.7% | 206.1hPa | 2.5V | 00:00:00 | 00:00:00 | 00:00:00 | |
| OE3OSB-13 | 2026-09-05 18:01:55 | 51.51879 | 16.12504 | 130° | 214km/h | 11798m | -2.5m/s | -51.5°C | 6.8% | 206.0hPa | 2.5V | 00:00:00 | 00:00:00 | 00:00:00 | |
| 13BRC | 2026-09-05 18:01:44 | 51.52261 | 16.11792 | 132° | 206km/h | 11826m | -2.7m/s | -51.2°C | 6.2% | 205.1hPa | 2.5V | 00:00:00 | 00:00:00 | 00:00:00 | |
| SONDE2-11 | 2026-09-05 18:01:42 | 51.52329 | 16.11666 | 131° | 204km/h | 11831m | -2.6m/s | -51.2°C | 6.2% | 205.0hPa | 2.5V | 00:00:00 | 00:00:00 | 00:00:00 | |
| EDDB2-11 | 2026-09-05 18:01:41 | 51.52397 | 16.11542 | 131° | 204km/h | 11837m | -2.7m/s | -51.3°C | 6.1% | 204.8hPa | 2.5V | 00:00:00 | 00:00:00 | 00:00:00 | |
| DB0NH | 2026-09-05 18:01:35 | 51.52568 | 16.11228 | 131° | 199km/h | 11850m | -2.3m/s | -51.3°C | 9.2% | 204.3hPa | 2.5V | 00:00:00 | 01:45:59 | 00:00:00 | |
| EDDB2-12 | 2026-09-05 18:01:34 | 51.52636 | 16.11103 | 130° | 203km/h | 11855m | -2.3m/s | -51.4°C | 6.0% | 204.2hPa | 2.5V | 00:00:00 | 00:00:00 | 00:00:00 | |
| OE3JTB-15 | 2026-09-05 18:01:33 | 51.52636 | 16.11103 | 131° | 199km/h | 11855m | -2.2m/s | -51.4°C | 9.1% | 204.1hPa | 2.5V | 00:00:00 | 00:00:00 | 00:00:00 | |
| SP3BTT-10 | 2026-09-05 18:01:32 | 51.52669 | 16.11041 | 131° | 193km/h | 11857m | -2.5m/s | -51.3°C | 9.1% | 204.0hPa | 2.5V | 00:00:00 | 00:00:00 | 00:00:00 | |
| SP3WXH-11 | 2026-09-05 18:01:25 | 51.52902 | 16.10608 | 130° | 199km/h | 11875m | -2.7m/s | -51.4°C | 5.8% | 203.5hPa | 2.6V | 00:00:00 | 00:00:00 | 00:00:00 | |
| 13BRC | 2026-09-05 18:01:23 | 51.52935 | 16.10547 | 132° | 201km/h | 11878m | -2.5m/s | -51.4°C | 5.7% | 203.4hPa | 2.6V | 00:00:00 | 00:00:00 | 00:00:00 | |
| SONDE2-11 | 2026-09-05 18:01:11 | 51.53359 | 16.09753 | 130° | 193km/h | 11913m | -2.8m/s | -51.4°C | 5.3% | 202.3hPa | 2.6V | 00:00:00 | 00:00:00 | 00:00:00 | |
| EDDB2-11 | 2026-09-05 18:01:10 | 51.53423 | 16.09633 | 130° | 193km/h | 11918m | -2.5m/s | -51.4°C | 5.2% | 202.2hPa | 2.6V | 00:00:00 | 00:00:00 | 00:00:00 | |
| DB0NH | 2026-09-05 18:01:05 | 51.53551 | 16.09394 | 131° | 192km/h | 11929m | -2.6m/s | -51.4°C | 8.1% | 201.8hPa | 2.6V | 00:00:00 | 01:45:29 | 00:00:00 | |
| OE3JTB-15 | 2026-09-05 18:01:04 | 51.53582 | 16.09334 | 131° | 192km/h | 11932m | -2.6m/s | -51.4°C | 8.1% | 201.7hPa | 2.6V | 00:00:00 | 01:45:28 | 00:00:00 | |
| 13BRC | 2026-09-05 18:01:02 | 51.53614 | 16.09274 | 131° | 193km/h | 11935m | -2.8m/s | -51.5°C | 5.1% | 201.7hPa | 2.6V | 00:00:00 | 00:00:00 | 00:00:00 | |
| OE3OSB-13 | 2026-09-05 18:00:54 | 51.53958 | 16.08611 | 129° | 188km/h | 11964m | -2.8m/s | -51.6°C | 4.8% | 200.7hPa | 2.6V | 00:00:00 | 00:00:00 | 00:00:00 | |
| S3001 | 2026-09-05 18:00:49 | 51.54083 | 16.08375 | 130° | 190km/h | 11975m | -2.7m/s | -51.6°C | 4.8% | 200.4hPa | 2.6V | 00:00:00 | 00:00:00 | 00:00:00 | |
| SP3BTT-10 | 2026-09-05 18:00:47 | 51.54114 | 16.08316 | 131° | 183km/h | 11978m | -2.8m/s | -51.6°C | 7.8% | 200.2hPa | 2.6V | 00:00:00 | 00:00:00 | 00:00:00 | |
| 13BRC | 2026-09-05 18:00:42 | 51.54238 | 16.08075 | 130° | 192km/h | 11989m | -2.8m/s | -51.7°C | 4.9% | 200.0hPa | 2.6V | 00:00:00 | 00:00:00 | 00:00:00 | |
| SONDE2-11 | 2026-09-05 18:00:40 | 51.54329 | 16.07895 | 128° | 188km/h | 11997m | -2.8m/s | -51.7°C | 4.8% | 199.7hPa | 2.6V | 00:00:00 | 00:00:00 | 00:00:00 | |
| EDDB2-11 | 2026-09-05 18:00:38 | 51.54387 | 16.07775 | 128° | 186km/h | 12002m | -2.7m/s | -51.8°C | 4.7% | 199.5hPa | 2.6V | 00:00:00 | 00:00:00 | 00:00:00 | |
| DB0NH | 2026-09-05 18:00:35 | 51.54475 | 16.07598 | 129° | 183km/h | 12011m | -2.6m/s | -51.8°C | 7.5% | 199.2hPa | 2.6V | 00:00:00 | 01:44:59 | 00:00:00 | |
| EDDB2-12 | 2026-09-05 18:00:31 | 51.54590 | 16.07363 | 128° | 183km/h | 12023m | -3.2m/s | -51.9°C | 4.6% | 198.9hPa | 2.6V | 00:00:00 | 00:00:00 | 00:00:00 | |
| SP3WXH-11 | 2026-09-05 18:00:23 | 51.54821 | 16.06892 | 128° | 184km/h | 12046m | -2.7m/s | -52.0°C | 4.4% | 198.2hPa | 2.6V | 00:00:00 | 00:00:00 | 00:00:00 | |
| 13BRC | 2026-09-05 18:00:22 | 51.54821 | 16.06892 | 129° | 184km/h | 12046m | -2.7m/s | -52.0°C | 4.4% | 198.2hPa | 2.6V | 00:00:00 | 00:00:00 | 00:00:00 | |
| S3001 | 2026-09-05 18:00:19 | 51.54963 | 16.06600 | 127° | 181km/h | 12061m | -3.0m/s | -51.9°C | 4.3% | 197.8hPa | 2.6V | 00:00:00 | 00:00:00 | 00:00:00 | |
| SONDE2-11 | 2026-09-05 18:00:09 | 51.55211 | 16.06076 | 127° | 179km/h | 12087m | -3.0m/s | -52.0°C | 4.1% | 196.9hPa | 2.6V | 00:00:00 | 00:00:00 | 00:00:00 | |
| EDDB2-11 | 2026-09-05 18:00:07 | 51.55265 | 16.05961 | 126° | 177km/h | 12093m | -2.9m/s | -52.1°C | 4.0% | 196.8hPa | 2.6V | 00:00:00 | 00:00:00 | 00:00:00 | |
| OE3JTB-15 | 2026-09-05 18:00:06 | 51.55292 | 16.05903 | 127° | 173km/h | 12096m | -3.0m/s | -52.0°C | 6.9% | 196.6hPa | 2.6V | 00:00:00 | 00:00:00 | 00:00:00 | |
| DB0NH | 2026-09-05 18:00:05 | 51.55318 | 16.05845 | 127° | 170km/h | 12099m | -3.0m/s | -52.0°C | 6.8% | 196.5hPa | 2.6V | 00:00:00 | 01:44:29 | 08:30:00 | |
| EDDB2-12 | 2026-09-05 18:00:00 | 51.55451 | 16.05554 | 125° | 175km/h | 12114m | -3.0m/s | -52.0°C | 3.8% | 196.1hPa | 2.7V | 00:00:00 | 00:00:00 | 00:00:00 | |
| SP3WXH-11 | 2026-09-05 17:59:52 | 51.55658 | 16.05092 | 125° | 173km/h | 12139m | -3.2m/s | -52.2°C | 3.7% | 195.4hPa | 2.7V | 00:00:00 | 00:00:00 | 00:00:00 | |
| OE3OSB-13 | 2026-09-05 17:59:51 | 51.55708 | 16.04977 | 125° | 172km/h | 12145m | -3.3m/s | -52.2°C | 3.6% | 195.2hPa | 2.7V | 00:00:00 | 00:00:00 | 00:00:00 | |
| SONDE2-11 | 2026-09-05 17:59:38 | 51.56015 | 16.04240 | 124° | 166km/h | 12187m | -2.9m/s | -52.2°C | 3.2% | 193.9hPa | 2.7V | 00:00:00 | 00:00:00 | 00:00:00 | |
| OE3JTB-15 | 2026-09-05 17:59:36 | 51.56038 | 16.04184 | 125° | 141km/h | 12190m | -3.1m/s | -52.2°C | 5.9% | 193.8hPa | 2.7V | 00:00:00 | 01:44:00 | 00:00:00 | |
| SP3BTT-10 | 2026-09-05 17:59:32 | 51.56134 | 16.03961 | 125° | 162km/h | 12203m | -3.1m/s | -52.1°C | 5.6% | 193.4hPa | 2.7V | 00:00:00 | 00:00:00 | 08:30:00 | |
| DB0NH | 2026-09-05 17:59:31 | 51.56158 | 16.03905 | 125° | 164km/h | 12207m | -3.1m/s | -52.0°C | 5.5% | 193.3hPa | 2.5V | 00:00:00 | 01:43:55 | 00:00:00 | |
| EDDB2-12 | 2026-09-05 17:59:29 | 51.56205 | 16.03793 | 124° | 166km/h | 12213m | -3.3m/s | -52.0°C | 2.8% | 193.1hPa | 2.5V | 00:00:00 | 00:00:00 | 00:00:00 | |
| SP3WXH-11 | 2026-09-05 17:59:21 | 51.56395 | 16.03348 | 124° | 166km/h | 12238m | -3.2m/s | -51.4°C | 2.4% | 192.4hPa | 2.5V | 00:00:00 | 00:00:00 | 00:00:00 | |
| 13BRC | 2026-09-05 17:59:17 | 51.56466 | 16.03181 | 125° | 166km/h | 12248m | -3.3m/s | -51.2°C | 2.3% | 192.1hPa | 2.5V | 00:00:00 | 00:00:00 | 00:00:00 | |
| SONDE2-11 | 2026-09-05 17:59:07 | 51.56735 | 16.02512 | 123° | 157km/h | 12286m | -3.3m/s | -51.1°C | 2.2% | 191.0hPa | 2.5V | 00:00:00 | 00:00:00 | 00:00:00 | |
| EDDB2-11 | 2026-09-05 17:59:05 | 51.56757 | 16.02459 | 123° | 157km/h | 12290m | -3.3m/s | -51.0°C | 2.2% | 190.9hPa | 2.5V | 00:00:00 | 00:00:00 | 00:00:00 | |
| EDDB2-12 | 2026-09-05 17:58:58 | 51.56910 | 16.02090 | 124° | 155km/h | 12312m | -3.1m/s | -51.0°C | 2.1% | 190.2hPa | 2.5V | 00:00:00 | 00:00:00 | 00:00:00 | |
| SP3WXH-11 | 2026-09-05 17:58:50 | 51.57089 | 16.01678 | 124° | 151km/h | 12338m | -3.2m/s | -50.5°C | 1.9% | 189.5hPa | 2.5V | 00:00:00 | 00:00:00 | 00:00:00 | |
| DL2RXE-15 | 2026-09-05 17:58:45 | 51.57177 | 16.01475 | 126° | 151km/h | 12351m | -3.4m/s | -50.3°C | 1.9% | 189.1hPa | 2.5V | 00:00:00 | 00:00:00 | 00:00:00 | |
| 13BRC | 2026-09-05 17:58:35 | 51.57394 | 16.00982 | 126° | 146km/h | 12383m | -3.0m/s | -50.3°C | 1.8% | 188.1hPa | 2.5V | 00:00:00 | 00:00:00 | 00:00:00 | |
| EDDB2-11 | 2026-09-05 17:58:34 | 51.57437 | 16.00884 | 124° | 146km/h | 12389m | -3.1m/s | -50.3°C | 0% | 188.0hPa | 2.5V | 00:00:00 | 00:00:00 | 00:00:00 | |
| SP3BTT-10 | 2026-09-05 17:58:32 | 51.57479 | 16.00786 | 125° | 144km/h | 12395m | -3.2m/s | -50.2°C | 4.2% | 187.7hPa | 2.5V | 00:00:00 | 00:00:00 | 00:00:00 | |
| EDDB2-12 | 2026-09-05 17:58:27 | 51.57582 | 16.00543 | 124° | 142km/h | 12411m | -3.3m/s | -50.3°C | 1.9% | 187.4hPa | 2.5V | 00:00:00 | 00:00:00 | 00:00:00 | |
| SP3WXH-11 | 2026-09-05 17:58:19 | 51.57745 | 16.00155 | 123° | 146km/h | 12437m | -3.2m/s | -50.4°C | 2.1% | 186.6hPa | 2.5V | 00:00:00 | 00:00:00 | 00:00:00 | |
| 13BRC | 2026-09-05 17:58:15 | 51.57806 | 16.00006 | 125° | 146km/h | 12447m | -3.2m/s | -50.3°C | 2.0% | 186.3hPa | 2.5V | 00:00:00 | 00:00:00 | 00:00:00 | |
| SONDE2-11 | 2026-09-05 17:58:05 | 51.58038 | 15.99415 | 121° | 144km/h | 12487m | -3.2m/s | -50.5°C | 2.0% | 185.2hPa | 2.5V | 00:00:00 | 00:00:00 | 00:00:00 | |
| EDDB2-11 | 2026-09-05 17:58:03 | 51.58057 | 15.99365 | 121° | 144km/h | 12490m | -3.0m/s | -50.5°C | 1.9% | 185.1hPa | 2.5V | 00:00:00 | 00:00:00 | 00:00:00 | |
| EDDB2-12 | 2026-09-05 17:57:56 | 51.58190 | 15.99016 | 120° | 142km/h | 12513m | -3.3m/s | -50.6°C | 1.9% | 184.4hPa | 2.5V | 00:00:00 | 00:00:00 | 00:00:00 | |
| SP3WXH-11 | 2026-09-05 17:57:48 | 51.58338 | 15.98607 | 120° | 146km/h | 12540m | -3.4m/s | -50.6°C | 1.8% | 183.6hPa | 2.5V | 00:00:00 | 00:00:00 | 00:00:00 | |
| OE3OSB-13 | 2026-09-05 17:57:47 | 51.58394 | 15.98452 | 120° | 144km/h | 12550m | -3.4m/s | -50.6°C | 1.8% | 183.3hPa | 2.5V | 00:00:00 | 00:00:00 | 00:00:00 | |
| S3001 | 2026-09-05 17:57:43 | 51.58502 | 15.98150 | 119° | 142km/h | 12571m | -3.5m/s | -50.6°C | 1.7% | 182.8hPa | 2.5V | 00:00:00 | 00:00:00 | 00:00:00 | |
| 13BRC | 2026-09-05 17:57:33 | 51.58592 | 15.97895 | 121° | 148km/h | 12589m | -3.6m/s | -50.6°C | 1.7% | 182.3hPa | 2.5V | 00:00:00 | 00:00:00 | 00:00:00 | |
| EDDB2-11 | 2026-09-05 17:57:32 | 51.58629 | 15.97790 | 119° | 148km/h | 12596m | -3.5m/s | -50.6°C | 1.7% | 182.1hPa | 2.5V | 00:00:00 | 00:00:00 | 00:00:00 | |
| SONCRA | 2026-09-05 17:57:27 | 51.58721 | 15.97530 | 119° | 144km/h | 12613m | -3.5m/s | -50.5°C | 1.7% | 181.6hPa | 2.5V | 00:00:00 | 00:00:00 | 00:00:00 | |
| EDDB2-12 | 2026-09-05 17:57:25 | 51.58757 | 15.97428 | 118° | 142km/h | 12620m | -3.6m/s | -50.5°C | 1.7% | 181.4hPa | 2.5V | 00:00:00 | 00:00:00 | 00:00:00 | |
| SP3BTT-10 | 2026-09-05 17:57:18 | 51.58880 | 15.97077 | 120° | 135km/h | 12646m | -3.6m/s | -50.3°C | 3.9% | 180.6hPa | 2.5V | 00:00:00 | 00:00:00 | 00:00:00 | |
| SP3WXH-11 | 2026-09-05 17:57:17 | 51.58898 | 15.97027 | 119° | 141km/h | 12650m | -3.8m/s | -50.4°C | 1.7% | 180.6hPa | 2.5V | 00:00:00 | 00:00:00 | 00:00:00 | |
| OE3OSB-13 | 2026-09-05 17:57:16 | 51.58933 | 15.96927 | 119° | 139km/h | 12657m | -3.8m/s | -50.5°C | 1.7% | 180.4hPa | 2.5V | 00:00:00 | 00:00:00 | 00:00:00 | |
| 13BRC | 2026-09-05 17:57:12 | 51.58968 | 15.96829 | 120° | 139km/h | 12665m | -3.7m/s | -50.5°C | 1.7% | 180.2hPa | 2.5V | 00:00:00 | 00:00:00 | 00:00:00 | |
| SONDE2-11 | 2026-09-05 17:57:02 | 51.59149 | 15.96292 | 118° | 135km/h | 12706m | -3.8m/s | -50.5°C | 1.7% | 179.0hPa | 2.5V | 00:00:00 | 00:00:00 | 00:00:00 | |
| EDDB2-11 | 2026-09-05 17:57:01 | 51.59165 | 15.96243 | 118° | 135km/h | 12710m | -3.9m/s | -50.5°C | 1.8% | 179.0hPa | 2.5V | 00:00:00 | 00:00:00 | 00:00:00 | |
| EDDB2-12 | 2026-09-05 17:56:54 | 51.59278 | 15.95907 | 117° | 133km/h | 12737m | -4.0m/s | -50.6°C | 1.8% | 178.2hPa | 2.5V | 00:00:00 | 00:00:00 | 00:00:00 | |
| 13BRC | 2026-09-05 17:56:52 | 51.59310 | 15.95810 | 119° | 135km/h | 12745m | -4.0m/s | -50.6°C | 1.8% | 178.0hPa | 2.5V | 00:00:00 | 00:00:00 | 00:00:00 | |
| SP3BTT-10 | 2026-09-05 17:56:48 | 51.59374 | 15.95614 | 117° | 135km/h | 12761m | -3.9m/s | -50.6°C | 4.1% | 177.5hPa | 2.5V | 00:00:00 | 00:00:00 | 00:00:00 | |
| DB0NH | 2026-09-05 17:56:46 | 51.59405 | 15.95514 | 117° | 133km/h | 12769m | -3.9m/s | -50.7°C | 4.1% | 177.3hPa | 2.5V | 00:00:00 | 01:41:10 | 00:00:00 | |
| OE3OSB-13 | 2026-09-05 17:56:45 | 51.59615 | 15.94824 | 115° | 135km/h | 12826m | -4.0m/s | -51.0°C | 1.8% | 175.8hPa | 2.5V | 00:00:00 | 00:00:00 | 00:00:00 | |
| SONDE2-11 | 2026-09-05 17:56:31 | 51.59630 | 15.94774 | 115° | 135km/h | 12830m | -4.0m/s | -51.0°C | 1.8% | 175.7hPa | 2.5V | 00:00:00 | 00:00:00 | 00:00:00 | |
| EDDB2-11 | 2026-09-05 17:56:30 | 51.59645 | 15.94724 | 115° | 135km/h | 12834m | -4.4m/s | -51.1°C | 1.8% | 175.6hPa | 2.5V | 00:00:00 | 00:00:00 | 00:00:00 | |
| EDDB2-12 | 2026-09-05 17:56:23 | 51.59743 | 15.94378 | 113° | 131km/h | 12863m | -4.3m/s | -51.1°C | 1.7% | 174.8hPa | 2.5V | 00:00:00 | 00:00:00 | 00:00:00 | |
| SP3BTT-10 | 2026-09-05 17:56:18 | 51.59810 | 15.94136 | 115° | 133km/h | 12884m | -4.1m/s | -51.0°C | 4.1% | 174.2hPa | 2.5V | 00:00:00 | 00:00:00 | 00:00:00 | |
| DB0NH | 2026-09-05 17:56:16 | 51.59838 | 15.94041 | 116° | 131km/h | 12892m | -4.1m/s | -50.9°C | 4.0% | 174.0hPa | 2.7V | 00:00:00 | 01:40:40 | 00:00:00 | |
| SP3WXH-11 | 2026-09-05 17:56:15 | 51.59852 | 15.93993 | 114° | 128km/h | 12896m | -4.4m/s | -51.0°C | 1.7% | 173.9hPa | 2.7V | 00:00:00 | 00:00:00 | 00:00:00 | |
| OE3OSB-13 | 2026-09-05 17:56:13 | 51.59879 | 15.93898 | 114° | 128km/h | 12905m | -4.2m/s | -51.0°C | 1.6% | 173.7hPa | 2.7V | 00:00:00 | 00:00:00 | 00:00:00 | |
| 13BRC | 2026-09-05 17:56:09 | 51.59919 | 15.93755 | 115° | 130km/h | 12918m | -4.2m/s | -50.9°C | 1.6% | 173.4hPa | 2.7V | 00:00:00 | 00:00:00 | 00:00:00 | |
| SONDE2-11 | 2026-09-05 17:56:00 | 51.60058 | 15.93272 | 115° | 131km/h | 12960m | -4.2m/s | -50.7°C | 1.5% | 172.2hPa | 2.7V | 00:00:00 | 00:00:00 | 00:00:00 | |
| EDDB2-11 | 2026-09-05 17:55:59 | 51.60072 | 15.93224 | 115° | 131km/h | 12964m | -4.3m/s | -50.7°C | 1.5% | 172.1hPa | 2.7V | 00:00:00 | 00:00:00 | 00:00:00 | |
| SONCRA | 2026-09-05 17:55:54 | 51.60143 | 15.92983 | 115° | 131km/h | 12985m | -4.3m/s | -50.6°C | 1.5% | 171.6hPa | 2.7V | 00:00:00 | 00:00:00 | 00:00:00 | |
| EDDB2-12 | 2026-09-05 17:55:52 | 51.60172 | 15.92886 | 114° | 131km/h | 12994m | -4.3m/s | -50.6°C | 1.5% | 171.3hPa | 2.7V | 00:00:00 | 00:00:00 | 00:00:00 | |
| 13BRC | 2026-09-05 17:55:49 | 51.60201 | 15.92789 | 117° | 131km/h | 13003m | -4.3m/s | -50.6°C | 1.5% | 171.1hPa | 2.7V | 00:00:00 | 00:00:00 | 00:00:00 | |
| DB0NH | 2026-09-05 17:55:46 | 51.60260 | 15.92595 | 117° | 133km/h | 13020m | -4.3m/s | -50.7°C | 3.8% | 170.6hPa | 2.7V | 00:00:00 | 01:40:10 | 00:00:00 | |
| SP3WXH-11 | 2026-09-05 17:55:44 | 51.60306 | 15.92451 | 117° | 133km/h | 13033m | -4.3m/s | -50.8°C | 1.5% | 170.3hPa | 2.7V | 00:00:00 | 00:00:00 | 00:00:00 | |
| OE3OSB-13 | 2026-09-05 17:55:42 | 51.60321 | 15.92402 | 117° | 133km/h | 13037m | -4.3m/s | -50.9°C | 1.5% | 170.2hPa | 2.7V | 00:00:00 | 00:00:00 | 00:00:00 | |
| SP3BTT-10 | 2026-09-05 17:55:32 | 51.60471 | 15.91914 | 117° | 128km/h | 13080m | -4.2m/s | -51.2°C | 4.0% | 169.0hPa | 2.7V | 00:00:00 | 00:00:00 | 00:00:00 | |
| SONDE2-11 | 2026-09-05 17:55:29 | 51.60517 | 15.91768 | 117° | 133km/h | 13092m | -4.2m/s | -51.2°C | 1.6% | 168.8hPa | 2.7V | 00:00:00 | 00:00:00 | 00:00:00 | |
| EDDB2-11 | 2026-09-05 17:55:28 | 51.60533 | 15.91720 | 117° | 133km/h | 13097m | -4.2m/s | -51.1°C | 1.5% | 168.6hPa | 2.7V | 00:00:00 | 00:00:00 | 00:00:00 | |
| OK1SLM-15 | 2026-09-05 17:55:24 | 51.60579 | 15.91577 | 118° | 131km/h | 13109m | -4.2m/s | 0°C | 0% | 0hPa | 2.7V | 00:00:00 | 00:00:00 | 00:00:00 | |
| SONCRA | 2026-09-05 17:55:23 | 51.60610 | 15.91482 | 117° | 130km/h | 13118m | -4.4m/s | -51.1°C | 1.6% | 168.1hPa | 2.7V | 00:00:00 | 00:00:00 | 00:00:00 | |
| DB0NH | 2026-09-05 17:55:16 | 51.60713 | 15.91155 | 118° | 126km/h | 13148m | -4.1m/s | -51.1°C | 3.9% | 167.3hPa | 2.7V | 00:00:00 | 01:39:40 | 00:00:00 | |
| SP3WXH-11 | 2026-09-05 17:55:13 | 51.60774 | 15.90970 | 117° | 126km/h | 13165m | -4.2m/s | -51.2°C | 1.5% | 166.9hPa | 2.5V | 00:00:00 | 00:00:00 | 00:00:00 | |
| OE3OSB-13 | 2026-09-05 17:55:11 | 51.60789 | 15.90925 | 117° | 126km/h | 13169m | -4.3m/s | -51.2°C | 1.5% | 166.8hPa | 2.5V | 00:00:00 | 00:00:00 | 00:00:00 | |
| 13BRC | 2026-09-05 17:55:07 | 51.60832 | 15.90789 | 117° | 124km/h | 13182m | -4.4m/s | -51.3°C | 1.5% | 166.5hPa | 2.5V | 00:00:00 | 00:00:00 | 00:00:00 | |
| SONDE2-11 | 2026-09-05 17:54:58 | 51.60970 | 15.90332 | 119° | 128km/h | 13224m | -4.0m/s | -51.4°C | 1.5% | 165.4hPa | 2.5V | 00:00:00 | 00:00:00 | 00:00:00 | |
| EDDB2-11 | 2026-09-05 17:54:57 | 51.60986 | 15.90287 | 119° | 126km/h | 13228m | -4.2m/s | -51.4°C | 1.6% | 165.3hPa | 2.5V | 00:00:00 | 00:00:00 | 00:00:00 | |
| SONCRA | 2026-09-05 17:54:52 | 51.61070 | 15.90065 | 122° | 128km/h | 13250m | -4.8m/s | -51.5°C | 1.6% | 164.7hPa | 2.5V | 00:00:00 | 00:00:00 | 00:00:00 | |
| SP3BTT-10 | 2026-09-05 17:54:47 | 51.61156 | 15.89845 | 123° | 124km/h | 13272m | -3.5m/s | -51.4°C | 4.0% | 164.1hPa | 2.5V | 00:00:00 | 00:00:00 | 00:00:00 | |
| DB0NH | 2026-09-05 17:54:46 | 51.61173 | 15.89802 | 122° | 126km/h | 13276m | -3.9m/s | -51.5°C | 4.0% | 164.0hPa | 2.5V | 00:00:00 | 01:39:10 | 00:00:00 | |
| SP3WXH-11 | 2026-09-05 17:54:42 | 51.61258 | 15.89583 | 121° | 128km/h | 13295m | -4.0m/s | -51.4°C | 1.5% | 163.6hPa | 2.5V | 00:00:00 | 00:00:00 | 00:00:00 | |
| OE3OSB-13 | 2026-09-05 17:54:40 | 51.61275 | 15.89539 | 122° | 128km/h | 13300m | -4.1m/s | -51.5°C | 1.5% | 163.5hPa | 2.5V | 00:00:00 | 00:00:00 | 00:00:00 | |
| EDDB2-11 | 2026-09-05 17:54:27 | 51.61523 | 15.88942 | 123° | 124km/h | 13355m | -3.9m/s | -51.8°C | 1.5% | 162.1hPa | 2.5V | 00:00:00 | 00:00:00 | 00:00:00 | |
| 13BRC | 2026-09-05 17:54:26 | 51.61523 | 15.88942 | 125° | 126km/h | 13355m | -3.9m/s | -51.8°C | 1.5% | 162.1hPa | 2.5V | 00:00:00 | 00:00:00 | 00:00:00 | |
| SONCRA | 2026-09-05 17:54:21 | 51.61606 | 15.88728 | 120° | 124km/h | 13375m | -4.0m/s | -51.9°C | 1.5% | -1.0hPa | 2.5V | 00:00:00 | 00:00:00 | 00:00:00 | |
| EDDB2-12 | 2026-09-05 17:54:19 | 51.61639 | 15.88641 | 121° | 122km/h | 13383m | -3.9m/s | -51.9°C | 1.5% | 161.4hPa | 2.5V | 00:00:00 | 00:00:00 | 00:00:00 | |
| DB0NH | 2026-09-05 17:54:16 | 51.61688 | 15.88512 | 123° | 122km/h | 13394m | -3.6m/s | -51.7°C | 4.0% | 161.1hPa | 2.5V | 00:00:00 | 01:38:40 | 00:00:00 | |
| OE3JTB-15 | 2026-09-05 17:54:13 | 51.61740 | 15.88387 | 125° | 120km/h | 13406m | -3.7m/s | -51.7°C | 3.9% | 160.8hPa | 2.5V | 00:00:00 | 00:00:00 | 00:00:00 | |
| SP3WXH-11 | 2026-09-05 17:54:11 | 51.61792 | 15.88266 | 124° | 119km/h | 13417m | -3.5m/s | -51.8°C | 1.5% | 160.6hPa | 2.5V | 00:00:00 | 00:00:00 | 00:00:00 | |
| OE3OSB-13 | 2026-09-05 17:54:09 | 51.61809 | 15.88225 | 124° | 119km/h | 13420m | -3.7m/s | -51.8°C | 1.5% | 160.4hPa | 2.5V | 00:00:00 | 00:00:00 | 00:00:00 | |
| SP3BTT-10 | 2026-09-05 17:54:07 | 51.61843 | 15.88144 | 124° | 120km/h | 13428m | -3.7m/s | -51.8°C | 3.9% | 160.2hPa | 2.5V | 00:00:00 | 00:00:00 | 08:30:00 | |
| 13BRC | 2026-09-05 17:54:05 | 51.61860 | 15.88103 | 124° | 120km/h | 13432m | -3.9m/s | -51.8°C | 1.5% | 160.2hPa | 2.5V | 00:00:00 | 00:00:00 | 00:00:00 | |
| SONDE2-11 | 2026-09-05 17:53:56 | 51.62027 | 15.87685 | 122° | 119km/h | 13468m | -3.7m/s | -51.7°C | 1.4% | 159.2hPa | 2.5V | 00:00:00 | 00:00:00 | 00:00:00 | |
| EDDB2-11 | 2026-09-05 17:53:55 | 51.62043 | 15.87644 | 122° | 117km/h | 13472m | -3.6m/s | -51.7°C | 1.4% | 159.2hPa | 2.5V | 00:00:00 | 00:00:00 | 00:00:00 | |
| EDDB2-12 | 2026-09-05 17:53:48 | 51.62158 | 15.87359 | 122° | 120km/h | 13497m | -3.5m/s | -51.6°C | 1.4% | 158.6hPa | 2.5V | 00:00:00 | 00:00:00 | 00:00:00 | |
| DB0NH | 2026-09-05 17:53:46 | 51.62190 | 15.87275 | 122° | 120km/h | 13505m | -3.6m/s | -51.5°C | 3.9% | 158.3hPa | 2.5V | 00:00:00 | 01:38:10 | 08:30:00 | |
| 13BRC | 2026-09-05 17:53:44 | 51.62206 | 15.87232 | 123° | 122km/h | 13508m | -3.6m/s | -51.5°C | 1.4% | 158.3hPa | 2.7V | 00:00:00 | 00:00:00 | 00:00:00 | |
| OE3JTB-15 | 2026-09-05 17:53:43 | 51.62239 | 15.87148 | 122° | 108km/h | 13516m | -3.6m/s | -51.3°C | 3.9% | 158.0hPa | 2.7V | 00:00:00 | 00:00:00 | 00:00:00 | |
| SP3WXH-11 | 2026-09-05 17:53:40 | 51.62303 | 15.86980 | 121° | 120km/h | 13530m | -3.6m/s | -51.0°C | 1.4% | 157.7hPa | 2.7V | 00:00:00 | 00:00:00 | 00:00:00 | |
| SP3BTT-10 | 2026-09-05 17:53:37 | 51.62334 | 15.86896 | 122° | 120km/h | 13537m | -3.4m/s | -51.0°C | 3.7% | 157.6hPa | 2.7V | 00:00:00 | 00:00:00 | 00:00:00 | |
| SONDE2-11 | 2026-09-05 17:53:25 | 51.62516 | 15.86389 | 118° | 117km/h | 13579m | -3.5m/s | -51.3°C | 1.4% | 156.6hPa | 2.7V | 00:00:00 | 00:00:00 | 00:00:00 | |
| EDDB2-11 | 2026-09-05 17:53:24 | 51.62530 | 15.86347 | 118° | 117km/h | 13583m | -3.4m/s | -51.3°C | 1.4% | 156.5hPa | 2.7V | 00:00:00 | 00:00:00 | 00:00:00 | |
| SONCRA | 2026-09-05 17:53:19 | 51.62601 | 15.86139 | 118° | 115km/h | 13600m | -3.4m/s | 0°C | -1.0% | -1.0hPa | 2.7V | 00:00:00 | 00:00:00 | 00:00:00 | |
| EDDB2-12 | 2026-09-05 17:53:17 | 51.62630 | 15.86055 | 118° | 117km/h | 13606m | -3.2m/s | -51.4°C | 1.4% | 155.9hPa | 2.7V | 00:00:00 | 00:00:00 | 00:00:00 | |
| DB0NH | 2026-09-05 17:53:16 | 51.62644 | 15.86013 | 119° | 120km/h | 13610m | -3.3m/s | -51.4°C | 3.8% | 155.8hPa | 2.7V | 00:00:00 | 01:37:40 | 00:00:00 | |
| SP3WXH-11 | 2026-09-05 17:53:09 | 51.62758 | 15.85669 | 116° | 117km/h | 13637m | -3.5m/s | -51.5°C | 1.4% | 155.2hPa | 2.7V | 00:00:00 | 00:00:00 | 00:00:00 | |
| SP3BTT-10 | 2026-09-05 17:53:07 | 51.62771 | 15.85625 | 117° | 122km/h | 13640m | -3.4m/s | -51.5°C | 3.8% | 155.0hPa | 2.7V | 00:00:00 | 00:00:00 | 00:00:00 | |
| 13BRC | 2026-09-05 17:53:03 | 51.62811 | 15.85496 | 117° | 119km/h | 13651m | -3.4m/s | -51.6°C | 1.4% | 154.8hPa | 2.7V | 00:00:00 | 00:00:00 | 00:00:00 | |
| DB0DAN | 2026-09-05 17:52:55 | 51.62931 | 15.85100 | 117° | 115km/h | 13682m | -3.3m/s | -51.7°C | 1.4% | 154.08hPa | 2.7V | 00:00:00 | 00:00:00 | 00:00:00 | |
| SONDE2-11 | 2026-09-05 17:52:54 | 51.62945 | 15.85056 | 116° | 120km/h | 13685m | -3.3m/s | -51.7°C | 1.4% | 154.0hPa | 2.5V | 00:00:00 | 00:00:00 | 00:00:00 | |
| EDDB2-11 | 2026-09-05 17:52:53 | 51.62959 | 15.85012 | 116° | 120km/h | 13689m | -3.4m/s | -51.7°C | 1.4% | 153.9hPa | 2.5V | 00:00:00 | 00:00:00 | 00:00:00 | |
| SONCRA | 2026-09-05 17:52:48 | 51.63026 | 15.84791 | 115° | 120km/h | 13705m | -3.4m/s | 0°C | -1.0% | -1.0hPa | 2.5V | 00:00:00 | 00:00:00 | 00:00:00 | |
| DB0NH | 2026-09-05 17:52:46 | 51.63052 | 15.84701 | 115° | 124km/h | 13712m | -3.0m/s | -51.8°C | 3.9% | 153.3hPa | 2.5V | 00:00:00 | 01:37:10 | 00:00:00 | |
| 13BRC | 2026-09-05 17:52:43 | 51.63078 | 15.84610 | 116° | 124km/h | 13718m | -3.4m/s | -51.8°C | 1.4% | 153.3hPa | 2.5V | 00:00:00 | 00:00:00 | 00:00:00 | |
| SP3BTT-10 | 2026-09-05 17:52:37 | 51.63170 | 15.84288 | 115° | 122km/h | 13742m | -3.1m/s | -51.8°C | 3.9% | 152.6hPa | 2.5V | 00:00:00 | 00:00:00 | 00:00:00 | |
| OE3OSB-13 | 2026-09-05 17:52:36 | 51.63196 | 15.84197 | 114° | 122km/h | 13749m | -3.3m/s | -51.8°C | 1.4% | 152.5hPa | 2.5V | 00:00:00 | 00:00:00 | 00:00:00 | |
| DB0DAN | 2026-09-05 17:52:25 | 51.63332 | 15.83743 | 116° | 117km/h | 13783m | -3.6m/s | -51.8°C | 1.4% | 151.72hPa | 2.5V | 00:00:00 | 00:00:00 | 00:00:00 | |
| SONDE2-11 | 2026-09-05 17:52:23 | 51.63359 | 15.83653 | 115° | 122km/h | 13790m | -3.2m/s | -51.8°C | 1.4% | 151.6hPa | 2.5V | 00:00:00 | 00:00:00 | 00:00:00 | |
| EDDB2-11 | 2026-09-05 17:52:22 | 51.63386 | 15.83564 | 115° | 120km/h | 13796m | -3.4m/s | -51.8°C | 1.5% | 151.4hPa | 2.5V | 00:00:00 | 00:00:00 | 00:00:00 | |
| DB0NH | 2026-09-05 17:52:16 | 51.63454 | 15.83342 | 117° | 122km/h | 13813m | -3.2m/s | -51.7°C | 3.9% | 151.0hPa | 2.5V | 00:00:00 | 01:36:40 | 00:00:00 | |
| EDDB2-12 | 2026-09-05 17:52:15 | 51.63468 | 15.83298 | 116° | 122km/h | 13816m | -3.2m/s | -51.8°C | 1.5% | 150.9hPa | 2.5V | 00:00:00 | 00:00:00 | 00:00:00 | |
| DB0DAN | 2026-09-05 17:52:10 | 51.63538 | 15.83074 | 116° | 119km/h | 13833m | -3.5m/s | -51.8°C | 1.5% | 150.58hPa | 2.5V | 00:00:00 | 00:00:00 | 00:00:00 | |
| SP3WXH-11 | 2026-09-05 17:52:07 | 51.63592 | 15.82894 | 115° | 120km/h | 13847m | -3.5m/s | -51.9°C | 1.5% | 150.2hPa | 2.5V | 00:00:00 | 00:00:00 | 00:00:00 | |
| OE3OSB-13 | 2026-09-05 17:52:05 | 51.63619 | 15.82805 | 116° | 120km/h | 13854m | -3.5m/s | -51.9°C | 1.5% | 150.1hPa | 2.5V | 00:00:00 | 00:00:00 | 00:00:00 | |
| 13BRC | 2026-09-05 17:52:01 | 51.63646 | 15.82717 | 118° | 120km/h | 13861m | -3.4m/s | -51.9°C | 1.5% | 149.9hPa | 2.5V | 00:00:00 | 00:00:00 | 00:00:00 | |
| DB0DAN | 2026-09-05 17:51:55 | 51.63749 | 15.82415 | 119° | 113km/h | 13885m | -3.3m/s | -52.1°C | 1.5% | 149.34hPa | 2.5V | 00:00:00 | 00:00:00 | 00:00:00 | |
| SONDE2-11 | 2026-09-05 17:51:52 | 51.63792 | 15.82286 | 117° | 119km/h | 13896m | -3.4m/s | -52.1°C | 1.5% | 149.1hPa | 2.5V | 00:00:00 | 00:00:00 | 00:00:00 | |
| EDDB2-11 | 2026-09-05 17:51:51 | 51.63806 | 15.82243 | 117° | 120km/h | 13899m | -3.4m/s | -52.1°C | 1.5% | 149.0hPa | 2.5V | 00:00:00 | 00:00:00 | 00:00:00 | |
| SP3BTT-10 | 2026-09-05 17:51:46 | 51.63875 | 15.82024 | 117° | 115km/h | 13917m | -3.5m/s | -52.2°C | 4.1% | 148.6hPa | 2.5V | 00:00:00 | 00:00:00 | 00:00:00 | |
| EDDB2-12 | 2026-09-05 17:51:44 | 51.63903 | 15.81937 | 117° | 119km/h | 13924m | -3.7m/s | -52.3°C | 1.5% | 148.4hPa | 2.5V | 00:00:00 | 00:00:00 | 00:00:00 | |
| 13BRC | 2026-09-05 17:51:41 | 51.63931 | 15.81851 | 119° | 120km/h | 13931m | -3.4m/s | -52.3°C | 1.5% | 148.3hPa | 2.5V | 00:00:00 | 00:00:00 | 00:00:00 | |
| SP3WXH-11 | 2026-09-05 17:51:36 | 51.64031 | 15.81556 | 119° | 115km/h | 13956m | -3.8m/s | -52.3°C | 1.5% | 147.7hPa | 2.5V | 00:00:00 | 00:00:00 | 00:00:00 | |
| OE3OSB-13 | 2026-09-05 17:51:34 | 51.64060 | 15.81474 | 119° | 117km/h | 13963m | -3.6m/s | -52.4°C | 1.5% | 147.6hPa | 2.5V | 00:00:00 | 00:00:00 | 00:00:00 | |
| SONDE2-11 | 2026-09-05 17:51:21 | 51.64234 | 15.80989 | 120° | 111km/h | 14007m | -3.8m/s | -52.2°C | 1.4% | 146.6hPa | 2.5V | 00:00:00 | 00:00:00 | 00:00:00 | |
| EDDB2-11 | 2026-09-05 17:51:20 | 51.64261 | 15.80911 | 119° | 110km/h | 14015m | -3.8m/s | -52.2°C | 1.4% | 146.4hPa | 2.5V | 00:00:00 | 00:00:00 | 00:00:00 | |
| SP3BTT-10 | 2026-09-05 17:51:16 | 51.64302 | 15.80792 | 119° | 115km/h | 14027m | -4.0m/s | -52.2°C | 4.0% | 146.1hPa | 2.5V | 00:00:00 | 00:00:00 | 00:00:00 | |
| EDDB2-12 | 2026-09-05 17:51:13 | 51.64343 | 15.80671 | 117° | 113km/h | 14038m | -3.7m/s | -52.2°C | 1.4% | 145.9hPa | 2.5V | 00:00:00 | 00:00:00 | 00:00:00 | |
| SP3WXH-11 | 2026-09-05 17:51:05 | 51.64461 | 15.80306 | 117° | 110km/h | 14072m | -3.9m/s | -52.0°C | 1.4% | 145.1hPa | 2.5V | 00:00:00 | 00:00:00 | 00:00:00 | |
| OE3OSB-13 | 2026-09-05 17:51:03 | 51.64487 | 15.80226 | 116° | 110km/h | 14080m | -3.8m/s | -51.9°C | 1.4% | 144.9hPa | 2.5V | 00:00:00 | 00:00:00 | 00:00:00 | |
| SONDE2-11 | 2026-09-05 17:50:50 | 51.64637 | 15.79728 | 114° | 111km/h | 14126m | -3.9m/s | -51.5°C | 1.3% | 143.9hPa | 2.5V | 00:00:00 | 00:00:00 | 00:00:00 | |
| EDDB2-11 | 2026-09-05 17:50:49 | 51.64661 | 15.79645 | 115° | 113km/h | 14134m | -4.0m/s | -51.5°C | 1.3% | 143.7hPa | 2.5V | 00:00:00 | 00:00:00 | 00:00:00 | |
| DB0NH | 2026-09-05 17:50:46 | 51.64686 | 15.79560 | 115° | 108km/h | 14143m | -4.0m/s | -51.5°C | 3.8% | 143.5hPa | 2.5V | 00:00:00 | 01:35:10 | 00:00:00 | |
| EDDB2-12 | 2026-09-05 17:50:42 | 51.64748 | 15.79344 | 114° | 119km/h | 14163m | -4.3m/s | -51.5°C | 1.3% | 143.1hPa | 2.7V | 00:00:00 | 00:00:00 | 00:00:00 | |
| 13BRC | 2026-09-05 17:50:38 | 51.64773 | 15.79257 | 116° | 117km/h | 14172m | -4.4m/s | -51.5°C | 1.3% | 142.9hPa | 2.7V | 00:00:00 | 00:00:00 | 00:00:00 | |
| SP3WXH-11 | 2026-09-05 17:50:34 | 51.64848 | 15.79006 | 115° | 111km/h | 14198m | -4.3m/s | -51.6°C | 1.4% | 142.3hPa | 2.7V | 00:00:00 | 00:00:00 | 00:00:00 | |
| OE3OSB-13 | 2026-09-05 17:50:32 | 51.64873 | 15.78924 | 116° | 111km/h | 14206m | -4.4m/s | -51.5°C | 1.3% | 142.1hPa | 2.7V | 00:00:00 | 00:00:00 | 00:00:00 | |
| SP3BTT-10 | 2026-09-05 17:50:31 | 51.64873 | 15.78923 | 117° | 102km/h | 14207m | -4.3m/s | -51.4°C | 3.8% | 142.1hPa | 2.7V | 00:00:00 | 00:00:00 | 00:00:00 | |
| SONDE2-11 | 2026-09-05 17:50:19 | 51.65029 | 15.78460 | 118° | 102km/h | 14260m | -4.5m/s | -50.7°C | 1.2% | 140.9hPa | 2.7V | 00:00:00 | 00:00:00 | 00:00:00 | |
| 13BRC | 2026-09-05 17:50:17 | 51.65040 | 15.78423 | 118° | 102km/h | 14264m | -4.3m/s | -50.6°C | 1.2% | 140.9hPa | 2.7V | 00:00:00 | 00:00:00 | 00:00:00 | |
| EDDB2-12 | 2026-09-05 17:50:11 | 51.65133 | 15.78131 | 116° | 99km/h | 14299m | -4.4m/s | -50.7°C | 1.2% | 140.1hPa | 2.7V | 00:00:00 | 00:00:00 | 00:00:00 | |
| SP3WXH-11 | 2026-09-05 17:50:02 | 51.65225 | 15.77832 | 114° | 106km/h | 14336m | -4.8m/s | -50.4°C | 1.2% | 139.3hPa | 2.7V | 00:00:00 | 00:00:00 | 00:00:00 | |
| OE3OSB-13 | 2026-09-05 17:50:01 | 51.65247 | 15.77754 | 114° | 104km/h | 14345m | -4.6m/s | -50.4°C | 1.2% | 139.1hPa | 2.7V | 00:00:00 | 00:00:00 | 00:00:00 | |
| SONDE2-11 | 2026-09-05 17:49:48 | 51.65374 | 15.77301 | 113° | 100km/h | 14401m | -4.4m/s | -50.2°C | 1.2% | 138.0hPa | 2.7V | 00:00:00 | 00:00:00 | 00:00:00 | |
| EDDB2-11 | 2026-09-05 17:49:47 | 51.65394 | 15.77227 | 113° | 97km/h | 14409m | -4.5m/s | -50.2°C | 1.2% | 137.8hPa | 2.7V | 00:00:00 | 00:00:00 | 00:00:00 | |
| DAC517 | 2026-09-05 17:49:45 | 51.65393 | 15.77227 | 114° | 99km/h | 14410m | -4.5m/s | -50.2°C | 1.2% | 137.8hPa | 2.7V | 00:00:00 | 00:00:00 | 00:00:00 | |
| DB0NH | 2026-09-05 17:49:42 | 51.65432 | 15.77082 | 114° | 95km/h | 14428m | -4.4m/s | -50.1°C | 3.5% | 137.4hPa | 2.7V | 00:00:00 | 01:34:06 | 00:00:00 | |
| EDDB2-12 | 2026-09-05 17:49:40 | 51.65459 | 15.76975 | 112° | 93km/h | 14441m | -4.6m/s | -49.9°C | 1.2% | 137.1hPa | 2.7V | 00:00:00 | 00:00:00 | 00:00:00 | |
| 13BRC | 2026-09-05 17:49:36 | 51.65477 | 15.76903 | 113° | 97km/h | 14451m | -4.4m/s | -49.9°C | 1.2% | 136.9hPa | 2.7V | 00:00:00 | 00:00:00 | 00:00:00 | |
| SP3WXH-11 | 2026-09-05 17:49:31 | 51.65536 | 15.76683 | 113° | 97km/h | 14478m | -4.3m/s | -50.1°C | 1.2% | 136.4hPa | 2.7V | 00:00:00 | 00:00:00 | 00:00:00 | |
| OE3OSB-13 | 2026-09-05 17:49:30 | 51.65555 | 15.76611 | 113° | 95km/h | 14487m | -4.9m/s | -50.2°C | 1.2% | 136.2hPa | 2.7V | 00:00:00 | 00:00:00 | 00:00:00 | |
| DAC517 | 2026-09-05 17:49:19 | 51.65629 | 15.76295 | 109° | 91km/h | 14529m | -4.6m/s | -50.6°C | 1.2% | 135.3hPa | 2.7V | 00:00:00 | 00:00:00 | 00:00:00 | |
| SONDE2-11 | 2026-09-05 17:49:17 | 51.65650 | 15.76189 | 107° | 89km/h | 14543m | -4.7m/s | -50.7°C | 1.2% | 135.0hPa | 2.7V | 00:00:00 | 00:00:00 | 00:00:00 | |
| SP3BTT-10 | 2026-09-05 17:49:16 | 51.65656 | 15.76154 | 107° | 93km/h | 14547m | -4.3m/s | -50.6°C | 3.6% | 134.9hPa | 2.7V | 00:00:00 | 00:00:00 | 00:00:00 | |
| 13BRC | 2026-09-05 17:49:15 | 51.65656 | 15.76153 | 108° | 91km/h | 14547m | -4.3m/s | -50.7°C | 1.2% | 134.9hPa | 2.7V | 00:00:00 | 00:00:00 | 00:00:00 | |
| DB0NH | 2026-09-05 17:49:12 | 51.65683 | 15.76013 | 107° | 91km/h | 14565m | -4.2m/s | -50.8°C | 3.6% | 134.5hPa | 2.7V | 00:00:00 | 01:33:36 | 00:00:00 | |
| EDDB2-12 | 2026-09-05 17:49:09 | 51.65709 | 15.75872 | 106° | 89km/h | 14583m | -4.2m/s | -50.8°C | 1.3% | 134.2hPa | 2.7V | 00:00:00 | 00:00:00 | 00:00:00 | |
| OE3OSB-13 | 2026-09-05 17:48:58 | 51.65773 | 15.75518 | 105° | 88km/h | 14627m | -4.2m/s | -50.9°C | 1.3% | 133.3hPa | 2.7V | 00:00:00 | 00:00:00 | 00:00:00 | |
| SONDE2-11 | 2026-09-05 17:48:46 | 51.65868 | 15.75053 | 109° | 89km/h | 14683m | -4.3m/s | -51.3°C | 1.3% | 132.1hPa | 2.7V | 00:00:00 | 00:00:00 | 00:00:00 | |
| EDDB2-11 | 2026-09-05 17:48:45 | 51.65876 | 15.75018 | 108° | 89km/h | 14687m | -4.4m/s | -51.4°C | 1.3% | 132.0hPa | 2.7V | 00:00:00 | 00:00:00 | 00:00:00 | |
| DB0NH | 2026-09-05 17:48:41 | 51.65896 | 15.74913 | 107° | 95km/h | 14700m | -4.3m/s | -51.4°C | 3.9% | 131.7hPa | 2.7V | 00:00:00 | 01:33:05 | 08:30:00 | |
| DAC517 | 2026-09-05 17:48:38 | 51.65917 | 15.74804 | 109° | 95km/h | 14713m | -4.1m/s | -51.5°C | 1.4% | 131.5hPa | 2.7V | 00:00:00 | 00:00:00 | 00:00:00 | |
| 13BRC | 2026-09-05 17:48:34 | 51.65941 | 15.74694 | 112° | 97km/h | 14726m | -4.3m/s | -51.6°C | 1.4% | 131.2hPa | 2.7V | 00:00:00 | 00:00:00 | 00:00:00 | |
| NBG1-10 | 2026-09-05 17:48:32 | 51.65969 | 15.74585 | 114° | 91km/h | 14739m | -4.4m/s | -51.7°C | 3.9% | 130.9hPa | 2.7V | 00:00:00 | 01:32:56 | 00:00:00 | |
| SP3BTT-10 | 2026-09-05 17:48:31 | 51.65979 | 15.74549 | 114° | 95km/h | 14743m | -4.2m/s | -51.7°C | 3.9% | 130.8hPa | 2.7V | 00:00:00 | 00:00:00 | 08:30:00 | |
| SP3WXH-11 | 2026-09-05 17:48:30 | 51.65999 | 15.74477 | 113° | 95km/h | 14752m | -4.2m/s | -51.9°C | 1.4% | 130.7hPa | 2.6V | 00:00:00 | 00:00:00 | 00:00:00 | |
| OE3OSB-13 | 2026-09-05 17:48:28 | 51.66019 | 15.74406 | 113° | 93km/h | 14761m | -4.2m/s | -51.9°C | 1.4% | 130.5hPa | 2.6V | 00:00:00 | 00:00:00 | 00:00:00 | |
| AA1-15 | 2026-09-05 17:48:06 | 51.66227 | 15.73677 | 116° | 93km/h | 14852m | -4.4m/s | -51.8°C | 0.7% | 128.7hPa | 2.6V | 18:12:15 | 01:32:30 | 00:00:00 | |
| SP3WXH-11 | 2026-09-05 17:47:58 | 51.66313 | 15.73402 | 116° | 93km/h | 14887m | -4.4m/s | -52.1°C | 1.4% | 128.0hPa | 2.6V | 00:00:00 | 00:00:00 | 00:00:00 | |
| OE3OSB-13 | 2026-09-05 17:47:56 | 51.66334 | 15.73333 | 116° | 91km/h | 14896m | -4.4m/s | -52.1°C | 1.5% | 127.9hPa | 2.6V | 00:00:00 | 00:00:00 | 00:00:00 | |
| 13BRC | 2026-09-05 17:47:53 | 51.66354 | 15.73265 | 117° | 91km/h | 14905m | -4.6m/s | -52.2°C | 1.5% | 127.7hPa | 2.6V | 00:00:00 | 00:00:00 | 00:00:00 | |
| AA1-15 | 2026-09-05 17:47:36 | 51.66531 | 15.72658 | 114° | 91km/h | 14986m | -4.5m/s | -52.3°C | 0.8% | 126.1hPa | 2.6V | 18:12:15 | 01:32:00 | 00:00:00 | |
| AA1-15 | 2026-09-05 17:47:21 | 51.66689 | 15.72155 | 117° | 89km/h | 15054m | -4.7m/s | -52.7°C | 0.9% | 124.8hPa | 2.6V | 18:12:15 | 01:31:45 | 00:00:00 | |
| AA1-15 | 2026-09-05 17:47:10 | 51.66809 | 15.71798 | 119° | 89km/h | 15105m | -4.6m/s | -52.4°C | 0.7% | 123.8hPa | 2.6V | 18:12:15 | 01:31:34 | 00:00:00 | |
| AA1-15 | 2026-09-05 17:46:58 | 51.66936 | 15.71434 | 118° | 88km/h | 15161m | -4.7m/s | -52.6°C | 0.7% | 122.7hPa | 2.7V | 18:12:15 | 01:31:22 | 00:00:00 | |
| AA1-15 | 2026-09-05 17:46:47 | 51.67047 | 15.71098 | 118° | 82km/h | 15211m | -4.5m/s | -52.4°C | 0.6% | 121.7hPa | 2.6V | 18:12:15 | 01:31:11 | 00:00:00 | |
| AA1-15 | 2026-09-05 17:46:30 | 51.67206 | 15.70588 | 114° | 82km/h | 15289m | -4.7m/s | -52.5°C | 0.5% | 120.3hPa | 2.7V | 18:12:15 | 01:30:54 | 00:00:00 | |
| AA1-15 | 2026-09-05 17:46:19 | 51.67295 | 15.70247 | 111° | 80km/h | 15339m | -4.7m/s | -52.8°C | 0.6% | 119.4hPa | 2.6V | 18:12:15 | 01:30:43 | 00:00:00 | |
| AA1-15 | 2026-09-05 17:46:07 | 51.67380 | 15.69850 | 107° | 89km/h | 15394m | -4.4m/s | -52.9°C | 0.5% | 118.4hPa | 2.6V | 18:12:15 | 01:30:31 | 00:00:00 | |
| BIOWL1-15 | 2026-09-05 17:46:06 | 51.67411 | 15.69679 | 106° | 88km/h | 15416m | -4.6m/s | -53°C | 0.6% | 117.9hPa | 2.6V | 18:12:15 | 01:30:26 | 00:00:00 | |
| BIOWL1-15 | 2026-09-05 17:45:49 | 51.67495 | 15.69234 | 109° | 91km/h | 15474m | -4.6m/s | -52.7°C | 0.6% | 116.9hPa | 2.6V | 18:12:15 | 01:30:13 | 00:00:00 | |
| BIOWL1-15 | 2026-09-05 17:45:38 | 51.67589 | 15.68873 | 114° | 86km/h | 15524m | -4.3m/s | -52.5°C | 0.5% | 116hPa | 2.6V | 18:12:15 | 01:30:02 | 00:00:00 | |
| BIOWL1-15 | 2026-09-05 17:45:26 | 51.67694 | 15.68476 | 115° | 89km/h | 15575m | -4.4m/s | -52.1°C | 0.4% | 115.1hPa | 2.7V | 18:12:15 | 01:29:50 | 00:00:00 | |
| DB0DAN | 2026-09-05 17:45:25 | 51.67703 | 15.68443 | 115° | 84km/h | 15580m | -4.2m/s | -51.9°C | 1.2% | 115.03hPa | 2.7V | 00:00:00 | 00:00:00 | 00:00:00 | |
| AA1-15 | 2026-09-05 17:45:25 | 51.67703 | 15.68443 | 115° | 89km/h | 15580m | -4.2m/s | -51.9°C | 0.5% | 115hPa | 2.7V | 18:12:15 | 01:29:49 | 00:00:00 | |
| BIOWL1-15 | 2026-09-05 17:45:16 | 51.67850 | 15.67941 | 117° | 93km/h | 15643m | -4.3m/s | -51.9°C | 0.4% | 113.9hPa | 2.7V | 18:12:15 | 01:29:34 | 00:00:00 | |
| DL2RXE-15 | 2026-09-05 17:45:14 | 51.67799 | 15.68107 | 116° | 91km/h | 15622m | -4.2m/s | -52.0°C | 1.2% | 114.2hPa | 2.7V | 00:00:00 | 00:00:00 | 00:00:00 | |
| OE3JTB-15 | 2026-09-05 17:45:13 | 51.67819 | 15.68040 | 116° | 97km/h | 15630m | -4.2m/s | -51.9°C | 3.8% | 114.1hPa | 2.7V | 00:00:00 | 01:29:37 | 00:00:00 | |
| DB0DAN | 2026-09-05 17:45:10 | 51.67850 | 15.67941 | 117° | 88km/h | 15643m | -4.3m/s | -51.9°C | 1.2% | 113.89hPa | 2.7V | 00:00:00 | 00:00:00 | 00:00:00 | |
| BIOWL1-15 | 2026-09-05 17:45:03 | 51.67959 | 15.67588 | 117° | 99km/h | 15686m | -4.4m/s | -52°C | 0.4% | 113.1hPa | 2.7V | 18:12:15 | 01:29:24 | 00:00:00 | |
| SONCRA | 2026-09-05 17:45:02 | 51.67937 | 15.67659 | 116° | 99km/h | 15677m | -4.1m/s | -52.0°C | 1.2% | 113.3hPa | 2.7V | 00:00:00 | 00:00:00 | 00:00:00 | |
| BIOWL9-15 | 2026-09-05 17:45:00 | 51.67971 | 15.67553 | 118° | 97km/h | 15690m | -4.1m/s | 0°C | -1.0% | -1.0hPa | 2.7V | 00:00:00 | 00:00:00 | 00:00:00 | |
| OE5MMP-10 | 2026-09-05 17:44:59 | 51.67971 | 15.67553 | 119° | 97km/h | 15690m | -4.0m/s | 0°C | 0% | 0hPa | 2.7V | 00:00:00 | 01:29:23 | 00:00:00 | |
| DB0DAN | 2026-09-05 17:44:55 | 51.68018 | 15.67417 | 120° | 89km/h | 15707m | -4.3m/s | -52°C | 1.2% | 112.79hPa | 2.7V | 00:00:00 | 00:00:00 | 00:00:00 | |
| BIOWL1-15 | 2026-09-05 17:44:48 | 51.68103 | 15.67178 | 119° | 100km/h | 15737m | -4.2m/s | 0°C | 0% | 112.2hPa | 2.6V | 18:12:15 | 01:29:12 | 00:00:00 | |
| SP3BTT-10 | 2026-09-05 17:44:47 | 51.68116 | 15.67142 | 120° | 89km/h | 15741m | -3.9m/s | -51.6°C | 3.8% | 112.2hPa | 2.6V | 00:00:00 | 00:00:00 | 00:00:00 | |
| DL2RXE-15 | 2026-09-05 17:44:46 | 51.68129 | 15.67106 | 121° | 102km/h | 15745m | -4.1m/s | -51.6°C | 1.2% | 112.1hPa | 2.6V | 00:00:00 | 00:00:00 | 00:00:00 | |
| OE3JTB-15 | 2026-09-05 17:44:44 | 51.68154 | 15.67034 | 121° | 91km/h | 15753m | -4.1m/s | -51.5°C | 3.7% | 111.9hPa | 2.6V | 00:00:00 | 00:00:00 | 00:00:00 | |
| DB0DAN | 2026-09-05 17:44:40 | 51.68205 | 15.66899 | 121° | 89km/h | 15769m | -4.3m/s | -51.4°C | 1.2% | 111.69hPa | 2.7V | 00:00:00 | 00:00:00 | 00:00:00 | |
| DB0NH | 2026-09-05 17:44:40 | 51.68205 | 15.66899 | 122° | 88km/h | 15769m | -4.2m/s | -51.4°C | 3.8% | 111.6hPa | 2.6V | 00:00:00 | 01:29:04 | 00:00:00 | |
| DM0DOS-11 | 2026-09-05 17:44:39 | 51.68278 | 15.66707 | 121° | 93km/h | 15794m | -4.3m/s | -51.6°C | 3.8% | 111.3hPa | 2.6V | 08:30:00 | 01:28:58 | 00:00:00 | |
| SONDE2-11 | 2026-09-05 17:44:37 | 51.68241 | 15.66802 | 121° | 91km/h | 15782m | -4.2m/s | -51.5°C | 1.2% | 111.5hPa | 2.7V | 00:00:00 | 00:00:00 | 00:00:00 | |
| EDDB2-11 | 2026-09-05 17:44:36 | 51.68254 | 15.66770 | 121° | 91km/h | 15786m | -4.1m/s | -51.5°C | 1.2% | 111.5hPa | 2.7V | 00:00:00 | 00:00:00 | 00:00:00 | |
| DAC517 | 2026-09-05 17:44:32 | 51.68290 | 15.66675 | 123° | 91km/h | 15799m | -4.1m/s | -51.6°C | 1.2% | 111.2hPa | 2.7V | 00:00:00 | 00:00:00 | 00:00:00 | |
| SONCRA | 2026-09-05 17:44:31 | 51.68314 | 15.66612 | 121° | 89km/h | 15807m | -4.3m/s | -51.6°C | 1.2% | 111.1hPa | 2.7V | 00:00:00 | 00:00:00 | 00:00:00 | |
| EDDB2-12 | 2026-09-05 17:44:29 | 51.68338 | 15.66549 | 120° | 88km/h | 15815m | -3.9m/s | -51.4°C | 1.2% | 110.9hPa | 2.7V | 00:00:00 | 00:00:00 | 00:00:00 | |
| 13BRC | 2026-09-05 17:44:28 | 51.68338 | 15.66549 | 122° | 89km/h | 15815m | -3.9m/s | -51.4°C | 1.2% | 110.9hPa | 2.7V | 00:00:00 | 00:00:00 | 00:00:00 | |
| DB0DAN | 2026-09-05 17:44:25 | 51.68384 | 15.66427 | 121° | 82km/h | 15833m | -4.4m/s | -51.1°C | 1.1% | 110.64hPa | 2.7V | 00:00:00 | 00:00:00 | 00:00:00 | |
| DM0DOS-11 | 2026-09-05 17:44:23 | 51.68466 | 15.66215 | 122° | 88km/h | 15862m | -4.1m/s | -51°C | 3.5% | 110.1hPa | 2.6V | 08:30:00 | 01:28:42 | 00:00:00 | |
| AA1-15 | 2026-09-05 17:44:10 | 51.68555 | 15.65983 | 121° | 82km/h | 15896m | -4.4m/s | -51.1°C | 0.2% | 109.5hPa | 2.7V | 18:12:15 | 01:28:34 | 00:00:00 | |
| DB0NH | 2026-09-05 17:44:10 | 51.68555 | 15.65983 | 121° | 78km/h | 15897m | -4.4m/s | -51.1°C | 3.6% | 109.5hPa | 2.7V | 00:00:00 | 01:28:34 | 08:30:00 | |
| 13BRC | 2026-09-05 17:44:07 | 51.68576 | 15.65925 | 120° | 82km/h | 15905m | -4.2m/s | -51.2°C | 1.1% | 109.4hPa | 2.6V | 00:00:00 | 00:00:00 | 00:00:00 | |
| SONDE2-11 | 2026-09-05 17:44:06 | 51.68595 | 15.65868 | 117° | 78km/h | 15914m | -4.4m/s | -51.3°C | 1.1% | 109.2hPa | 2.6V | 00:00:00 | 00:00:00 | 00:00:00 | |
| EDDB2-11 | 2026-09-05 17:44:05 | 51.68604 | 15.65839 | 116° | 78km/h | 15918m | -4.5m/s | -51.3°C | 1.1% | 109.2hPa | 2.6V | 00:00:00 | 00:00:00 | 00:00:00 | |
| DM0DOS-11 | 2026-09-05 17:44:04 | 51.68629 | 15.65753 | 113° | 78km/h | 15931m | -4.4m/s | -51.4°C | 3.7% | 108.9hPa | 2.6V | 08:30:00 | 01:28:26 | 00:00:00 | |
| SONCRA | 2026-09-05 17:44:00 | 51.68645 | 15.65694 | 112° | 78km/h | 15940m | -4.0m/s | -51.4°C | 1.2% | 108.8hPa | 2.6V | 00:00:00 | 00:00:00 | 00:00:00 | |
| BIOWL9-15 | 2026-09-05 17:43:58 | 51.68714 | 15.65442 | 114° | 73km/h | 15980m | -4.8m/s | 0°C | -1.0% | -1.0hPa | 2.6V | 00:00:00 | 00:00:00 | 00:00:00 | |
| DM0DOS-11 | 2026-09-05 17:43:53 | 51.68706 | 15.65469 | 113° | 73km/h | 15975m | -4.5m/s | -51.3°C | 3.7% | 108.2hPa | 2.6V | 08:30:00 | 01:28:16 | 00:00:00 | |
| BIOWL1-15 | 2026-09-05 17:43:51 | 51.68714 | 15.65442 | 114° | 73km/h | 15980m | -4.8m/s | 0°C | 0% | 108.1hPa | 2.7V | 18:12:15 | 01:28:15 | 00:00:00 | |
| SP3WXH-11 | 2026-09-05 17:43:50 | 51.68722 | 15.65414 | 113° | 73km/h | 15985m | -4.5m/s | -51.2°C | 1.1% | 108.0hPa | 2.7V | 00:00:00 | 00:00:00 | 00:00:00 | |
| OE3OSB-13 | 2026-09-05 17:43:48 | 51.68746 | 15.65330 | 115° | 77km/h | 15998m | -4.4m/s | -51.1°C | 1.1% | 107.8hPa | 2.7V | 00:00:00 | 00:00:00 | 00:00:00 | |
| 13BRC | 2026-09-05 17:43:47 | 51.68746 | 15.65330 | 117° | 77km/h | 15998m | -4.4m/s | -51.1°C | 1.1% | 107.8hPa | 2.7V | 00:00:00 | 00:00:00 | 00:00:00 | |
| SP3BTT-10 | 2026-09-05 17:43:46 | 51.68754 | 15.65302 | 117° | 69km/h | 16002m | -4.3m/s | -51.0°C | 3.6% | 107.7hPa | 2.7V | 00:00:00 | 00:00:00 | 08:30:00 | |
| DM0DOS-11 | 2026-09-05 17:43:43 | 51.68800 | 15.65163 | 117° | 75km/h | 16025m | -4.6m/s | -51°C | 3.6% | 107.4hPa | 2.7V | 08:30:00 | 01:28:05 | 00:00:00 | |
| AA1-15 | 2026-09-05 17:43:39 | 51.68816 | 15.65110 | 115° | 71km/h | 16034m | -4.3m/s | -50.9°C | 0.3% | 107.2hPa | 2.6V | 18:12:15 | 01:28:03 | 00:00:00 | |
| DO3MHA-11 | 2026-09-05 17:43:38 | 51.68824 | 15.65083 | 115° | 71km/h | 16039m | -4.3m/s | -50.8°C | 3.6% | 107.1hPa | 2.7V | 00:00:00 | 01:28:02 | 00:00:00 | |
| SONDE2-11 | 2026-09-05 17:43:35 | 51.68844 | 15.65005 | 112° | 69km/h | 16052m | -4.5m/s | -51.0°C | 1.1% | 106.9hPa | 2.7V | 00:00:00 | 00:00:00 | 00:00:00 | |
| EDDB2-11 | 2026-09-05 17:43:34 | 51.68851 | 15.64978 | 111° | 69km/h | 16057m | -4.7m/s | -51.0°C | 1.1% | 106.8hPa | 2.7V | 00:00:00 | 00:00:00 | 00:00:00 | |
| DM0DOS-11 | 2026-09-05 17:43:33 | 51.68872 | 15.64898 | 113° | 71km/h | 16071m | -4.7m/s | -51°C | 3.6% | 106.6hPa | 2.7V | 08:30:00 | 01:27:55 | 00:00:00 | |
| BIOWL1-15 | 2026-09-05 17:43:30 | 51.68879 | 15.64871 | 114° | 73km/h | 16075m | -4.6m/s | 0°C | 0% | 106.6hPa | 2.7V | 18:12:15 | 01:27:54 | 00:00:00 | |
| SONCRA | 2026-09-05 17:43:29 | 51.68895 | 15.64817 | 114° | 71km/h | 16084m | -4.4m/s | -51.0°C | 1.1% | 106.4hPa | 2.6V | 00:00:00 | 00:00:00 | 00:00:00 | |
| AA1-15 | 2026-09-05 17:43:29 | 51.68887 | 15.64844 | 115° | 73km/h | 16080m | -4.5m/s | -51°C | 0.3% | 106.5hPa | 2.6V | 18:12:15 | 01:27:53 | 00:00:00 | |
| DO3MHA-11 | 2026-09-05 17:43:28 | 51.68895 | 15.64817 | 115° | 68km/h | 16084m | -4.4m/s | -50.9°C | 3.6% | 106.4hPa | 2.6V | 00:00:00 | 01:27:52 | 08:30:00 | |
| 13BRC | 2026-09-05 17:43:27 | 51.68902 | 15.64791 | 116° | 71km/h | 16089m | -4.5m/s | -51.0°C | 1.1% | 106.3hPa | 2.7V | 00:00:00 | 00:00:00 | 00:00:00 | |
| NBG1-10 | 2026-09-05 17:43:26 | 51.68910 | 15.64765 | 115° | 66km/h | 16093m | -4.5m/s | -50.8°C | 3.6% | 106.2hPa | 2.7V | 00:00:00 | 01:27:50 | 08:30:00 | |
| DM0DOS-11 | 2026-09-05 17:43:23 | 51.68942 | 15.64636 | 109° | 68km/h | 16116m | -4.5m/s | -50.7°C | 3.5% | 105.9hPa | 2.7V | 08:30:00 | 01:27:45 | 00:00:00 | |
| BIOWL1-15 | 2026-09-05 17:43:20 | 51.68947 | 15.64610 | 109° | 66km/h | 16121m | -4.5m/s | 0°C | 0% | 105.8hPa | 2.7V | 18:12:15 | 01:27:44 | 00:00:00 | |
| AA1-15 | 2026-09-05 17:43:19 | 51.68953 | 15.64584 | 108° | 68km/h | 16125m | -4.5m/s | -50.7°C | 0.2% | 105.7hPa | 2.6V | 18:12:15 | 01:27:43 | 00:00:00 | |
| BIOWL1-15 | 2026-09-05 17:43:13 | 51.69007 | 15.64328 | 107° | 66km/h | 16171m | -4.6m/s | 0°C | 0% | 105hPa | 2.6V | 18:12:15 | 01:27:33 | 00:00:00 | |
| DM0DOS-11 | 2026-09-05 17:43:12 | 51.68997 | 15.64380 | 108° | 66km/h | 16162m | -4.6m/s | -50.9°C | 3.6% | 105.1hPa | 2.7V | 08:30:00 | 01:27:35 | 00:00:00 | |
| AA1-15 | 2026-09-05 17:43:08 | 51.69012 | 15.64303 | 106° | 66km/h | 16176m | -4.7m/s | -51°C | 0.3% | 104.9hPa | 2.6V | 18:12:15 | 01:27:32 | 00:00:00 | |
| DAC517 | 2026-09-05 17:43:07 | 51.69012 | 15.64303 | 107° | 66km/h | 16176m | -4.7m/s | -51.0°C | 1.1% | 104.9hPa | 2.7V | 00:00:00 | 00:00:00 | 00:00:00 | |
| DB0NH | 2026-09-05 17:43:05 | 51.69025 | 15.64223 | 105° | 69km/h | 16190m | -4.5m/s | -50.9°C | 3.5% | 104.7hPa | 2.7V | 00:00:00 | 01:27:29 | 00:00:00 | |
| SONDE2-11 | 2026-09-05 17:43:04 | 51.69029 | 15.64197 | 105° | 68km/h | 16195m | -4.5m/s | -51.0°C | 1.1% | 104.6hPa | 2.7V | 00:00:00 | 00:00:00 | 00:00:00 | |
| DM0DOS-11 | 2026-09-05 17:43:02 | 51.69044 | 15.64118 | 107° | 68km/h | 16208m | -4.7m/s | -51.1°C | 3.6% | 104.4hPa | 2.7V | 08:30:00 | 01:27:25 | 00:00:00 | |
| BIOWL1-15 | 2026-09-05 17:42:59 | 51.69054 | 15.64068 | 107° | 64km/h | 16217m | -4.7m/s | 0°C | 0% | 0hPa | 2.6V | 18:12:15 | 01:27:23 | 00:00:00 | |
| AA1-15 | 2026-09-05 17:42:57 | 51.69064 | 15.64018 | 107° | 64km/h | 16227m | -4.7m/s | -51.2°C | 0.3% | 104.1hPa | 2.6V | 18:12:15 | 01:27:21 | 00:00:00 | |
| EDDB2-12 | 2026-09-05 17:42:56 | 51.69069 | 15.63993 | 105° | 64km/h | 16232m | -4.5m/s | -51.3°C | 1.1% | 104.1hPa | 2.7V | 00:00:00 | 00:00:00 | 00:00:00 | |
| DM0DOS-11 | 2026-09-05 17:42:52 | 51.69088 | 15.63862 | 100° | 69km/h | 16254m | -4.7m/s | -51.5°C | 3.7% | 103.7hPa | 2.7V | 08:30:00 | 01:27:15 | 00:00:00 | |
| BIOWL1-15 | 2026-09-05 17:42:48 | 51.69098 | 15.63777 | 102° | 73km/h | 16268m | -4.5m/s | 0°C | 0% | 0hPa | 2.6V | 18:12:15 | 01:27:12 | 00:00:00 | |
| AA1-15 | 2026-09-05 17:42:47 | 51.69102 | 15.63749 | 103° | 73km/h | 16272m | -4.3m/s | -51.6°C | 0.4% | 103.4hPa | 2.6V | 18:12:15 | 01:27:11 | 00:00:00 | |
| OE3OSB-13 | 2026-09-05 17:42:46 | 51.69111 | 15.63692 | 104° | 71km/h | 16281m | -4.8m/s | -51.7°C | 1.2% | 103.2hPa | 2.6V | 00:00:00 | 00:00:00 | 00:00:00 | |
| AA1-15 | 2026-09-05 17:42:37 | 51.69149 | 15.63472 | 103° | 71km/h | 16318m | -4.5m/s | -51.6°C | 0.4% | 102.6hPa | 2.6V | 18:12:15 | 01:27:01 | 00:00:00 | |
| BIOWL1-15 | 2026-09-05 17:42:35 | 51.69158 | 15.63414 | 103° | 73km/h | 16327m | -4.4m/s | 0°C | 0% | 0hPa | 2.7V | 18:12:15 | 01:26:59 | 00:00:00 | |
| DB0NH | 2026-09-05 17:42:34 | 51.69162 | 15.63384 | 104° | 73km/h | 16331m | -4.3m/s | -51.4°C | 3.6% | 102.4hPa | 2.6V | 00:00:00 | 01:26:58 | 00:00:00 | |
| DM0DOS-11 | 2026-09-05 17:42:32 | 51.69178 | 15.63296 | 107° | 75km/h | 16344m | -4.7m/s | -51.6°C | 3.7% | 102.2hPa | 2.7V | 08:30:00 | 01:26:55 | 00:00:00 | |
| AA1-15 | 2026-09-05 17:42:26 | 51.69210 | 15.63161 | 111° | 69km/h | 16367m | -4.5m/s | -51.3°C | 0.4% | 101.9hPa | 2.7V | 18:12:15 | 01:26:50 | 00:00:00 | |
| EDDB2-12 | 2026-09-05 17:42:25 | 51.69216 | 15.63135 | 110° | 69km/h | 16371m | -4.6m/s | -51.3°C | 1.1% | 101.8hPa | 2.7V | 00:00:00 | 00:00:00 | 00:00:00 | |
| DM0DOS-11 | 2026-09-05 17:42:22 | 51.69237 | 15.63021 | 104° | 77km/h | 16389m | -4.6m/s | -51.4°C | 3.7% | 101.5hPa | 2.7V | 08:30:00 | 01:26:45 | 00:00:00 | |
| AA1-15 | 2026-09-05 17:42:15 | 51.69271 | 15.62841 | 113° | 73km/h | 16417m | -4.8m/s | -51.6°C | 0.4% | 101.1hPa | 2.7V | 18:12:15 | 01:26:39 | 00:00:00 | |
| OE3OSB-13 | 2026-09-05 17:42:14 | 51.69279 | 15.62815 | 115° | 68km/h | 16421m | -4.5m/s | -51.6°C | 1.1% | 101.0hPa | 2.7V | 00:00:00 | 00:00:00 | 00:00:00 | |
| DM0DOS-11 | 2026-09-05 17:42:12 | 51.69300 | 15.62744 | 116° | 62km/h | 16435m | -4.7m/s | -51.6°C | 3.7% | 100.8hPa | 2.7V | 08:30:00 | 01:26:35 | 00:00:00 | |
| AA1-15 | 2026-09-05 17:42:05 | 51.69340 | 15.62592 | 110° | 77km/h | 16465m | -4.8m/s | -51.7°C | 0.4% | 100.3hPa | 2.7V | 18:12:15 | 01:26:29 | 00:00:00 | |
| DM0DOS-11 | 2026-09-05 17:42:02 | 51.69368 | 15.62478 | 113° | 71km/h | 16484m | -5.4m/s | -51.6°C | 3.7% | 100.1hPa | 2.7V | 08:30:00 | 01:26:25 | 00:00:00 | |
| AA1-15 | 2026-09-05 17:41:54 | 51.69423 | 15.62321 | 122° | 58km/h | 16517m | -5m/s | -51.6°C | 0.4% | 99.5hPa | 2.6V | 18:12:15 | 01:26:18 | 00:00:00 | |
| DM0DOS-11 | 2026-09-05 17:41:52 | 51.69445 | 15.62259 | 118° | 60km/h | 16531m | -5m/s | -51.7°C | 3.7% | 99.3hPa | 2.7V | 08:30:00 | 01:26:15 | 00:00:00 | |
| SP3WXH-11 | 2026-09-05 17:41:46 | 51.69479 | 15.62144 | 114° | 62km/h | 16556m | -5.0m/s | -51.9°C | 1.1% | 99.0hPa | 2.6V | 00:00:00 | 00:00:00 | 00:00:00 | |
| AA1-15 | 2026-09-05 17:41:43 | 51.69498 | 15.62073 | 113° | 64km/h | 16571m | -4.9m/s | -51.7°C | 0.5% | 98.7hPa | 2.6V | 18:12:15 | 01:26:07 | 00:00:00 | |
| DM0DOS-11 | 2026-09-05 17:41:42 | 51.69510 | 15.62025 | 112° | 64km/h | 16581m | -4.5m/s | -51.6°C | 3.7% | 98.6hPa | 2.7V | 08:30:00 | 01:26:05 | 00:00:00 | |
| AA1-15 | 2026-09-05 17:41:33 | 51.69560 | 15.61829 | 113° | 66km/h | 16618m | -4.6m/s | -51.3°C | 0.3% | 98hPa | 2.6V | 18:12:15 | 01:25:57 | 00:00:00 | |
| DM0DOS-11 | 2026-09-05 17:41:32 | 51.69573 | 15.61780 | 111° | 66km/h | 16627m | -4.5m/s | -51.3°C | 3.6% | 97.9hPa | 2.7V | 08:30:00 | 01:25:55 | 00:00:00 | |
| AA1-15 | 2026-09-05 17:41:23 | 51.69621 | 15.61578 | 110° | 69km/h | 16664m | -4.5m/s | -51.6°C | 0.3% | 97.3hPa | 2.6V | 18:12:15 | 01:25:47 | 00:00:00 | |
| DM0DOS-11 | 2026-09-05 17:41:22 | 51.69633 | 15.61525 | 111° | 69km/h | 16673m | -4.3m/s | -51.6°C | 3.7% | 97.2hPa | 2.7V | 08:30:00 | 01:25:45 | 00:00:00 | |
| SP3WXH-11 | 2026-09-05 17:41:15 | 51.69669 | 15.61369 | 108° | 66km/h | 16699m | -4.6m/s | -51.9°C | 1.1% | 96.8hPa | 2.7V | 00:00:00 | 00:00:00 | 00:00:00 | |
| DM0DOS-11 | 2026-09-05 17:41:12 | 51.69690 | 15.61261 | 105° | 71km/h | 16718m | -4.6m/s | -52°C | 3.7% | 96.5hPa | 2.7V | 08:30:00 | 01:25:35 | 00:00:00 | |
| AA1-15 | 2026-09-05 17:41:12 | 51.69685 | 15.61288 | 106° | 69km/h | 16713m | -4.5m/s | -52°C | 0.4% | 96.6hPa | 2.6V | 18:12:15 | 01:25:36 | 00:00:00 | |
| DAC517 | 2026-09-05 17:41:11 | 51.69684 | 15.61288 | 107° | 69km/h | 16713m | -4.5m/s | -52.0°C | 1.2% | 96.6hPa | 2.7V | 00:00:00 | 00:00:00 | 00:00:00 | |
| DB0NH | 2026-09-05 17:41:10 | 51.69694 | 15.61233 | 106° | 75km/h | 16723m | -4.6m/s | -52.0°C | 3.8% | 96.4hPa | 2.7V | 00:00:00 | 01:25:34 | 00:00:00 | |
| DO3MHA-11 | 2026-09-05 17:41:05 | 51.69717 | 15.61090 | 105° | 75km/h | 16746m | -4.6m/s | -52.2°C | 3.8% | 96.1hPa | 2.7V | 00:00:00 | 01:25:29 | 00:00:00 | |
| 13BRC | 2026-09-05 17:41:04 | 51.69717 | 15.61090 | 106° | 75km/h | 16746m | -4.6m/s | -52.2°C | 1.1% | 96.1hPa | 2.7V | 00:00:00 | 00:00:00 | 00:00:00 | |
| DM0DOS-11 | 2026-09-05 17:41:02 | 51.69736 | 15.60972 | 103° | 75km/h | 16764m | -4.7m/s | -52.3°C | 3.9% | 95.8hPa | 2.7V | 08:30:00 | 01:25:25 | 00:00:00 | |
| AA1-15 | 2026-09-05 17:41:01 | 51.69736 | 15.60972 | 104° | 75km/h | 16765m | -4.7m/s | -52.4°C | 0.5% | 95.8hPa | 2.7V | 18:12:15 | 01:25:25 | 00:00:00 | |
| SONDE2-11 | 2026-09-05 17:41:00 | 51.69741 | 15.60943 | 104° | 75km/h | 16769m | -4.8m/s | -52.4°C | 1.2% | 95.8hPa | 2.7V | 00:00:00 | 00:00:00 | 00:00:00 | |
| EDDB2-11 | 2026-09-05 17:40:59 | 51.69745 | 15.60913 | 103° | 73km/h | 16774m | -4.6m/s | -52.4°C | 1.2% | 95.7hPa | 2.7V | 00:00:00 | 00:00:00 | 00:00:00 | |
| SONCRA | 2026-09-05 17:40:53 | 51.69775 | 15.60741 | 106° | 71km/h | 16802m | -4.7m/s | -52.1°C | 1.2% | 95.3hPa | 2.7V | 00:00:00 | 00:00:00 | 00:00:00 | |
| DM0DOS-11 | 2026-09-05 17:40:52 | 51.69786 | 15.60684 | 108° | 73km/h | 16811m | -4.5m/s | -52.1°C | 3.8% | 95.1hPa | 2.7V | 08:30:00 | 01:25:15 | 00:00:00 | |
| AA1-15 | 2026-09-05 17:40:51 | 51.69786 | 15.60684 | 108° | 73km/h | 16811m | -4.5m/s | -52.1°C | 0.4% | 95.1hPa | 2.7V | 18:12:15 | 01:25:15 | 00:00:00 | |
| DAC517 | 2026-09-05 17:40:47 | 51.69804 | 15.60597 | 109° | 77km/h | 16825m | -4.7m/s | -52.2°C | 1.2% | 94.9hPa | 2.7V | 00:00:00 | 00:00:00 | 00:00:00 | |
| SP3BTT-10 | 2026-09-05 17:40:45 | 51.69823 | 15.60506 | 109° | 73km/h | 16839m | -4.4m/s | -52.3°C | 3.9% | 94.7hPa | 2.7V | 00:00:00 | 00:00:00 | 00:00:00 | |
| OK1SLM-15 | 2026-09-05 17:40:43 | 51.69830 | 15.60475 | 111° | 82km/h | 16843m | -4.7m/s | 0°C | 0% | 0hPa | 2.7V | 00:00:00 | 00:00:00 | 00:00:00 | |
| DM0DOS-11 | 2026-09-05 17:40:42 | 51.69851 | 15.60383 | 110° | 78km/h | 16857m | -4.5m/s | -52.4°C | 4% | 94.5hPa | 2.7V | 08:30:00 | 01:25:05 | 00:00:00 | |
| AA1-15 | 2026-09-05 17:40:41 | 51.69851 | 15.60383 | 111° | 78km/h | 16857m | -4.5m/s | -52.4°C | 0.5% | 94.5hPa | 2.7V | 18:12:15 | 01:25:05 | 00:00:00 | |
| DB0NH | 2026-09-05 17:40:40 | 51.69858 | 15.60353 | 112° | 75km/h | 16862m | -4.7m/s | -52.3°C | 4.0% | 94.3hPa | 2.7V | 00:00:00 | 01:25:04 | 00:00:00 | |
| S3001 | 2026-09-05 17:40:39 | 51.69873 | 15.60295 | 112° | 75km/h | 16871m | -4.7m/s | -52.4°C | 1.2% | 94.2hPa | 2.7V | 00:00:00 | 00:00:00 | 00:00:00 | |
| DM0DOS-11 | 2026-09-05 17:40:32 | 51.69921 | 15.60098 | 111° | 73km/h | 16904m | -4.7m/s | -52.2°C | 3.9% | 93.8hPa | 2.7V | 08:30:00 | 01:24:55 | 00:00:00 | |
| AA1-15 | 2026-09-05 17:40:30 | 51.69928 | 15.60071 | 113° | 73km/h | 16908m | -4.7m/s | -52.1°C | 0.5% | 93.8hPa | 2.7V | 18:12:15 | 01:24:54 | 00:00:00 | |
| SONDE2-11 | 2026-09-05 17:40:29 | 51.69935 | 15.60043 | 113° | 71km/h | 16913m | -4.7m/s | -52.1°C | 1.2% | 93.7hPa | 2.7V | 00:00:00 | 00:00:00 | 00:00:00 | |
| EDDB2-11 | 2026-09-05 17:40:28 | 51.69942 | 15.60017 | 113° | 71km/h | 16918m | -4.7m/s | -52.0°C | 1.2% | 93.6hPa | 2.7V | 00:00:00 | 00:00:00 | 00:00:00 | |
| DM0DOS-11 | 2026-09-05 17:40:22 | 51.69991 | 15.59835 | 113° | 68km/h | 16950m | -4.6m/s | -51.9°C | 3.7% | 93.1hPa | 2.7V | 08:30:00 | 01:24:45 | 00:00:00 | |
| AA1-15 | 2026-09-05 17:40:20 | 51.69997 | 15.59809 | 112° | 68km/h | 16955m | -4.5m/s | -51.9°C | 0.4% | 93hPa | 2.7V | 18:12:15 | 01:24:44 | 00:00:00 | |
| DL2RXE-15 | 2026-09-05 17:40:19 | 51.69997 | 15.59809 | 113° | 68km/h | 16955m | -4.5m/s | -51.9°C | 1.2% | 93.0hPa | 2.7V | 00:00:00 | 00:00:00 | 00:00:00 | |
| SP3BTT-10 | 2026-09-05 17:40:15 | 51.70030 | 15.59685 | 114° | 49km/h | 16978m | -4.8m/s | -52.0°C | 3.7% | 92.7hPa | 2.7V | 00:00:00 | 00:00:00 | 00:00:00 | |
| DM0DOS-11 | 2026-09-05 17:40:12 | 51.70054 | 15.59593 | 112° | 60km/h | 16997m | -4.9m/s | -52.1°C | 3.8% | 92.4hPa | 2.7V | 08:30:00 | 01:24:35 | 00:00:00 | |
| AA1-15 | 2026-09-05 17:40:10 | 51.70060 | 15.59570 | 113° | 60km/h | 17002m | -5m/s | -52.2°C | 0.4% | 92.4hPa | 2.7V | 18:12:15 | 01:24:34 | 00:00:00 | |
| S3001 | 2026-09-05 17:40:08 | 51.70077 | 15.59503 | 111° | 57km/h | 17017m | -4.9m/s | -52.2°C | 1.2% | 92.1hPa | 2.7V | 00:00:00 | 00:00:00 | 00:00:00 | |
| DM0DOS-11 | 2026-09-05 17:40:02 | 51.70105 | 15.59374 | 108° | 53km/h | 17045m | -4.7m/s | -52.4°C | 3.8% | 91.7hPa | 2.7V | 08:30:00 | 01:24:25 | 00:00:00 | |
| AA1-15 | 2026-09-05 17:39:59 | 51.70113 | 15.59332 | 109° | 53km/h | 17054m | -4.9m/s | -52.4°C | 0.4% | 91.6hPa | 2.6V | 18:12:15 | 01:24:23 | 00:00:00 | |
| SONDE2-11 | 2026-09-05 17:39:58 | 51.70118 | 15.59312 | 110° | 51km/h | 17059m | -4.8m/s | -52.4°C | 1.2% | 91.5hPa | 2.7V | 00:00:00 | 00:00:00 | 00:00:00 | |
| EDDB2-11 | 2026-09-05 17:39:57 | 51.70122 | 15.59292 | 109° | 51km/h | 17064m | -4.7m/s | -52.5°C | 1.2% | 91.5hPa | 2.7V | 00:00:00 | 00:00:00 | 00:00:00 | |
| DM0DOS-11 | 2026-09-05 17:39:52 | 51.70151 | 15.59171 | 108° | 53km/h | 17092m | -4.8m/s | -52.6°C | 3.8% | 91.1hPa | 2.7V | 08:30:00 | 01:24:15 | 00:00:00 | |
| AA1-15 | 2026-09-05 17:39:48 | 51.70163 | 15.59111 | 106° | 49km/h | 17106m | -4.8m/s | -52.7°C | 0.5% | 90.8hPa | 2.6V | 18:12:15 | 01:24:12 | 00:00:00 | |
| DL2RXE-15 | 2026-09-05 17:39:46 | 51.70166 | 15.59092 | 107° | 49km/h | 17111m | -5.1m/s | -52.7°C | 1.2% | 90.8hPa | 2.7V | 00:00:00 | 00:00:00 | 00:00:00 | |
| DM0DOS-11 | 2026-09-05 17:39:42 | 51.70183 | 15.58977 | 104° | 51km/h | 17140m | -5.2m/s | -53°C | 4% | 90.3hPa | 2.7V | 08:30:00 | 01:24:05 | 00:00:00 | |
| AA1-15 | 2026-09-05 17:39:38 | 51.70192 | 15.58919 | 105° | 49km/h | 17155m | -4.9m/s | -53.1°C | 0.5% | 90.2hPa | 2.6V | 18:12:15 | 01:24:02 | 00:00:00 | |
| AA1-15 | 2026-09-05 17:39:27 | 51.70211 | 15.58718 | 100° | 47km/h | 17211m | -5.3m/s | -53.5°C | 0.7% | 89.4hPa | 2.6V | 18:12:15 | 01:23:51 | 00:00:00 | |
| AA1-15 | 2026-09-05 17:39:16 | 51.70231 | 15.58514 | 96° | 47km/h | 17270m | -5.6m/s | -53.1°C | 0.6% | 88.6hPa | 2.7V | 18:12:15 | 01:23:40 | 00:00:00 | |
| AA1-15 | 2026-09-05 17:39:06 | 51.70275 | 15.58279 | 111° | 66km/h | 17328m | -6.2m/s | -53.1°C | 0.6% | 87.7hPa | 2.7V | 18:12:15 | 01:23:30 | 00:00:00 | |
| S3001 | 2026-09-05 17:39:06 | 51.70281 | 15.58254 | 110° | 64km/h | 17334m | -5.1m/s | -53.1°C | 1.2% | 87.7hPa | 2.7V | 00:00:00 | 00:00:00 | 00:00:00 | |
| DL2RXE-15 | 2026-09-05 17:39:04 | 51.70280 | 15.58254 | 111° | 64km/h | 17334m | -5.1m/s | -53.1°C | 1.2% | 87.7hPa | 2.7V | 00:00:00 | 00:00:00 | 00:00:00 | |
| DM0DOS-11 | 2026-09-05 17:39:02 | 51.70296 | 15.58168 | 105° | 49km/h | 17355m | -5.3m/s | -53.1°C | 4.1% | 87.4hPa | 2.7V | 08:30:00 | 01:23:25 | 00:00:00 | |
| DO3MHA-11 | 2026-09-05 17:39:01 | 51.70297 | 15.58168 | 106° | 58km/h | 17355m | -5.3m/s | -53.0°C | 4.1% | 87.4hPa | 2.7V | 00:00:00 | 01:23:25 | 00:00:00 | |
| 13BRC | 2026-09-05 17:39:00 | 51.70296 | 15.58168 | 106° | 49km/h | 17355m | -5.3m/s | -53.1°C | 1.2% | 87.4hPa | 2.7V | 00:00:00 | 00:00:00 | 00:00:00 | |
| DAC517 | 2026-09-05 17:38:59 | 51.70300 | 15.58149 | 108° | 49km/h | 17360m | -5.5m/s | -53.0°C | 1.2% | 87.3hPa | 2.7V | 00:00:00 | 00:00:00 | 00:00:00 | |
| OK1SLM-15 | 2026-09-05 17:38:57 | 51.70309 | 15.58109 | 113° | 53km/h | 17373m | -6.8m/s | 0°C | 0% | 0hPa | 2.7V | 00:00:00 | 00:00:00 | 00:00:00 | |
| DM0DOS-11 | 2026-09-05 17:38:56 | 51.70353 | 15.57947 | 106° | 64km/h | 17413m | -5.4m/s | -52.3°C | 3.8% | 86.6hPa | 2.7V | 08:30:00 | 01:23:15 | 00:00:00 | |
| AA1-15 | 2026-09-05 17:38:56 | 51.70320 | 15.58068 | 116° | 58km/h | 17385m | -6.4m/s | -53°C | 0.6% | 87hPa | 2.7V | 18:12:15 | 01:23:20 | 00:00:00 | |
| SONDE2-11 | 2026-09-05 17:38:56 | 51.70320 | 15.58068 | 116° | 58km/h | 17385m | -6.4m/s | -53.0°C | 1.2% | 87.0hPa | 2.7V | 00:00:00 | 00:00:00 | 00:00:00 | |
| EDDB2-11 | 2026-09-05 17:38:55 | 51.70327 | 15.58046 | 116° | 62km/h | 17391m | -5.7m/s | -52.9°C | 1.2% | 86.9hPa | 2.7V | 00:00:00 | 00:00:00 | 00:00:00 | |
| SONCRA | 2026-09-05 17:38:49 | 51.70360 | 15.57900 | 99° | 55km/h | 17423m | -5.7m/s | 0°C | -1.0% | 86.5hPa | 2.7V | 00:00:00 | 00:00:00 | 00:00:00 | |
| OK1SLM-15 | 2026-09-05 17:38:48 | 51.70362 | 15.57878 | 100° | 51km/h | 17429m | -5.2m/s | 0°C | 0% | 0hPa | 2.7V | 00:00:00 | 00:00:00 | 00:00:00 | |
| DM0DOS-11 | 2026-09-05 17:38:46 | 51.70371 | 15.57748 | 102° | 55km/h | 17466m | -4.7m/s | -52.3°C | 3.8% | 85.9hPa | 2.7V | 08:30:00 | 01:23:05 | 00:00:00 | |
| AA1-15 | 2026-09-05 17:38:45 | 51.70365 | 15.57822 | 92° | 44km/h | 17445m | -5.8m/s | -52.1°C | 0.4% | 86.2hPa | 2.6V | 18:12:15 | 01:23:09 | 00:00:00 | |
| SP3BTT-10 | 2026-09-05 17:38:45 | 51.70365 | 15.57822 | 92° | 57km/h | 17445m | -5.8m/s | -52.0°C | 3.7% | 86.1hPa | 2.6V | 00:00:00 | 00:00:00 | 00:00:00 | |
| DB0DAN | 2026-09-05 17:38:40 | 51.70374 | 15.57725 | 104° | 57km/h | 17471m | -4.7m/s | -52.3°C | 1.1% | 85.84hPa | 2.6V | 00:00:00 | 00:00:00 | 00:00:00 | |
| SP3WXH-11 | 2026-09-05 17:38:40 | 51.70378 | 15.57701 | 104° | 64km/h | 17475m | -4.5m/s | -52.4°C | 1.1% | 85.8hPa | 2.7V | 00:00:00 | 00:00:00 | 00:00:00 | |
| OE3OSB-13 | 2026-09-05 17:38:37 | 51.70391 | 15.57621 | 104° | 68km/h | 17491m | -5.6m/s | -52.5°C | 1.2% | 85.6hPa | 2.7V | 00:00:00 | 00:00:00 | 00:00:00 | |
| DM0DOS-11 | 2026-09-05 17:38:36 | 51.70410 | 15.57502 | 101° | 51km/h | 17518m | -5.1m/s | -52.7°C | 3.9% | 85.2hPa | 2.7V | 08:30:00 | 01:22:55 | 00:00:00 | |
| AA1-15 | 2026-09-05 17:38:34 | 51.70399 | 15.57569 | 106° | 64km/h | 17502m | -5.5m/s | -52.6°C | 0.5% | 85.5hPa | 2.6V | 18:12:15 | 01:22:58 | 00:00:00 | |
| DB0NH | 2026-09-05 17:38:32 | 51.70407 | 15.57523 | 105° | 57km/h | 17513m | -5.1m/s | -52.6°C | 3.8% | 85.3hPa | 2.6V | 00:00:00 | 01:22:56 | 00:00:00 | |
| DO3MHA-11 | 2026-09-05 17:38:31 | 51.70410 | 15.57502 | 102° | 55km/h | 17518m | -5.1m/s | -52.7°C | 3.9% | 85.2hPa | 2.6V | 00:00:00 | 01:22:55 | 00:00:00 | |
| DM0DOS-11 | 2026-09-05 17:38:26 | 51.70428 | 15.57281 | 103° | 62km/h | 17571m | -4.6m/s | -53.2°C | 4% | 84.5hPa | 2.6V | 08:30:00 | 01:22:45 | 00:00:00 | |
| AA1-15 | 2026-09-05 17:38:24 | 51.70419 | 15.57353 | 97° | 58km/h | 17557m | -5m/s | -53.1°C | 0.5% | 84.8hPa | 2.6V | 18:12:15 | 01:22:48 | 00:00:00 | |
| DL2RXE-15 | 2026-09-05 17:38:22 | 51.70421 | 15.57329 | 102° | 60km/h | 17562m | -5.0m/s | -53.1°C | 1.2% | 84.7hPa | 2.6V | 00:00:00 | 00:00:00 | 00:00:00 | |
| DO3MHA-11 | 2026-09-05 17:38:21 | 51.70428 | 15.57281 | 104° | 55km/h | 17571m | -4.5m/s | -53.2°C | 4.0% | 84.5hPa | 2.6V | 00:00:00 | 01:22:45 | 00:00:00 | |
| 13BRC | 2026-09-05 17:38:19 | 51.70432 | 15.57256 | 105° | 62km/h | 17577m | -6.2m/s | -53.3°C | 1.2% | 84.5hPa | 2.6V | 00:00:00 | 00:00:00 | 00:00:00 | |
| EDDB2-12 | 2026-09-05 17:38:17 | 51.70446 | 15.57165 | 103° | 51km/h | 17597m | -4.5m/s | -53.4°C | 1.3% | 84.2hPa | 2.6V | 00:00:00 | 00:00:00 | 00:00:00 | |
| DM0DOS-11 | 2026-09-05 17:38:16 | 51.70459 | 15.57064 | 103° | 53km/h | 17621m | -5.4m/s | -53.4°C | 4.4% | 83.9hPa | 2.6V | 08:30:00 | 01:22:35 | 00:00:00 | |
| AA1-15 | 2026-09-05 17:38:14 | 51.70451 | 15.57124 | 100° | 49km/h | 17606m | -5.4m/s | -53.4°C | 0.8% | 84.1hPa | 2.6V | 18:12:15 | 01:22:38 | 00:00:00 | |
| AA1-15 | 2026-09-05 17:38:03 | 51.70496 | 15.56882 | 115° | 62km/h | 17689m | -10.6m/s | -51.9°C | 0.4% | 83.1hPa | 2.7V | 18:12:15 | 01:22:27 | 00:00:00 | |
| DB0NH | 2026-09-05 17:38:02 | 51.70503 | 15.56859 | 116° | 58km/h | 17698m | -6.8m/s | -51.8°C | 3.7% | 82.9hPa | 2.6V | 00:00:00 | 01:22:26 | 00:00:00 | |
| DM0DOS-11 | 2026-09-05 17:38:01 | 51.70524 | 15.56792 | 117° | 60km/h | 17695m | 4.5m/s | -52°C | 3.7% | 82.9hPa | 2.6V | 08:30:00 | 01:22:23 | 00:00:00 | |
| AA1-15 | 2026-09-05 17:37:53 | 51.70561 | 15.56660 | 109° | 57km/h | 17666m | 5.3m/s | -52°C | 0.3% | 83.3hPa | 2.7V | 18:12:15 | 01:22:17 | 00:00:00 | |
| DM0DOS-11 | 2026-09-05 17:37:51 | 51.70581 | 15.56572 | 111° | 58km/h | 17647m | 5.5m/s | -52.4°C | 3.6% | 83.5hPa | 2.7V | 08:30:00 | 01:22:13 | 00:00:00 | |
| BIOWL1-15 | 2026-09-05 17:37:51 | 51.70570 | 15.56616 | 110° | 57km/h | 17657m | 6m/s | -52.1°C | 0.3% | 83.4hPa | 2.6V | 18:12:15 | 01:22:15 | 00:00:00 | |
| EDDB2-12 | 2026-09-05 17:37:46 | 51.70602 | 15.56484 | 110° | 55km/h | 17628m | 3.5m/s | -53.5°C | 1.2% | 83.8hPa | 2.7V | 00:00:00 | 00:00:00 | 00:00:00 | |
| AA1-15 | 2026-09-05 17:37:43 | 51.70611 | 15.56440 | 104° | 60km/h | 17618m | 4.7m/s | -53.5°C | 0.6% | 83.9hPa | 2.7V | 18:12:15 | 01:22:07 | 00:00:00 | |
| DM0DOS-11 | 2026-09-05 17:37:41 | 51.70624 | 15.56322 | 96° | 58km/h | 17595m | 3.7m/s | -53.3°C | 4.2% | 84.2hPa | 2.7V | 08:30:00 | 01:22:02 | 00:00:00 | |
| DB0DAN | 2026-09-05 17:37:40 | 51.70620 | 15.56369 | 100° | 55km/h | 17604m | 4m/s | -53.4°C | 1.2% | 84.1hPa | 2.6V | 00:00:00 | 00:00:00 | 00:00:00 | |
| BIOWL1-15 | 2026-09-05 17:37:40 | 51.70622 | 15.56346 | 97° | 58km/h | 17599m | 5.6m/s | -53.4°C | 0.6% | 84.1hPa | 2.7V | 18:12:15 | 01:22:03 | 00:00:00 | |
| AA1-15 | 2026-09-05 17:37:32 | 51.70636 | 15.56188 | 100° | 53km/h | 17564m | 4.1m/s | -53°C | 0.7% | 84.6hPa | 2.6V | 18:12:15 | 01:21:56 | 00:00:00 | |
| DF8AY | 2026-09-05 17:37:28 | 51.70644 | 15.56100 | 99° | 55km/h | 17545m | 5.8m/s | 0°C | 0% | 0hPa | 2.6V | 18:12:15 | 01:21:52 | 00:00:00 | |
| AA1-15 | 2026-09-05 17:37:21 | 51.70661 | 15.55949 | 100° | 51km/h | 17509m | 5.3m/s | -52.6°C | 0.5% | 85.4hPa | 2.6V | 18:12:15 | 01:21:45 | 00:00:00 | |
| DF8AY | 2026-09-05 17:37:13 | 51.70700 | 15.55673 | 105° | 49km/h | 17445m | 5.8m/s | 0°C | 0% | 0hPa | 2.6V | 18:12:15 | 01:21:32 | 00:00:00 | |
| AA1-15 | 2026-09-05 17:37:11 | 51.70690 | 15.55735 | 102° | 55km/h | 17460m | 3.6m/s | 0°C | 0% | 86hPa | 2.6V | 18:12:15 | 01:21:35 | 00:00:00 | |
| DO3MHA-11 | 2026-09-05 17:37:11 | 51.70690 | 15.55735 | 103° | 53km/h | 17460m | 3.5m/s | -52.1°C | 3.7% | 86.0hPa | 2.6V | 00:00:00 | 01:21:35 | 00:00:00 | |
| SP3WXH-11 | 2026-09-05 17:37:07 | 51.70706 | 15.55634 | 104° | 49km/h | 17433m | 6.0m/s | -52.2°C | 1.1% | 86.4hPa | 2.6V | 00:00:00 | 00:00:00 | 00:00:00 | |
| DM0DOS-11 | 2026-09-05 17:37:06 | 51.70725 | 15.55526 | 105° | 60km/h | 17407m | 5.7m/s | -52.6°C | 3.8% | 86.8hPa | 2.6V | 08:30:00 | 01:21:25 | 00:00:00 | |
| AA1-15 | 2026-09-05 17:37:00 | 51.70729 | 15.55503 | 108° | 62km/h | 17401m | 5.2m/s | 0°C | 0% | 86.8hPa | 2.7V | 18:12:15 | 01:21:24 | 00:00:00 | |
| OE3JTB-15 | 2026-09-05 17:36:58 | 51.70739 | 15.55456 | 109° | 55km/h | 17390m | 5.9m/s | -52.8°C | 3.9% | 86.9hPa | 2.7V | 00:00:00 | 00:00:00 | 00:00:00 | |
| 13BRC | 2026-09-05 17:36:57 | 51.70739 | 15.55456 | 110° | 60km/h | 17390m | 6.0m/s | -52.8°C | 1.2% | 87.0hPa | 2.6V | 00:00:00 | 00:00:00 | 00:00:00 | |
| DM0DOS-11 | 2026-09-05 17:36:56 | 51.70779 | 15.55303 | 116° | 58km/h | 17353m | 5.6m/s | -53.1°C | 4% | 87.5hPa | 2.6V | 08:30:00 | 01:21:15 | 00:00:00 | |
| DF8AY | 2026-09-05 17:36:53 | 51.70767 | 15.55346 | 115° | 57km/h | 17364m | 6.2m/s | 0°C | 0% | 0hPa | 2.7V | 18:12:15 | 01:21:17 | 00:00:00 | |
| AA1-15 | 2026-09-05 17:36:49 | 51.70793 | 15.55259 | 115° | 60km/h | 17343m | 6.6m/s | 0°C | 0% | 87.5hPa | 2.7V | 18:12:15 | 01:21:13 | 00:00:00 | |
| BIOWL1-15 | 2026-09-05 17:36:48 | 51.70799 | 15.55237 | 111° | 60km/h | 17338m | 5m/s | -53.2°C | 0.6% | 87.6hPa | 2.7V | 18:12:15 | 01:21:12 | 00:00:00 | |
| DM0DOS-11 | 2026-09-05 17:36:46 | 51.70831 | 15.55074 | 106° | 53km/h | 17301m | 5.2m/s | -53°C | 3.9% | 88.2hPa | 2.6V | 08:30:00 | 01:21:05 | 00:00:00 | |
| SP3BTT-10 | 2026-09-05 17:36:45 | 51.70814 | 15.55164 | 109° | 46km/h | 17324m | 4.4m/s | -53.1°C | 4.0% | 87.8hPa | 2.6V | 00:00:00 | 00:00:00 | 00:00:00 | |
| EDDB2-12 | 2026-09-05 17:36:44 | 51.70823 | 15.55117 | 104° | 57km/h | 17313m | 5.0m/s | -53.0°C | 1.2% | 88.0hPa | 2.6V | 00:00:00 | 00:00:00 | 00:00:00 | |
| DO3MHA-11 | 2026-09-05 17:36:41 | 51.70830 | 15.55073 | 107° | 49km/h | 17302m | 5.2m/s | -52.9°C | 3.9% | 88.1hPa | 2.6V | 00:00:00 | 01:21:05 | 08:30:00 | |
| DM0DOS-11 | 2026-09-05 17:36:36 | 51.70860 | 15.54883 | 99° | 51km/h | 17250m | 3.8m/s | -52.9°C | 3.9% | 88.8hPa | 2.6V | 08:30:00 | 01:20:55 | 00:00:00 | |
| AA1-15 | 2026-09-05 17:36:31 | 51.70860 | 15.54883 | 100° | 51km/h | 17250m | 3.8m/s | 0°C | 0% | 88.8hPa | 2.6V | 18:12:15 | 01:20:55 | 00:00:00 | |
| DO3MHA-11 | 2026-09-05 17:36:31 | 51.70860 | 15.54883 | 100° | 46km/h | 17251m | 3.8m/s | -52.9°C | 3.9% | 88.8hPa | 2.6V | 00:00:00 | 01:20:55 | 00:00:00 | |
| S3001 | 2026-09-05 17:36:30 | 51.70862 | 15.54863 | 96° | 49km/h | 17246m | 5.6m/s | -53.0°C | 1.2% | 88.9hPa | 2.6V | 00:00:00 | 00:00:00 | 00:00:00 | |
| OE3JTB-15 | 2026-09-05 17:36:29 | 51.70863 | 15.54842 | 95° | 47km/h | 17241m | 4.1m/s | -53.0°C | 4.0% | 88.9hPa | 2.6V | 00:00:00 | 00:00:00 | 00:00:00 | |
| DL2RXE-15 | 2026-09-05 17:36:27 | 51.70864 | 15.54822 | 96° | 49km/h | 17236m | 5.6m/s | -53.2°C | 1.2% | 89.1hPa | 2.6V | 00:00:00 | 00:00:00 | 00:00:00 | |
| DM0DOS-11 | 2026-09-05 17:36:26 | 51.70876 | 15.54701 | 100° | 40km/h | 17202m | 5.8m/s | -53.3°C | 4.1% | 89.5hPa | 2.6V | 08:30:00 | 01:20:45 | 00:00:00 | |
| BIOWL1-15 | 2026-09-05 17:36:21 | 51.70876 | 15.54701 | 101° | 40km/h | 17202m | 5.8m/s | -53.3°C | 0.6% | 89.5hPa | 2.6V | 18:12:15 | 01:20:45 | 00:00:00 | |
| SONDE2-11 | 2026-09-05 17:36:21 | 51.70878 | 15.54684 | 99° | 40km/h | 17197m | 4.7m/s | -53.2°C | 1.3% | 89.6hPa | 2.6V | 00:00:00 | 00:00:00 | 00:00:00 | |
| EDDB2-11 | 2026-09-05 17:36:20 | 51.70879 | 15.54667 | 99° | 42km/h | 17192m | 4.8m/s | -53.2°C | 1.2% | 89.7hPa | 2.6V | 00:00:00 | 00:00:00 | 00:00:00 | |
| DM0DOS-11 | 2026-09-05 17:36:16 | 51.70900 | 15.54523 | 105° | 49km/h | 17153m | 5m/s | -52.9°C | 4.1% | 90.2hPa | 2.6V | 08:30:00 | 01:20:35 | 00:00:00 | |
| 13BRC | 2026-09-05 17:36:16 | 51.70886 | 15.54614 | 101° | 46km/h | 17178m | 5.4m/s | -53.1°C | 1.3% | 89.9hPa | 2.7V | 00:00:00 | 00:00:00 | 00:00:00 | |
| DAC517 | 2026-09-05 17:36:12 | 51.70893 | 15.54560 | 108° | 47km/h | 17163m | 3.7m/s | -53.0°C | 1.3% | 90.1hPa | 2.7V | 00:00:00 | 00:00:00 | 00:00:00 | |
| DO3MHA-11 | 2026-09-05 17:36:11 | 51.70900 | 15.54523 | 106° | 46km/h | 17153m | 5.0m/s | 0°C | 0% | 0hPa | 2.7V | 00:00:00 | 01:20:35 | 00:00:00 | |
| DM0DOS-11 | 2026-09-05 17:36:06 | 51.70932 | 15.54345 | 105° | 51km/h | 17103m | 4.1m/s | -52.5°C | 4% | 90.9hPa | 2.7V | 08:30:00 | 01:20:25 | 00:00:00 | |
| AA1-15 | 2026-09-05 17:36:01 | 51.70932 | 15.54345 | 105° | 51km/h | 17103m | 4.1m/s | 0°C | 0% | 90.9hPa | 2.7V | 18:12:15 | 01:20:25 | 00:00:00 | |
| S3001 | 2026-09-05 17:35:59 | 51.70940 | 15.54304 | 112° | 55km/h | 17093m | 4.9m/s | -52.4°C | 1.2% | 91.1hPa | 2.6V | 00:00:00 | 00:00:00 | 00:00:00 | |
| OE3JTB-15 | 2026-09-05 17:35:58 | 51.70946 | 15.54284 | 115° | 71km/h | 17088m | 5.0m/s | -52.3°C | 4.0% | 91.1hPa | 2.6V | 00:00:00 | 01:20:22 | 00:00:00 | |
| DM0DOS-11 | 2026-09-05 17:35:56 | 51.70982 | 15.54143 | 107° | 51km/h | 17050m | 5.3m/s | -52.1°C | 3.9% | 91.6hPa | 2.6V | 08:30:00 | 01:20:15 | 00:00:00 | |
| SONDE2-11 | 2026-09-05 17:35:50 | 51.70990 | 15.54102 | 106° | 53km/h | 17040m | 4.1m/s | -52.0°C | 1.2% | 91.8hPa | 2.7V | 00:00:00 | 00:00:00 | 00:00:00 | |
| EDDB2-11 | 2026-09-05 17:35:49 | 51.70993 | 15.54082 | 106° | 49km/h | 17035m | 6.1m/s | -52.1°C | 1.2% | 91.9hPa | 2.7V | 00:00:00 | 00:00:00 | 00:00:00 | |
| DL2RXE-15 | 2026-09-05 17:35:47 | 51.70993 | 15.54082 | 107° | 49km/h | 17035m | 6.1m/s | -52.1°C | 1.2% | 91.9hPa | 2.7V | 00:00:00 | 00:00:00 | 00:00:00 | |
| DM0DOS-11 | 2026-09-05 17:35:46 | 51.71032 | 15.53942 | 117° | 60km/h | 16996m | 6.1m/s | -52°C | 3.8% | 92.4hPa | 2.7V | 08:30:00 | 01:20:05 | 00:00:00 | |
| BIOWL1-15 | 2026-09-05 17:35:41 | 51.71032 | 15.53942 | 118° | 60km/h | 16996m | 6.1m/s | -52°C | 0.4% | 92.4hPa | 2.7V | 18:12:15 | 01:20:05 | 00:00:00 | |
| DO3MHA-11 | 2026-09-05 17:35:41 | 51.71032 | 15.53942 | 118° | 62km/h | 16997m | 6.1m/s | 0°C | 0% | 0hPa | 2.6V | 00:00:00 | 01:20:05 | 00:00:00 | |
| DM0DOS-11 | 2026-09-05 17:35:36 | 51.71097 | 15.53711 | 114° | 64km/h | 16944m | 6m/s | -51.6°C | 3.9% | 93.2hPa | 2.6V | 08:30:00 | 01:19:55 | 00:00:00 | |
| BIOWL1-15 | 2026-09-05 17:35:30 | 51.71104 | 15.53687 | 118° | 68km/h | 16938m | 4.9m/s | -51.6°C | 0.5% | 93.3hPa | 2.6V | 18:12:15 | 01:19:54 | 00:00:00 | |
| S3001 | 2026-09-05 17:35:28 | 51.71120 | 15.53637 | 116° | 68km/h | 16928m | 6.1m/s | -51.6°C | 1.2% | 93.4hPa | 2.7V | 00:00:00 | 00:00:00 | 00:00:00 | |
| DM0DOS-11 | 2026-09-05 17:35:26 | 51.71174 | 15.53453 | 114° | 71km/h | 16891m | 6.1m/s | -51.6°C | 3.6% | 94hPa | 2.7V | 08:30:00 | 01:19:45 | 00:00:00 | |
| BIOWL1-15 | 2026-09-05 17:35:19 | 51.71190 | 15.53402 | 117° | 69km/h | 16881m | 4.9m/s | -51.6°C | 0.3% | 94.1hPa | 2.7V | 18:12:15 | 01:19:43 | 00:00:00 | |
| SONDE2-11 | 2026-09-05 17:35:19 | 51.71197 | 15.53377 | 115° | 66km/h | 16875m | 6.2m/s | -51.6°C | 1.1% | 94.2hPa | 2.6V | 00:00:00 | 00:00:00 | 00:00:00 | |
| EDDB2-11 | 2026-09-05 17:35:18 | 51.71205 | 15.53352 | 115° | 66km/h | 16870m | 4.2m/s | -51.6°C | 1.2% | 94.3hPa | 2.6V | 00:00:00 | 00:00:00 | 00:00:00 | |
| DM0DOS-11 | 2026-09-05 17:35:16 | 51.71251 | 15.53190 | 113° | 80km/h | 16841m | 6.2m/s | -51.9°C | 3.9% | 94.7hPa | 2.6V | 08:30:00 | 01:19:35 | 00:00:00 | |
| BIOWL1-15 | 2026-09-05 17:35:09 | 51.71267 | 15.53129 | 112° | 82km/h | 16830m | 5.9m/s | -51.9°C | 0.5% | 94.8hPa | 2.6V | 18:12:15 | 01:19:33 | 00:00:00 | |
| DM0DOS-11 | 2026-09-05 17:35:06 | 51.71331 | 15.52890 | 112° | 77km/h | 16791m | 4.4m/s | -51.7°C | 3.7% | 95.4hPa | 2.6V | 08:30:00 | 01:19:25 | 00:00:00 | |
| BIOWL1-15 | 2026-09-05 17:34:58 | 51.71352 | 15.52804 | 110° | 75km/h | 16776m | 4.7m/s | -51.6°C | 0.4% | 95.6hPa | 2.7V | 18:12:15 | 01:19:22 | 00:00:00 | |
| S3001 | 2026-09-05 17:34:57 | 51.71358 | 15.52775 | 111° | 75km/h | 16772m | 4.7m/s | -51.6°C | 1.1% | 95.7hPa | 2.7V | 00:00:00 | 00:00:00 | 00:00:00 | |
| DM0DOS-11 | 2026-09-05 17:34:56 | 51.71397 | 15.52605 | 110° | 73km/h | 16741m | 4.3m/s | -51.8°C | 3.9% | 96.1hPa | 2.7V | 08:30:00 | 01:19:15 | 00:00:00 | |
| AA1-15 | 2026-09-05 17:34:51 | 51.71397 | 15.52605 | 110° | 73km/h | 16741m | 4.3m/s | 0°C | 0% | 96.1hPa | 2.7V | 18:12:15 | 01:19:15 | 00:00:00 | |
| BIOWL1-15 | 2026-09-05 17:34:49 | 51.71421 | 15.52491 | 108° | 75km/h | 16721m | 4.6m/s | -51.8°C | 0.6% | 96.4hPa | 2.6V | 18:12:15 | 01:19:11 | 00:00:00 | |
| EDDB2-11 | 2026-09-05 17:34:47 | 51.71427 | 15.52462 | 106° | 75km/h | 16716m | 6.3m/s | -51.8°C | 1.2% | 96.5hPa | 2.7V | 00:00:00 | 00:00:00 | 00:00:00 | |
| BIOWL1-15 | 2026-09-05 17:34:37 | 51.71474 | 15.52189 | 108° | 71km/h | 16673m | 4.8m/s | -51.6°C | 0.4% | 97.1hPa | 2.7V | 18:12:15 | 01:19:01 | 00:00:00 | |
| OK1SLM-15 | 2026-09-05 17:34:34 | 51.71484 | 15.52136 | 111° | 68km/h | 16663m | 4.8m/s | 0°C | 0% | 0hPa | 2.7V | 00:00:00 | 00:00:00 | 00:00:00 | |
| DL2RXE-15 | 2026-09-05 17:34:32 | 51.71497 | 15.52085 | 114° | 68km/h | 16652m | 5.0m/s | -51.4°C | 1.2% | 97.5hPa | 2.7V | 00:00:00 | 00:00:00 | 00:00:00 | |
| DB0NH | 2026-09-05 17:34:31 | 51.71510 | 15.52035 | 113° | 68km/h | 16642m | 4.1m/s | -51.2°C | 3.8% | 97.6hPa | 2.7V | 00:00:00 | 01:18:55 | 08:30:00 | |
| DO3MHA-11 | 2026-09-05 17:34:30 | 51.71517 | 15.52009 | 114° | 69km/h | 16637m | 6.0m/s | 0°C | 0% | 0hPa | 2.6V | 00:00:00 | 01:18:54 | 00:00:00 | |
| DM0DOS-11 | 2026-09-05 17:34:26 | 51.71578 | 15.51773 | 113° | 68km/h | 16592m | 5.7m/s | -50.9°C | 3.7% | 98.4hPa | 2.6V | 08:30:00 | 01:18:45 | 00:00:00 | |
| AA1-15 | 2026-09-05 17:34:26 | 51.71545 | 15.51903 | 111° | 71km/h | 16616m | 4.5m/s | 0°C | 0% | 0hPa | 2.6V | 18:12:15 | 01:18:50 | 00:00:00 | |
| BIOWL1-15 | 2026-09-05 17:34:17 | 51.71625 | 15.51626 | 118° | 71km/h | 16562m | 4.2m/s | -50.6°C | 0.4% | 0hPa | 2.6V | 18:12:15 | 01:18:39 | 00:00:00 | |
| DM0DOS-11 | 2026-09-05 17:34:16 | 51.71655 | 15.51525 | 114° | 68km/h | 16544m | 5.1m/s | -50.5°C | 3.5% | 99.1hPa | 2.7V | 08:30:00 | 01:18:35 | 00:00:00 | |
| AA1-15 | 2026-09-05 17:34:16 | 51.71616 | 15.51651 | 119° | 69km/h | 16567m | 5.9m/s | 0°C | 0% | 0hPa | 2.7V | 18:12:15 | 01:18:40 | 00:00:00 | |
| EDDB2-11 | 2026-09-05 17:34:16 | 51.71625 | 15.51626 | 117° | 69km/h | 16562m | 4.2m/s | -50.6°C | 1.1% | 98.8hPa | 2.6V | 00:00:00 | 00:00:00 | 00:00:00 | |
| BIOWL7-15 | 2026-09-05 17:34:12 | 51.71640 | 15.51575 | 117° | 68km/h | 16553m | 5.0m/s | 0°C | 0% | 0hPa | 2.6V | 00:00:00 | 00:00:00 | 00:00:00 | |
| DO3MHA-11 | 2026-09-05 17:34:09 | 51.71670 | 15.51474 | 117° | 64km/h | 16534m | 4.5m/s | 0°C | 0% | 0hPa | 2.6V | 00:00:00 | 01:18:33 | 00:00:00 | |
| BIOWL9-15 | 2026-09-05 17:34:08 | 51.71685 | 15.51427 | 117° | 62km/h | 16524m | 3.8m/s | -50.4°C | 1.1% | 99.4hPa | 2.6V | 00:00:00 | 00:00:00 | 00:00:00 | |
| DM0DOS-11 | 2026-09-05 17:34:06 | 51.71729 | 15.51293 | 118° | 62km/h | 16494m | 6m/s | -50.4°C | 3.6% | 99.9hPa | 2.6V | 08:30:00 | 01:18:25 | 00:00:00 | |
| AA1-15 | 2026-09-05 17:34:05 | 51.71700 | 15.51382 | 117° | 64km/h | 16514m | 5.1m/s | 0°C | 0% | 0hPa | 2.6V | 18:12:15 | 01:18:29 | 00:00:00 | |
| BIOWL1-15 | 2026-09-05 17:34:04 | 51.71707 | 15.51359 | 116° | 62km/h | 16509m | 4.6m/s | -50.5°C | 0.3% | 0hPa | 2.7V | 18:12:15 | 01:18:28 | 00:00:00 | |
| SP3WXH-11 | 2026-09-05 17:34:00 | 51.71736 | 15.51270 | 117° | 62km/h | 16488m | 4.1m/s | -50.4°C | 1.1% | 99.9hPa | 2.6V | 00:00:00 | 00:00:00 | 00:00:00 | |
| SP3BTT-10 | 2026-09-05 17:33:59 | 51.71744 | 15.51248 | 120° | 68km/h | 16484m | 4.6m/s | -50.4°C | 3.5% | 100.0hPa | 2.6V | 00:00:00 | 00:00:00 | 00:00:00 | |
| DL2RXE-15 | 2026-09-05 17:33:57 | 51.71752 | 15.51226 | 124° | 64km/h | 16479m | 5.1m/s | -50.6°C | 1.1% | 100.1hPa | 2.6V | 00:00:00 | 00:00:00 | 00:00:00 | |
| DM0DOS-11 | 2026-09-05 17:33:56 | 51.71819 | 15.51080 | 126° | 64km/h | 16445m | 4.2m/s | -50.9°C | 3.7% | 100.6hPa | 2.6V | 08:30:00 | 01:18:15 | 00:00:00 | |
| BIOWL1-15 | 2026-09-05 17:33:56 | 51.71790 | 15.51143 | 126° | 64km/h | 16459m | 4m/s | 0°C | 0% | 0hPa | 2.6V | 18:12:15 | 01:18:18 | 00:00:00 | |
| S3001 | 2026-09-05 17:33:55 | 51.71781 | 15.51164 | 128° | 62km/h | 16464m | 5.6m/s | -50.5°C | 1.1% | 100.3hPa | 2.7V | 00:00:00 | 00:00:00 | 00:00:00 | |
| DO3MHA-11 | 2026-09-05 17:33:50 | 51.71828 | 15.51059 | 124° | 69km/h | 16440m | 6.0m/s | 0°C | 0% | 0hPa | 2.7V | 00:00:00 | 01:18:14 | 00:00:00 | |
| 13BRC | 2026-09-05 17:33:48 | 51.71836 | 15.51038 | 120° | 62km/h | 16434m | 5.0m/s | -50.9°C | 1.2% | 100.8hPa | 2.7V | 00:00:00 | 00:00:00 | 00:00:00 | |
| DM0DOS-11 | 2026-09-05 17:33:46 | 51.71898 | 15.50850 | 117° | 69km/h | 16394m | 5.2m/s | -50.9°C | 3.6% | 101.4hPa | 2.7V | 08:30:00 | 01:18:05 | 00:00:00 | |
| SONDE2-11 | 2026-09-05 17:33:45 | 51.71867 | 15.50946 | 117° | 62km/h | 16414m | 6.6m/s | -50.8°C | 1.1% | 101.1hPa | 2.7V | 00:00:00 | 00:00:00 | 00:00:00 | |
| BIOWL1-15 | 2026-09-05 17:33:43 | 51.71881 | 15.50899 | 117° | 66km/h | 16403m | 5.6m/s | 0°C | 0% | 0hPa | 2.7V | 18:12:15 | 01:18:07 | 00:00:00 | |
| DL2RXE-15 | 2026-09-05 17:33:38 | 51.71923 | 15.50769 | 118° | 77km/h | 16379m | 4.3m/s | -50.8°C | 1.2% | 101.7hPa | 2.6V | 00:00:00 | 00:00:00 | 00:00:00 | |
| BIOWL9-15 | 2026-09-05 17:33:37 | 51.71939 | 15.50712 | 111° | 77km/h | 16369m | 4.7m/s | -50.7°C | 1.1% | 101.8hPa | 2.6V | 00:00:00 | 00:00:00 | 00:00:00 | |
| DM0DOS-11 | 2026-09-05 17:33:36 | 51.71973 | 15.50568 | 110° | 73km/h | 16346m | 5.5m/s | -50.6°C | 3.7% | 102.2hPa | 2.6V | 08:30:00 | 01:17:55 | 00:00:00 | |
| DB0NH | 2026-09-05 17:33:31 | 51.71973 | 15.50568 | 111° | 73km/h | 16346m | 5.5m/s | -50.6°C | 3.7% | 102.1hPa | 2.6V | 00:00:00 | 01:17:55 | 00:00:00 | |
| SP3BTT-10 | 2026-09-05 17:33:29 | 51.71986 | 15.50514 | 114° | 71km/h | 16336m | 5.6m/s | -50.6°C | 3.7% | 102.3hPa | 2.6V | 00:00:00 | 00:00:00 | 00:00:00 | |
| 13BRC | 2026-09-05 17:33:28 | 51.71986 | 15.50514 | 114° | 69km/h | 16336m | 5.7m/s | -50.7°C | 1.2% | 102.4hPa | 2.6V | 00:00:00 | 00:00:00 | 00:00:00 | |
| DO3MHA-11 | 2026-09-05 17:33:27 | 51.72001 | 15.50463 | 115° | 73km/h | 16326m | 5.8m/s | 0°C | 0% | 0hPa | 2.6V | 00:00:00 | 01:17:51 | 00:00:00 | |
| DM0DOS-11 | 2026-09-05 17:33:26 | 51.72044 | 15.50294 | 109° | 80km/h | 16295m | 4.2m/s | -50.5°C | 3.5% | 102.9hPa | 2.6V | 08:30:00 | 01:17:45 | 00:00:00 | |
| DB0DAN | 2026-09-05 17:33:25 | 51.72015 | 15.50410 | 113° | 69km/h | 16315m | 5.1m/s | -50.5°C | 1.2% | 102.62hPa | 2.7V | 00:00:00 | 00:00:00 | 00:00:00 | |
| S3001 | 2026-09-05 17:33:24 | 51.72023 | 15.50383 | 113° | 73km/h | 16310m | 5.5m/s | -50.5°C | 1.1% | 102.7hPa | 2.7V | 00:00:00 | 00:00:00 | 00:00:00 | |
| DO3MHA-11 | 2026-09-05 17:33:17 | 51.72071 | 15.50172 | 110° | 71km/h | 16275m | 3.6m/s | 0°C | 0% | 0hPa | 2.7V | 00:00:00 | 01:17:41 | 00:00:00 | |
| DM0DOS-11 | 2026-09-05 17:33:16 | 51.72106 | 15.50009 | 107° | 66km/h | 16246m | 4.6m/s | -50.8°C | 3.7% | 103.8hPa | 2.7V | 08:30:00 | 01:17:35 | 00:00:00 | |
| EDDB2-11 | 2026-09-05 17:33:14 | 51.72096 | 15.50061 | 107° | 68km/h | 16256m | 3.8m/s | -50.7°C | 1.2% | 103.6hPa | 2.6V | 00:00:00 | 00:00:00 | 00:00:00 | |
| 13BRC | 2026-09-05 17:33:08 | 51.72116 | 15.49957 | 106° | 69km/h | 16235m | 4.4m/s | -50.8°C | 1.2% | 103.9hPa | 2.6V | 00:00:00 | 00:00:00 | 00:00:00 | |
| DO3MHA-11 | 2026-09-05 17:33:07 | 51.72126 | 15.49901 | 108° | 71km/h | 16226m | 4.0m/s | 0°C | 0% | 0hPa | 2.6V | 00:00:00 | 01:17:31 | 00:00:00 | |
| EDDB2-12 | 2026-09-05 17:33:06 | 51.72131 | 15.49873 | 106° | 73km/h | 16221m | 4.3m/s | -50.8°C | 1.2% | 104.1hPa | 2.6V | 00:00:00 | 00:00:00 | 00:00:00 | |
| DB0NH | 2026-09-05 17:33:01 | 51.72157 | 15.49726 | 106° | 71km/h | 16197m | 5.6m/s | -50.8°C | 3.7% | 104.5hPa | 2.6V | 00:00:00 | 01:17:25 | 00:00:00 | |
| DL2RXE-15 | 2026-09-05 17:33:00 | 51.72157 | 15.49726 | 106° | 73km/h | 16197m | 5.6m/s | -50.8°C | 1.2% | 104.5hPa | 2.6V | 00:00:00 | 00:00:00 | 00:00:00 | |
| DM0DOS-11 | 2026-09-05 17:32:58 | 51.72176 | 15.49612 | 103° | 71km/h | 16176m | 5.7m/s | -50.6°C | 3.7% | 104.8hPa | 2.6V | 08:30:00 | 01:17:21 | 00:00:00 | |
| S3001 | 2026-09-05 17:32:53 | 51.72192 | 15.49501 | 103° | 69km/h | 16157m | 3.8m/s | -50.5°C | 1.2% | 105.2hPa | 2.6V | 00:00:00 | 00:00:00 | 00:00:00 | |
| DM0DOS-11 | 2026-09-05 17:32:48 | 51.72219 | 15.49337 | 109° | 69km/h | 16126m | 6.2m/s | -50.2°C | 3.6% | 105.7hPa | 2.6V | 08:30:00 | 01:17:11 | 00:00:00 | |
| 13BRC | 2026-09-05 17:32:47 | 51.72214 | 15.49364 | 110° | 69km/h | 16132m | 4.9m/s | -50.2°C | 1.1% | 105.6hPa | 2.6V | 00:00:00 | 00:00:00 | 00:00:00 | |
| EDDB2-11 | 2026-09-05 17:32:43 | 51.72249 | 15.49212 | 108° | 64km/h | 16098m | 3.6m/s | -50.0°C | 1.1% | 106.1hPa | 2.6V | 00:00:00 | 00:00:00 | 00:00:00 | |
| DL2RXE-15 | 2026-09-05 17:32:40 | 51.72255 | 15.49186 | 109° | 66km/h | 16094m | 5.4m/s | -50.0°C | 1.1% | 106.2hPa | 2.6V | 00:00:00 | 00:00:00 | 00:00:00 | |
| DM0DOS-11 | 2026-09-05 17:32:38 | 51.72277 | 15.49078 | 105° | 75km/h | 16074m | 4.8m/s | -49.9°C | 3.4% | 106.5hPa | 2.6V | 08:30:00 | 01:17:01 | 00:00:00 | |
| OE3JTB-15 | 2026-09-05 17:32:38 | 51.72271 | 15.49106 | 108° | 73km/h | 16079m | 5.7m/s | -49.9°C | 3.5% | 106.4hPa | 2.7V | 00:00:00 | 00:00:00 | 00:00:00 | |
| EDDB2-12 | 2026-09-05 17:32:35 | 51.72287 | 15.49020 | 107° | 73km/h | 16064m | 5.8m/s | -49.9°C | 1.1% | 106.7hPa | 2.7V | 00:00:00 | 00:00:00 | 00:00:00 | |
| DB0NH | 2026-09-05 17:32:31 | 51.72311 | 15.48912 | 112° | 75km/h | 16043m | 6.3m/s | -49.7°C | 3.4% | 107.0hPa | 2.7V | 00:00:00 | 01:16:55 | 00:00:00 | |
| SP3BTT-10 | 2026-09-05 17:32:29 | 51.72325 | 15.48859 | 115° | 82km/h | 16031m | 4.6m/s | -49.6°C | 3.4% | 107.2hPa | 2.7V | 00:00:00 | 00:00:00 | 08:30:00 | |
| SP3WXH-11 | 2026-09-05 17:32:27 | 51.72340 | 15.48807 | 114° | 68km/h | 16020m | 5.7m/s | -49.7°C | 1.1% | 107.4hPa | 2.6V | 00:00:00 | 00:00:00 | 00:00:00 | |
| OK1SLM-15 | 2026-09-05 17:32:26 | 51.72340 | 15.48807 | 115° | 69km/h | 16020m | 5.7m/s | 0°C | 0% | 0hPa | 2.6V | 00:00:00 | 00:00:00 | 00:00:00 | |
| S3001 | 2026-09-05 17:32:22 | 51.72375 | 15.48674 | 111° | 71km/h | 15993m | 3.0m/s | -50.0°C | 1.1% | 107.8hPa | 2.6V | 00:00:00 | 00:00:00 | 00:00:00 | |
| DM0DOS-11 | 2026-09-05 17:32:19 | 51.72437 | 15.48460 | 119° | 75km/h | 15950m | 4.1m/s | -50.4°C | 3.6% | 108.5hPa | 2.6V | 08:30:00 | 01:16:38 | 00:00:00 | |
| EDDB2-11 | 2026-09-05 17:32:12 | 51.72466 | 15.48376 | 118° | 82km/h | 15935m | 4.1m/s | -50.7°C | 1.2% | 108.8hPa | 2.6V | 00:00:00 | 00:00:00 | 00:00:00 | |
| DM0DOS-11 | 2026-09-05 17:32:09 | 51.72523 | 15.48165 | 113° | 77km/h | 15899m | 5m/s | -50.6°C | 3.7% | 109.4hPa | 2.6V | 08:30:00 | 01:16:28 | 00:00:00 | |
| BIOWL1-15 | 2026-09-05 17:32:09 | 51.72484 | 15.48316 | 113° | 82km/h | 15924m | 4.2m/s | -50.8°C | 0.4% | 109hPa | 2.6V | 18:12:15 | 01:16:33 | 00:00:00 | |
| BIOWL1-15 | 2026-09-05 17:32:04 | 51.72574 | 15.47991 | 116° | 86km/h | 15869m | 4.6m/s | -50.6°C | 0.4% | 109.9hPa | 2.6V | 18:12:15 | 01:16:22 | 00:00:00 | |
| BIOWL9-15 | 2026-09-05 17:32:04 | 51.72531 | 15.48137 | 115° | 77km/h | 15894m | 5.0m/s | -50.6°C | 1.2% | 109.5hPa | 2.6V | 00:00:00 | 00:00:00 | 00:00:00 | |
| DL2RXE-15 | 2026-09-05 17:32:02 | 51.72531 | 15.48136 | 116° | 77km/h | 15894m | 5.0m/s | -50.6°C | 1.2% | 109.5hPa | 2.6V | 00:00:00 | 00:00:00 | 00:00:00 | |
| DB0NH | 2026-09-05 17:32:01 | 51.72547 | 15.48080 | 116° | 86km/h | 15884m | 4.4m/s | -50.5°C | 3.7% | 109.6hPa | 2.6V | 00:00:00 | 01:16:25 | 00:00:00 | |
| DM0DOS-11 | 2026-09-05 17:31:59 | 51.72611 | 15.47869 | 117° | 82km/h | 15848m | 6.2m/s | -50.4°C | 3.6% | 110.2hPa | 2.6V | 08:30:00 | 01:16:18 | 00:00:00 | |
| SP3WXH-11 | 2026-09-05 17:31:56 | 51.72593 | 15.47929 | 115° | 82km/h | 15859m | 5.8m/s | -50.5°C | 1.2% | 110.1hPa | 2.8V | 00:00:00 | 00:00:00 | 00:00:00 | |
| S3001 | 2026-09-05 17:31:51 | 51.72641 | 15.47780 | 118° | 82km/h | 15831m | 5.0m/s | -50.3°C | 1.2% | 110.6hPa | 2.8V | 00:00:00 | 00:00:00 | 00:00:00 | |
| DM0DOS-11 | 2026-09-05 17:31:49 | 51.72715 | 15.47566 | 120° | 88km/h | 15796m | 4m/s | -50.1°C | 3.5% | 111.2hPa | 2.8V | 08:30:00 | 01:16:08 | 00:00:00 | |
| BIOWL1-15 | 2026-09-05 17:31:47 | 51.72704 | 15.47597 | 119° | 88km/h | 15801m | 6m/s | -50.1°C | 0.3% | 111hPa | 2.6V | 18:12:15 | 01:16:09 | 00:00:00 | |
| DF8AY | 2026-09-05 17:31:44 | 51.72715 | 15.47566 | 120° | 88km/h | 15796m | 4m/s | -50.1°C | 0.4% | 111.2hPa | 2.8V | 18:12:15 | 01:16:08 | 00:00:00 | |
| DO3MHA-11 | 2026-09-05 17:31:43 | 51.72726 | 15.47536 | 121° | 88km/h | 15792m | 5.3m/s | 0°C | 0% | 0hPa | 2.6V | 00:00:00 | 01:16:07 | 00:00:00 | |
| DB0DAN | 2026-09-05 17:31:40 | 51.72758 | 15.47446 | 119° | 82km/h | 15777m | 5.7m/s | -49.9°C | 1.1% | 111.43hPa | 2.6V | 00:00:00 | 00:00:00 | 00:00:00 | |
| OE3JTB-15 | 2026-09-05 17:31:40 | 51.72758 | 15.47446 | 120° | 95km/h | 15777m | 5.6m/s | -49.9°C | 3.5% | 111.4hPa | 2.6V | 00:00:00 | 00:00:00 | 00:00:00 | |
| DM0DOS-11 | 2026-09-05 17:31:39 | 51.72826 | 15.47260 | 121° | 89km/h | 15748m | 4.9m/s | -49.9°C | 3.4% | 112hPa | 2.7V | 08:30:00 | 01:15:58 | 00:00:00 | |
| BIOWL1-15 | 2026-09-05 17:31:37 | 51.72792 | 15.47353 | 121° | 88km/h | 15762m | 4.4m/s | -49.9°C | 0.3% | 111.7hPa | 2.6V | 18:12:15 | 01:16:01 | 00:00:00 | |
| DO3MHA-11 | 2026-09-05 17:31:33 | 51.72838 | 15.47229 | 124° | 91km/h | 15744m | 5.3m/s | 0°C | 0% | 0hPa | 2.6V | 00:00:00 | 01:15:57 | 00:00:00 | |
| BIOWL9-15 | 2026-09-05 17:31:32 | 51.72851 | 15.47198 | 123° | 89km/h | 15738m | 4.9m/s | -50.0°C | 1.1% | 112.2hPa | 2.6V | 00:00:00 | 00:00:00 | 00:00:00 | |
| DB0NH | 2026-09-05 17:31:31 | 51.72864 | 15.47168 | 123° | 99km/h | 15733m | 5.6m/s | -50.0°C | 3.5% | 112.2hPa | 2.6V | 00:00:00 | 01:15:55 | 00:00:00 | |
| DM0DOS-11 | 2026-09-05 17:31:29 | 51.72947 | 15.46946 | 120° | 95km/h | 15698m | 5.1m/s | -50.6°C | 3.5% | 112.8hPa | 2.7V | 08:30:00 | 01:15:48 | 00:00:00 | |
| DF8AY | 2026-09-05 17:31:28 | 51.72900 | 15.47075 | 122° | 89km/h | 15718m | 3.5m/s | -50.6°C | 0.4% | 112.5hPa | 2.6V | 18:12:15 | 01:15:52 | 00:00:00 | |
| BIOWL1-15 | 2026-09-05 17:31:26 | 51.72923 | 15.47011 | 119° | 93km/h | 15708m | 3.6m/s | -50.6°C | 0.5% | 112.6hPa | 2.6V | 18:12:15 | 01:15:50 | 00:00:00 | |
| DF8AY | 2026-09-05 17:31:23 | 51.73022 | 15.46736 | 120° | 102km/h | 15669m | 5.8m/s | -51.1°C | 0.4% | 113.3hPa | 2.8V | 18:12:15 | 01:15:42 | 00:00:00 | |
| DO3MHA-11 | 2026-09-05 17:31:23 | 51.72959 | 15.46912 | 121° | 100km/h | 15694m | 4.3m/s | 0°C | 0% | 0hPa | 2.6V | 00:00:00 | 01:15:47 | 00:00:00 | |
| DL2RXE-15 | 2026-09-05 17:31:22 | 51.72959 | 15.46912 | 121° | 97km/h | 15694m | 4.4m/s | -50.7°C | 1.2% | 112.9hPa | 2.6V | 00:00:00 | 00:00:00 | 00:00:00 | |
| S3001 | 2026-09-05 17:31:20 | 51.72996 | 15.46807 | 120° | 99km/h | 15678m | 5.5m/s | -50.9°C | 1.2% | 113.2hPa | 2.6V | 00:00:00 | 00:00:00 | 00:00:00 | |
| DM0DOS-11 | 2026-09-05 17:31:19 | 51.73074 | 15.46591 | 119° | 104km/h | 15648m | 4.4m/s | -51.3°C | 3.7% | 113.7hPa | 2.6V | 08:30:00 | 01:15:38 | 00:00:00 | |
| BIOWL1-15 | 2026-09-05 17:31:16 | 51.73048 | 15.46663 | 120° | 102km/h | 15658m | 5.6m/s | -51.3°C | 0.5% | 113.5hPa | 2.7V | 18:12:15 | 01:15:40 | 00:00:00 | |
| SP3BTT-10 | 2026-09-05 17:31:14 | 51.73074 | 15.46590 | 120° | 95km/h | 15649m | 4.3m/s | -51.2°C | 3.7% | 113.6hPa | 2.6V | 00:00:00 | 00:00:00 | 00:00:00 | |
| DO3MHA-11 | 2026-09-05 17:31:13 | 51.73086 | 15.46553 | 119° | 104km/h | 15644m | 5.0m/s | 0°C | 0% | 0hPa | 2.6V | 00:00:00 | 01:15:37 | 00:00:00 | |
| OE3JTB-15 | 2026-09-05 17:31:11 | 51.73112 | 15.46478 | 119° | 99km/h | 15634m | 5.3m/s | -51.2°C | 3.8% | 113.9hPa | 2.6V | 00:00:00 | 00:00:00 | 00:00:00 | |
| SONDE2-11 | 2026-09-05 17:31:10 | 51.73124 | 15.46441 | 118° | 104km/h | 15630m | 3.8m/s | -51.3°C | 1.3% | 114.0hPa | 2.6V | 00:00:00 | 00:00:00 | 00:00:00 | |
| DM0DOS-11 | 2026-09-05 17:31:09 | 51.73193 | 15.46215 | 114° | 102km/h | 15601m | 5.2m/s | -51.2°C | 3.8% | 114.5hPa | 2.6V | 08:30:00 | 01:15:28 | 00:00:00 | |
| DF8AY | 2026-09-05 17:31:07 | 51.73159 | 15.46327 | 116° | 104km/h | 15616m | 5.3m/s | -51.2°C | 0.5% | 114.3hPa | 2.8V | 18:12:15 | 01:15:31 | 00:00:00 | |
| BIOWL1-15 | 2026-09-05 17:31:06 | 51.73171 | 15.46290 | 116° | 102km/h | 15611m | 4.8m/s | -51.2°C | 0.6% | 114.4hPa | 2.8V | 18:12:15 | 01:15:30 | 00:00:00 | |
| DO3MHA-11 | 2026-09-05 17:31:03 | 51.73203 | 15.46178 | 115° | 100km/h | 15598m | 3.6m/s | 0°C | 0% | 0hPa | 2.6V | 00:00:00 | 01:15:27 | 00:00:00 | |
| BIOWL9-15 | 2026-09-05 17:31:02 | 51.73226 | 15.46103 | 117° | 100km/h | 15588m | 4.8m/s | -51.3°C | 1.2% | 114.8hPa | 2.6V | 00:00:00 | 00:00:00 | 00:00:00 | |
| DB0NH | 2026-09-05 17:31:01 | 51.73226 | 15.46103 | 118° | 95km/h | 15588m | 4.7m/s | -51.3°C | 3.7% | 114.7hPa | 2.6V | 00:00:00 | 01:15:25 | 00:00:00 | |
| DM0DOS-11 | 2026-09-05 17:30:58 | 51.73306 | 15.45842 | 112° | 95km/h | 15554m | 3.9m/s | -51.3°C | 3.7% | 115.4hPa | 2.6V | 08:30:00 | 01:15:18 | 00:00:00 | |
| DF8AY | 2026-09-05 17:30:56 | 51.73285 | 15.45915 | 116° | 100km/h | 15562m | 5.6m/s | -51.3°C | 0.5% | 115.2hPa | 2.6V | 18:12:15 | 01:15:20 | 00:00:00 | |
| BIOWL1-15 | 2026-09-05 17:30:55 | 51.73296 | 15.45878 | 114° | 99km/h | 15558m | 3.7m/s | -51.3°C | 0.6% | 115.3hPa | 2.6V | 18:12:15 | 01:15:19 | 00:00:00 | |
| SP3WXH-11 | 2026-09-05 17:30:54 | 51.73305 | 15.45842 | 112° | 95km/h | 15554m | 3.9m/s | -51.3°C | 1.3% | 115.4hPa | 2.8V | 00:00:00 | 00:00:00 | 00:00:00 | |
| S3001 | 2026-09-05 17:30:49 | 51.73358 | 15.45633 | 112° | 91km/h | 15526m | 3.9m/s | -51.2°C | 1.3% | 115.9hPa | 2.8V | 00:00:00 | 00:00:00 | 00:00:00 | |
| DM0DOS-11 | 2026-09-05 17:30:47 | 51.73412 | 15.45416 | 112° | 97km/h | 15497m | 5.9m/s | -51.6°C | 3.8% | 116.4hPa | 2.8V | 08:30:00 | 01:15:06 | 00:00:00 | |
| DF8AY | 2026-09-05 17:30:46 | 51.73376 | 15.45562 | 111° | 97km/h | 15516m | 4.9m/s | -51.3°C | 0.6% | 116.1hPa | 2.8V | 18:12:15 | 01:15:10 | 00:00:00 | |
| BIOWL1-15 | 2026-09-05 17:30:44 | 51.73393 | 15.45489 | 112° | 97km/h | 15507m | 5.8m/s | -51.5°C | 0.6% | 116.2hPa | 2.6V | 18:12:15 | 01:15:08 | 00:00:00 | |
| DO3MHA-11 | 2026-09-05 17:30:42 | 51.73412 | 15.45416 | 113° | 93km/h | 15497m | 5.8m/s | 0°C | 0% | 0hPa | 2.8V | 00:00:00 | 01:15:06 | 00:00:00 | |
| SONDE2-11 | 2026-09-05 17:30:39 | 51.73440 | 15.45309 | 114° | 89km/h | 15483m | 5.2m/s | -51.8°C | 1.3% | 116.7hPa | 2.8V | 00:00:00 | 00:00:00 | 00:00:00 | |
| EDDB2-11 | 2026-09-05 17:30:38 | 51.73450 | 15.45276 | 115° | 88km/h | 15478m | 4.1m/s | -51.8°C | 1.3% | 116.7hPa | 2.8V | 00:00:00 | 00:00:00 | 00:00:00 | |
| DM0DOS-11 | 2026-09-05 17:30:37 | 51.73501 | 15.45076 | 110° | 97km/h | 15449m | 4.1m/s | -51.8°C | 3.8% | 117.2hPa | 2.8V | 08:30:00 | 01:14:56 | 00:00:00 | |
| BIOWL1-15 | 2026-09-05 17:30:34 | 51.73484 | 15.45146 | 113° | 89km/h | 15459m | 4.7m/s | -51.8°C | 0.5% | 117hPa | 2.6V | 18:12:15 | 01:14:58 | 00:00:00 | |
| DF8AY | 2026-09-05 17:30:32 | 51.73501 | 15.45075 | 110° | 97km/h | 15449m | 4.1m/s | -51.8°C | 0.6% | 117.2hPa | 2.8V | 18:12:15 | 01:14:56 | 00:00:00 | |
| DO3MHA-11 | 2026-09-05 17:30:32 | 51.73501 | 15.45075 | 111° | 97km/h | 15450m | 4.1m/s | 0°C | 0% | 0hPa | 2.7V | 00:00:00 | 01:14:56 | 00:00:00 | |
| DB0NH | 2026-09-05 17:30:31 | 51.73510 | 15.45038 | 112° | 89km/h | 15445m | 5.9m/s | -51.7°C | 3.7% | 117.3hPa | 2.7V | 00:00:00 | 01:14:55 | 00:00:00 | |
| BIOWL9-15 | 2026-09-05 17:30:30 | 51.73519 | 15.45001 | 111° | 99km/h | 15440m | 3.6m/s | -51.9°C | 1.3% | 117.4hPa | 2.7V | 00:00:00 | 00:00:00 | 00:00:00 | |
| SP3BTT-10 | 2026-09-05 17:30:29 | 51.73528 | 15.44963 | 111° | 89km/h | 15435m | 5.5m/s | -52.0°C | 3.8% | 117.4hPa | 2.7V | 00:00:00 | 00:00:00 | 00:00:00 | |
| DL2RXE-15 | 2026-09-05 17:30:28 | 51.73528 | 15.44963 | 112° | 100km/h | 15435m | 5.5m/s | -52.0°C | 1.3% | 117.5hPa | 2.6V | 00:00:00 | 00:00:00 | 00:00:00 | |
| DM0DOS-11 | 2026-09-05 17:30:27 | 51.73578 | 15.44718 | 104° | 82km/h | 15403m | 5.3m/s | -52.7°C | 4.1% | 118.1hPa | 2.6V | 08:30:00 | 01:14:46 | 00:00:00 | |
| BIOWL1-15 | 2026-09-05 17:30:23 | 51.73573 | 15.44750 | 105° | 84km/h | 15407m | 3.3m/s | -52.6°C | 0.8% | 118hPa | 2.7V | 18:12:15 | 01:14:47 | 00:00:00 | |
| DF8AY | 2026-09-05 17:30:22 | 51.73578 | 15.44718 | 105° | 82km/h | 15403m | 5.4m/s | 0°C | 0% | 118.1hPa | 2.6V | 18:12:15 | 01:14:46 | 00:00:00 | |
| S3001 | 2026-09-05 17:30:18 | 51.73608 | 15.44546 | 106° | 93km/h | 15381m | 4.0m/s | -52.6°C | 1.5% | 118.5hPa | 2.6V | 00:00:00 | 00:00:00 | 00:00:00 | |
| DM0DOS-11 | 2026-09-05 17:30:17 | 51.73642 | 15.44367 | 108° | 88km/h | 15356m | 5.9m/s | -52.5°C | 4.1% | 118.9hPa | 2.6V | 08:30:00 | 01:14:36 | 00:00:00 | |
| BIOWL1-15 | 2026-09-05 17:30:13 | 51.73636 | 15.44402 | 107° | 89km/h | 15361m | 4m/s | -52.5°C | 0.9% | 118.8hPa | 2.6V | 18:12:15 | 01:14:37 | 00:00:00 | |
| DF8AY | 2026-09-05 17:30:11 | 51.73650 | 15.44334 | 109° | 88km/h | 15352m | 4.3m/s | 0°C | 0% | 119hPa | 2.8V | 18:12:15 | 01:14:35 | 00:00:00 | |
| DB0DAN | 2026-09-05 17:30:10 | 51.73657 | 15.44300 | 109° | 82km/h | 15347m | 5.2m/s | -52.4°C | 1.4% | 119.12hPa | 2.8V | 00:00:00 | 00:00:00 | 00:00:00 | |
| BIOWL1-15 | 2026-09-05 17:30:08 | 51.73714 | 15.44032 | 110° | 89km/h | 15308m | 4.5m/s | -52.5°C | 0.9% | 119.8hPa | 2.6V | 18:12:15 | 01:14:26 | 00:00:00 | |
| DM0DOS-11 | 2026-09-05 17:30:07 | 51.73714 | 15.44032 | 110° | 89km/h | 15308m | 4.5m/s | -52.5°C | 4.1% | 119.8hPa | 2.6V | 08:30:00 | 01:14:26 | 00:00:00 | |
| DF8AY | 2026-09-05 17:29:59 | 51.73738 | 15.43931 | 113° | 89km/h | 15294m | 5.2m/s | 0°C | 0% | 0hPa | 2.8V | 18:12:15 | 01:14:23 | 00:00:00 | |
| SP3BTT-10 | 2026-09-05 17:29:59 | 51.73738 | 15.43931 | 114° | 91km/h | 15294m | 5.2m/s | -52.4°C | 4.2% | 120.1hPa | 2.6V | 00:00:00 | 00:00:00 | 00:00:00 | |
| DM0DOS-11 | 2026-09-05 17:29:56 | 51.73811 | 15.43671 | 114° | 88km/h | 15257m | 3.5m/s | -52.6°C | 4.3% | 120.8hPa | 2.6V | 08:30:00 | 01:14:15 | 00:00:00 | |
| BIOWL1-15 | 2026-09-05 17:29:51 | 51.73811 | 15.43671 | 115° | 88km/h | 15257m | 3.5m/s | -52.6°C | 1.1% | 120.8hPa | 2.6V | 18:12:15 | 01:14:15 | 00:00:00 | |
| S3001 | 2026-09-05 17:29:47 | 51.73860 | 15.43505 | 114° | 91km/h | 15231m | 5.3m/s | -52.9°C | 1.6% | 121.3hPa | 2.8V | 00:00:00 | 00:00:00 | 00:00:00 | |
| DM0DOS-11 | 2026-09-05 17:29:46 | 51.73911 | 15.43339 | 118° | 89km/h | 15206m | 6.2m/s | -52.9°C | 4.4% | 121.8hPa | 2.8V | 08:30:00 | 01:14:05 | 00:00:00 | |
| DF8AY | 2026-09-05 17:29:42 | 51.73900 | 15.43371 | 117° | 89km/h | 15211m | 3.2m/s | 0°C | 0% | 0hPa | 2.8V | 18:12:15 | 01:14:06 | 00:00:00 | |
| BIOWL1-15 | 2026-09-05 17:29:41 | 51.73910 | 15.43339 | 119° | 89km/h | 15206m | 6.2m/s | -52.9°C | 1.2% | 121.8hPa | 2.8V | 18:12:15 | 01:14:05 | 00:00:00 | |
| DB0DAN | 2026-09-05 17:29:40 | 51.73922 | 15.43307 | 121° | 86km/h | 15201m | 4.2m/s | -52.9°C | 1.6% | 121.84hPa | 2.6V | 00:00:00 | 00:00:00 | 00:00:00 | |
| EDDB2-11 | 2026-09-05 17:29:37 | 51.73971 | 15.43183 | 123° | 91km/h | 15180m | 3.4m/s | -53.0°C | 1.6% | 122.2hPa | 2.8V | 00:00:00 | 00:00:00 | 00:00:00 | |
| DM0DOS-11 | 2026-09-05 17:29:36 | 51.74029 | 15.43019 | 116° | 99km/h | 15156m | 4.9m/s | -53°C | 0% | 122.7hPa | 2.8V | 08:30:00 | 01:13:55 | 00:00:00 | |
| BIOWL1-15 | 2026-09-05 17:29:34 | 51.74040 | 15.42983 | 116° | 97km/h | 15152m | 4m/s | -53.1°C | 1.3% | 122.8hPa | 2.8V | 18:12:15 | 01:13:54 | 00:00:00 | |
| DF8AY | 2026-09-05 17:29:31 | 51.74029 | 15.43019 | 117° | 99km/h | 15156m | 4.9m/s | 0°C | 0% | 0hPa | 2.8V | 18:12:15 | 01:13:55 | 00:00:00 | |
| DB0NH | 2026-09-05 17:29:31 | 51.74029 | 15.43019 | 117° | 99km/h | 15156m | 4.8m/s | -53.0°C | 4.5% | 122.6hPa | 2.8V | 00:00:00 | 01:13:55 | 00:00:00 | |
| 13BRC | 2026-09-05 17:29:30 | 51.74029 | 15.43019 | 118° | 99km/h | 15156m | 4.9m/s | -53.1°C | 1.7% | 122.7hPa | 2.8V | 00:00:00 | 00:00:00 | 00:00:00 | |
| SP3BTT-10 | 2026-09-05 17:29:29 | 51.74051 | 15.42948 | 117° | 99km/h | 15148m | 4.8m/s | -53.1°C | 4.5% | 122.8hPa | 2.8V | 00:00:00 | 00:00:00 | 00:00:00 | |
| DM0DOS-11 | 2026-09-05 17:29:26 | 51.74147 | 15.42674 | 119° | 99km/h | 15108m | 6.4m/s | -53.3°C | 0% | 123.6hPa | 2.8V | 08:30:00 | 01:13:45 | 00:00:00 | |
| DB0DAN | 2026-09-05 17:29:25 | 51.74097 | 15.42810 | 121° | 93km/h | 15129m | 3.8m/s | -53.4°C | 1.7% | 123.2hPa | 2.8V | 00:00:00 | 00:00:00 | 00:00:00 | |
| DF8AY | 2026-09-05 17:29:21 | 51.74147 | 15.42674 | 120° | 99km/h | 15108m | 6.4m/s | 0°C | 0% | 0hPa | 2.8V | 18:12:15 | 01:13:45 | 00:00:00 | |
| BIOWL1-15 | 2026-09-05 17:29:19 | 51.74172 | 15.42601 | 117° | 102km/h | 15098m | 5m/s | -53.2°C | 1.2% | 123.8hPa | 2.8V | 18:12:15 | 01:13:43 | 00:00:00 | |
| DM0DOS-11 | 2026-09-05 17:29:16 | 51.74254 | 15.42309 | 114° | 97km/h | 15059m | 6m/s | -53.2°C | 0% | 124.5hPa | 2.6V | 08:30:00 | 01:13:35 | 00:00:00 | |
| DF8AY | 2026-09-05 17:29:10 | 51.74265 | 15.42273 | 115° | 99km/h | 15053m | 4m/s | 0°C | 0% | 0hPa | 2.6V | 18:12:15 | 01:13:34 | 00:00:00 | |
| BIOWL1-15 | 2026-09-05 17:29:10 | 51.74286 | 15.42202 | 116° | 97km/h | 15043m | 4.1m/s | -53.4°C | 1.1% | 124.9hPa | 2.8V | 18:12:15 | 01:13:32 | 00:00:00 | |
| SONDE2-11 | 2026-09-05 17:29:06 | 51.74308 | 15.42130 | 116° | 100km/h | 15033m | 3.7m/s | -53.3°C | 1.6% | 125.1hPa | 2.8V | 00:00:00 | 00:00:00 | 00:00:00 | |
| EDDB2-11 | 2026-09-05 17:29:05 | 51.74319 | 15.42093 | 116° | 99km/h | 15028m | 5.5m/s | -53.3°C | 1.6% | 125.2hPa | 2.8V | 00:00:00 | 00:00:00 | 00:00:00 | |
| EDDB2-12 | 2026-09-05 17:28:58 | 51.74396 | 15.41841 | 118° | 97km/h | 14992m | 6.1m/s | -53.1°C | 1.6% | 125.9hPa | 2.8V | 00:00:00 | 00:00:00 | 00:00:00 | |
| DM0DOS-11 | 2026-09-05 17:28:57 | 51.74421 | 15.41771 | 119° | 99km/h | 14982m | 4.8m/s | -53.1°C | 0% | 126hPa | 2.8V | 08:30:00 | 01:13:20 | 00:00:00 | |
| BIOWL1-15 | 2026-09-05 17:28:57 | 51.74409 | 15.41806 | 120° | 99km/h | 14987m | 3.7m/s | -53.1°C | 1.1% | 125.9hPa | 2.8V | 18:12:15 | 01:13:21 | 00:00:00 | |
| DF8AY | 2026-09-05 17:28:55 | 51.74433 | 15.41737 | 119° | 97km/h | 14978m | 4.5m/s | 0°C | 0% | 0hPa | 2.6V | 18:12:15 | 01:13:19 | 00:00:00 | |
| SP3WXH-11 | 2026-09-05 17:28:50 | 51.74487 | 15.41562 | 115° | 93km/h | 14952m | 5.3m/s | -53.0°C | 1.6% | 126.7hPa | 2.8V | 00:00:00 | 00:00:00 | 00:00:00 | |
| 13BRC | 2026-09-05 17:28:49 | 51.74487 | 15.41562 | 116° | 95km/h | 14952m | 5.3m/s | -53.0°C | 1.6% | 126.7hPa | 2.8V | 00:00:00 | 00:00:00 | 00:00:00 | |
| DM0DOS-11 | 2026-09-05 17:28:48 | 51.74539 | 15.41386 | 115° | 97km/h | 14927m | 5.4m/s | 0°C | 0% | 0hPa | 2.8V | 08:30:00 | 01:13:09 | 00:00:00 | |
| BIOWL1-15 | 2026-09-05 17:28:47 | 51.74518 | 15.41457 | 115° | 95km/h | 14936m | 5.8m/s | 0°C | 0% | 126.9hPa | 2.6V | 18:12:15 | 01:13:11 | 00:00:00 | |
| OE3JTB-15 | 2026-09-05 17:28:46 | 51.74529 | 15.41421 | 115° | 97km/h | 14932m | 3.9m/s | -53.0°C | 4.3% | 127.0hPa | 2.7V | 00:00:00 | 00:00:00 | 08:30:00 | |
| S3001 | 2026-09-05 17:28:45 | 51.74550 | 15.41350 | 116° | 99km/h | 14921m | 5.5m/s | -53.0°C | 1.5% | 127.2hPa | 2.8V | 00:00:00 | 00:00:00 | 00:00:00 | |
| DL2RXE-15 | 2026-09-05 17:28:40 | 51.74583 | 15.41237 | 116° | 106km/h | 14906m | 5.9m/s | -52.9°C | 1.5% | 127.5hPa | 2.8V | 00:00:00 | 00:00:00 | 00:00:00 | |
| DM0DOS-11 | 2026-09-05 17:28:37 | 51.74646 | 15.41006 | 113° | 100km/h | 14876m | 5.2m/s | 0°C | 0% | 0hPa | 2.8V | 00:00:00 | 01:12:59 | 00:00:00 | |
| BIOWL1-15 | 2026-09-05 17:28:36 | 51.74636 | 15.41044 | 114° | 100km/h | 14882m | 4.7m/s | 0°C | 0% | 128hPa | 2.6V | 18:12:15 | 01:13:00 | 00:00:00 | |
| SONDE2-11 | 2026-09-05 17:28:35 | 51.74646 | 15.41006 | 113° | 99km/h | 14877m | 5.2m/s | -52.7°C | 1.5% | 128.1hPa | 2.6V | 00:00:00 | 00:00:00 | 00:00:00 | |
| EDDB2-11 | 2026-09-05 17:28:34 | 51.74656 | 15.40969 | 112° | 99km/h | 14871m | 6.0m/s | -52.7°C | 1.5% | 128.2hPa | 2.6V | 00:00:00 | 00:00:00 | 00:00:00 | |
| DAC517 | 2026-09-05 17:28:33 | 51.74656 | 15.40969 | 113° | 99km/h | 14871m | 6.0m/s | -52.7°C | 1.5% | 128.3hPa | 2.6V | 00:00:00 | 00:00:00 | 00:00:00 | |
| DB0NH | 2026-09-05 17:28:31 | 51.74684 | 15.40858 | 113° | 93km/h | 14857m | 3.8m/s | -52.5°C | 4.2% | 128.5hPa | 2.6V | 00:00:00 | 01:12:55 | 00:00:00 | |
| SP3BTT-10 | 2026-09-05 17:28:29 | 51.74702 | 15.40784 | 112° | 93km/h | 14846m | 5.8m/s | -52.5°C | 4.2% | 128.7hPa | 2.6V | 00:00:00 | 00:00:00 | 00:00:00 | |
| 13BRC | 2026-09-05 17:28:28 | 51.74702 | 15.40784 | 112° | 99km/h | 14846m | 5.9m/s | -52.5°C | 1.5% | 128.7hPa | 2.6V | 00:00:00 | 00:00:00 | 00:00:00 | |
| DM0DOS-11 | 2026-09-05 17:28:27 | 51.74738 | 15.40638 | 110° | 95km/h | 14826m | 5.9m/s | 0°C | 0% | 0hPa | 2.6V | 00:00:00 | 01:12:49 | 00:00:00 | |
| BIOWL1-15 | 2026-09-05 17:28:25 | 51.74738 | 15.40638 | 110° | 95km/h | 14826m | 5.9m/s | 0°C | 0% | 0hPa | 2.6V | 18:12:15 | 01:12:49 | 00:00:00 | |
| BIOWL1-15 | 2026-09-05 17:28:15 | 51.74822 | 15.40275 | 111° | 97km/h | 14776m | 3.7m/s | 0°C | 0% | 0hPa | 2.6V | 18:12:15 | 01:12:39 | 00:00:00 | |
| DAC517 | 2026-09-05 17:28:13 | 51.74830 | 15.40238 | 112° | 95km/h | 14772m | 6.0m/s | -52.3°C | 1.5% | 130.2hPa | 2.6V | 00:00:00 | 00:00:00 | 00:00:00 | |
| 13BRC | 2026-09-05 17:28:08 | 51.74868 | 15.40060 | 109° | 89km/h | 14748m | 5.5m/s | -52.1°C | 1.4% | 130.7hPa | 2.6V | 00:00:00 | 00:00:00 | 00:00:00 | |
| DM0DOS-11 | 2026-09-05 17:28:07 | 51.74903 | 15.39886 | 108° | 89km/h | 14723m | 4.5m/s | 0°C | 0% | 0hPa | 2.6V | 00:00:00 | 01:12:28 | 00:00:00 | |
| BIOWL1-15 | 2026-09-05 17:28:01 | 51.74939 | 15.39713 | 107° | 88km/h | 14698m | 5.4m/s | 0°C | 0% | 0hPa | 2.6V | 18:12:15 | 01:12:23 | 00:00:00 | |
| EDDB2-12 | 2026-09-05 17:27:56 | 51.74960 | 15.39610 | 108° | 88km/h | 14684m | 4.7m/s | -51.9°C | 1.5% | 132.0hPa | 2.8V | 00:00:00 | 00:00:00 | 00:00:00 | |
| DB0DAN | 2026-09-05 17:27:55 | 51.74967 | 15.39575 | 109° | 86km/h | 14679m | 4.1m/s | -51.8°C | 1.5% | 132.12hPa | 2.8V | 00:00:00 | 00:00:00 | 00:00:00 | |
| AA1-15 | 2026-09-05 17:27:47 | 51.75034 | 15.39287 | 112° | 95km/h | 14642m | 6m/s | -51.5°C | 0.8% | 132.9hPa | 2.6V | 18:12:15 | 01:12:11 | 00:00:00 | |
| BIOWL1-15 | 2026-09-05 17:27:45 | 51.75052 | 15.39216 | 113° | 95km/h | 14632m | 6m/s | 0°C | 0% | 0hPa | 2.8V | 18:12:15 | 01:12:09 | 00:00:00 | |
| AA1-15 | 2026-09-05 17:27:35 | 51.75148 | 15.38874 | 115° | 99km/h | 14587m | 4.9m/s | -51°C | 0.6% | 134hPa | 2.8V | 18:12:15 | 01:11:59 | 00:00:00 | |
| BIOWL1-15 | 2026-09-05 17:27:34 | 51.75159 | 15.38838 | 115° | 100km/h | 14583m | 4.5m/s | 0°C | 0% | 0hPa | 2.8V | 18:12:15 | 01:11:58 | 00:00:00 | |
| AA1-15 | 2026-09-05 17:27:25 | 51.75250 | 15.38507 | 116° | 99km/h | 14539m | 2.9m/s | -51.2°C | 0.7% | 0hPa | 2.6V | 18:12:15 | 01:11:49 | 00:00:00 | |
| BIOWL1-15 | 2026-09-05 17:27:23 | 51.75327 | 15.38251 | 114° | 106km/h | 14505m | 4.2m/s | 0°C | 0% | 0hPa | 2.8V | 18:12:15 | 01:11:42 | 00:00:00 | |
| AA1-15 | 2026-09-05 17:27:14 | 51.75373 | 15.38090 | 115° | 108km/h | 14487m | 5.1m/s | -51.2°C | 0.6% | 0hPa | 2.7V | 18:12:15 | 01:11:38 | 00:00:00 | |
| DB0DAN | 2026-09-05 17:27:10 | 51.75420 | 15.37938 | 118° | 97km/h | 14468m | 5.4m/s | -51.4°C | 1.4% | 136.47hPa | 2.6V | 00:00:00 | 00:00:00 | 00:00:00 | |
| BIOWL1-15 | 2026-09-05 17:27:10 | 51.75420 | 15.37938 | 118° | 102km/h | 14468m | 5.4m/s | 0°C | 0% | 0hPa | 2.6V | 18:12:15 | 01:11:34 | 00:00:00 | |
| BIOWL1-15 | 2026-09-05 17:27:06 | 51.75536 | 15.37573 | 117° | 99km/h | 14423m | 4.7m/s | 0°C | 0% | 0hPa | 2.8V | 18:12:15 | 01:11:24 | 00:00:00 | |
| AA1-15 | 2026-09-05 17:27:04 | 51.75491 | 15.37720 | 116° | 100km/h | 14441m | 4.3m/s | -51.5°C | 0.7% | 0hPa | 2.6V | 18:12:15 | 01:11:28 | 00:00:00 | |
| SONDE2-11 | 2026-09-05 17:27:02 | 51.75525 | 15.37609 | 116° | 100km/h | 14428m | 4.2m/s | -51.4°C | 1.5% | 137.3hPa | 2.8V | 00:00:00 | 00:00:00 | 00:00:00 | |
| EDDB2-11 | 2026-09-05 17:27:01 | 51.75525 | 15.37609 | 116° | 100km/h | 14428m | 4.2m/s | -51.4°C | 1.5% | 137.3hPa | 2.8V | 00:00:00 | 00:00:00 | 00:00:00 | |
| SP3BTT-10 | 2026-09-05 17:26:59 | 51.75548 | 15.37537 | 119° | 111km/h | 14419m | 3.6m/s | -51.4°C | 4.0% | 137.4hPa | 2.8V | 00:00:00 | 00:00:00 | 00:00:00 | |
| DB0DAN | 2026-09-05 17:26:55 | 51.75597 | 15.37398 | 120° | 93km/h | 14401m | 4.5m/s | -51.6°C | 1.5% | 137.87hPa | 2.8V | 00:00:00 | 00:00:00 | 00:00:00 | |
| AA1-15 | 2026-09-05 17:26:51 | 51.75650 | 15.37259 | 122° | 102km/h | 14383m | 5.2m/s | 0°C | 0% | 0hPa | 2.8V | 18:12:15 | 01:11:15 | 00:00:00 | |
| SP3WXH-11 | 2026-09-05 17:26:46 | 51.75718 | 15.37078 | 118° | 102km/h | 14359m | 3.8m/s | -51.5°C | 1.5% | 138.8hPa | 2.8V | 00:00:00 | 00:00:00 | 00:00:00 | |
| AA1-15 | 2026-09-05 17:26:40 | 51.75793 | 15.36853 | 118° | 104km/h | 14334m | 3.6m/s | 0°C | 0% | 0hPa | 2.8V | 18:12:15 | 01:11:04 | 00:00:00 | |
| BIOWL1-15 | 2026-09-05 17:26:40 | 51.75843 | 15.36697 | 116° | 108km/h | 14313m | 5.9m/s | 0°C | 0% | 0hPa | 2.8V | 18:12:15 | 01:11:00 | 00:00:00 | |
| BIOWL1-15 | 2026-09-05 17:26:30 | 51.75961 | 15.36286 | 110° | 117km/h | 14264m | 3.9m/s | 0°C | 0% | 0hPa | 2.8V | 18:12:15 | 01:10:50 | 00:00:00 | |
| DAC517 | 2026-09-05 17:26:29 | 51.75916 | 15.36457 | 116° | 111km/h | 14284m | 4.7m/s | -51.8°C | 1.5% | 140.4hPa | 2.8V | 00:00:00 | 00:00:00 | 00:00:00 | |
| DB0DAN | 2026-09-05 17:26:25 | 51.75971 | 15.36242 | 111° | 111km/h | 14259m | 5.5m/s | -52.4°C | 1.5% | 140.91hPa | 2.8V | 00:00:00 | 00:00:00 | 00:00:00 | |
| BIOWL1-15 | 2026-09-05 17:26:12 | 51.76144 | 15.35560 | 112° | 106km/h | 14184m | 4.1m/s | 0°C | 0% | 0hPa | 2.8V | 18:12:15 | 01:10:33 | 00:00:00 | |
| DB0DAN | 2026-09-05 17:26:10 | 51.76134 | 15.35600 | 112° | 102km/h | 14189m | 4.4m/s | -52.1°C | 1.5% | 142.48hPa | 2.8V | 00:00:00 | 00:00:00 | 00:00:00 | |
| BIOWL1-15 | 2026-09-05 17:25:59 | 51.76259 | 15.35160 | 115° | 111km/h | 14138m | 4.5m/s | 0°C | 0% | 0hPa | 2.8V | 18:12:15 | 01:10:23 | 00:00:00 | |
| EDDB2-12 | 2026-09-05 17:25:52 | 51.76342 | 15.34874 | 116° | 106km/h | 14105m | 4.4m/s | -51.5°C | 1.5% | 144.3hPa | 2.6V | 00:00:00 | 00:00:00 | 00:00:00 | |
| BIOWL1-15 | 2026-09-05 17:25:43 | 51.76448 | 15.34518 | 115° | 113km/h | 14063m | 3.8m/s | 0°C | 0% | 0hPa | 2.6V | 18:12:15 | 01:10:07 | 00:00:00 | |
| BIOWL1-15 | 2026-09-05 17:25:33 | 51.76577 | 15.34128 | 117° | 110km/h | 14016m | 4.6m/s | 0°C | 0% | 0hPa | 2.8V | 18:12:15 | 01:09:57 | 00:00:00 | |
| SONDE2-11 | 2026-09-05 17:25:29 | 51.76642 | 15.33936 | 121° | 106km/h | 13990m | 6.7m/s | -51.2°C | 1.5% | 146.9hPa | 2.8V | 00:00:00 | 00:00:00 | 00:00:00 | |
| DAC517 | 2026-09-05 17:25:28 | 51.76657 | 15.33899 | 123° | 108km/h | 13984m | 5.4m/s | -51.2°C | 1.6% | 147.0hPa | 2.8V | 00:00:00 | 00:00:00 | 00:00:00 | |
| 13BRC | 2026-09-05 17:25:21 | 51.76725 | 15.33713 | 120° | 104km/h | 13961m | 4.8m/s | -51.1°C | 1.5% | 147.6hPa | 2.8V | 00:00:00 | 00:00:00 | 00:00:00 | |
| BIOWL1-15 | 2026-09-05 17:25:04 | 51.76979 | 15.33046 | 118° | 113km/h | 13873m | 5.4m/s | 0°C | 0% | 0hPa | 2.8V | 18:12:15 | 01:09:28 | 00:00:00 | |
| BIOWL1-15 | 2026-09-05 17:24:50 | 51.77167 | 15.32470 | 118° | 119km/h | 13802m | 6.4m/s | 0°C | 0% | 0hPa | 2.7V | 18:12:15 | 01:09:14 | 00:00:00 | |
| EDDB2-12 | 2026-09-05 17:24:50 | 51.77181 | 15.32428 | 118° | 117km/h | 13796m | 5.3m/s | -51.0°C | 1.6% | 151.3hPa | 2.8V | 00:00:00 | 00:00:00 | 00:00:00 | |
| BIOWL1-15 | 2026-09-05 17:24:44 | 51.77301 | 15.32036 | 114° | 119km/h | 13752m | 4.2m/s | 0°C | 0% | 0hPa | 2.8V | 18:12:15 | 01:09:04 | 00:00:00 | |
| BIOWL1-15 | 2026-09-05 17:24:29 | 51.77431 | 15.31540 | 113° | 117km/h | 13696m | 5m/s | 0°C | 0% | 0hPa | 2.8V | 18:12:15 | 01:08:53 | 00:00:00 | |
| BIOWL1-15 | 2026-09-05 17:24:22 | 51.77555 | 15.31042 | 111° | 119km/h | 13642m | 6m/s | 0°C | 0% | 0hPa | 2.6V | 18:12:15 | 01:08:42 | 00:00:00 | |
| BIOWL1-15 | 2026-09-05 17:24:07 | 51.77686 | 15.30553 | 112° | 120km/h | 13590m | 3.8m/s | 0°C | 0% | 0hPa | 2.7V | 18:12:15 | 01:08:31 | 00:00:00 | |
| S3001 | 2026-09-05 17:24:05 | 51.77710 | 15.30463 | 113° | 117km/h | 13580m | 4.0m/s | -50.8°C | 1.6% | 156.5hPa | 2.7V | 00:00:00 | 00:00:00 | 00:00:00 | |
| AA1-15 | 2026-09-05 17:23:46 | 51.77951 | 15.29623 | 116° | 122km/h | 13486m | 5.3m/s | 0°C | 0% | 0hPa | 2.7V | 18:12:15 | 01:08:10 | 00:00:00 | |
| BIOWL1-15 | 2026-09-05 17:23:35 | 51.78101 | 15.29131 | 118° | 122km/h | 13432m | 5.6m/s | 0°C | 0% | 0hPa | 2.7V | 18:12:15 | 01:07:59 | 00:00:00 | |
| AA1-15 | 2026-09-05 17:23:34 | 51.78116 | 15.29087 | 119° | 124km/h | 13426m | 5.3m/s | 0°C | 0% | 0hPa | 2.7V | 18:12:15 | 01:07:58 | 00:00:00 | |
| AA1-15 | 2026-09-05 17:23:23 | 51.78288 | 15.28602 | 118° | 126km/h | 13369m | 5.4m/s | 0°C | 0% | 0hPa | 2.7V | 18:12:15 | 01:07:47 | 00:00:00 | |
| DAC517 | 2026-09-05 17:23:21 | 51.78302 | 15.28556 | 118° | 128km/h | 13364m | 4.8m/s | -51.7°C | 1.8% | 161.8hPa | 2.7V | 00:00:00 | 00:00:00 | 00:00:00 | |
| AA1-15 | 2026-09-05 17:23:01 | 51.78636 | 15.27598 | 117° | 126km/h | 13256m | 5.6m/s | 0°C | 0% | 0hPa | 2.7V | 18:12:15 | 01:07:25 | 00:00:00 | |
| AA1-15 | 2026-09-05 17:22:51 | 51.78775 | 15.27151 | 116° | 120km/h | 13204m | 5.7m/s | 0°C | 0% | 0hPa | 2.7V | 18:12:15 | 01:07:15 | 00:00:00 | |
| EDDB2-12 | 2026-09-05 17:22:46 | 51.78859 | 15.26881 | 116° | 124km/h | 13174m | 3.9m/s | -51.8°C | 1.9% | 166.5hPa | 2.7V | 00:00:00 | 00:00:00 | 00:00:00 | |
| AA1-15 | 2026-09-05 17:22:40 | 51.78933 | 15.26648 | 116° | 130km/h | 13148m | 4.4m/s | 0°C | 0% | 0hPa | 2.7V | 18:12:15 | 01:07:04 | 00:00:00 | |
| DAC517 | 2026-09-05 17:22:37 | 51.78963 | 15.26552 | 118° | 133km/h | 13138m | 5.0m/s | -51.7°C | 1.9% | 167.5hPa | 2.7V | 00:00:00 | 00:00:00 | 00:00:00 | |
| 13BRC | 2026-09-05 17:22:36 | 51.78978 | 15.26503 | 118° | 135km/h | 13133m | 5.4m/s | -51.7°C | 1.9% | 167.6hPa | 2.7V | 00:00:00 | 00:00:00 | 00:00:00 | |
| S3001 | 2026-09-05 17:22:32 | 51.79058 | 15.26257 | 118° | 137km/h | 13109m | 5.2m/s | -51.7°C | 1.9% | 168.2hPa | 2.7V | 00:00:00 | 00:00:00 | 00:00:00 | |
| SP3BTT-10 | 2026-09-05 17:22:30 | 51.79090 | 15.26158 | 118° | 131km/h | 13099m | 4.8m/s | -51.6°C | 4.5% | 168.4hPa | 2.7V | 00:00:00 | 00:00:00 | 00:00:00 | |
| DB0NH | 2026-09-05 17:22:25 | 51.79165 | 15.25912 | 117° | 130km/h | 13076m | 5.4m/s | -51.8°C | 4.7% | 169.0hPa | 2.7V | 00:00:00 | 01:06:49 | 00:00:00 | |
| SONDE2-11 | 2026-09-05 17:22:22 | 51.79211 | 15.25769 | 117° | 130km/h | 13061m | 6.0m/s | -52.0°C | 2.2% | 169.4hPa | 2.7V | 00:00:00 | 00:00:00 | 00:00:00 | |
| DL2RXE-15 | 2026-09-05 17:22:21 | 51.79211 | 15.25769 | 118° | 131km/h | 13061m | 6.0m/s | -52.0°C | 2.2% | 169.4hPa | 2.7V | 00:00:00 | 00:00:00 | 00:00:00 | |
| EDDB2-12 | 2026-09-05 17:22:15 | 51.79329 | 15.25404 | 115° | 124km/h | 13020m | 5.2m/s | -52.1°C | 2.3% | 170.5hPa | 2.7V | 00:00:00 | 00:00:00 | 00:00:00 | |
| SP3WXH-11 | 2026-09-05 17:22:07 | 51.79448 | 15.25024 | 118° | 133km/h | 12982m | 6.4m/s | -52.2°C | 2.2% | 171.6hPa | 2.7V | 00:00:00 | 00:00:00 | 00:00:00 | |
| S3001 | 2026-09-05 17:22:01 | 51.79528 | 15.24787 | 117° | 131km/h | 12957m | 4.1m/s | -52.2°C | 2.2% | 172.2hPa | 2.7V | 00:00:00 | 00:00:00 | 00:00:00 | |
| EDDB2-11 | 2026-09-05 17:21:51 | 51.79706 | 15.24267 | 122° | 130km/h | 12904m | 5.2m/s | -52.0°C | 2.1% | 173.6hPa | 2.7V | 00:00:00 | 00:00:00 | 00:00:00 | |
| OE3JTB-15 | 2026-09-05 17:21:45 | 51.79792 | 15.24038 | 121° | 137km/h | 12881m | 4.8m/s | -51.7°C | 4.6% | 174.2hPa | 2.7V | 00:00:00 | 00:00:00 | 08:30:00 | |
| EDDB2-12 | 2026-09-05 17:21:43 | 51.79826 | 15.23945 | 120° | 131km/h | 12871m | 5.0m/s | -51.7°C | 2.1% | 174.5hPa | 2.7V | 00:00:00 | 00:00:00 | 00:00:00 | |
| SP3WXH-11 | 2026-09-05 17:21:36 | 51.79966 | 15.23563 | 120° | 137km/h | 12833m | 3.9m/s | -51.5°C | 2.1% | 175.6hPa | 2.7V | 00:00:00 | 00:00:00 | 00:00:00 | |
| 13BRC | 2026-09-05 17:21:34 | 51.79966 | 15.23563 | 122° | 137km/h | 12833m | 3.9m/s | 0°C | 0% | 0hPa | 2.7V | 00:00:00 | 00:00:00 | 00:00:00 | |
| DAC517 | 2026-09-05 17:21:33 | 51.79984 | 15.23515 | 122° | 139km/h | 12829m | 4.7m/s | -51.5°C | 2.1% | 175.7hPa | 2.7V | 00:00:00 | 00:00:00 | 00:00:00 | |
| S3001 | 2026-09-05 17:21:30 | 51.80054 | 15.23321 | 120° | 137km/h | 12809m | 4.3m/s | -51.5°C | 2.0% | 176.2hPa | 2.7V | 00:00:00 | 00:00:00 | 00:00:00 | |
| SP3BTT-10 | 2026-09-05 17:21:28 | 51.80089 | 15.23224 | 121° | 146km/h | 12800m | 4.2m/s | -51.3°C | 4.5% | 176.4hPa | 2.7V | 00:00:00 | 00:00:00 | 00:00:00 | |
| DL2RXE-15 | 2026-09-05 17:21:27 | 51.80089 | 15.23224 | 122° | 139km/h | 12800m | 4.3m/s | -51.4°C | 2.1% | 176.5hPa | 2.7V | 00:00:00 | 00:00:00 | 00:00:00 | |
| DB0NH | 2026-09-05 17:21:25 | 51.80143 | 15.23080 | 122° | 144km/h | 12785m | 4.8m/s | -51.3°C | 4.5% | 176.8hPa | 2.7V | 00:00:00 | 01:05:49 | 00:00:00 | |
| EDDB2-11 | 2026-09-05 17:21:20 | 51.80256 | 15.22794 | 122° | 139km/h | 12756m | 5.5m/s | -51.4°C | 2.1% | 177.6hPa | 2.8V | 00:00:00 | 00:00:00 | 00:00:00 | |
| OE3JTB-15 | 2026-09-05 17:21:16 | 51.80312 | 15.22649 | 122° | 146km/h | 12742m | 4.6m/s | -51.4°C | 4.6% | 178.0hPa | 2.8V | 00:00:00 | 00:00:00 | 00:00:00 | |
| SONCRA | 2026-09-05 17:21:13 | 51.80369 | 15.22499 | 120° | 146km/h | 12728m | 5.0m/s | -51.4°C | 2.1% | 178.4hPa | 2.8V | 00:00:00 | 00:00:00 | 00:00:00 | |
| DAC517 | 2026-09-05 17:21:12 | 51.80368 | 15.22499 | 121° | 146km/h | 12729m | 5.0m/s | -51.4°C | 2.1% | 178.4hPa | 2.8V | 00:00:00 | 00:00:00 | 00:00:00 | |
| DB0DAN | 2026-09-05 17:21:10 | 51.80425 | 15.22343 | 121° | 141km/h | 12715m | 3.5m/s | -51.4°C | 2.2% | 178.8hPa | 2.8V | 00:00:00 | 00:00:00 | 00:00:00 | |
| DL2RXE-15 | 2026-09-05 17:21:06 | 51.80484 | 15.22190 | 124° | 146km/h | 12701m | 5.4m/s | -51.4°C | 2.2% | 179.2hPa | 2.7V | 00:00:00 | 00:00:00 | 00:00:00 | |
| SP3WXH-11 | 2026-09-05 17:21:05 | 51.80544 | 15.22040 | 121° | 146km/h | 12688m | 4.1m/s | -51.4°C | 2.2% | 179.5hPa | 2.7V | 00:00:00 | 00:00:00 | 00:00:00 | |
| S3001 | 2026-09-05 17:20:59 | 51.80772 | 15.21427 | 119° | 146km/h | 12633m | 5.7m/s | -51.4°C | 2.3% | 181.1hPa | 2.7V | 00:00:00 | 00:00:00 | 00:00:00 | |
| DB0DAN | 2026-09-05 17:20:55 | 51.80717 | 15.21582 | 120° | 139km/h | 12647m | 4.1m/s | -51.5°C | 2.3% | 180.71hPa | 2.7V | 00:00:00 | 00:00:00 | 00:00:00 | |
| EDDB2-11 | 2026-09-05 17:20:49 | 51.80845 | 15.21218 | 120° | 148km/h | 12615m | 4.7m/s | -51.3°C | 2.3% | 181.6hPa | 2.7V | 00:00:00 | 00:00:00 | 00:00:00 | |
| OE3JTB-15 | 2026-09-05 17:20:47 | 51.80865 | 15.21166 | 122° | 148km/h | 12610m | 5.6m/s | -51.2°C | 4.8% | 181.7hPa | 2.7V | 00:00:00 | 01:05:11 | 00:00:00 | |
| SP3BTT-10 | 2026-09-05 17:20:43 | 51.80945 | 15.20961 | 124° | 150km/h | 12591m | 3.7m/s | -51.1°C | 4.9% | 182.3hPa | 2.7V | 00:00:00 | 00:00:00 | 00:00:00 | |
| DB0DAN | 2026-09-05 17:20:40 | 51.81007 | 15.20811 | 124° | 141km/h | 12577m | 4.6m/s | -51.2°C | 2.4% | 182.65hPa | 2.7V | 00:00:00 | 00:00:00 | 00:00:00 | |
| SP3WXH-11 | 2026-09-05 17:20:34 | 51.81149 | 15.20457 | 122° | 146km/h | 12547m | 5.5m/s | -51.3°C | 2.4% | 183.5hPa | 2.8V | 00:00:00 | 00:00:00 | 00:00:00 | |
| DAC517 | 2026-09-05 17:20:31 | 51.81188 | 15.20357 | 123° | 146km/h | 12538m | 5.4m/s | -51.4°C | 2.5% | 183.8hPa | 2.8V | 00:00:00 | 00:00:00 | 00:00:00 | |
| DL2RXE-15 | 2026-09-05 17:20:28 | 51.81228 | 15.20256 | 123° | 144km/h | 12527m | 6.2m/s | -51.5°C | 2.6% | 184.0hPa | 2.8V | 00:00:00 | 00:00:00 | 00:00:00 | |
| DB0DAN | 2026-09-05 17:20:25 | 51.81308 | 15.20056 | 124° | 141km/h | 12509m | 4.7m/s | -51.7°C | 2.7% | 184.54hPa | 2.8V | 00:00:00 | 00:00:00 | 00:00:00 | |
| DB0NH | 2026-09-05 17:20:25 | 51.81308 | 15.20056 | 124° | 157km/h | 12509m | 4.7m/s | -51.6°C | 5.2% | 184.5hPa | 2.7V | 00:00:00 | 01:04:49 | 00:00:00 | |
| EDDB2-11 | 2026-09-05 17:20:18 | 51.81479 | 15.19651 | 123° | 151km/h | 12473m | 4.0m/s | -52.1°C | 3.0% | 185.5hPa | 2.7V | 00:00:00 | 00:00:00 | 00:00:00 | |
| SP3BTT-10 | 2026-09-05 17:20:13 | 51.81562 | 15.19441 | 122° | 159km/h | 12455m | 3.9m/s | -52.1°C | 5.8% | 186.1hPa | 2.7V | 00:00:00 | 00:00:00 | 00:00:00 | |
| DB0DAN | 2026-09-05 17:20:10 | 51.81625 | 15.19278 | 122° | 151km/h | 12440m | 6.1m/s | -52.3°C | 3.1% | 186.51hPa | 2.8V | 00:00:00 | 00:00:00 | 00:00:00 | |
| DAC517 | 2026-09-05 17:20:09 | 51.81625 | 15.19278 | 123° | 159km/h | 12440m | 6.1m/s | -52.2°C | 3.1% | 186.5hPa | 2.7V | 00:00:00 | 00:00:00 | 00:00:00 | |
| SP3WXH-11 | 2026-09-05 17:20:02 | 51.81794 | 15.18843 | 122° | 157km/h | 12404m | 3.0m/s | -52.3°C | 3.3% | 187.6hPa | 2.7V | 00:00:00 | 00:00:00 | 00:00:00 | |
| S3001 | 2026-09-05 17:19:57 | 51.81924 | 15.18513 | 123° | 161km/h | 12378m | 5.6m/s | -52.3°C | 3.5% | 188.3hPa | 2.7V | 00:00:00 | 00:00:00 | 00:00:00 | |
| DB0DAN | 2026-09-05 17:19:55 | 51.81947 | 15.18458 | 124° | 155km/h | 12373m | 4.2m/s | -52.3°C | 3.5% | 188.51hPa | 2.7V | 00:00:00 | 00:00:00 | 00:00:00 | |
| AA1-15 | 2026-09-05 17:19:54 | 51.81971 | 15.18403 | 125° | 164km/h | 12369m | 5.2m/s | 0°C | 0% | 0hPa | 2.7V | 18:12:15 | 01:04:18 | 00:00:00 | |
| SONDE2-11 | 2026-09-05 17:19:47 | 51.82132 | 15.18022 | 124° | 159km/h | 12334m | 6.2m/s | -52.6°C | 4.0% | 189.6hPa | 2.7V | 00:00:00 | 00:00:00 | 00:00:00 | |
| EDDB2-11 | 2026-09-05 17:19:46 | 51.82155 | 15.17969 | 125° | 159km/h | 12329m | 3.8m/s | -52.6°C | 4.1% | 189.8hPa | 2.7V | 00:00:00 | 00:00:00 | 00:00:00 | |
| SP3BTT-10 | 2026-09-05 17:19:43 | 51.82227 | 15.17810 | 127° | 181km/h | 12315m | 4.1m/s | -52.7°C | 7.4% | 190.2hPa | 2.7V | 00:00:00 | 00:00:00 | 00:00:00 | |
| DB0DAN | 2026-09-05 17:19:40 | 51.82301 | 15.17653 | 128° | 155km/h | 12301m | 5.4m/s | -52.9°C | 4.7% | 190.6hPa | 2.7V | 00:00:00 | 00:00:00 | 00:00:00 | |
| SONCRA | 2026-09-05 17:19:40 | 51.82301 | 15.17653 | 127° | 161km/h | 12301m | 5.4m/s | -52.9°C | 4.7% | 190.6hPa | 2.8V | 00:00:00 | 00:00:00 | 00:00:00 | |
| EDDB2-12 | 2026-09-05 17:19:39 | 51.82326 | 15.17600 | 126° | 162km/h | 12296m | 4.5m/s | -52.9°C | 4.7% | 190.8hPa | 2.8V | 00:00:00 | 00:00:00 | 00:00:00 | |
| SP3WXH-11 | 2026-09-05 17:19:31 | 51.82515 | 15.17163 | 124° | 161km/h | 12259m | 5.4m/s | -53.0°C | 5.1% | 191.8hPa | 2.8V | 00:00:00 | 00:00:00 | 00:00:00 | |
| DAC517 | 2026-09-05 17:19:28 | 51.82588 | 15.17002 | 129° | 166km/h | 12242m | 5.9m/s | -52.9°C | 5.1% | 192.3hPa | 2.8V | 00:00:00 | 00:00:00 | 00:00:00 | |
| DL2RXE-15 | 2026-09-05 17:19:27 | 51.82588 | 15.17002 | 129° | 166km/h | 12242m | 5.9m/s | -52.9°C | 5.1% | 192.3hPa | 2.8V | 00:00:00 | 00:00:00 | 00:00:00 | |
| DB0DAN | 2026-09-05 17:19:25 | 51.82667 | 15.16839 | 126° | 164km/h | 12220m | 10.8m/s | -52.7°C | 4.9% | 192.96hPa | 2.8V | 00:00:00 | 00:00:00 | 00:00:00 | |
| DB0NH | 2026-09-05 17:19:25 | 51.82667 | 15.16839 | 127° | 183km/h | 12220m | 10.7m/s | -52.6°C | 8.0% | 192.9hPa | 2.7V | 00:00:00 | 01:03:49 | 00:00:00 | |
| OE3JTB-15 | 2026-09-05 17:19:20 | 51.82803 | 15.16548 | 131° | 184km/h | 12178m | 8.1m/s | -52.3°C | 8.4% | 194.2hPa | 2.7V | 00:00:00 | 01:03:44 | 00:00:00 | |
| SONDE2-11 | 2026-09-05 17:19:16 | 51.82926 | 15.16321 | 131° | 184km/h | 12150m | 4.3m/s | -52.2°C | 5.5% | 195.1hPa | 2.7V | 00:00:00 | 00:00:00 | 00:00:00 | |
| EDDB2-11 | 2026-09-05 17:19:15 | 51.82957 | 15.16264 | 130° | 186km/h | 12144m | 7.0m/s | -52.2°C | 5.5% | 195.2hPa | 2.7V | 00:00:00 | 00:00:00 | 00:00:00 | |
| SONCRA | 2026-09-05 17:19:09 | 51.83157 | 15.15872 | 135° | 173km/h | 12095m | 8.5m/s | -52.0°C | 5.4% | 196.7hPa | 2.7V | 00:00:00 | 00:00:00 | 00:00:00 | |
| EDDB2-12 | 2026-09-05 17:19:08 | 51.83157 | 15.15872 | 135° | 173km/h | 12095m | 8.5m/s | -52.0°C | 5.4% | 196.7hPa | 2.7V | 00:00:00 | 00:00:00 | 00:00:00 | |
| DAC517 | 2026-09-05 17:19:07 | 51.83157 | 15.15872 | 136° | 173km/h | 12095m | 8.5m/s | -52.0°C | 5.4% | 196.7hPa | 2.7V | 00:00:00 | 00:00:00 | 00:00:00 | |
| SP3WXH-11 | 2026-09-05 17:19:00 | 51.83414 | 15.15428 | 130° | 186km/h | 12041m | 8.5m/s | -51.8°C | 6.0% | 198.3hPa | 2.7V | 00:00:00 | 00:00:00 | 00:00:00 | |
| S3001 | 2026-09-05 17:18:54 | 51.83597 | 15.15078 | 131° | 188km/h | 11994m | 7.4m/s | -51.5°C | 6.1% | 199.8hPa | 2.7V | 00:00:00 | 00:00:00 | 00:00:00 | |
| SONDE2-11 | 2026-09-05 17:18:45 | 51.83904 | 15.14523 | 134° | 203km/h | 11917m | 7.8m/s | -51.1°C | 6.3% | 202.2hPa | 2.7V | 00:00:00 | 00:00:00 | 00:00:00 | |
| EDDB2-11 | 2026-09-05 17:18:44 | 51.83940 | 15.14463 | 133° | 206km/h | 11909m | 7.5m/s | -51.0°C | 6.3% | 202.5hPa | 2.7V | 00:00:00 | 00:00:00 | 00:00:00 | |
| SONCRA | 2026-09-05 17:18:38 | 51.84178 | 15.14016 | 130° | 217km/h | 11855m | 8.6m/s | -50.7°C | 6.4% | 204.2hPa | 2.7V | 00:00:00 | 00:00:00 | 00:00:00 | |
| EDDB2-12 | 2026-09-05 17:18:37 | 51.84178 | 15.14016 | 130° | 217km/h | 11855m | 8.6m/s | -50.7°C | 6.4% | 204.2hPa | 2.7V | 00:00:00 | 00:00:00 | 00:00:00 | |
| SP3BTT-10 | 2026-09-05 17:18:29 | 51.84467 | 15.13472 | 133° | 235km/h | 11801m | 8.0m/s | -50.7°C | 10.7% | 205.8hPa | 2.7V | 00:00:00 | 00:00:00 | 00:00:00 | |
| DB0DAN | 2026-09-05 17:18:25 | 51.84615 | 15.13207 | 131° | 208km/h | 11764m | 9.8m/s | -50.8°C | 7.4% | 206.95hPa | 2.8V | 00:00:00 | 00:00:00 | 00:00:00 | |
| DB0NH | 2026-09-05 17:18:25 | 51.84614 | 15.13207 | 131° | 235km/h | 11764m | 9.7m/s | -50.7°C | 10.7% | 206.9hPa | 2.7V | 00:00:00 | 01:02:49 | 00:00:00 | |
| S3001 | 2026-09-05 17:18:23 | 51.84686 | 15.13069 | 128° | 223km/h | 11743m | 10.4m/s | -50.8°C | 7.5% | 207.7hPa | 2.8V | 00:00:00 | 00:00:00 | 00:00:00 | |
| OE3JTB-15 | 2026-09-05 17:18:21 | 51.84757 | 15.12924 | 129° | 237km/h | 11723m | 10.8m/s | -50.8°C | 11.0% | 208.3hPa | 2.8V | 00:00:00 | 00:00:00 | 00:00:00 | |
| SONDE2-11 | 2026-09-05 17:18:14 | 51.85059 | 15.12327 | 128° | 235km/h | 11660m | 5.5m/s | -50.6°C | 7.8% | 210.3hPa | 2.8V | 00:00:00 | 00:00:00 | 00:00:00 | |
| EDDB2-11 | 2026-09-05 17:18:13 | 51.85059 | 15.12327 | 128° | 235km/h | 11660m | 5.5m/s | -50.6°C | 7.8% | 210.3hPa | 2.8V | 00:00:00 | 00:00:00 | 00:00:00 | |
| DB0DAN | 2026-09-05 17:18:10 | 51.85168 | 15.12098 | 127° | 224km/h | 11643m | 4.6m/s | -50.5°C | 8% | 210.92hPa | 2.8V | 00:00:00 | 00:00:00 | 00:00:00 | |
| EDDB2-12 | 2026-09-05 17:18:06 | 51.85315 | 15.11789 | 128° | 239km/h | 11622m | 5.3m/s | -50.4°C | 7.9% | 211.6hPa | 2.7V | 00:00:00 | 00:00:00 | 00:00:00 | |
| DAC517 | 2026-09-05 17:18:05 | 51.85315 | 15.11789 | 130° | 241km/h | 11622m | 5.3m/s | -50.4°C | 7.9% | 211.6hPa | 2.7V | 00:00:00 | 00:00:00 | 00:00:00 | |
| SP3WXH-11 | 2026-09-05 17:17:58 | 51.85617 | 15.11179 | 128° | 237km/h | 11581m | 5.4m/s | -50.1°C | 7.9% | 212.9hPa | 2.7V | 00:00:00 | 00:00:00 | 00:00:00 | |
| SP3BTT-10 | 2026-09-05 17:17:57 | 51.85654 | 15.11102 | 128° | 237km/h | 11576m | 5.3m/s | -50.0°C | 11.1% | 213.0hPa | 2.7V | 00:00:00 | 00:00:00 | 00:00:00 | |
| OE3JTB-15 | 2026-09-05 17:17:52 | 51.85838 | 15.10710 | 127° | 237km/h | 11548m | 5.7m/s | 0°C | 0% | 0hPa | 2.7V | 00:00:00 | 01:02:16 | 00:00:00 | |
| DAC517 | 2026-09-05 17:17:44 | 51.86093 | 15.10168 | 128° | 239km/h | 11510m | 4.4m/s | -49.8°C | 8.1% | 215.3hPa | 2.7V | 00:00:00 | 00:00:00 | 00:00:00 | |
| SONDE2-11 | 2026-09-05 17:17:43 | 51.86164 | 15.10011 | 124° | 235km/h | 11500m | 5.3m/s | -49.7°C | 8.1% | 215.6hPa | 2.7V | 00:00:00 | 00:00:00 | 00:00:00 | |
| EDDB2-11 | 2026-09-05 17:17:42 | 51.86198 | 15.09931 | 124° | 235km/h | 11494m | 6.8m/s | -49.7°C | 8.1% | 215.8hPa | 2.7V | 00:00:00 | 00:00:00 | 00:00:00 | |
| DL2RXE-15 | 2026-09-05 17:17:41 | 51.86198 | 15.09931 | 126° | 237km/h | 11494m | 6.8m/s | -49.7°C | 8.1% | 215.8hPa | 2.7V | 00:00:00 | 00:00:00 | 00:00:00 | |
| SONCRA | 2026-09-05 17:17:36 | 51.86438 | 15.09375 | 125° | 235km/h | 11452m | 5.1m/s | -49.5°C | 8.2% | 217.1hPa | 2.7V | 00:00:00 | 00:00:00 | 00:00:00 | |
| EDDB2-12 | 2026-09-05 17:17:35 | 51.86438 | 15.09375 | 125° | 235km/h | 11452m | 5.1m/s | -49.5°C | 8.2% | 217.1hPa | 2.7V | 00:00:00 | 00:00:00 | 00:00:00 | |
| SP3BTT-10 | 2026-09-05 17:17:27 | 51.86712 | 15.08742 | 125° | 230km/h | 11402m | 4.1m/s | -49.3°C | 11.5% | 218.8hPa | 2.7V | 00:00:00 | 00:00:00 | 00:00:00 | |
| DAC517 | 2026-09-05 17:17:24 | 51.86778 | 15.08581 | 124° | 234km/h | 11390m | 5.7m/s | -49.3°C | 8.4% | 219.2hPa | 2.7V | 00:00:00 | 00:00:00 | 00:00:00 | |
| OE3JTB-15 | 2026-09-05 17:17:23 | 51.86842 | 15.08423 | 123° | 232km/h | 11377m | 7.8m/s | 0°C | 0% | 0hPa | 2.7V | 00:00:00 | 00:00:00 | 00:00:00 | |
| DL2RXE-15 | 2026-09-05 17:17:21 | 51.86873 | 15.08343 | 123° | 230km/h | 11371m | 4.7m/s | -49.2°C | 8.4% | 219.8hPa | 2.7V | 00:00:00 | 00:00:00 | 00:00:00 | |
| DB0NH | 2026-09-05 17:17:20 | 51.86935 | 15.08184 | 123° | 232km/h | 11360m | 5.7m/s | -49.0°C | 11.5% | 220.2hPa | 2.7V | 00:00:00 | 01:01:44 | 00:00:00 | |
| DB0DAN | 2026-09-05 17:17:10 | 51.87258 | 15.07380 | 122° | 223km/h | 11304m | 5.8m/s | -48.9°C | 8.4% | 222.03hPa | 2.7V | 00:00:00 | 00:00:00 | 00:00:00 | |
| AA1-15 | 2026-09-05 17:17:10 | 51.87258 | 15.07380 | 122° | 234km/h | 11304m | 5.8m/s | 0°C | 0% | 0hPa | 2.7V | 18:12:15 | 01:01:34 | 00:00:00 | |
| EDDB2-12 | 2026-09-05 17:17:04 | 51.87449 | 15.06902 | 122° | 230km/h | 11269m | 6.4m/s | -48.9°C | 8.5% | 223.2hPa | 2.8V | 00:00:00 | 00:00:00 | 00:00:00 | |
| DAC517 | 2026-09-05 17:17:03 | 51.87449 | 15.06901 | 124° | 232km/h | 11269m | 6.4m/s | -48.9°C | 8.5% | 223.2hPa | 2.8V | 00:00:00 | 00:00:00 | 00:00:00 | |
| SP3WXH-11 | 2026-09-05 17:16:56 | 51.87694 | 15.06260 | 121° | 232km/h | 11223m | 4.8m/s | -49.3°C | 9.4% | 224.7hPa | 2.8V | 00:00:00 | 00:00:00 | 00:00:00 | |
| DB0DAN | 2026-09-05 17:16:55 | 51.87724 | 15.06179 | 121° | 219km/h | 11218m | 5.9m/s | -49.3°C | 9.4% | 224.94hPa | 2.8V | 00:00:00 | 00:00:00 | 00:00:00 | |
| AA1-15 | 2026-09-05 17:16:55 | 51.87724 | 15.06179 | 121° | 230km/h | 11218m | 5.9m/s | 0°C | 0% | 0hPa | 2.8V | 18:12:15 | 01:01:19 | 00:00:00 | |
| DB0NH | 2026-09-05 17:16:50 | 51.87872 | 15.05782 | 120° | 219km/h | 11192m | 5.0m/s | -49.4°C | 13.3% | 225.8hPa | 2.7V | 00:00:00 | 01:01:14 | 00:00:00 | |
| DAC517 | 2026-09-05 17:16:43 | 51.88045 | 15.05303 | 121° | 223km/h | 11158m | 6.2m/s | -49.7°C | 10.0% | 227.0hPa | 2.7V | 00:00:00 | 00:00:00 | 00:00:00 | |
| DB0DAN | 2026-09-05 17:16:40 | 51.88157 | 15.04994 | 120° | 208km/h | 11138m | 6.2m/s | -49.5°C | 10% | 227.71hPa | 2.7V | 00:00:00 | 00:00:00 | 00:00:00 | |
| DL2RXE-15 | 2026-09-05 17:16:37 | 51.88213 | 15.04842 | 122° | 215km/h | 11127m | 6.0m/s | -49.4°C | 10.0% | 228.1hPa | 2.8V | 00:00:00 | 00:00:00 | 00:00:00 | |
| EDDB2-12 | 2026-09-05 17:16:33 | 51.88355 | 15.04457 | 121° | 219km/h | 11102m | 4.6m/s | -49.3°C | 10.1% | 229.0hPa | 2.8V | 00:00:00 | 00:00:00 | 00:00:00 | |
| DB0DAN | 2026-09-05 17:16:25 | 51.88589 | 15.03859 | 122° | 201km/h | 11060m | 4m/s | -48.9°C | 9.5% | 230.45hPa | 2.8V | 00:00:00 | 00:00:00 | 00:00:00 | |
| DAC517 | 2026-09-05 17:16:22 | 51.88646 | 15.03713 | 123° | 212km/h | 11050m | 6.6m/s | -48.8°C | 9.4% | 230.8hPa | 2.8V | 00:00:00 | 00:00:00 | 00:00:00 | |
| DB0NH | 2026-09-05 17:16:20 | 51.88730 | 15.03488 | 121° | 212km/h | 11034m | 4.8m/s | -48.6°C | 12.7% | 231.4hPa | 2.8V | 00:00:00 | 01:00:44 | 00:00:00 | |
| S3001 | 2026-09-05 17:16:19 | 51.88758 | 15.03413 | 120° | 214km/h | 11028m | 6.0m/s | -48.6°C | 9.4% | 231.6hPa | 2.8V | 00:00:00 | 00:00:00 | 00:00:00 | |
| DB0DAN | 2026-09-05 17:16:10 | 51.89003 | 15.02724 | 121° | 208km/h | 10983m | 5.3m/s | -48.3°C | 9.5% | 233.14hPa | 2.8V | 00:00:00 | 00:00:00 | 00:00:00 | |
| SONDE2-11 | 2026-09-05 17:16:10 | 51.89031 | 15.02648 | 120° | 217km/h | 10978m | 4.2m/s | -48.3°C | 9.6% | 233.4hPa | 2.8V | 00:00:00 | 00:00:00 | 00:00:00 | |
| EDDB2-11 | 2026-09-05 17:16:09 | 51.89031 | 15.02648 | 120° | 217km/h | 10978m | 4.2m/s | -48.3°C | 9.6% | 233.4hPa | 2.8V | 00:00:00 | 00:00:00 | 00:00:00 | |
| EDDB2-12 | 2026-09-05 17:16:02 | 51.89225 | 15.02118 | 121° | 203km/h | 10941m | 4.1m/s | -48.2°C | 10.1% | 234.7hPa | 2.8V | 00:00:00 | 00:00:00 | 00:00:00 | |
| DAC517 | 2026-09-05 17:16:01 | 51.89225 | 15.02118 | 122° | 203km/h | 10941m | 4.1m/s | -48.2°C | 10.1% | 234.6hPa | 2.8V | 00:00:00 | 00:00:00 | 00:00:00 | |
| DL2RXE-15 | 2026-09-05 17:15:57 | 51.89334 | 15.01832 | 122° | 210km/h | 10917m | 8.9m/s | -48.5°C | 10.4% | 235.4hPa | 2.8V | 00:00:00 | 00:00:00 | 00:00:00 | |
| DB0DAN | 2026-09-05 17:15:55 | 51.89415 | 15.01606 | 119° | 201km/h | 10895m | 6.8m/s | -48.7°C | 10.8% | 236.25hPa | 2.8V | 00:00:00 | 00:00:00 | 00:00:00 | |
| SP3WXH-11 | 2026-09-05 17:15:54 | 51.89440 | 15.01531 | 117° | 204km/h | 10889m | 5.1m/s | -48.8°C | 11.0% | 236.5hPa | 2.8V | 00:00:00 | 00:00:00 | 00:00:00 | |
| S3001 | 2026-09-05 17:15:48 | 51.89591 | 15.01102 | 122° | 204km/h | 10860m | 8.0m/s | -49.1°C | 12.0% | 237.6hPa | 2.8V | 00:00:00 | 00:00:00 | 00:00:00 | |
| DB0DAN | 2026-09-05 17:15:40 | 51.89814 | 15.00541 | 124° | 192km/h | 10814m | 3.7m/s | -49.2°C | 13.2% | 239.25hPa | 2.8V | 00:00:00 | 00:00:00 | 00:00:00 | |
| SONDE2-11 | 2026-09-05 17:15:39 | 51.89871 | 15.00403 | 123° | 203km/h | 10805m | 6.0m/s | -49.2°C | 13.5% | 239.6hPa | 2.7V | 00:00:00 | 00:00:00 | 00:00:00 | |
| EDDB2-11 | 2026-09-05 17:15:38 | 51.89871 | 15.00403 | 123° | 203km/h | 10805m | 6.0m/s | -49.2°C | 13.5% | 239.6hPa | 2.7V | 00:00:00 | 00:00:00 | 00:00:00 | |
| EDDB2-12 | 2026-09-05 17:15:31 | 51.90082 | 14.99914 | 124° | 204km/h | 10762m | 5.7m/s | -49.1°C | 13.9% | 241.2hPa | 2.7V | 00:00:00 | 00:00:00 | 00:00:00 | |
| SP3WXH-11 | 2026-09-05 17:15:23 | 51.90319 | 14.99357 | 125° | 210km/h | 10725m | 5.4m/s | -48.9°C | 15.2% | 242.5hPa | 2.7V | 00:00:00 | 00:00:00 | 00:00:00 | |
| DB0NH | 2026-09-05 17:15:20 | 51.90412 | 14.99151 | 128° | 217km/h | 10711m | 5.5m/s | -48.9°C | 20.2% | 243.0hPa | 2.7V | 00:00:00 | 00:59:44 | 08:30:00 | |
| DAC517 | 2026-09-05 17:15:19 | 51.90412 | 14.99151 | 128° | 204km/h | 10711m | 5.5m/s | -48.9°C | 16.1% | 243.1hPa | 2.7V | 00:00:00 | 00:00:00 | 00:00:00 | |
| S3001 | 2026-09-05 17:15:17 | 51.90506 | 14.98951 | 126° | 206km/h | 10696m | 4.9m/s | -49.2°C | 17.0% | 243.6hPa | 2.7V | 00:00:00 | 00:00:00 | 00:00:00 | |
| DL2RXE-15 | 2026-09-05 17:15:12 | 51.90635 | 14.98677 | 129° | 217km/h | 10671m | 7.1m/s | -49.3°C | 17.6% | 244.5hPa | 2.7V | 00:00:00 | 00:00:00 | 00:00:00 | |
| DB0DAN | 2026-09-05 17:15:10 | 51.90738 | 14.98468 | 129° | 208km/h | 10653m | 7m/s | -49.3°C | 17.5% | 245.11hPa | 2.7V | 00:00:00 | 00:00:00 | 00:00:00 | |
| SONDE2-11 | 2026-09-05 17:15:08 | 51.90842 | 14.98259 | 128° | 215km/h | 10636m | 6.2m/s | -49.2°C | 17.3% | 245.8hPa | 2.7V | 00:00:00 | 00:00:00 | 00:00:00 | |
| EDDB2-11 | 2026-09-05 17:15:07 | 51.90842 | 14.98259 | 128° | 215km/h | 10636m | 6.2m/s | -49.2°C | 17.3% | 245.8hPa | 2.7V | 00:00:00 | 00:00:00 | 00:00:00 | |
| EDDB2-12 | 2026-09-05 17:15:00 | 51.91073 | 14.97771 | 127° | 217km/h | 10591m | 6.4m/s | -48.9°C | 17.1% | 247.5hPa | 2.7V | 00:00:00 | 00:00:00 | 00:00:00 | |
| DAC517 | 2026-09-05 17:14:58 | 51.91107 | 14.97700 | 129° | 219km/h | 10586m | 5.1m/s | -48.8°C | 17.4% | 247.7hPa | 2.7V | 00:00:00 | 00:00:00 | 00:00:00 | |
| DB0DAN | 2026-09-05 17:14:55 | 51.91247 | 14.97409 | 128° | 214km/h | 10566m | 5.8m/s | -48.8°C | 17.2% | 248.38hPa | 2.7V | 00:00:00 | 00:00:00 | 00:00:00 | |
| SP3WXH-11 | 2026-09-05 17:14:52 | 51.91351 | 14.97193 | 127° | 221km/h | 10549m | 5.1m/s | -48.8°C | 17.3% | 249.0hPa | 2.8V | 00:00:00 | 00:00:00 | 00:00:00 | |
| S3001 | 2026-09-05 17:14:46 | 51.91559 | 14.96763 | 129° | 223km/h | 10515m | 4.9m/s | -48.5°C | 17.6% | 250.3hPa | 2.8V | 00:00:00 | 00:00:00 | 00:00:00 | |
| AA1-15 | 2026-09-05 17:14:23 | 51.92352 | 14.95083 | 127° | 232km/h | 10390m | 5.6m/s | 0°C | 0% | 0hPa | 2.8V | 18:12:15 | 00:58:47 | 00:00:00 | |
| SP3WXH-11 | 2026-09-05 17:14:21 | 51.92423 | 14.94935 | 127° | 226km/h | 10381m | 4.3m/s | -47.6°C | 16.9% | 255.4hPa | 2.9V | 00:00:00 | 00:00:00 | 00:00:00 | |
| DL2RXE-15 | 2026-09-05 17:14:17 | 51.92527 | 14.94717 | 128° | 223km/h | 10367m | 4.8m/s | -47.5°C | 16.9% | 256.0hPa | 2.9V | 00:00:00 | 00:00:00 | 00:00:00 | |
| DAC517 | 2026-09-05 17:14:16 | 51.92561 | 14.94644 | 128° | 223km/h | 10362m | 5.0m/s | -47.6°C | 17.0% | 256.2hPa | 2.9V | 00:00:00 | 00:00:00 | 00:00:00 | |
| S3001 | 2026-09-05 17:14:15 | 51.92631 | 14.94499 | 127° | 226km/h | 10350m | 5.7m/s | -47.5°C | 17.1% | 256.6hPa | 2.9V | 00:00:00 | 00:00:00 | 00:00:00 | |
| EDDB2-11 | 2026-09-05 17:14:05 | 51.92981 | 14.93755 | 127° | 221km/h | 10299m | 3.5m/s | -47.5°C | 18.0% | 258.5hPa | 2.9V | 00:00:00 | 00:00:00 | 00:00:00 | |
| EDDB2-12 | 2026-09-05 17:13:58 | 51.93226 | 14.93216 | 126° | 235km/h | 10267m | 5.8m/s | -47.3°C | 19.0% | 259.7hPa | 2.9V | 00:00:00 | 00:00:00 | 00:00:00 | |
| SP3WXH-11 | 2026-09-05 17:13:50 | 51.93502 | 14.92598 | 125° | 234km/h | 10213m | 8.3m/s | -47.3°C | 18.4% | 261.9hPa | 2.9V | 00:00:00 | 00:00:00 | 00:00:00 | |
| S3001 | 2026-09-05 17:13:44 | 51.93710 | 14.92165 | 128° | 217km/h | 10177m | 3.7m/s | -47.0°C | 18.1% | 263.4hPa | 2.9V | 00:00:00 | 00:00:00 | 00:00:00 | |
| DB0DAN | 2026-09-05 17:13:40 | 51.93851 | 14.91874 | 128° | 223km/h | 10157m | 5.2m/s | -46.9°C | 18% | 264.07hPa | 2.9V | 00:00:00 | 00:00:00 | 00:00:00 | |
| SONDE2-11 | 2026-09-05 17:13:35 | 51.94071 | 14.91413 | 127° | 234km/h | 10130m | 5.0m/s | -46.7°C | 18.4% | 265.2hPa | 2.7V | 00:00:00 | 00:00:00 | 00:00:00 | |
| EDDB2-11 | 2026-09-05 17:13:34 | 51.94071 | 14.91413 | 127° | 234km/h | 10130m | 5.0m/s | -46.7°C | 18.4% | 265.2hPa | 2.7V | 00:00:00 | 00:00:00 | 00:00:00 | |
| DB0DAN | 2026-09-05 17:13:25 | 51.94392 | 14.90756 | 129° | 221km/h | 10082m | 5m/s | -46.4°C | 17.9% | 267.05hPa | 2.7V | 00:00:00 | 00:00:00 | 00:00:00 | |
| SP3WXH-11 | 2026-09-05 17:13:19 | 51.94605 | 14.90309 | 126° | 224km/h | 10047m | 5.1m/s | -46.2°C | 19.3% | 268.5hPa | 2.7V | 00:00:00 | 00:00:00 | 00:00:00 | |
| DB0NH | 2026-09-05 17:13:16 | 51.94708 | 14.90088 | 127° | 230km/h | 10032m | 5.9m/s | -46.1°C | 24.0% | 269.1hPa | 2.7V | 00:00:00 | 00:57:40 | 00:00:00 | |
| DAC517 | 2026-09-05 17:13:15 | 51.94743 | 14.90013 | 128° | 230km/h | 10027m | 4.4m/s | -46.1°C | 19.7% | 269.4hPa | 2.7V | 00:00:00 | 00:00:00 | 00:00:00 | |
| S3001 | 2026-09-05 17:13:13 | 51.94815 | 14.89862 | 127° | 235km/h | 10018m | 4.7m/s | -46.1°C | 19.5% | 269.8hPa | 2.7V | 00:00:00 | 00:00:00 | 00:00:00 | |
| DB0DAN | 2026-09-05 17:13:10 | 51.94926 | 14.89631 | 128° | 228km/h | 10004m | 4.8m/s | -46°C | 19.4% | 270.32hPa | 2.7V | 00:00:00 | 00:00:00 | 00:00:00 | |
| SONDE2-11 | 2026-09-05 17:13:04 | 51.95177 | 14.89106 | 125° | 230km/h | 9959m | 5.2m/s | -45.7°C | 18.9% | 272.2hPa | 2.9V | 00:00:00 | 00:00:00 | 00:00:00 | |
| EDDB2-11 | 2026-09-05 17:13:03 | 51.95177 | 14.89106 | 125° | 230km/h | 9959m | 5.2m/s | -45.7°C | 18.9% | 272.2hPa | 2.9V | 00:00:00 | 00:00:00 | 00:00:00 | |
| SONCRA | 2026-09-05 17:12:58 | 51.95416 | 14.88574 | 128° | 224km/h | 9922m | 7.3m/s | -45.5°C | 18.5% | 273.6hPa | 2.9V | 00:00:00 | 00:00:00 | 00:00:00 | |
| EDDB2-12 | 2026-09-05 17:12:56 | 51.95452 | 14.88502 | 128° | 226km/h | 9915m | 7.0m/s | -45.4°C | 18.6% | 273.9hPa | 2.9V | 00:00:00 | 00:00:00 | 00:00:00 | |
| DB0DAN | 2026-09-05 17:12:55 | 51.95452 | 14.88502 | 128° | 215km/h | 9915m | 7m/s | -45.4°C | 18.6% | 273.93hPa | 2.9V | 00:00:00 | 00:00:00 | 00:00:00 | |
| SP3WXH-11 | 2026-09-05 17:12:48 | 51.95692 | 14.87980 | 125° | 226km/h | 9875m | 6.1m/s | -45.1°C | 19.1% | 275.6hPa | 2.9V | 00:00:00 | 00:00:00 | 00:00:00 | |
| DB0NH | 2026-09-05 17:12:46 | 51.95759 | 14.87830 | 127° | 228km/h | 9865m | 4.1m/s | -45.0°C | 22.7% | 275.9hPa | 2.9V | 00:00:00 | 00:57:10 | 00:00:00 | |
| DB0DAN | 2026-09-05 17:12:40 | 51.95969 | 14.87389 | 128° | 219km/h | 9829m | 6m/s | -44.7°C | 18.2% | 277.34hPa | 2.9V | 00:00:00 | 00:00:00 | 00:00:00 | |
| EDDB2-11 | 2026-09-05 17:12:32 | 51.96250 | 14.86797 | 128° | 221km/h | 9783m | 5.5m/s | -44.5°C | 18.4% | 279.3hPa | 2.9V | 00:00:00 | 00:00:00 | 00:00:00 | |
| DB0DAN | 2026-09-05 17:12:25 | 51.96490 | 14.86284 | 126° | 219km/h | 9752m | 3.8m/s | -44.3°C | 19.4% | 280.63hPa | 2.9V | 00:00:00 | 00:00:00 | 00:00:00 | |
| EDDB2-12 | 2026-09-05 17:12:25 | 51.96524 | 14.86208 | 126° | 228km/h | 9748m | 5.1m/s | -44.3°C | 19.3% | 280.7hPa | 2.7V | 00:00:00 | 00:00:00 | 00:00:00 | |
| SP3WXH-11 | 2026-09-05 17:12:17 | 51.96771 | 14.85679 | 129° | 226km/h | 9709m | 5.3m/s | -44.1°C | 19.0% | 282.4hPa | 2.7V | 00:00:00 | 00:00:00 | 00:00:00 | |
| DB0NH | 2026-09-05 17:12:16 | 51.96808 | 14.85608 | 131° | 230km/h | 9705m | 4.6m/s | -43.9°C | 22.8% | 282.5hPa | 2.7V | 00:00:00 | 00:56:40 | 00:00:00 | |
| DAC517 | 2026-09-05 17:12:12 | 51.96916 | 14.85398 | 130° | 224km/h | 9692m | 4.3m/s | -43.9°C | 19.7% | 283.1hPa | 2.7V | 00:00:00 | 00:00:00 | 00:00:00 | |
| DB0DAN | 2026-09-05 17:12:10 | 51.97019 | 14.85173 | 124° | 223km/h | 9678m | 4.6m/s | -43.7°C | 19.3% | 283.64hPa | 2.7V | 00:00:00 | 00:00:00 | 00:00:00 | |
| DL2RXE-15 | 2026-09-05 17:12:06 | 51.97155 | 14.84853 | 127° | 239km/h | 9659m | 6.5m/s | -43.6°C | 18.6% | 284.5hPa | 2.9V | 00:00:00 | 00:00:00 | 00:00:00 | |
| EDDB2-11 | 2026-09-05 17:12:01 | 51.97333 | 14.84466 | 126° | 228km/h | 9625m | 6.3m/s | -43.3°C | 17.6% | 285.9hPa | 2.9V | 00:00:00 | 00:00:00 | 00:00:00 | |
| EDDB2-12 | 2026-09-05 17:11:54 | 51.97612 | 14.83874 | 128° | 224km/h | 9572m | 4.7m/s | -43.0°C | 18.0% | 288.0hPa | 2.9V | 00:00:00 | 00:00:00 | 00:00:00 | |
| DAC517 | 2026-09-05 17:11:51 | 51.97648 | 14.83801 | 130° | 228km/h | 9567m | 4.8m/s | -42.9°C | 18.3% | 288.2hPa | 2.9V | 00:00:00 | 00:00:00 | 00:00:00 | |
| DB0NH | 2026-09-05 17:11:46 | 51.97864 | 14.83360 | 128° | 226km/h | 9541m | 4.2m/s | -42.8°C | 22.3% | 289.3hPa | 2.9V | 00:00:00 | 00:56:10 | 00:00:00 | |
| S3001 | 2026-09-05 17:11:40 | 51.98105 | 14.82847 | 126° | 232km/h | 9511m | 4.3m/s | -42.6°C | 18.0% | 290.7hPa | 2.9V | 00:00:00 | 00:00:00 | 00:00:00 | |
| DL2RXE-15 | 2026-09-05 17:11:33 | 51.98281 | 14.82465 | 128° | 228km/h | 9488m | 3.3m/s | -42.4°C | 18.7% | 291.7hPa | 2.9V | 00:00:00 | 00:00:00 | 00:00:00 | |
| DAC517 | 2026-09-05 17:11:31 | 51.98352 | 14.82318 | 130° | 224km/h | 9480m | 4.4m/s | -42.3°C | 18.5% | 292.1hPa | 2.9V | 00:00:00 | 00:00:00 | 00:00:00 | |
| EDDB2-11 | 2026-09-05 17:11:30 | 51.98424 | 14.82177 | 129° | 219km/h | 9471m | 5.3m/s | -42.2°C | 18.5% | 292.5hPa | 2.9V | 00:00:00 | 00:00:00 | 00:00:00 | |
| EDDB2-12 | 2026-09-05 17:11:23 | 51.98700 | 14.81590 | 127° | 224km/h | 9427m | 6.7m/s | -41.9°C | 18.2% | 294.4hPa | 2.9V | 00:00:00 | 00:00:00 | 00:00:00 | |
| DB0NH | 2026-09-05 17:11:16 | 51.98905 | 14.81146 | 128° | 228km/h | 9390m | 5.2m/s | -41.5°C | 20.3% | 296.0hPa | 2.9V | 00:00:00 | 00:55:40 | 00:00:00 | |
| SP3WXH-11 | 2026-09-05 17:11:15 | 51.98974 | 14.81001 | 127° | 224km/h | 9380m | 3.5m/s | -41.5°C | -1.0% | -1.0hPa | 2.9V | 00:00:00 | 00:00:00 | 00:00:00 | |
| DL2RXE-15 | 2026-09-05 17:11:12 | 51.99009 | 14.80928 | 129° | 226km/h | 9377m | 4.0m/s | -41.5°C | 16.7% | 296.6hPa | 2.9V | 00:00:00 | 00:00:00 | 00:00:00 | |
| DAC517 | 2026-09-05 17:11:08 | 51.99150 | 14.80628 | 127° | 232km/h | 9362m | 3.2m/s | -41.4°C | 16.8% | 297.2hPa | 2.9V | 00:00:00 | 00:00:00 | 00:00:00 | |
| EDDB2-11 | 2026-09-05 17:10:59 | 51.99529 | 14.79796 | 126° | 230km/h | 9316m | 7.1m/s | -41.0°C | 15.9% | 299.2hPa | 2.9V | 00:00:00 | 00:00:00 | 00:00:00 | |
| EDDB2-12 | 2026-09-05 17:10:52 | 51.99767 | 14.79271 | 127° | 226km/h | 9283m | 4.9m/s | -40.8°C | 15.8% | 300.7hPa | 2.9V | 00:00:00 | 00:00:00 | 00:00:00 | |
| DAC517 | 2026-09-05 17:10:48 | 51.99838 | 14.79126 | 131° | 224km/h | 9273m | 6.0m/s | -40.7°C | 15.2% | 301.1hPa | 2.9V | 00:00:00 | 00:00:00 | 00:00:00 | |
| DB0NH | 2026-09-05 17:10:46 | 51.99947 | 14.78913 | 129° | 228km/h | 9260m | 1.7m/s | 0°C | 0% | 0hPa | 2.9V | 00:00:00 | 00:55:10 | 00:00:00 | |
| S3001 | 2026-09-05 17:10:38 | 52.00271 | 14.78237 | 127° | 228km/h | 9229m | 3.2m/s | -40.5°C | 15.4% | 303.1hPa | 2.9V | 00:00:00 | 00:00:00 | 00:00:00 | |
| DL2RXE-15 | 2026-09-05 17:10:32 | 52.00413 | 14.77941 | 129° | 226km/h | 9211m | 6.5m/s | -40.5°C | 0% | 0hPa | 2.9V | 00:00:00 | 00:00:00 | 00:00:00 | |
| EDDB2-11 | 2026-09-05 17:10:28 | 52.00585 | 14.77571 | 126° | 224km/h | 9187m | 1.9m/s | -40.5°C | 15.7% | 304.9hPa | 2.9V | 00:00:00 | 00:00:00 | 00:00:00 | |
| SP3BTT-10 | 2026-09-05 17:10:27 | 52.00619 | 14.77497 | 127° | 223km/h | 9184m | 4.7m/s | -40.5°C | 18.3% | 304.9hPa | 2.9V | 00:00:00 | 00:00:00 | 00:00:00 | |
| EDDB2-12 | 2026-09-05 17:10:21 | 52.00868 | 14.76973 | 127° | 226km/h | 9156m | 4.5m/s | -40.4°C | 15.2% | 306.2hPa | 2.9V | 00:00:00 | 00:00:00 | 00:00:00 | |
| DB0NH | 2026-09-05 17:10:16 | 52.00998 | 14.76677 | 125° | 224km/h | 9144m | 2.3m/s | 0°C | 0% | 0hPa | 2.9V | 00:00:00 | 00:54:40 | 00:00:00 | |
| DL2RXE-15 | 2026-09-05 17:10:11 | 52.01136 | 14.76371 | 129° | 235km/h | 9126m | 5.4m/s | -40.3°C | 13.7% | 307.6hPa | 2.9V | 00:00:00 | 00:00:00 | 00:00:00 | |
| DAC517 | 2026-09-05 17:10:08 | 52.01246 | 14.76146 | 129° | 232km/h | 9107m | 5.0m/s | -40.2°C | 12.8% | 308.5hPa | 2.9V | 00:00:00 | 00:00:00 | 00:00:00 | |
| S3001 | 2026-09-05 17:10:07 | 52.01353 | 14.75926 | 128° | 223km/h | 9089m | 6.7m/s | -40.1°C | 12.7% | 309.3hPa | 2.9V | 00:00:00 | 00:00:00 | 00:00:00 | |
| EDDB2-11 | 2026-09-05 17:09:57 | 52.01700 | 14.75214 | 128° | 226km/h | 9046m | 4.7m/s | -40.2°C | 14.0% | 311.2hPa | 2.9V | 00:00:00 | 00:00:00 | 00:00:00 | |
| EDDB2-12 | 2026-09-05 17:09:49 | 52.01946 | 14.74711 | 129° | 219km/h | 9018m | 5.7m/s | -40.0°C | 13.6% | 312.5hPa | 2.9V | 00:00:00 | 00:00:00 | 00:00:00 | |
| DAC517 | 2026-09-05 17:09:48 | 52.01946 | 14.74710 | 130° | 221km/h | 9018m | 5.7m/s | -40.0°C | 13.6% | 312.5hPa | 2.9V | 00:00:00 | 00:00:00 | 00:00:00 | |
| DB0NH | 2026-09-05 17:09:46 | 52.02049 | 14.74497 | 127° | 221km/h | 9005m | 4.5m/s | 0°C | 0% | 0hPa | 2.9V | 00:00:00 | 00:54:10 | 00:00:00 | |
| SP3BTT-10 | 2026-09-05 17:09:42 | 52.02181 | 14.74208 | 127° | 219km/h | 8987m | 5.3m/s | -39.9°C | 16.8% | 314.0hPa | 2.9V | 00:00:00 | 00:00:00 | 00:00:00 | |
| DL2RXE-15 | 2026-09-05 17:09:37 | 52.02312 | 14.73927 | 128° | 212km/h | 8970m | 4.2m/s | -39.9°C | 0% | 0hPa | 2.9V | 00:00:00 | 00:00:00 | 00:00:00 | |
| S3001 | 2026-09-05 17:09:36 | 52.02410 | 14.73718 | 126° | 217km/h | 8959m | 3.3m/s | -39.8°C | 14.8% | 315.2hPa | 2.9V | 00:00:00 | 00:00:00 | 00:00:00 | |
| DB0DAN | 2026-09-05 17:09:25 | 52.02727 | 14.72970 | 127° | 204km/h | 8921m | 4.6m/s | -39.6°C | 14.5% | 317.13hPa | 2.9V | 00:00:00 | 00:00:00 | 00:00:00 | |
| DAC517 | 2026-09-05 17:09:24 | 52.02727 | 14.72970 | 128° | 215km/h | 8921m | 4.6m/s | -39.6°C | 14.5% | 317.1hPa | 2.9V | 00:00:00 | 00:00:00 | 00:00:00 | |
| EDDB2-12 | 2026-09-05 17:09:18 | 52.02958 | 14.72467 | 125° | 217km/h | 8878m | 9.4m/s | -39.4°C | 13.6% | 319.0hPa | 2.9V | 00:00:00 | 00:00:00 | 00:00:00 | |
| DL2RXE-15 | 2026-09-05 17:09:16 | 52.02990 | 14.72394 | 126° | 219km/h | 8870m | 7.2m/s | -39.3°C | 13.7% | 319.4hPa | 2.9V | 00:00:00 | 00:00:00 | 00:00:00 | |
| DB0DAN | 2026-09-05 17:09:10 | 52.03214 | 14.71871 | 125° | 206km/h | 8837m | 5.3m/s | -39.1°C | 14.4% | 321hPa | 2.9V | 00:00:00 | 00:00:00 | 00:00:00 | |
| S3001 | 2026-09-05 17:09:05 | 52.03396 | 14.71446 | 124° | 208km/h | 8812m | 3.8m/s | -38.9°C | 14.8% | 322.2hPa | 2.8V | 00:00:00 | 00:00:00 | 00:00:00 | |
| DAC517 | 2026-09-05 17:09:01 | 52.03458 | 14.71302 | 126° | 221km/h | 8803m | 3.0m/s | -38.8°C | 14.8% | 322.6hPa | 2.8V | 00:00:00 | 00:00:00 | 00:00:00 | |
| DB0DAN | 2026-09-05 17:08:55 | 52.03679 | 14.70784 | 124° | 203km/h | 8758m | 5m/s | -38.5°C | 14.8% | 324.73hPa | 2.8V | 00:00:00 | 00:00:00 | 00:00:00 | |
| EDDB2-11 | 2026-09-05 17:08:55 | 52.03709 | 14.70711 | 123° | 212km/h | 8753m | 5.6m/s | -38.5°C | 14.8% | 325.0hPa | 2.9V | 00:00:00 | 00:00:00 | 00:00:00 | |
| SONCRA | 2026-09-05 17:08:48 | 52.03892 | 14.70265 | 123° | 223km/h | 8726m | 5.2m/s | -38.3°C | -1.0% | 326.2hPa | 2.9V | 00:00:00 | 00:00:00 | 00:00:00 | |
| EDDB2-12 | 2026-09-05 17:08:47 | 52.03923 | 14.70189 | 123° | 224km/h | 8722m | 4.1m/s | -38.3°C | 15.0% | 326.5hPa | 2.9V | 00:00:00 | 00:00:00 | 00:00:00 | |
| DB0DAN | 2026-09-05 17:08:40 | 52.04135 | 14.69685 | 126° | 197km/h | 8686m | 5.7m/s | -38°C | 15% | 328.14hPa | 2.9V | 00:00:00 | 00:00:00 | 00:00:00 | |
| S3001 | 2026-09-05 17:08:34 | 52.04352 | 14.69164 | 123° | 221km/h | 8645m | 7.1m/s | -37.7°C | 15.1% | 330.0hPa | 2.9V | 00:00:00 | 00:00:00 | 00:00:00 | |
| DL2RXE-15 | 2026-09-05 17:08:30 | 52.04414 | 14.69014 | 126° | 219km/h | 8633m | 9.4m/s | -37.6°C | 0% | 0hPa | 2.9V | 00:00:00 | 00:00:00 | 00:00:00 | |
| SP3BTT-10 | 2026-09-05 17:08:29 | 52.04477 | 14.68869 | 126° | 212km/h | 8617m | 6.1m/s | -37.4°C | 17.6% | 331.4hPa | 2.9V | 00:00:00 | 00:00:00 | 00:00:00 | |
| DB0DAN | 2026-09-05 17:08:25 | 52.04601 | 14.68584 | 123° | 203km/h | 8593m | 5.2m/s | -37.3°C | 14.8% | 332.64hPa | 2.9V | 00:00:00 | 00:00:00 | 00:00:00 | |
| SONDE2-11 | 2026-09-05 17:08:24 | 52.04630 | 14.68511 | 122° | 214km/h | 8588m | 5.2m/s | -37.2°C | 14.8% | 332.8hPa | 2.9V | 00:00:00 | 00:00:00 | 00:00:00 | |
| EDDB2-12 | 2026-09-05 17:08:16 | 52.04871 | 14.67942 | 126° | 206km/h | 8551m | 4.9m/s | -36.9°C | 15.5% | 334.8hPa | 2.9V | 00:00:00 | 00:00:00 | 00:00:00 | |
| DAC517 | 2026-09-05 17:08:15 | 52.04871 | 14.67942 | 127° | 206km/h | 8551m | 4.9m/s | -36.9°C | 15.5% | 334.8hPa | 2.9V | 00:00:00 | 00:00:00 | 00:00:00 | |
| DB0DAN | 2026-09-05 17:08:10 | 52.05060 | 14.67514 | 124° | 206km/h | 8522m | 5.1m/s | -36.7°C | 16% | 336.13hPa | 2.9V | 00:00:00 | 00:00:00 | 00:00:00 | |
| DL2RXE-15 | 2026-09-05 17:08:09 | 52.05059 | 14.67514 | 125° | 217km/h | 8523m | 5.1m/s | -36.7°C | 0% | 0hPa | 2.8V | 00:00:00 | 00:00:00 | 00:00:00 | |
| SP3BTT-10 | 2026-09-05 17:07:59 | 52.05404 | 14.66727 | 126° | 212km/h | 8467m | 3.7m/s | -36.3°C | 18.0% | 338.7hPa | 2.8V | 00:00:00 | 00:00:00 | 00:00:00 | |
| DB0DAN | 2026-09-05 17:07:55 | 52.05531 | 14.66435 | 124° | 206km/h | 8448m | 5.2m/s | -36.2°C | 15.5% | 339.75hPa | 2.8V | 00:00:00 | 00:00:00 | 00:00:00 | |
| EDDB2-11 | 2026-09-05 17:07:53 | 52.05623 | 14.66218 | 124° | 210km/h | 8433m | 5.4m/s | -36.0°C | 15.8% | 340.5hPa | 2.9V | 00:00:00 | 00:00:00 | 00:00:00 | |
| SONCRA | 2026-09-05 17:07:46 | 52.05833 | 14.65727 | 127° | 208km/h | 8397m | 5.8m/s | -35.8°C | -1.0% | 342.2hPa | 2.9V | 00:00:00 | 00:00:00 | 00:00:00 | |
| EDDB2-12 | 2026-09-05 17:07:45 | 52.05833 | 14.65727 | 127° | 208km/h | 8397m | 5.8m/s | -35.8°C | 15.6% | 342.2hPa | 2.9V | 00:00:00 | 00:00:00 | 00:00:00 | |
| DB0DAN | 2026-09-05 17:07:40 | 52.05995 | 14.65385 | 125° | 201km/h | 8370m | 5.6m/s | -35.6°C | 15.5% | 343.56hPa | 2.9V | 00:00:00 | 00:00:00 | 00:00:00 | |
| DAC517 | 2026-09-05 17:07:33 | 52.06178 | 14.64958 | 126° | 208km/h | 8333m | 4.2m/s | -35.3°C | 15.4% | 345.4hPa | 2.9V | 00:00:00 | 00:00:00 | 00:00:00 | |
| S3001 | 2026-09-05 17:07:31 | 52.06268 | 14.64749 | 124° | 206km/h | 8317m | 6.6m/s | -35.2°C | 15.3% | 346.1hPa | 2.9V | 00:00:00 | 00:00:00 | 00:00:00 | |
| SP3BTT-10 | 2026-09-05 17:07:29 | 52.06327 | 14.64609 | 125° | 206km/h | 8307m | 4.8m/s | -35.0°C | 17.7% | 346.7hPa | 2.9V | 00:00:00 | 00:00:00 | 00:00:00 | |
| DL2RXE-15 | 2026-09-05 17:07:28 | 52.06327 | 14.64609 | 125° | 206km/h | 8307m | 4.8m/s | -35.1°C | 0% | 0hPa | 2.9V | 00:00:00 | 00:00:00 | 00:00:00 | |
| DB0DAN | 2026-09-05 17:07:25 | 52.06442 | 14.64334 | 124° | 193km/h | 8287m | 5.6m/s | -34.9°C | 13.8% | 347.7hPa | 2.9V | 00:00:00 | 00:00:00 | 00:00:00 | |
| EDDB2-11 | 2026-09-05 17:07:22 | 52.06560 | 14.64052 | 124° | 212km/h | 8267m | 4.9m/s | -34.8°C | 10.9% | 348.8hPa | 2.9V | 00:00:00 | 00:00:00 | 00:00:00 | |
| SONCRA | 2026-09-05 17:07:15 | 52.06773 | 14.63547 | 125° | 201km/h | 8231m | 6.5m/s | -34.6°C | -1.0% | 350.5hPa | 2.9V | 00:00:00 | 00:00:00 | 00:00:00 | |
| EDDB2-12 | 2026-09-05 17:07:14 | 52.06773 | 14.63547 | 125° | 201km/h | 8231m | 6.5m/s | -34.6°C | 9.8% | 350.5hPa | 2.9V | 00:00:00 | 00:00:00 | 00:00:00 | |
| DAC517 | 2026-09-05 17:07:13 | 52.06773 | 14.63547 | 126° | 203km/h | 8231m | 6.5m/s | -34.6°C | 9.8% | 350.5hPa | 2.9V | 00:00:00 | 00:00:00 | 00:00:00 | |
| DB0DAN | 2026-09-05 17:07:10 | 52.06892 | 14.63272 | 124° | 201km/h | 8204m | 5.8m/s | -34.4°C | 8.9% | 351.94hPa | 2.9V | 00:00:00 | 00:00:00 | 00:00:00 | |
| DL2RXE-15 | 2026-09-05 17:07:08 | 52.06922 | 14.63201 | 125° | 210km/h | 8197m | 8.0m/s | -34.4°C | 8.7% | 352.2hPa | 2.9V | 00:00:00 | 00:00:00 | 00:00:00 | |
| S3001 | 2026-09-05 17:07:00 | 52.07171 | 14.62567 | 123° | 199km/h | 8141m | 5.2m/s | -33.9°C | 9.0% | 355.1hPa | 2.9V | 00:00:00 | 00:00:00 | 00:00:00 | |
| SP3BTT-10 | 2026-09-05 17:06:59 | 52.07199 | 14.62498 | 126° | 204km/h | 8136m | 4.5m/s | -33.8°C | 10.5% | 355.4hPa | 2.9V | 00:00:00 | 00:00:00 | 00:00:00 | |
| DB0DAN | 2026-09-05 17:06:55 | 52.07323 | 14.62216 | 124° | 199km/h | 8112m | 7.7m/s | -33.7°C | 8.4% | 356.65hPa | 2.9V | 00:00:00 | 00:00:00 | 00:00:00 | |
| EDDB2-11 | 2026-09-05 17:06:51 | 52.07458 | 14.61865 | 122° | 201km/h | 8075m | 7.7m/s | -33.4°C | 7.9% | 358.4hPa | 2.9V | 00:00:00 | 00:00:00 | 00:00:00 | |
| SONCRA | 2026-09-05 17:06:44 | 52.07661 | 14.61383 | 124° | 201km/h | 8024m | 4.6m/s | -33.0°C | -1.0% | -1.0hPa | 2.9V | 00:00:00 | 00:00:00 | 00:00:00 | |
| EDDB2-12 | 2026-09-05 17:06:43 | 52.07661 | 14.61383 | 124° | 201km/h | 8024m | 4.6m/s | -33.0°C | 8.0% | 361.1hPa | 2.9V | 00:00:00 | 00:00:00 | 00:00:00 | |
| DB0DAN | 2026-09-05 17:06:40 | 52.07751 | 14.61180 | 126° | 195km/h | 8001m | 4.7m/s | -32.8°C | 7.9% | 362.24hPa | 2.9V | 00:00:00 | 00:00:00 | 00:00:00 | |
| DL2RXE-15 | 2026-09-05 17:06:34 | 52.07893 | 14.60840 | 125° | 197km/h | 7965m | 9.0m/s | -32.5°C | 0% | 0hPa | 2.8V | 00:00:00 | 00:00:00 | 00:00:00 | |
| DAC517 | 2026-09-05 17:06:31 | 52.07981 | 14.60639 | 127° | 204km/h | 7945m | 6.3m/s | -32.4°C | 8.3% | 365.1hPa | 2.8V | 00:00:00 | 00:00:00 | 00:00:00 | |
| SP3BTT-10 | 2026-09-05 17:06:29 | 52.08075 | 14.60434 | 126° | 201km/h | 7928m | 3.5m/s | -32.2°C | 10.2% | 365.9hPa | 2.8V | 00:00:00 | 00:00:00 | 00:00:00 | |
| EDDB2-11 | 2026-09-05 17:06:20 | 52.08349 | 14.59733 | 124° | 197km/h | 7860m | 7.3m/s | -31.7°C | 8.5% | 369.6hPa | 2.8V | 00:00:00 | 00:00:00 | 00:00:00 | |
| DL2RXE-15 | 2026-09-05 17:06:13 | 52.08496 | 14.59401 | 125° | 204km/h | 7822m | 8.2m/s | -31.3°C | 0% | 0hPa | 2.8V | 00:00:00 | 00:00:00 | 00:00:00 | |
| EDDB2-12 | 2026-09-05 17:06:12 | 52.08554 | 14.59257 | 122° | 212km/h | 7807m | 7.0m/s | -31.2°C | 7.9% | 372.3hPa | 2.8V | 00:00:00 | 00:00:00 | 00:00:00 | |
| DAC517 | 2026-09-05 17:06:11 | 52.08554 | 14.59257 | 124° | 214km/h | 7807m | 7.0m/s | -31.2°C | 7.9% | 372.3hPa | 2.8V | 00:00:00 | 00:00:00 | 00:00:00 | |
| S3001 | 2026-09-05 17:05:58 | 52.08940 | 14.58306 | 124° | 199km/h | 7704m | 5.1m/s | -30.4°C | 8.2% | 377.9hPa | 2.8V | 00:00:00 | 00:00:00 | 00:00:00 | |
| DB0DAN | 2026-09-05 17:05:55 | 52.09026 | 14.58102 | 124° | 192km/h | 7680m | 7m/s | -30.2°C | 8% | 379.2hPa | 2.8V | 00:00:00 | 00:00:00 | 00:00:00 | |
| SONDE2-11 | 2026-09-05 17:05:49 | 52.09222 | 14.57642 | 124° | 199km/h | 7639m | 5.0m/s | -30.0°C | 7.6% | 381.4hPa | 2.9V | 00:00:00 | 00:00:00 | 00:00:00 | |
| EDDB2-11 | 2026-09-05 17:05:48 | 52.09222 | 14.57642 | 124° | 199km/h | 7639m | 5.0m/s | -30.0°C | 7.6% | 381.4hPa | 2.9V | 00:00:00 | 00:00:00 | 00:00:00 | |
| DB0DAN | 2026-09-05 17:05:40 | 52.09443 | 14.57095 | 123° | 181km/h | 7595m | 6.3m/s | -29.9°C | 6.8% | 383.68hPa | 2.9V | 00:00:00 | 00:00:00 | 00:00:00 | |
| DAC517 | 2026-09-05 17:05:29 | 52.09750 | 14.56379 | 124° | 188km/h | 7521m | 8.0m/s | -29.6°C | 6.1% | 387.8hPa | 2.9V | 00:00:00 | 00:00:00 | 00:00:00 | |
| DB0DAN | 2026-09-05 17:05:25 | 52.09853 | 14.56123 | 124° | 175km/h | 7490m | 6.4m/s | -29.4°C | 5.9% | 389.43hPa | 2.9V | 00:00:00 | 00:00:00 | 00:00:00 | |
| EDDB2-11 | 2026-09-05 17:05:18 | 52.10066 | 14.55608 | 122° | 184km/h | 7431m | 8.4m/s | -29.0°C | 5.5% | 392.6hPa | 2.9V | 00:00:00 | 00:00:00 | 00:00:00 | |
| DB0DAN | 2026-09-05 17:05:10 | 52.10240 | 14.55178 | 124° | 173km/h | 7387m | 9.1m/s | -28.8°C | 5.4% | 395.09hPa | 2.9V | 00:00:00 | 00:00:00 | 00:00:00 | |
| DL2RXE-15 | 2026-09-05 17:05:09 | 52.10265 | 14.55116 | 124° | 181km/h | 7379m | 7.4m/s | -28.8°C | 0% | 0hPa | 2.8V | 00:00:00 | 00:00:00 | 00:00:00 | |
| DAC517 | 2026-09-05 17:05:07 | 52.10290 | 14.55053 | 124° | 181km/h | 7372m | 6.2m/s | -28.8°C | 5.3% | 395.9hPa | 2.8V | 00:00:00 | 00:00:00 | 00:00:00 | |
| S3001 | 2026-09-05 17:04:56 | 52.10569 | 14.54327 | 119° | 173km/h | 7284m | 4.3m/s | -28.5°C | 5.4% | 400.8hPa | 2.8V | 00:00:00 | 00:00:00 | 00:00:00 | |
| DB0DAN | 2026-09-05 17:04:55 | 52.10592 | 14.54265 | 120° | 170km/h | 7278m | 8.5m/s | -28.5°C | 5.2% | 401.05hPa | 2.8V | 00:00:00 | 00:00:00 | 00:00:00 | |
| EDDB2-11 | 2026-09-05 17:04:47 | 52.10785 | 14.53732 | 116° | 157km/h | 7215m | 7.5m/s | -28.4°C | 5.2% | 404.7hPa | 2.9V | 00:00:00 | 00:00:00 | 00:00:00 | |
| DAC517 | 2026-09-05 17:04:46 | 52.10767 | 14.53790 | 118° | 155km/h | 7222m | 6.0m/s | -28.5°C | 5.1% | 404.3hPa | 2.9V | 00:00:00 | 00:00:00 | 00:00:00 | |
| DB0DAN | 2026-09-05 17:04:40 | 52.10902 | 14.53383 | 121° | 155km/h | 7176m | 5.6m/s | -28.2°C | 5.2% | 406.85hPa | 2.9V | 00:00:00 | 00:00:00 | 00:00:00 | |
| EDDB2-12 | 2026-09-05 17:04:39 | 52.10923 | 14.53325 | 119° | 162km/h | 7169m | 7.5m/s | -28.2°C | 5.3% | 407.2hPa | 2.9V | 00:00:00 | 00:00:00 | 00:00:00 | |
| DL2RXE-15 | 2026-09-05 17:04:37 | 52.10966 | 14.53206 | 120° | 170km/h | 7157m | 4.1m/s | -28.1°C | 0% | 0hPa | 2.9V | 00:00:00 | 00:00:00 | 00:00:00 | |
| SP3BTT-10 | 2026-09-05 17:04:27 | 52.11166 | 14.52591 | 121° | 157km/h | 7103m | 7.9m/s | -27.9°C | 6.4% | 411.1hPa | 2.9V | 00:00:00 | 00:00:00 | 00:00:00 | |
| S3001 | 2026-09-05 17:04:25 | 52.11207 | 14.52479 | 121° | 159km/h | 7089m | 6.7m/s | -28.0°C | 5.5% | 411.9hPa | 2.9V | 00:00:00 | 00:00:00 | 00:00:00 | |
| DB0DAN | 2026-09-05 17:04:25 | 52.11207 | 14.52479 | 121° | 153km/h | 7089m | 6.7m/s | -28°C | 5.5% | 411.87hPa | 2.9V | 00:00:00 | 00:00:00 | 00:00:00 | |
| DAC517 | 2026-09-05 17:04:23 | 52.11228 | 14.52422 | 122° | 162km/h | 7084m | 3.7m/s | -28.0°C | 5.6% | 412.4hPa | 2.9V | 00:00:00 | 00:00:00 | 00:00:00 | |
| DL2RXE-15 | 2026-09-05 17:04:16 | 52.11392 | 14.51949 | 122° | 161km/h | 7039m | 7.2m/s | -27.9°C | 0% | 0hPa | 2.9V | 00:00:00 | 00:00:00 | 00:00:00 | |
| EDDB2-11 | 2026-09-05 17:04:15 | 52.11413 | 14.51892 | 120° | 159km/h | 7031m | 8.4m/s | -27.9°C | 5.7% | 415.3hPa | 2.9V | 00:00:00 | 00:00:00 | 00:00:00 | |
| DB0DAN | 2026-09-05 17:04:10 | 52.11511 | 14.51616 | 119° | 148km/h | 6996m | 6.7m/s | -27.7°C | 5.9% | 417.29hPa | 2.9V | 00:00:00 | 00:00:00 | 00:00:00 | |
| EDDB2-12 | 2026-09-05 17:04:08 | 52.11550 | 14.51506 | 119° | 151km/h | 6981m | 7.2m/s | -27.7°C | 6.3% | 418.1hPa | 2.8V | 00:00:00 | 00:00:00 | 00:00:00 | |
| DAC517 | 2026-09-05 17:04:02 | 52.11645 | 14.51232 | 121° | 151km/h | 6945m | 7.2m/s | -27.6°C | 7.2% | 420.1hPa | 2.8V | 00:00:00 | 00:00:00 | 00:00:00 | |
| DB0DAN | 2026-09-05 17:03:55 | 52.11789 | 14.50805 | 119° | 131km/h | 6891m | 5.5m/s | -27.4°C | 9.7% | 423.35hPa | 2.8V | 00:00:00 | 00:00:00 | 00:00:00 | |
| S3001 | 2026-09-05 17:03:54 | 52.11806 | 14.50755 | 119° | 139km/h | 6885m | 6.8m/s | -27.4°C | 9.7% | 423.6hPa | 2.9V | 00:00:00 | 00:00:00 | 00:00:00 | |
| DAC517 | 2026-09-05 17:03:42 | 52.11992 | 14.50190 | 118° | 131km/h | 6816m | 4.7m/s | -26.9°C | 11.0% | 427.6hPa | 2.9V | 00:00:00 | 00:00:00 | 00:00:00 | |
| DB0DAN | 2026-09-05 17:03:40 | 52.12039 | 14.50044 | 117° | 131km/h | 6801m | 8.3m/s | -26.7°C | 10.8% | 428.63hPa | 2.9V | 00:00:00 | 00:00:00 | 00:00:00 | |
| DB0DAN | 2026-09-05 17:03:25 | 52.12287 | 14.49289 | 116° | 133km/h | 6704m | 4.9m/s | -25.9°C | 11.2% | 434.5hPa | 2.9V | 00:00:00 | 00:00:00 | 00:00:00 | |
| S3001 | 2026-09-05 17:03:23 | 52.12318 | 14.49187 | 116° | 137km/h | 6691m | 8.0m/s | -25.9°C | 10.8% | 435.2hPa | 2.9V | 00:00:00 | 00:00:00 | 00:00:00 | |
| DL2RXE-15 | 2026-09-05 17:03:22 | 52.12318 | 14.49187 | 118° | 137km/h | 6692m | 8.0m/s | -25.9°C | 0% | 0hPa | 2.9V | 00:00:00 | 00:00:00 | 00:00:00 | |
| SONDE2-11 | 2026-09-05 17:03:14 | 52.12492 | 14.48679 | 115° | 131km/h | 6625m | 4.7m/s | -25.3°C | 9.2% | 439.2hPa | 2.9V | 00:00:00 | 00:00:00 | 00:00:00 | |
| EDDB2-11 | 2026-09-05 17:03:13 | 52.12492 | 14.48679 | 115° | 131km/h | 6625m | 4.7m/s | -25.3°C | 9.2% | 439.2hPa | 2.9V | 00:00:00 | 00:00:00 | 00:00:00 | |
| DB0DAN | 2026-09-05 17:03:10 | 52.12535 | 14.48530 | 115° | 131km/h | 6606m | 5.9m/s | -25.3°C | 8.1% | 440.3hPa | 2.9V | 00:00:00 | 00:00:00 | 00:00:00 | |
| EDDB2-12 | 2026-09-05 17:03:06 | 52.12593 | 14.48322 | 115° | 137km/h | 6581m | 5.3m/s | -25.1°C | 8.0% | 441.8hPa | 2.9V | 00:00:00 | 00:00:00 | 00:00:00 | |
| DAC517 | 2026-09-05 17:03:01 | 52.12658 | 14.48120 | 120° | 142km/h | 6557m | 7.9m/s | -24.9°C | 8.0% | 443.3hPa | 2.9V | 00:00:00 | 00:00:00 | 00:00:00 | |
| DB0DAN | 2026-09-05 17:02:55 | 52.12778 | 14.47774 | 118° | 131km/h | 6508m | 10.1m/s | -24.6°C | 7.2% | 446.08hPa | 2.9V | 00:00:00 | 00:00:00 | 00:00:00 | |
| S3001 | 2026-09-05 17:02:52 | 52.12830 | 14.47619 | 117° | 142km/h | 6489m | 8.0m/s | -24.4°C | 7.2% | 447.4hPa | 2.9V | 00:00:00 | 00:00:00 | 00:00:00 | |
| DL2RXE-15 | 2026-09-05 17:02:50 | 52.12846 | 14.47567 | 118° | 139km/h | 6481m | 7.2m/s | -24.4°C | 0% | 0hPa | 2.9V | 00:00:00 | 00:00:00 | 00:00:00 | |
| DB0DAN | 2026-09-05 17:02:40 | 52.13025 | 14.47014 | 116° | 131km/h | 6410m | 8.1m/s | -23.8°C | 6.8% | 452.21hPa | 2.9V | 00:00:00 | 00:00:00 | 00:00:00 | |
| EDDB2-12 | 2026-09-05 17:02:35 | 52.13105 | 14.46763 | 119° | 139km/h | 6377m | 6.3m/s | -23.5°C | 6.7% | 454.1hPa | 2.9V | 00:00:00 | 00:00:00 | 00:00:00 | |
| DL2RXE-15 | 2026-09-05 17:02:29 | 52.13190 | 14.46518 | 120° | 135km/h | 6345m | 8.0m/s | -23.3°C | 0% | 0hPa | 2.9V | 00:00:00 | 00:00:00 | 00:00:00 | |
| DB0DAN | 2026-09-05 17:02:25 | 52.13266 | 14.46277 | 118° | 130km/h | 6311m | 6.5m/s | -23°C | 6.6% | 458.33hPa | 2.9V | 00:00:00 | 00:00:00 | 00:00:00 | |
| S3001 | 2026-09-05 17:02:21 | 52.13331 | 14.46081 | 116° | 135km/h | 6286m | 7.0m/s | -22.8°C | 7.0% | 459.8hPa | 2.9V | 00:00:00 | 00:00:00 | 00:00:00 | |
| DAC517 | 2026-09-05 17:02:19 | 52.13347 | 14.46031 | 118° | 137km/h | 6279m | 6.2m/s | -22.8°C | 7.0% | 460.3hPa | 2.9V | 00:00:00 | 00:00:00 | 00:00:00 | |
| DB0DAN | 2026-09-05 17:02:10 | 52.13502 | 14.45559 | 118° | 124km/h | 6212m | 7.6m/s | -22.5°C | 6.7% | 464.52hPa | 2.9V | 00:00:00 | 00:00:00 | 00:00:00 | |
| EDDB2-12 | 2026-09-05 17:02:04 | 52.13596 | 14.45274 | 119° | 130km/h | 6171m | 5.3m/s | -22.2°C | 6.2% | 467.3hPa | 2.9V | 00:00:00 | 00:00:00 | 00:00:00 | |
| DAC517 | 2026-09-05 17:01:59 | 52.13656 | 14.45086 | 118° | 131km/h | 6145m | 7.2m/s | -22.0°C | 6.0% | 468.9hPa | 2.9V | 00:00:00 | 00:00:00 | 00:00:00 | |
| DB0DAN | 2026-09-05 17:01:55 | 52.13734 | 14.44852 | 117° | 124km/h | 6112m | 7.1m/s | -21.7°C | 6% | 470.91hPa | 2.9V | 00:00:00 | 00:00:00 | 00:00:00 | |
| S3001 | 2026-09-05 17:01:50 | 52.13807 | 14.44613 | 116° | 130km/h | 6077m | 6.7m/s | -21.6°C | 5.5% | 473.1hPa | 2.9V | 00:00:00 | 00:00:00 | 00:00:00 | |
| DB0DAN | 2026-09-05 17:01:40 | 52.13955 | 14.44160 | 117° | 113km/h | 6013m | 6m/s | -21.4°C | 6.5% | 477.33hPa | 2.9V | 00:00:00 | 00:00:00 | 00:00:00 | |
| DAC517 | 2026-09-05 17:01:38 | 52.13969 | 14.44116 | 118° | 120km/h | 6008m | 4.4m/s | -21.4°C | 6.7% | 477.7hPa | 2.9V | 00:00:00 | 00:00:00 | 00:00:00 | |
| DL2RXE-15 | 2026-09-05 17:01:36 | 52.13995 | 14.44029 | 117° | 115km/h | 5994m | 7.0m/s | -21.3°C | 0% | 0hPa | 2.9V | 00:00:00 | 00:00:00 | 00:00:00 | |
| EDDB2-12 | 2026-09-05 17:01:33 | 52.14048 | 14.43857 | 118° | 115km/h | 5966m | 6.4m/s | -21.1°C | 6.5% | 480.3hPa | 2.9V | 00:00:00 | 00:00:00 | 00:00:00 | |
| DB0DAN | 2026-09-05 17:01:25 | 52.14155 | 14.43514 | 116° | 113km/h | 5913m | 4.6m/s | -20.6°C | 6.2% | 483.91hPa | 2.9V | 00:00:00 | 00:00:00 | 00:00:00 | |
| S3001 | 2026-09-05 17:01:19 | 52.14240 | 14.43260 | 117° | 119km/h | 5870m | 8.6m/s | -20.4°C | 6.1% | 486.5hPa | 2.9V | 00:00:00 | 00:00:00 | 00:00:00 | |
| DAC517 | 2026-09-05 17:01:18 | 52.14240 | 14.43260 | 119° | 119km/h | 5870m | 8.6m/s | -20.4°C | 6.1% | 486.5hPa | 2.9V | 00:00:00 | 00:00:00 | 00:00:00 | |
| DB0DAN | 2026-09-05 17:01:10 | 52.14361 | 14.42858 | 116° | 111km/h | 5816m | 6.1m/s | -20.5°C | 7.9% | 490.15hPa | 2.9V | 00:00:00 | 00:00:00 | 00:00:00 | |
| EDDB2-11 | 2026-09-05 17:01:09 | 52.14374 | 14.42815 | 117° | 119km/h | 5810m | 5.9m/s | -20.5°C | 7.7% | 490.6hPa | 2.9V | 00:00:00 | 00:00:00 | 00:00:00 | |
| DL2RXE-15 | 2026-09-05 17:01:03 | 52.14440 | 14.42606 | 116° | 115km/h | 5778m | 6.2m/s | -20.2°C | 0% | 0hPa | 2.9V | 00:00:00 | 00:00:00 | 00:00:00 | |
| EDDB2-12 | 2026-09-05 17:01:02 | 52.14467 | 14.42520 | 117° | 113km/h | 5766m | 5.9m/s | -20.1°C | 8.1% | 493.4hPa | 2.9V | 00:00:00 | 00:00:00 | 00:00:00 | |
| DAC517 | 2026-09-05 17:00:57 | 52.14515 | 14.42359 | 116° | 110km/h | 5740m | 6.4m/s | -19.9°C | 8.1% | 495.2hPa | 2.9V | 00:00:00 | 00:00:00 | 00:00:00 | |
| DB0DAN | 2026-09-05 17:00:55 | 52.14553 | 14.42240 | 118° | 102km/h | 5720m | 5.8m/s | -19.8°C | 8.3% | 496.52hPa | 2.9V | 00:00:00 | 00:00:00 | 00:00:00 | |
| S3001 | 2026-09-05 17:00:48 | 52.14640 | 14.41952 | 114° | 111km/h | 5676m | 6.8m/s | -19.5°C | 8.6% | 499.4hPa | 2.9V | 00:00:00 | 00:00:00 | 00:00:00 | |
| DL2RXE-15 | 2026-09-05 17:00:42 | 52.14701 | 14.41744 | 116° | 102km/h | 5643m | 4.6m/s | -19.4°C | 0% | 0hPa | 2.9V | 00:00:00 | 00:00:00 | 00:00:00 | |
| EDDB2-11 | 2026-09-05 17:00:38 | 52.14750 | 14.41536 | 109° | 108km/h | 5611m | 7.6m/s | -19.5°C | 8.7% | 503.7hPa | 2.9V | 00:00:00 | 00:00:00 | 00:00:00 | |
| DAC517 | 2026-09-05 17:00:37 | 52.14759 | 14.41495 | 113° | 106km/h | 5605m | 5.0m/s | -19.4°C | 8.6% | 504.2hPa | 2.9V | 00:00:00 | 00:00:00 | 00:00:00 | |
| EDDB2-12 | 2026-09-05 17:00:31 | 52.14818 | 14.41247 | 105° | 99km/h | 5573m | 4.8m/s | -19.4°C | 9.3% | 506.5hPa | 2.9V | 00:00:00 | 00:00:00 | 00:00:00 | |
| SP3BTT-10 | 2026-09-05 17:00:26 | 52.14862 | 14.41054 | 113° | 102km/h | 5544m | 4.6m/s | -19.3°C | 11.6% | 508.4hPa | 2.9V | 00:00:00 | 00:00:00 | 08:30:00 | |
| S3001 | 2026-09-05 17:00:17 | 52.14956 | 14.40662 | 113° | 104km/h | 5480m | 5.7m/s | -19.1°C | 11.1% | 512.8hPa | 2.9V | 00:00:00 | 00:00:00 | 00:00:00 | |
| DAC517 | 2026-09-05 17:00:15 | 52.14956 | 14.40662 | 115° | 104km/h | 5480m | 5.7m/s | -19.1°C | 11.1% | 512.8hPa | 2.9V | 00:00:00 | 00:00:00 | 00:00:00 | |
| DB0DAN | 2026-09-05 17:00:10 | 52.15015 | 14.40431 | 113° | 100km/h | 5447m | 5.6m/s | -18.9°C | 11.5% | 515.15hPa | 2.9V | 00:00:00 | 00:00:00 | 00:00:00 | |
| EDDB2-11 | 2026-09-05 17:00:07 | 52.15048 | 14.40316 | 113° | 99km/h | 5430m | 6.0m/s | -18.8°C | 12.0% | 516.3hPa | 2.9V | 00:00:00 | 00:00:00 | 00:00:00 | |
| EDDB2-12 | 2026-09-05 17:00:00 | 52.15115 | 14.40047 | 111° | 99km/h | 5387m | 6.4m/s | -18.6°C | 11.4% | 519.2hPa | 2.9V | 00:00:00 | 00:00:00 | 00:00:00 | |
| DB0DAN | 2026-09-05 16:59:55 | 52.15165 | 14.39844 | 113° | 99km/h | 5359m | 6.5m/s | -18.5°C | 12.2% | 521.1hPa | 2.9V | 00:00:00 | 00:00:00 | 00:00:00 | |
| S3001 | 2026-09-05 16:59:46 | 52.15257 | 14.39461 | 111° | 97km/h | 5300m | 5.8m/s | -18.7°C | 22.6% | 525.4hPa | 2.9V | 00:00:00 | 00:00:00 | 00:00:00 | |
| DB0DAN | 2026-09-05 16:59:40 | 52.15298 | 14.39276 | 111° | 97km/h | 5270m | 5.3m/s | -18.6°C | 30.6% | 527.48hPa | 2.9V | 00:00:00 | 00:00:00 | 00:00:00 | |
| EDDB2-11 | 2026-09-05 16:59:36 | 52.15335 | 14.39125 | 109° | 93km/h | 5246m | 6.0m/s | -18.5°C | 34.4% | 529.1hPa | 2.8V | 00:00:00 | 00:00:00 | 00:00:00 | |
| EDDB2-12 | 2026-09-05 16:59:29 | 52.15394 | 14.38851 | 110° | 102km/h | 5204m | 6.8m/s | -18.2°C | 36.5% | 532.2hPa | 2.8V | 00:00:00 | 00:00:00 | 00:00:00 | |
| DB0DAN | 2026-09-05 16:59:25 | 52.15431 | 14.38703 | 109° | 93km/h | 5181m | 4.9m/s | -18°C | 36.4% | 533.95hPa | 2.8V | 00:00:00 | 00:00:00 | 00:00:00 | |
| SP3BTT-10 | 2026-09-05 16:59:25 | 52.15430 | 14.38703 | 110° | 97km/h | 5181m | 4.8m/s | -17.9°C | 38.3% | 533.9hPa | 2.9V | 00:00:00 | 00:00:00 | 00:00:00 | |
| S3001 | 2026-09-05 16:59:15 | 52.15521 | 14.38278 | 109° | 93km/h | 5116m | 7.5m/s | -17.5°C | 39.9% | 538.6hPa | 2.9V | 00:00:00 | 00:00:00 | 00:00:00 | |
| DAC517 | 2026-09-05 16:59:12 | 52.15529 | 14.38241 | 110° | 97km/h | 5109m | 6.0m/s | -17.4°C | 40.0% | 538.9hPa | 2.9V | 00:00:00 | 00:00:00 | 00:00:00 | |
| DB0DAN | 2026-09-05 16:59:10 | 52.15552 | 14.38128 | 106° | 89km/h | 5090m | 7.3m/s | -17.2°C | 40.6% | 540.35hPa | 2.9V | 00:00:00 | 00:00:00 | 00:00:00 | |
| DL2RXE-15 | 2026-09-05 16:59:07 | 52.15564 | 14.38051 | 104° | 97km/h | 5078m | 6.5m/s | -17.2°C | 0% | 0hPa | 2.9V | 00:00:00 | 00:00:00 | 00:00:00 | |
| EDDB2-11 | 2026-09-05 16:59:05 | 52.15585 | 14.37934 | 108° | 99km/h | 5060m | 6.0m/s | -17.0°C | 41.5% | 542.4hPa | 2.9V | 00:00:00 | 00:00:00 | 00:00:00 | |
| EDDB2-12 | 2026-09-05 16:58:58 | 52.15641 | 14.37632 | 103° | 91km/h | 5012m | 7.7m/s | -16.6°C | 40.9% | 545.7hPa | 2.9V | 00:00:00 | 00:00:00 | 00:00:00 | |
| SP3BTT-10 | 2026-09-05 16:58:55 | 52.15654 | 14.37556 | 108° | 97km/h | 4997m | 6.0m/s | -16.4°C | 42.9% | 546.8hPa | 2.9V | 00:00:00 | 00:00:00 | 00:00:00 | |
| DAC517 | 2026-09-05 16:58:51 | 52.15675 | 14.37439 | 104° | 95km/h | 4979m | 7.0m/s | -16.3°C | 39.7% | 548.2hPa | 2.9V | 00:00:00 | 00:00:00 | 00:00:00 | |
| DL2RXE-15 | 2026-09-05 16:58:46 | 52.15703 | 14.37245 | 107° | 102km/h | 4951m | 6.3m/s | -16.0°C | 0% | 0hPa | 2.9V | 00:00:00 | 00:00:00 | 00:00:00 | |
| S3001 | 2026-09-05 16:58:44 | 52.15733 | 14.37089 | 108° | 99km/h | 4924m | 6.5m/s | -15.8°C | 40.5% | 552.3hPa | 2.9V | 00:00:00 | 00:00:00 | 00:00:00 | |
| DB0DAN | 2026-09-05 16:58:40 | 52.15755 | 14.36968 | 104° | 97km/h | 4909m | 4.6m/s | -15.6°C | 40.4% | 553.49hPa | 2.9V | 00:00:00 | 00:00:00 | 00:00:00 | |
| EDDB2-11 | 2026-09-05 16:58:34 | 52.15795 | 14.36745 | 108° | 99km/h | 4876m | 5.5m/s | -15.4°C | 41.3% | 555.9hPa | 2.9V | 00:00:00 | 00:00:00 | 00:00:00 | |
| DAC517 | 2026-09-05 16:58:31 | 52.15811 | 14.36666 | 108° | 99km/h | 4864m | 8.0m/s | -15.3°C | 41.5% | 556.9hPa | 2.9V | 00:00:00 | 00:00:00 | 00:00:00 | |
| DB0DAN | 2026-09-05 16:58:25 | 52.15858 | 14.36398 | 104° | 84km/h | 4823m | 5.5m/s | -15°C | 42.1% | 559.87hPa | 2.9V | 00:00:00 | 00:00:00 | 00:00:00 | |
| DB0DAN | 2026-09-05 16:58:10 | 52.15965 | 14.35825 | 108° | 99km/h | 4739m | 6.9m/s | -14.4°C | 41.9% | 566.2hPa | 2.9V | 00:00:00 | 00:00:00 | 00:00:00 | |
| SP3BTT-10 | 2026-09-05 16:58:10 | 52.15965 | 14.35825 | 108° | 99km/h | 4739m | 6.9m/s | -14.3°C | 43.7% | 566.1hPa | 2.9V | 00:00:00 | 00:00:00 | 00:00:00 | |
| DL2RXE-15 | 2026-09-05 16:58:09 | 52.15965 | 14.35825 | 109° | 104km/h | 4739m | 6.9m/s | -14.3°C | 0% | 0hPa | 2.9V | 00:00:00 | 00:00:00 | 00:00:00 | |
| EDDB2-11 | 2026-09-05 16:58:03 | 52.16014 | 14.35555 | 107° | 93km/h | 4696m | 6.3m/s | -14.1°C | 41.5% | 569.5hPa | 2.9V | 00:00:00 | 00:00:00 | 00:00:00 | |
| EDDB2-12 | 2026-09-05 16:57:56 | 52.16080 | 14.35243 | 110° | 99km/h | 4648m | 6.5m/s | -13.8°C | 41.4% | 572.9hPa | 2.9V | 00:00:00 | 00:00:00 | 00:00:00 | |
| DB0DAN | 2026-09-05 16:57:55 | 52.16080 | 14.35243 | 110° | 95km/h | 4648m | 6.5m/s | -13.8°C | 41.4% | 572.92hPa | 2.9V | 00:00:00 | 00:00:00 | 00:00:00 | |
| DAC517 | 2026-09-05 16:57:49 | 52.16117 | 14.35049 | 110° | 97km/h | 4612m | 7.4m/s | -13.5°C | 40.9% | 576.1hPa | 2.9V | 00:00:00 | 00:00:00 | 00:00:00 | |
| SP3BTT-10 | 2026-09-05 16:57:40 | 52.16181 | 14.34665 | 104° | 95km/h | 4555m | 6.9m/s | -13.2°C | 41.6% | 579.8hPa | 2.9V | 00:00:00 | 00:00:00 | 00:00:00 | |
| EDDB2-11 | 2026-09-05 16:57:32 | 52.16227 | 14.34357 | 106° | 89km/h | 4508m | 6.1m/s | -13.1°C | 41.9% | 583.5hPa | 2.9V | 00:00:00 | 00:00:00 | 00:00:00 | |
| DL2RXE-15 | 2026-09-05 16:57:28 | 52.16247 | 14.34257 | 111° | 84km/h | 4491m | 5.9m/s | -13.0°C | 0% | 0hPa | 2.9V | 00:00:00 | 00:00:00 | 00:00:00 | |
| EDDB2-12 | 2026-09-05 16:57:25 | 52.16286 | 14.34071 | 105° | 95km/h | 4459m | 7.2m/s | -12.8°C | 42.5% | 587.3hPa | 2.9V | 00:00:00 | 00:00:00 | 00:00:00 | |
| DL2RXE-15 | 2026-09-05 16:57:08 | 52.16383 | 14.33509 | 106° | 100km/h | 4368m | 4.9m/s | -12.4°C | 0% | 0hPa | 2.9V | 00:00:00 | 00:00:00 | 00:00:00 | |
| DAC517 | 2026-09-05 16:57:05 | 52.16401 | 14.33394 | 105° | 93km/h | 4350m | 6.5m/s | -12.3°C | 44.5% | 595.7hPa | 2.9V | 00:00:00 | 00:00:00 | 00:00:00 | |
| EDDB2-11 | 2026-09-05 16:57:01 | 52.16433 | 14.33207 | 104° | 95km/h | 4317m | 6.5m/s | -12.1°C | 43.6% | 598.2hPa | 2.9V | 00:00:00 | 00:00:00 | 00:00:00 | |
| DB0DAN | 2026-09-05 16:56:55 | 52.16473 | 14.32983 | 104° | 89km/h | 4282m | 6.6m/s | -12°C | 42.7% | 600.97hPa | 2.9V | 00:00:00 | 00:00:00 | 00:00:00 | |
| EDDB2-12 | 2026-09-05 16:56:54 | 52.16487 | 14.32908 | 107° | 93km/h | 4269m | 7.7m/s | -11.9°C | 42.2% | 602.0hPa | 2.9V | 00:00:00 | 00:00:00 | 00:00:00 | |
| DAC517 | 2026-09-05 16:56:43 | 52.16551 | 14.32558 | 108° | 99km/h | 4216m | 6.0m/s | -11.7°C | 41.9% | 606.2hPa | 2.9V | 00:00:00 | 00:00:00 | 00:00:00 | |
| DB0DAN | 2026-09-05 16:56:40 | 52.16581 | 14.32411 | 107° | 89km/h | 4191m | 6.3m/s | -11.6°C | 42.1% | 608.02hPa | 2.9V | 00:00:00 | 00:00:00 | 00:00:00 | |
| S3001 | 2026-09-05 16:56:39 | 52.16595 | 14.32335 | 108° | 99km/h | 4180m | 5.8m/s | -11.6°C | 41.4% | 609.0hPa | 2.9V | 00:00:00 | 00:00:00 | 00:00:00 | |
| DL2RXE-15 | 2026-09-05 16:56:34 | 52.16622 | 14.32219 | 111° | 97km/h | 4164m | 6.2m/s | -11.5°C | 0% | 0hPa | 2.9V | 00:00:00 | 00:00:00 | 00:00:00 | |
| EDDB2-11 | 2026-09-05 16:56:30 | 52.16668 | 14.31997 | 109° | 84km/h | 4128m | 5.7m/s | -11.3°C | 41.1% | 613.1hPa | 2.9V | 00:00:00 | 00:00:00 | 00:00:00 | |
| DB0DAN | 2026-09-05 16:56:25 | 52.16695 | 14.31854 | 107° | 95km/h | 4106m | 3.6m/s | -11.2°C | 44.8% | 614.95hPa | 2.9V | 00:00:00 | 00:00:00 | 00:00:00 | |
| EDDB2-12 | 2026-09-05 16:56:23 | 52.16714 | 14.31737 | 103° | 91km/h | 4089m | 5.6m/s | -11.1°C | 46.0% | 616.4hPa | 2.9V | 00:00:00 | 00:00:00 | 00:00:00 | |
| DAC517 | 2026-09-05 16:56:22 | 52.16720 | 14.31701 | 107° | 88km/h | 4084m | 4.7m/s | -11.1°C | 46.1% | 616.8hPa | 2.9V | 00:00:00 | 00:00:00 | 00:00:00 | |
| DL2RXE-15 | 2026-09-05 16:56:14 | 52.16756 | 14.31478 | 102° | 91km/h | 4049m | 6.0m/s | -10.9°C | 0% | 0hPa | 2.9V | 00:00:00 | 00:00:00 | 00:00:00 | |
| SP3BTT-10 | 2026-09-05 16:56:10 | 52.16785 | 14.31303 | 105° | 84km/h | 4022m | 5.8m/s | -10.6°C | 53.3% | 621.7hPa | 2.9V | 00:00:00 | 00:00:00 | 00:00:00 | |
| DB0DAN | 2026-09-05 16:56:10 | 52.16785 | 14.31303 | 105° | 88km/h | 4022m | 5.8m/s | -10.7°C | 51.5% | 621.75hPa | 2.9V | 00:00:00 | 00:00:00 | 00:00:00 | |
| S3001 | 2026-09-05 16:56:08 | 52.16798 | 14.31230 | 107° | 93km/h | 4010m | 7.2m/s | -10.5°C | 49.7% | 622.6hPa | 2.9V | 00:00:00 | 00:00:00 | 00:00:00 | |
| EDDB2-11 | 2026-09-05 16:55:59 | 52.16853 | 14.30850 | 102° | 88km/h | 3951m | 5.5m/s | -9.1°C | 90.6% | 627.4hPa | 2.9V | 00:00:00 | 00:00:00 | 00:00:00 | |
| EDDB2-12 | 2026-09-05 16:55:52 | 52.16888 | 14.30596 | 100° | 77km/h | 3913m | 4.4m/s | -8.9°C | 91.3% | 630.3hPa | 2.9V | 00:00:00 | 00:00:00 | 00:00:00 | |
| DB0DAN | 2026-09-05 16:55:40 | 52.16919 | 14.30233 | 100° | 78km/h | 3849m | 6.9m/s | -8.4°C | 91.4% | 635.55hPa | 2.9V | 00:00:00 | 00:00:00 | 00:00:00 | |
| SP3BTT-10 | 2026-09-05 16:55:40 | 52.16919 | 14.30232 | 101° | 82km/h | 3849m | 6.9m/s | -8.3°C | 94.1% | 635.5hPa | 2.9V | 00:00:00 | 00:00:00 | 00:00:00 | |
| DL2RXE-15 | 2026-09-05 16:55:37 | 52.16932 | 14.30130 | 104° | 84km/h | 3830m | 6.6m/s | 0°C | 0% | 0hPa | 2.9V | 00:00:00 | 00:00:00 | 00:00:00 | |
| SONDE2-11 | 2026-09-05 16:55:28 | 52.16969 | 14.29827 | 97° | 80km/h | 3776m | 7.9m/s | -7.6°C | 96.9% | 641.7hPa | 2.9V | 00:00:00 | 00:00:00 | 00:00:00 | |
| DB0DAN | 2026-09-05 16:55:25 | 52.16973 | 14.29731 | 90° | 75km/h | 3755m | 5.5m/s | -7.5°C | 97.3% | 643.37hPa | 2.9V | 00:00:00 | 00:00:00 | 00:00:00 | |
| EDDB2-12 | 2026-09-05 16:55:21 | 52.16981 | 14.29564 | 98° | 77km/h | 3725m | 6.8m/s | -7.2°C | 97.3% | 645.8hPa | 2.9V | 00:00:00 | 00:00:00 | 00:00:00 | |
| DAC517 | 2026-09-05 16:55:17 | 52.16986 | 14.29501 | 98° | 77km/h | 3711m | 6.0m/s | -7.2°C | 0% | 646.9hPa | 2.9V | 00:00:00 | 00:00:00 | 00:00:00 | |
| DB0DAN | 2026-09-05 16:55:10 | 52.17007 | 14.29242 | 99° | 75km/h | 3662m | 5.7m/s | -6.9°C | 98.1% | 651.14hPa | 2.9V | 00:00:00 | 00:00:00 | 00:00:00 | |
| SP3BTT-10 | 2026-09-05 16:55:10 | 52.17006 | 14.29242 | 100° | 78km/h | 3662m | 5.7m/s | -6.9°C | 0% | 651.1hPa | 2.9V | 00:00:00 | 00:00:00 | 08:30:00 | |
| S3001 | 2026-09-05 16:55:06 | 52.17021 | 14.29115 | 101° | 78km/h | 3635m | 5.8m/s | 0°C | -1.0% | -1.0hPa | 2.9V | 00:00:00 | 00:00:00 | 00:00:00 | |
| SONDE2-11 | 2026-09-05 16:54:59 | 52.17054 | 14.28817 | 101° | 80km/h | 3580m | 5.7m/s | -6.2°C | 97.8% | 658.0hPa | 2.9V | 00:00:00 | 00:00:00 | 00:00:00 | |
| EDDB2-11 | 2026-09-05 16:54:57 | 52.17058 | 14.28784 | 100° | 78km/h | 3574m | 7.6m/s | -6.2°C | 97.5% | 658.5hPa | 2.9V | 00:00:00 | 00:00:00 | 00:00:00 | |
| DB0DAN | 2026-09-05 16:54:55 | 52.17061 | 14.28752 | 98° | 75km/h | 3566m | 6.9m/s | -6.1°C | 97.5% | 659.2hPa | 2.9V | 00:00:00 | 00:00:00 | 00:00:00 | |
| EDDB2-12 | 2026-09-05 16:54:50 | 52.17082 | 14.28565 | 98° | 73km/h | 3532m | 5.7m/s | -6.0°C | 97.5% | 662.1hPa | 2.9V | 00:00:00 | 00:00:00 | 00:00:00 | |
| DL2RXE-15 | 2026-09-05 16:54:42 | 52.17101 | 14.28378 | 100° | 80km/h | 3495m | 7.8m/s | -5.7°C | 0% | 0hPa | 2.9V | 00:00:00 | 00:00:00 | 00:00:00 | |
| DB0DAN | 2026-09-05 16:54:40 | 52.17113 | 14.28282 | 101° | 73km/h | 3476m | 6.2m/s | -5.7°C | 98.2% | 666.71hPa | 2.9V | 00:00:00 | 00:00:00 | 00:00:00 | |
| DAC517 | 2026-09-05 16:54:36 | 52.17126 | 14.28185 | 106° | 80km/h | 3457m | 5.0m/s | -5.6°C | 0% | 668.4hPa | 2.9V | 00:00:00 | 00:00:00 | 00:00:00 | |
| S3001 | 2026-09-05 16:54:35 | 52.17153 | 14.28028 | 108° | 77km/h | 3428m | 3.8m/s | 0°C | -1.0% | -1.0hPa | 2.9V | 00:00:00 | 00:00:00 | 00:00:00 | |
| EDDB2-11 | 2026-09-05 16:54:26 | 52.17182 | 14.27818 | 100° | 75km/h | 3388m | 4.8m/s | -5.1°C | 98.6% | 674.3hPa | 2.9V | 00:00:00 | 00:00:00 | 00:00:00 | |
| DL2RXE-15 | 2026-09-05 16:54:22 | 52.17190 | 14.27759 | 103° | 71km/h | 3377m | 6.4m/s | -5.1°C | 0% | 0hPa | 2.9V | 00:00:00 | 00:00:00 | 00:00:00 | |
| EDDB2-12 | 2026-09-05 16:54:19 | 52.17209 | 14.27612 | 107° | 77km/h | 3347m | 4.8m/s | -5.0°C | 99.8% | 677.7hPa | 2.9V | 00:00:00 | 00:00:00 | 00:00:00 | |
| DAC517 | 2026-09-05 16:54:15 | 52.17220 | 14.27552 | 106° | 77km/h | 3336m | 5.0m/s | -5.0°C | 0% | 0hPa | 2.9V | 00:00:00 | 00:00:00 | 00:00:00 | |
| DB0DAN | 2026-09-05 16:54:10 | 52.17253 | 14.27368 | 105° | 71km/h | 3303m | 7m/s | -4.8°C | 100% | 681.55hPa | 2.9V | 00:00:00 | 00:00:00 | 00:00:00 | |
| DB0DAN | 2026-09-05 16:53:55 | 52.17320 | 14.26924 | 93° | 68km/h | 3215m | 4m/s | -4.4°C | 100% | 689.22hPa | 2.9V | 00:00:00 | 00:00:00 | 00:00:00 | |
| EDDB2-11 | 2026-09-05 16:53:55 | 52.17321 | 14.26895 | 93° | 71km/h | 3210m | 6.4m/s | -4.3°C | 100.0% | 689.8hPa | 2.9V | 00:00:00 | 00:00:00 | 00:00:00 | |
| DL2RXE-15 | 2026-09-05 16:53:52 | 52.17323 | 14.26866 | 98° | 71km/h | 3203m | 6.1m/s | 0°C | 0% | 0hPa | 2.9V | 00:00:00 | 00:00:00 | 00:00:00 | |
| DAC517 | 2026-09-05 16:53:47 | 52.17340 | 14.26725 | 100° | 71km/h | 3174m | 5.4m/s | 0°C | 0% | 0hPa | 2.9V | 00:00:00 | 00:00:00 | 00:00:00 | |
| DB0DAN | 2026-09-05 16:53:40 | 52.17371 | 14.26493 | 105° | 71km/h | 3126m | 4.8m/s | -3.9°C | 100% | 697.14hPa | 2.9V | 00:00:00 | 00:00:00 | 00:00:00 | |
| DB0DAN | 2026-09-05 16:53:25 | 52.17427 | 14.26060 | 104° | 69km/h | 3029m | 7.9m/s | -3.3°C | 99.2% | 705.72hPa | 2.9V | 00:00:00 | 00:00:00 | 00:00:00 | |
| SP3BTT-10 | 2026-09-05 16:53:25 | 52.17427 | 14.26060 | 105° | 73km/h | 3029m | 7.8m/s | -3.3°C | 0% | 705.7hPa | 2.9V | 00:00:00 | 00:00:00 | 00:00:00 | |
| EDDB2-11 | 2026-09-05 16:53:24 | 52.17436 | 14.26004 | 103° | 69km/h | 3017m | 5.2m/s | -3.3°C | 99.7% | 706.8hPa | 2.9V | 00:00:00 | 00:00:00 | 00:00:00 | |
| EDDB2-12 | 2026-09-05 16:53:16 | 52.17462 | 14.25800 | 103° | 69km/h | 2974m | 4.6m/s | -3.1°C | 100.0% | 710.4hPa | 2.9V | 00:00:00 | 00:00:00 | 00:00:00 | |
| DB0DAN | 2026-09-05 16:53:10 | 52.17485 | 14.25634 | 107° | 66km/h | 2940m | 5m/s | -2.8°C | 99.5% | 713.56hPa | 2.9V | 00:00:00 | 00:00:00 | 00:00:00 | |
| DAC517 | 2026-09-05 16:53:01 | 52.17518 | 14.25403 | 104° | 77km/h | 2889m | 6.4m/s | 0°C | 0% | 0hPa | 2.9V | 00:00:00 | 00:00:00 | 00:00:00 | |
| DL2RXE-15 | 2026-09-05 16:52:59 | 52.17529 | 14.25341 | 108° | 78km/h | 2877m | 6.1m/s | 0°C | 0% | 0hPa | 2.9V | 00:00:00 | 00:00:00 | 00:00:00 | |
| DB0DAN | 2026-09-05 16:52:55 | 52.17556 | 14.25194 | 106° | 71km/h | 2846m | 6.9m/s | -2.4°C | 100% | 721.93hPa | 2.9V | 00:00:00 | 00:00:00 | 00:00:00 | |
| EDDB2-11 | 2026-09-05 16:52:53 | 52.17568 | 14.25105 | 100° | 75km/h | 2826m | 5.2m/s | -2.2°C | 100.0% | 723.7hPa | 2.9V | 00:00:00 | 00:00:00 | 00:00:00 | |
| EDDB2-12 | 2026-09-05 16:52:45 | 52.17598 | 14.24895 | 105° | 78km/h | 2780m | 7.6m/s | -1.8°C | 100.0% | 727.8hPa | 2.9V | 00:00:00 | 00:00:00 | 00:00:00 | |
| DB0DAN | 2026-09-05 16:52:40 | 52.17619 | 14.24741 | 103° | 68km/h | 2747m | 6.2m/s | -1.7°C | 100% | 730.79hPa | 2.9V | 00:00:00 | 00:00:00 | 00:00:00 | |
| DB0DAN | 2026-09-05 16:52:25 | 52.17693 | 14.24304 | 106° | 71km/h | 2651m | 8.4m/s | -1.1°C | 0% | 739.88hPa | 2.9V | 00:00:00 | 00:00:00 | 00:00:00 | |
| SP3BTT-10 | 2026-09-05 16:52:25 | 52.17693 | 14.24304 | 107° | 73km/h | 2651m | 8.4m/s | -1.0°C | 0% | 739.8hPa | 2.9V | 00:00:00 | 00:00:00 | 00:00:00 | |
| SONDE2-11 | 2026-09-05 16:52:22 | 52.17707 | 14.24216 | 105° | 69km/h | 2630m | 6.6m/s | -1.0°C | 100.0% | 742.0hPa | 2.9V | 00:00:00 | 00:00:00 | 00:00:00 | |
| DB0DAN | 2026-09-05 16:52:10 | 52.17777 | 14.23875 | 108° | 71km/h | 2551m | 6.3m/s | 0°C | 0% | 749.56hPa | 2.9V | 00:00:00 | 00:00:00 | 00:00:00 | |
| DB0DAN | 2026-09-05 16:51:55 | 52.17866 | 14.23435 | 106° | 71km/h | 2455m | 6.1m/s | 0°C | 0% | 0hPa | 2.9V | 00:00:00 | 00:00:00 | 00:00:00 | |
| SONDE2-11 | 2026-09-05 16:51:51 | 52.17894 | 14.23285 | 108° | 75km/h | 2426m | 6.0m/s | 0.4°C | 93.3% | 761.1hPa | 0V | 00:00:00 | 00:00:00 | 00:00:00 | |
| EDDB2-11 | 2026-09-05 16:51:50 | 52.17894 | 14.23285 | 108° | 75km/h | 2426m | 6.0m/s | 0.4°C | 93.3% | 761.1hPa | 0V | 00:00:00 | 00:00:00 | 00:00:00 | |
| EDDB2-12 | 2026-09-05 16:51:44 | 52.17941 | 14.23069 | 111° | 84km/h | 2386m | 4.8m/s | 0.7°C | 92.4% | 764.6hPa | 0V | 00:00:00 | 00:00:00 | 00:00:00 | |
| EDDB2-11 | 2026-09-05 16:51:20 | 52.18121 | 14.22284 | 115° | 89km/h | 2248m | 4.6m/s | 1.1°C | 0% | 778.1hPa | 0V | 00:00:00 | 00:00:00 | 00:00:00 | |
| EDDB2-12 | 2026-09-05 16:51:13 | 52.18189 | 14.22055 | 114° | 86km/h | 2211m | 2.9m/s | 1.3°C | 89.4% | 781.8hPa | 0V | 00:00:00 | 00:00:00 | 00:00:00 | |
| SP3BTT-10 | 2026-09-05 16:51:10 | 52.18206 | 14.21992 | 115° | 86km/h | 2201m | 3.2m/s | 0°C | 0% | 0hPa | 0V | 00:00:00 | 00:00:00 | 00:00:00 | |
| SONDE2-11 | 2026-09-05 16:50:49 | 52.18409 | 14.21274 | 115° | 84km/h | 2081m | 5.7m/s | 2.1°C | 87.7% | 794.5hPa | 0V | 00:00:00 | 00:00:00 | 00:00:00 | |
| EDDB2-11 | 2026-09-05 16:50:48 | 52.18409 | 14.21274 | 115° | 84km/h | 2081m | 5.7m/s | 2.1°C | 87.7% | 794.5hPa | 0V | 00:00:00 | 00:00:00 | 00:00:00 | |
| EDDB2-12 | 2026-09-05 16:50:41 | 52.18472 | 14.21058 | 112° | 82km/h | 2044m | 6.3m/s | 2.2°C | 91.4% | 798.3hPa | 0V | 00:00:00 | 00:00:00 | 00:00:00 | |
| SP3BTT-10 | 2026-09-05 16:50:40 | 52.18480 | 14.21026 | 113° | 80km/h | 2040m | 3.1m/s | 0°C | 0% | 0hPa | 0V | 00:00:00 | 00:00:00 | 00:00:00 | |
| SONDE2-11 | 2026-09-05 16:50:18 | 52.18676 | 14.20303 | 114° | 82km/h | 1914m | 6.0m/s | 3.1°C | 90.0% | 810.9hPa | 0V | 00:00:00 | 00:00:00 | 00:00:00 | |
| EDDB2-11 | 2026-09-05 16:50:18 | 52.18676 | 14.20303 | 114° | 82km/h | 1914m | 6.0m/s | 3.1°C | 90.0% | 810.9hPa | 0V | 00:00:00 | 00:00:00 | 00:00:00 | |
| EDDB2-12 | 2026-09-05 16:50:10 | 52.18736 | 14.20085 | 114° | 78km/h | 1877m | 4.9m/s | 3.3°C | 89.7% | 814.8hPa | 0V | 00:00:00 | 00:00:00 | 00:00:00 | |
| SONDE2-11 | 2026-09-05 16:49:47 | 52.18920 | 14.19365 | 112° | 84km/h | 1734m | 6.6m/s | 4.3°C | 82.9% | 828.8hPa | 0V | 00:00:00 | 00:00:00 | 00:00:00 | |
| EDDB2-11 | 2026-09-05 16:49:46 | 52.18920 | 14.19365 | 112° | 84km/h | 1734m | 6.6m/s | 4.3°C | 82.9% | 828.8hPa | 0V | 00:00:00 | 00:00:00 | 00:00:00 | |
| EDDB2-12 | 2026-09-05 16:49:39 | 52.18979 | 14.19146 | 115° | 80km/h | 1692m | 6.5m/s | 4.6°C | 79.4% | 833.0hPa | 0V | 00:00:00 | 00:00:00 | 00:00:00 | |
| SONDE2-11 | 2026-09-05 16:49:16 | 52.19189 | 14.18387 | 106° | 80km/h | 1558m | 7.2m/s | 5.7°C | 82.9% | 847.0hPa | 0V | 00:00:00 | 00:00:00 | 00:00:00 | |
| EDDB2-11 | 2026-09-05 16:49:15 | 52.19189 | 14.18387 | 106° | 80km/h | 1558m | 7.2m/s | 5.7°C | 82.9% | 847.0hPa | 0V | 00:00:00 | 00:00:00 | 00:00:00 | |
| EDDB2-12 | 2026-09-05 16:49:08 | 52.19246 | 14.18175 | 115° | 78km/h | 1513m | 3.8m/s | 6.1°C | 81.1% | 851.7hPa | 0V | 00:00:00 | 00:00:00 | 00:00:00 | |
| SONDE2-11 | 2026-09-05 16:48:45 | 52.19458 | 14.17459 | 115° | 77km/h | 1369m | 6.2m/s | 7.3°C | 74.9% | 866.7hPa | 0V | 00:00:00 | 00:00:00 | 00:00:00 | |
| EDDB2-11 | 2026-09-05 16:48:44 | 52.19458 | 14.17459 | 115° | 77km/h | 1369m | 6.2m/s | 7.3°C | 74.9% | 866.7hPa | 0V | 00:00:00 | 00:00:00 | 00:00:00 | |
| EDDB2-12 | 2026-09-05 16:48:37 | 52.19519 | 14.17258 | 115° | 78km/h | 1326m | 7.3m/s | 7.7°C | 75.0% | 871.3hPa | 0V | 00:00:00 | 00:00:00 | 00:00:00 | |
| SONDE2-11 | 2026-09-05 16:48:14 | 52.19735 | 14.16589 | 118° | 77km/h | 1191m | 6.5m/s | 8.9°C | 69.2% | 885.8hPa | 0V | 00:00:00 | 00:00:00 | 00:00:00 | |
| EDDB2-11 | 2026-09-05 16:48:13 | 52.19735 | 14.16589 | 118° | 77km/h | 1191m | 6.5m/s | 8.9°C | 69.2% | 885.8hPa | 0V | 00:00:00 | 00:00:00 | 00:00:00 | |
| EDDB2-12 | 2026-09-05 16:48:06 | 52.19798 | 14.16389 | 114° | 78km/h | 1153m | 6.0m/s | 9.2°C | 69.6% | 889.8hPa | 0V | 00:00:00 | 00:00:00 | 00:00:00 | |
| SONDE2-11 | 2026-09-05 16:47:43 | 52.20024 | 14.15723 | 121° | 77km/h | 1014m | 5.3m/s | 10.5°C | 65.2% | 905.0hPa | 0V | 00:00:00 | 00:00:00 | 00:00:00 | |
| EDDB2-11 | 2026-09-05 16:47:42 | 52.20024 | 14.15723 | 121° | 77km/h | 1014m | 5.3m/s | 10.5°C | 65.2% | 905.0hPa | 0V | 00:00:00 | 00:00:00 | 00:00:00 | |
| EDDB2-12 | 2026-09-05 16:47:35 | 52.20090 | 14.15531 | 118° | 73km/h | 973m | 4.3m/s | 10.8°C | 67.1% | 909.4hPa | 0V | 00:00:00 | 00:00:00 | 00:00:00 | |
| SONDE2-11 | 2026-09-05 16:47:11 | 52.20315 | 14.14929 | 125° | 71km/h | 835m | 5.7m/s | 11.4°C | 70.8% | 924.4hPa | 0V | 00:00:00 | 00:00:00 | 00:00:00 | |
| EDDB2-11 | 2026-09-05 16:47:11 | 52.20315 | 14.14929 | 125° | 71km/h | 835m | 5.7m/s | 11.4°C | 70.8% | 924.4hPa | 0V | 00:00:00 | 00:00:00 | 00:00:00 | |
| EDDB2-12 | 2026-09-05 16:47:04 | 52.20387 | 14.14761 | 124° | 69km/h | 796m | 4.8m/s | 11.6°C | 71.2% | 928.9hPa | 0V | 00:00:00 | 00:00:00 | 00:00:00 | |
| SONDE2-11 | 2026-09-05 16:46:40 | 52.20588 | 14.14168 | 113° | 68km/h | 661m | 5.5m/s | 12.6°C | 67.9% | 944.2hPa | 0V | 00:00:00 | 00:00:00 | 00:00:00 | |
| EDDB2-11 | 2026-09-05 16:46:40 | 52.20588 | 14.14168 | 113° | 68km/h | 661m | 5.5m/s | 12.6°C | 67.9% | 944.2hPa | 0V | 00:00:00 | 00:00:00 | 00:00:00 | |
| EDDB2-12 | 2026-09-05 16:46:33 | 52.20643 | 14.13983 | 115° | 71km/h | 622m | 8.3m/s | 12.7°C | 69.0% | 948.5hPa | 0V | 00:00:00 | 00:00:00 | 00:00:00 | |
| SONDE2-11 | 2026-09-05 16:46:09 | 52.20786 | 14.13367 | 106° | 64km/h | 497m | 5.2m/s | 13.6°C | 70.6% | 963.2hPa | 0V | 00:00:00 | 00:00:00 | 00:00:00 | |
| EDDB2-11 | 2026-09-05 16:46:09 | 52.20786 | 14.13367 | 106° | 64km/h | 497m | 5.2m/s | 13.6°C | 70.6% | 963.2hPa | 0V | 00:00:00 | 00:00:00 | 00:00:00 | |
| EDDB2-12 | 2026-09-05 16:46:02 | 52.20819 | 14.13186 | 102° | 68km/h | 457m | 7.1m/s | 13.8°C | -1.0% | -1.0hPa | 0V | 00:00:00 | 00:00:00 | 00:00:00 | |
| SONDE2-11 | 2026-09-05 16:45:38 | 52.20878 | 14.12589 | 92° | 57km/h | 341m | 3.4m/s | 13.9°C | -1.0% | -1.0hPa | 0V | 00:00:00 | 00:00:00 | 00:00:00 | |
| EDDB2-11 | 2026-09-05 16:45:38 | 52.20878 | 14.12589 | 92° | 57km/h | 341m | 3.4m/s | 13.9°C | -1.0% | -1.0hPa | 0V | 00:00:00 | 00:00:00 | 00:00:00 | |
| EDDB2-12 | 2026-09-05 16:45:31 | 52.20896 | 14.12454 | 92° | 49km/h | 306m | 4.7m/s | 14.2°C | -1.0% | -1.0hPa | 0V | 00:00:00 | 00:00:00 | 00:00:00 |